<?xml version="1.0" encoding="UTF-8" standalone="no" ?>
<gpx xmlns="http://www.topografix.com/GPX/1/1" xmlns:xsi="http://www.w3.org/2001/XMLSchema-instance" xsi:schemaLocation="http://www.topografix.com/GPX/1/1 http://www.topografix.com/GPX/1/1/gpx.xsd" version="1.1" creator="VisuGPX - https://www.visugpx.com">
  <metadata>
    <name>Sainté Lyon 2010 relais 1 depuis Sorbiers</name>
    <desc><![CDATA[Sainté-Lyon 2010 relais 1 depuis Sorbiers]]></desc>
  </metadata>
  <trk>
    <name><![CDATA[STELYONAA 16:14:51]]></name>
    <trkseg>
      <trkpt lat="45.47437" lon="4.44228">
        <ele>422.16</ele>
        <time>2010-10-21T11:36:23Z</time>
      </trkpt>
      <trkpt lat="45.47438" lon="4.4423">
        <ele>425.52</ele>
        <time>2010-10-21T11:36:49Z</time>
      </trkpt>
      <trkpt lat="45.47439" lon="4.44228">
        <ele>426</ele>
        <time>2010-10-21T11:37:17Z</time>
      </trkpt>
      <trkpt lat="45.47444" lon="4.44228">
        <ele>425.52</ele>
        <time>2010-10-21T11:37:23Z</time>
      </trkpt>
      <trkpt lat="45.47451" lon="4.44237">
        <ele>425.04</ele>
        <time>2010-10-21T11:37:29Z</time>
      </trkpt>
      <trkpt lat="45.47463" lon="4.44242">
        <ele>425.04</ele>
        <time>2010-10-21T11:37:33Z</time>
      </trkpt>
      <trkpt lat="45.47468" lon="4.44243">
        <ele>424.08</ele>
        <time>2010-10-21T11:37:35Z</time>
      </trkpt>
      <trkpt lat="45.47471" lon="4.44243">
        <ele>424.56</ele>
        <time>2010-10-21T11:37:36Z</time>
      </trkpt>
      <trkpt lat="45.47495" lon="4.4426">
        <ele>425.04</ele>
        <time>2010-10-21T11:37:45Z</time>
      </trkpt>
      <trkpt lat="45.47507" lon="4.44266">
        <ele>424.56</ele>
        <time>2010-10-21T11:37:50Z</time>
      </trkpt>
      <trkpt lat="45.47516" lon="4.44274">
        <ele>425.04</ele>
        <time>2010-10-21T11:37:54Z</time>
      </trkpt>
      <trkpt lat="45.47534" lon="4.44282">
        <ele>425.52</ele>
        <time>2010-10-21T11:38:02Z</time>
      </trkpt>
      <trkpt lat="45.47539" lon="4.44285">
        <ele>426</ele>
        <time>2010-10-21T11:38:04Z</time>
      </trkpt>
      <trkpt lat="45.47555" lon="4.44295">
        <ele>426.48</ele>
        <time>2010-10-21T11:38:11Z</time>
      </trkpt>
      <trkpt lat="45.47578" lon="4.44312">
        <ele>427.44</ele>
        <time>2010-10-21T11:38:21Z</time>
      </trkpt>
      <trkpt lat="45.47582" lon="4.44316">
        <ele>426.96</ele>
        <time>2010-10-21T11:38:23Z</time>
      </trkpt>
      <trkpt lat="45.47586" lon="4.44317">
        <ele>427.44</ele>
        <time>2010-10-21T11:38:25Z</time>
      </trkpt>
      <trkpt lat="45.47593" lon="4.44321">
        <ele>427.92</ele>
        <time>2010-10-21T11:38:28Z</time>
      </trkpt>
      <trkpt lat="45.47597" lon="4.44325">
        <ele>427.92</ele>
        <time>2010-10-21T11:38:31Z</time>
      </trkpt>
      <trkpt lat="45.47607" lon="4.44328">
        <ele>427.44</ele>
        <time>2010-10-21T11:38:35Z</time>
      </trkpt>
      <trkpt lat="45.47634" lon="4.44334">
        <ele>428.4</ele>
        <time>2010-10-21T11:38:45Z</time>
      </trkpt>
      <trkpt lat="45.47651" lon="4.44338">
        <ele>429.37</ele>
        <time>2010-10-21T11:38:52Z</time>
      </trkpt>
      <trkpt lat="45.47674" lon="4.44338">
        <ele>428.89</ele>
        <time>2010-10-21T11:39:00Z</time>
      </trkpt>
      <trkpt lat="45.47685" lon="4.44336">
        <ele>429.85</ele>
        <time>2010-10-21T11:39:04Z</time>
      </trkpt>
      <trkpt lat="45.47707" lon="4.44333">
        <ele>429.37</ele>
        <time>2010-10-21T11:39:12Z</time>
      </trkpt>
      <trkpt lat="45.47709" lon="4.44333">
        <ele>429.85</ele>
        <time>2010-10-21T11:39:13Z</time>
      </trkpt>
      <trkpt lat="45.47716" lon="4.44333">
        <ele>430.81</ele>
        <time>2010-10-21T11:39:16Z</time>
      </trkpt>
      <trkpt lat="45.47725" lon="4.44331">
        <ele>430.33</ele>
        <time>2010-10-21T11:39:20Z</time>
      </trkpt>
      <trkpt lat="45.47738" lon="4.4433">
        <ele>432.25</ele>
        <time>2010-10-21T11:39:26Z</time>
      </trkpt>
      <trkpt lat="45.4776" lon="4.4433">
        <ele>431.77</ele>
        <time>2010-10-21T11:39:34Z</time>
      </trkpt>
      <trkpt lat="45.47783" lon="4.44328">
        <ele>432.25</ele>
        <time>2010-10-21T11:39:42Z</time>
      </trkpt>
      <trkpt lat="45.47795" lon="4.44347">
        <ele>432.25</ele>
        <time>2010-10-21T11:39:49Z</time>
      </trkpt>
      <trkpt lat="45.47811" lon="4.44344">
        <ele>432.25</ele>
        <time>2010-10-21T11:39:55Z</time>
      </trkpt>
      <trkpt lat="45.47823" lon="4.44334">
        <ele>432.25</ele>
        <time>2010-10-21T11:40:00Z</time>
      </trkpt>
      <trkpt lat="45.47832" lon="4.44337">
        <ele>433.21</ele>
        <time>2010-10-21T11:40:04Z</time>
      </trkpt>
      <trkpt lat="45.47852" lon="4.44337">
        <ele>433.21</ele>
        <time>2010-10-21T11:40:12Z</time>
      </trkpt>
      <trkpt lat="45.47861" lon="4.44337">
        <ele>434.65</ele>
        <time>2010-10-21T11:40:15Z</time>
      </trkpt>
      <trkpt lat="45.47863" lon="4.44336">
        <ele>433.21</ele>
        <time>2010-10-21T11:40:16Z</time>
      </trkpt>
      <trkpt lat="45.47867" lon="4.44335">
        <ele>433.69</ele>
        <time>2010-10-21T11:40:18Z</time>
      </trkpt>
      <trkpt lat="45.479" lon="4.44342">
        <ele>434.65</ele>
        <time>2010-10-21T11:40:29Z</time>
      </trkpt>
      <trkpt lat="45.47927" lon="4.44347">
        <ele>436.1</ele>
        <time>2010-10-21T11:40:39Z</time>
      </trkpt>
      <trkpt lat="45.47954" lon="4.44352">
        <ele>436.58</ele>
        <time>2010-10-21T11:40:48Z</time>
      </trkpt>
      <trkpt lat="45.4798" lon="4.44354">
        <ele>438.5</ele>
        <time>2010-10-21T11:40:57Z</time>
      </trkpt>
      <trkpt lat="45.47988" lon="4.44357">
        <ele>435.13</ele>
        <time>2010-10-21T11:41:00Z</time>
      </trkpt>
      <trkpt lat="45.48007" lon="4.44366">
        <ele>438.5</ele>
        <time>2010-10-21T11:41:07Z</time>
      </trkpt>
      <trkpt lat="45.4803" lon="4.44378">
        <ele>438.5</ele>
        <time>2010-10-21T11:41:16Z</time>
      </trkpt>
      <trkpt lat="45.48048" lon="4.44391">
        <ele>438.5</ele>
        <time>2010-10-21T11:41:24Z</time>
      </trkpt>
      <trkpt lat="45.4807" lon="4.44403">
        <ele>438.5</ele>
        <time>2010-10-21T11:41:32Z</time>
      </trkpt>
      <trkpt lat="45.48078" lon="4.44406">
        <ele>439.46</ele>
        <time>2010-10-21T11:41:35Z</time>
      </trkpt>
      <trkpt lat="45.48096" lon="4.44417">
        <ele>439.94</ele>
        <time>2010-10-21T11:41:43Z</time>
      </trkpt>
      <trkpt lat="45.48101" lon="4.4442">
        <ele>440.9</ele>
        <time>2010-10-21T11:41:45Z</time>
      </trkpt>
      <trkpt lat="45.48103" lon="4.44421">
        <ele>440.9</ele>
        <time>2010-10-21T11:41:46Z</time>
      </trkpt>
      <trkpt lat="45.48124" lon="4.44438">
        <ele>442.82</ele>
        <time>2010-10-21T11:41:55Z</time>
      </trkpt>
      <trkpt lat="45.48142" lon="4.44455">
        <ele>441.86</ele>
        <time>2010-10-21T11:42:03Z</time>
      </trkpt>
      <trkpt lat="45.48146" lon="4.44465">
        <ele>440.9</ele>
        <time>2010-10-21T11:42:06Z</time>
      </trkpt>
      <trkpt lat="45.48148" lon="4.44466">
        <ele>442.82</ele>
        <time>2010-10-21T11:42:07Z</time>
      </trkpt>
      <trkpt lat="45.48149" lon="4.44467">
        <ele>441.86</ele>
        <time>2010-10-21T11:42:08Z</time>
      </trkpt>
      <trkpt lat="45.4815" lon="4.44466">
        <ele>442.34</ele>
        <time>2010-10-21T11:42:09Z</time>
      </trkpt>
      <trkpt lat="45.48161" lon="4.4447">
        <ele>442.82</ele>
        <time>2010-10-21T11:42:13Z</time>
      </trkpt>
      <trkpt lat="45.48168" lon="4.44473">
        <ele>443.31</ele>
        <time>2010-10-21T11:42:15Z</time>
      </trkpt>
      <trkpt lat="45.48182" lon="4.44491">
        <ele>443.79</ele>
        <time>2010-10-21T11:42:21Z</time>
      </trkpt>
      <trkpt lat="45.48201" lon="4.44519">
        <ele>444.27</ele>
        <time>2010-10-21T11:42:31Z</time>
      </trkpt>
      <trkpt lat="45.48205" lon="4.44526">
        <ele>444.27</ele>
        <time>2010-10-21T11:42:33Z</time>
      </trkpt>
      <trkpt lat="45.48219" lon="4.4455">
        <ele>446.19</ele>
        <time>2010-10-21T11:42:42Z</time>
      </trkpt>
      <trkpt lat="45.48238" lon="4.44575">
        <ele>447.15</ele>
        <time>2010-10-21T11:42:51Z</time>
      </trkpt>
      <trkpt lat="45.4824" lon="4.44579">
        <ele>448.59</ele>
        <time>2010-10-21T11:42:52Z</time>
      </trkpt>
      <trkpt lat="45.48257" lon="4.44611">
        <ele>450.03</ele>
        <time>2010-10-21T11:43:02Z</time>
      </trkpt>
      <trkpt lat="45.48262" lon="4.4462">
        <ele>451.48</ele>
        <time>2010-10-21T11:43:05Z</time>
      </trkpt>
      <trkpt lat="45.48272" lon="4.44649">
        <ele>451.48</ele>
        <time>2010-10-21T11:43:13Z</time>
      </trkpt>
      <trkpt lat="45.4828" lon="4.44664">
        <ele>453.4</ele>
        <time>2010-10-21T11:43:18Z</time>
      </trkpt>
      <trkpt lat="45.48289" lon="4.44693">
        <ele>454.84</ele>
        <time>2010-10-21T11:43:27Z</time>
      </trkpt>
      <trkpt lat="45.48298" lon="4.44719">
        <ele>456.28</ele>
        <time>2010-10-21T11:43:34Z</time>
      </trkpt>
      <trkpt lat="45.48307" lon="4.44734">
        <ele>456.76</ele>
        <time>2010-10-21T11:43:39Z</time>
      </trkpt>
      <trkpt lat="45.48313" lon="4.44743">
        <ele>457.72</ele>
        <time>2010-10-21T11:43:42Z</time>
      </trkpt>
      <trkpt lat="45.48327" lon="4.44766">
        <ele>459.17</ele>
        <time>2010-10-21T11:43:50Z</time>
      </trkpt>
      <trkpt lat="45.48349" lon="4.44802">
        <ele>460.61</ele>
        <time>2010-10-21T11:44:01Z</time>
      </trkpt>
      <trkpt lat="45.48369" lon="4.44827">
        <ele>462.05</ele>
        <time>2010-10-21T11:44:10Z</time>
      </trkpt>
      <trkpt lat="45.48384" lon="4.44847">
        <ele>461.57</ele>
        <time>2010-10-21T11:44:18Z</time>
      </trkpt>
      <trkpt lat="45.48409" lon="4.44879">
        <ele>463.01</ele>
        <time>2010-10-21T11:44:30Z</time>
      </trkpt>
      <trkpt lat="45.48418" lon="4.4489">
        <ele>463.49</ele>
        <time>2010-10-21T11:44:35Z</time>
      </trkpt>
      <trkpt lat="45.48429" lon="4.44907">
        <ele>464.45</ele>
        <time>2010-10-21T11:44:42Z</time>
      </trkpt>
      <trkpt lat="45.48451" lon="4.44928">
        <ele>465.42</ele>
        <time>2010-10-21T11:44:52Z</time>
      </trkpt>
      <trkpt lat="45.48455" lon="4.44932">
        <ele>466.86</ele>
        <time>2010-10-21T11:44:54Z</time>
      </trkpt>
      <trkpt lat="45.4847" lon="4.44947">
        <ele>468.3</ele>
        <time>2010-10-21T11:45:01Z</time>
      </trkpt>
      <trkpt lat="45.4848" lon="4.44952">
        <ele>469.26</ele>
        <time>2010-10-21T11:45:05Z</time>
      </trkpt>
      <trkpt lat="45.48502" lon="4.44962">
        <ele>472.63</ele>
        <time>2010-10-21T11:45:14Z</time>
      </trkpt>
      <trkpt lat="45.48521" lon="4.44971">
        <ele>473.11</ele>
        <time>2010-10-21T11:45:21Z</time>
      </trkpt>
      <trkpt lat="45.48529" lon="4.4497">
        <ele>475.03</ele>
        <time>2010-10-21T11:45:24Z</time>
      </trkpt>
      <trkpt lat="45.48536" lon="4.44967">
        <ele>474.55</ele>
        <time>2010-10-21T11:45:27Z</time>
      </trkpt>
      <trkpt lat="45.4855" lon="4.44965">
        <ele>476.47</ele>
        <time>2010-10-21T11:45:33Z</time>
      </trkpt>
      <trkpt lat="45.48581" lon="4.44956">
        <ele>477.91</ele>
        <time>2010-10-21T11:45:43Z</time>
      </trkpt>
      <trkpt lat="45.48603" lon="4.4495">
        <ele>480.32</ele>
        <time>2010-10-21T11:45:51Z</time>
      </trkpt>
      <trkpt lat="45.48607" lon="4.44949">
        <ele>477.43</ele>
        <time>2010-10-21T11:45:53Z</time>
      </trkpt>
      <trkpt lat="45.48612" lon="4.44947">
        <ele>480.8</ele>
        <time>2010-10-21T11:45:55Z</time>
      </trkpt>
      <trkpt lat="45.48623" lon="4.44945">
        <ele>482.24</ele>
        <time>2010-10-21T11:46:00Z</time>
      </trkpt>
      <trkpt lat="45.48631" lon="4.44942">
        <ele>482.24</ele>
        <time>2010-10-21T11:46:03Z</time>
      </trkpt>
      <trkpt lat="45.48654" lon="4.44932">
        <ele>484.64</ele>
        <time>2010-10-21T11:46:12Z</time>
      </trkpt>
      <trkpt lat="45.48665" lon="4.44933">
        <ele>485.12</ele>
        <time>2010-10-21T11:46:15Z</time>
      </trkpt>
      <trkpt lat="45.48686" lon="4.44927">
        <ele>488.01</ele>
        <time>2010-10-21T11:46:23Z</time>
      </trkpt>
      <trkpt lat="45.48709" lon="4.4492">
        <ele>489.45</ele>
        <time>2010-10-21T11:46:32Z</time>
      </trkpt>
      <trkpt lat="45.48732" lon="4.44916">
        <ele>491.37</ele>
        <time>2010-10-21T11:46:41Z</time>
      </trkpt>
      <trkpt lat="45.48748" lon="4.44917">
        <ele>493.77</ele>
        <time>2010-10-21T11:46:47Z</time>
      </trkpt>
      <trkpt lat="45.48778" lon="4.44919">
        <ele>494.74</ele>
        <time>2010-10-21T11:46:57Z</time>
      </trkpt>
      <trkpt lat="45.48794" lon="4.44922">
        <ele>497.62</ele>
        <time>2010-10-21T11:47:03Z</time>
      </trkpt>
      <trkpt lat="45.48818" lon="4.44934">
        <ele>498.58</ele>
        <time>2010-10-21T11:47:12Z</time>
      </trkpt>
      <trkpt lat="45.48826" lon="4.44941">
        <ele>500.02</ele>
        <time>2010-10-21T11:47:15Z</time>
      </trkpt>
      <trkpt lat="45.48829" lon="4.44946">
        <ele>500.98</ele>
        <time>2010-10-21T11:47:17Z</time>
      </trkpt>
      <trkpt lat="45.48837" lon="4.44953">
        <ele>502.43</ele>
        <time>2010-10-21T11:47:20Z</time>
      </trkpt>
      <trkpt lat="45.48847" lon="4.44969">
        <ele>504.83</ele>
        <time>2010-10-21T11:47:25Z</time>
      </trkpt>
      <trkpt lat="45.48853" lon="4.44998">
        <ele>505.79</ele>
        <time>2010-10-21T11:47:33Z</time>
      </trkpt>
      <trkpt lat="45.48857" lon="4.45028">
        <ele>507.71</ele>
        <time>2010-10-21T11:47:42Z</time>
      </trkpt>
      <trkpt lat="45.48883" lon="4.45033">
        <ele>508.19</ele>
        <time>2010-10-21T11:47:54Z</time>
      </trkpt>
      <trkpt lat="45.48907" lon="4.45027">
        <ele>508.19</ele>
        <time>2010-10-21T11:48:03Z</time>
      </trkpt>
      <trkpt lat="45.48935" lon="4.45045">
        <ele>508.19</ele>
        <time>2010-10-21T11:48:12Z</time>
      </trkpt>
      <trkpt lat="45.48941" lon="4.45043">
        <ele>508.67</ele>
        <time>2010-10-21T11:48:15Z</time>
      </trkpt>
      <trkpt lat="45.48968" lon="4.45041">
        <ele>509.16</ele>
        <time>2010-10-21T11:48:24Z</time>
      </trkpt>
      <trkpt lat="45.48982" lon="4.45031">
        <ele>510.6</ele>
        <time>2010-10-21T11:48:31Z</time>
      </trkpt>
      <trkpt lat="45.48987" lon="4.45027">
        <ele>510.12</ele>
        <time>2010-10-21T11:48:33Z</time>
      </trkpt>
      <trkpt lat="45.49012" lon="4.45019">
        <ele>512.04</ele>
        <time>2010-10-21T11:48:42Z</time>
      </trkpt>
      <trkpt lat="45.49034" lon="4.45013">
        <ele>512.52</ele>
        <time>2010-10-21T11:48:50Z</time>
      </trkpt>
      <trkpt lat="45.49053" lon="4.45008">
        <ele>513</ele>
        <time>2010-10-21T11:48:57Z</time>
      </trkpt>
      <trkpt lat="45.49085" lon="4.45015">
        <ele>515.88</ele>
        <time>2010-10-21T11:49:08Z</time>
      </trkpt>
      <trkpt lat="45.49107" lon="4.45022">
        <ele>517.33</ele>
        <time>2010-10-21T11:49:17Z</time>
      </trkpt>
      <trkpt lat="45.49134" lon="4.45023">
        <ele>518.29</ele>
        <time>2010-10-21T11:49:27Z</time>
      </trkpt>
      <trkpt lat="45.49134" lon="4.45023">
        <ele>518.29</ele>
        <time>2010-10-21T11:49:30Z</time>
      </trkpt>
      <trkpt lat="45.49135" lon="4.45021">
        <ele>518.77</ele>
        <time>2010-10-21T11:49:32Z</time>
      </trkpt>
      <trkpt lat="45.49143" lon="4.4501">
        <ele>519.73</ele>
        <time>2010-10-21T11:49:36Z</time>
      </trkpt>
      <trkpt lat="45.4915" lon="4.44999">
        <ele>521.17</ele>
        <time>2010-10-21T11:49:40Z</time>
      </trkpt>
      <trkpt lat="45.49157" lon="4.44989">
        <ele>522.61</ele>
        <time>2010-10-21T11:49:44Z</time>
      </trkpt>
      <trkpt lat="45.49179" lon="4.44969">
        <ele>526.94</ele>
        <time>2010-10-21T11:49:53Z</time>
      </trkpt>
      <trkpt lat="45.49182" lon="4.44966">
        <ele>526.94</ele>
        <time>2010-10-21T11:49:54Z</time>
      </trkpt>
      <trkpt lat="45.49185" lon="4.44964">
        <ele>524.54</ele>
        <time>2010-10-21T11:49:55Z</time>
      </trkpt>
      <trkpt lat="45.49192" lon="4.44952">
        <ele>526.94</ele>
        <time>2010-10-21T11:49:59Z</time>
      </trkpt>
      <trkpt lat="45.49193" lon="4.44949">
        <ele>526.94</ele>
        <time>2010-10-21T11:50:00Z</time>
      </trkpt>
      <trkpt lat="45.49206" lon="4.44937">
        <ele>528.38</ele>
        <time>2010-10-21T11:50:06Z</time>
      </trkpt>
      <trkpt lat="45.49208" lon="4.44936">
        <ele>530.3</ele>
        <time>2010-10-21T11:50:07Z</time>
      </trkpt>
      <trkpt lat="45.49225" lon="4.44909">
        <ele>531.75</ele>
        <time>2010-10-21T11:50:17Z</time>
      </trkpt>
      <trkpt lat="45.49235" lon="4.44893">
        <ele>533.67</ele>
        <time>2010-10-21T11:50:23Z</time>
      </trkpt>
      <trkpt lat="45.49237" lon="4.44889">
        <ele>533.67</ele>
        <time>2010-10-21T11:50:24Z</time>
      </trkpt>
      <trkpt lat="45.49245" lon="4.44876">
        <ele>535.11</ele>
        <time>2010-10-21T11:50:29Z</time>
      </trkpt>
      <trkpt lat="45.49264" lon="4.44853">
        <ele>537.51</ele>
        <time>2010-10-21T11:50:39Z</time>
      </trkpt>
      <trkpt lat="45.49268" lon="4.44848">
        <ele>537.51</ele>
        <time>2010-10-21T11:50:41Z</time>
      </trkpt>
      <trkpt lat="45.49282" lon="4.44831">
        <ele>538.48</ele>
        <time>2010-10-21T11:50:50Z</time>
      </trkpt>
      <trkpt lat="45.49289" lon="4.44819">
        <ele>537.99</ele>
        <time>2010-10-21T11:50:57Z</time>
      </trkpt>
      <trkpt lat="45.49297" lon="4.44807">
        <ele>539.44</ele>
        <time>2010-10-21T11:51:07Z</time>
      </trkpt>
      <trkpt lat="45.493" lon="4.44802">
        <ele>538.96</ele>
        <time>2010-10-21T11:51:11Z</time>
      </trkpt>
      <trkpt lat="45.49304" lon="4.44798">
        <ele>540.88</ele>
        <time>2010-10-21T11:51:14Z</time>
      </trkpt>
      <trkpt lat="45.49313" lon="4.4479">
        <ele>540.4</ele>
        <time>2010-10-21T11:51:20Z</time>
      </trkpt>
      <trkpt lat="45.4932" lon="4.44779">
        <ele>541.84</ele>
        <time>2010-10-21T11:51:27Z</time>
      </trkpt>
      <trkpt lat="45.49326" lon="4.44774">
        <ele>541.36</ele>
        <time>2010-10-21T11:51:31Z</time>
      </trkpt>
      <trkpt lat="45.49336" lon="4.44757">
        <ele>543.76</ele>
        <time>2010-10-21T11:51:41Z</time>
      </trkpt>
      <trkpt lat="45.49348" lon="4.44743">
        <ele>544.24</ele>
        <time>2010-10-21T11:51:54Z</time>
      </trkpt>
      <trkpt lat="45.49365" lon="4.44725">
        <ele>545.69</ele>
        <time>2010-10-21T11:52:05Z</time>
      </trkpt>
      <trkpt lat="45.49376" lon="4.4471">
        <ele>548.09</ele>
        <time>2010-10-21T11:52:18Z</time>
      </trkpt>
      <trkpt lat="45.49385" lon="4.44701">
        <ele>550.01</ele>
        <time>2010-10-21T11:52:27Z</time>
      </trkpt>
      <trkpt lat="45.49389" lon="4.44694">
        <ele>550.97</ele>
        <time>2010-10-21T11:52:31Z</time>
      </trkpt>
      <trkpt lat="45.49402" lon="4.44676">
        <ele>553.38</ele>
        <time>2010-10-21T11:52:40Z</time>
      </trkpt>
      <trkpt lat="45.49408" lon="4.44669">
        <ele>554.34</ele>
        <time>2010-10-21T11:52:43Z</time>
      </trkpt>
      <trkpt lat="45.49421" lon="4.44654">
        <ele>557.22</ele>
        <time>2010-10-21T11:52:50Z</time>
      </trkpt>
      <trkpt lat="45.49426" lon="4.44649">
        <ele>555.78</ele>
        <time>2010-10-21T11:52:52Z</time>
      </trkpt>
      <trkpt lat="45.4943" lon="4.44644">
        <ele>557.22</ele>
        <time>2010-10-21T11:52:54Z</time>
      </trkpt>
      <trkpt lat="45.49446" lon="4.44627">
        <ele>560.11</ele>
        <time>2010-10-21T11:53:02Z</time>
      </trkpt>
      <trkpt lat="45.49455" lon="4.44616">
        <ele>562.03</ele>
        <time>2010-10-21T11:53:07Z</time>
      </trkpt>
      <trkpt lat="45.49466" lon="4.44605">
        <ele>563.47</ele>
        <time>2010-10-21T11:53:13Z</time>
      </trkpt>
      <trkpt lat="45.49468" lon="4.44602">
        <ele>563.47</ele>
        <time>2010-10-21T11:53:14Z</time>
      </trkpt>
      <trkpt lat="45.4948" lon="4.4459">
        <ele>566.35</ele>
        <time>2010-10-21T11:53:20Z</time>
      </trkpt>
      <trkpt lat="45.49491" lon="4.44579">
        <ele>566.83</ele>
        <time>2010-10-21T11:53:26Z</time>
      </trkpt>
      <trkpt lat="45.49502" lon="4.44572">
        <ele>569.24</ele>
        <time>2010-10-21T11:53:30Z</time>
      </trkpt>
      <trkpt lat="45.49509" lon="4.44568">
        <ele>566.83</ele>
        <time>2010-10-21T11:53:33Z</time>
      </trkpt>
      <trkpt lat="45.49539" lon="4.44555">
        <ele>567.8</ele>
        <time>2010-10-21T11:53:43Z</time>
      </trkpt>
      <trkpt lat="45.49553" lon="4.44552">
        <ele>567.8</ele>
        <time>2010-10-21T11:53:49Z</time>
      </trkpt>
      <trkpt lat="45.49561" lon="4.44553">
        <ele>567.32</ele>
        <time>2010-10-21T11:53:53Z</time>
      </trkpt>
      <trkpt lat="45.49563" lon="4.44553">
        <ele>567.8</ele>
        <time>2010-10-21T11:53:54Z</time>
      </trkpt>
      <trkpt lat="45.49565" lon="4.44553">
        <ele>567.32</ele>
        <time>2010-10-21T11:53:55Z</time>
      </trkpt>
      <trkpt lat="45.49567" lon="4.44553">
        <ele>567.32</ele>
        <time>2010-10-21T11:53:56Z</time>
      </trkpt>
      <trkpt lat="45.49569" lon="4.44553">
        <ele>567.8</ele>
        <time>2010-10-21T11:53:57Z</time>
      </trkpt>
      <trkpt lat="45.49596" lon="4.44554">
        <ele>567.32</ele>
        <time>2010-10-21T11:54:07Z</time>
      </trkpt>
      <trkpt lat="45.4961" lon="4.44553">
        <ele>567.32</ele>
        <time>2010-10-21T11:54:12Z</time>
      </trkpt>
      <trkpt lat="45.49614" lon="4.44551">
        <ele>566.83</ele>
        <time>2010-10-21T11:54:13Z</time>
      </trkpt>
      <trkpt lat="45.49645" lon="4.44545">
        <ele>566.83</ele>
        <time>2010-10-21T11:54:23Z</time>
      </trkpt>
      <trkpt lat="45.49676" lon="4.44538">
        <ele>568.28</ele>
        <time>2010-10-21T11:54:33Z</time>
      </trkpt>
      <trkpt lat="45.49679" lon="4.44537">
        <ele>567.32</ele>
        <time>2010-10-21T11:54:34Z</time>
      </trkpt>
      <trkpt lat="45.49681" lon="4.44537">
        <ele>567.32</ele>
        <time>2010-10-21T11:54:35Z</time>
      </trkpt>
      <trkpt lat="45.49684" lon="4.44537">
        <ele>567.8</ele>
        <time>2010-10-21T11:54:36Z</time>
      </trkpt>
      <trkpt lat="45.49707" lon="4.44533">
        <ele>571.64</ele>
        <time>2010-10-21T11:54:44Z</time>
      </trkpt>
      <trkpt lat="45.49725" lon="4.44531">
        <ele>568.76</ele>
        <time>2010-10-21T11:54:50Z</time>
      </trkpt>
      <trkpt lat="45.49739" lon="4.44529">
        <ele>568.28</ele>
        <time>2010-10-21T11:54:56Z</time>
      </trkpt>
      <trkpt lat="45.49742" lon="4.44529">
        <ele>568.28</ele>
        <time>2010-10-21T11:54:57Z</time>
      </trkpt>
      <trkpt lat="45.49745" lon="4.44528">
        <ele>570.2</ele>
        <time>2010-10-21T11:54:58Z</time>
      </trkpt>
      <trkpt lat="45.49747" lon="4.44528">
        <ele>569.72</ele>
        <time>2010-10-21T11:54:59Z</time>
      </trkpt>
      <trkpt lat="45.4975" lon="4.44527">
        <ele>569.72</ele>
        <time>2010-10-21T11:55:00Z</time>
      </trkpt>
      <trkpt lat="45.49752" lon="4.44527">
        <ele>569.24</ele>
        <time>2010-10-21T11:55:01Z</time>
      </trkpt>
      <trkpt lat="45.49755" lon="4.44527">
        <ele>569.24</ele>
        <time>2010-10-21T11:55:02Z</time>
      </trkpt>
      <trkpt lat="45.49783" lon="4.44524">
        <ele>571.64</ele>
        <time>2010-10-21T11:55:12Z</time>
      </trkpt>
      <trkpt lat="45.49807" lon="4.44523">
        <ele>570.68</ele>
        <time>2010-10-21T11:55:21Z</time>
      </trkpt>
      <trkpt lat="45.49836" lon="4.44521">
        <ele>571.16</ele>
        <time>2010-10-21T11:55:31Z</time>
      </trkpt>
      <trkpt lat="45.49865" lon="4.4452">
        <ele>572.6</ele>
        <time>2010-10-21T11:55:40Z</time>
      </trkpt>
      <trkpt lat="45.49889" lon="4.44522">
        <ele>575.49</ele>
        <time>2010-10-21T11:55:49Z</time>
      </trkpt>
      <trkpt lat="45.49899" lon="4.44523">
        <ele>574.04</ele>
        <time>2010-10-21T11:55:53Z</time>
      </trkpt>
      <trkpt lat="45.49912" lon="4.44529">
        <ele>576.93</ele>
        <time>2010-10-21T11:55:59Z</time>
      </trkpt>
      <trkpt lat="45.49913" lon="4.44531">
        <ele>576.93</ele>
        <time>2010-10-21T11:56:00Z</time>
      </trkpt>
      <trkpt lat="45.49922" lon="4.44535">
        <ele>577.41</ele>
        <time>2010-10-21T11:56:04Z</time>
      </trkpt>
      <trkpt lat="45.4993" lon="4.44542">
        <ele>578.85</ele>
        <time>2010-10-21T11:56:10Z</time>
      </trkpt>
      <trkpt lat="45.49949" lon="4.44549">
        <ele>581.25</ele>
        <time>2010-10-21T11:56:20Z</time>
      </trkpt>
      <trkpt lat="45.49954" lon="4.44548">
        <ele>583.18</ele>
        <time>2010-10-21T11:56:23Z</time>
      </trkpt>
      <trkpt lat="45.49973" lon="4.44548">
        <ele>584.14</ele>
        <time>2010-10-21T11:56:31Z</time>
      </trkpt>
      <trkpt lat="45.49975" lon="4.44547">
        <ele>583.66</ele>
        <time>2010-10-21T11:56:32Z</time>
      </trkpt>
      <trkpt lat="45.49978" lon="4.44546">
        <ele>585.1</ele>
        <time>2010-10-21T11:56:34Z</time>
      </trkpt>
      <trkpt lat="45.4998" lon="4.44547">
        <ele>585.1</ele>
        <time>2010-10-21T11:56:35Z</time>
      </trkpt>
      <trkpt lat="45.49982" lon="4.44548">
        <ele>586.54</ele>
        <time>2010-10-21T11:56:36Z</time>
      </trkpt>
      <trkpt lat="45.49983" lon="4.44548">
        <ele>586.54</ele>
        <time>2010-10-21T11:56:37Z</time>
      </trkpt>
      <trkpt lat="45.5" lon="4.4455">
        <ele>589.91</ele>
        <time>2010-10-21T11:56:45Z</time>
      </trkpt>
      <trkpt lat="45.50003" lon="4.4455">
        <ele>589.43</ele>
        <time>2010-10-21T11:56:46Z</time>
      </trkpt>
      <trkpt lat="45.50021" lon="4.44551">
        <ele>592.79</ele>
        <time>2010-10-21T11:56:54Z</time>
      </trkpt>
      <trkpt lat="45.50038" lon="4.44546">
        <ele>595.67</ele>
        <time>2010-10-21T11:57:01Z</time>
      </trkpt>
      <trkpt lat="45.50065" lon="4.44542">
        <ele>599.04</ele>
        <time>2010-10-21T11:57:10Z</time>
      </trkpt>
      <trkpt lat="45.50078" lon="4.4454">
        <ele>600.96</ele>
        <time>2010-10-21T11:57:15Z</time>
      </trkpt>
      <trkpt lat="45.50094" lon="4.44546">
        <ele>603.85</ele>
        <time>2010-10-21T11:57:21Z</time>
      </trkpt>
      <trkpt lat="45.50126" lon="4.44552">
        <ele>606.73</ele>
        <time>2010-10-21T11:57:30Z</time>
      </trkpt>
      <trkpt lat="45.50134" lon="4.44556">
        <ele>604.81</ele>
        <time>2010-10-21T11:57:33Z</time>
      </trkpt>
      <trkpt lat="45.50155" lon="4.44572">
        <ele>608.65</ele>
        <time>2010-10-21T11:57:42Z</time>
      </trkpt>
      <trkpt lat="45.50177" lon="4.44586">
        <ele>611.54</ele>
        <time>2010-10-21T11:57:52Z</time>
      </trkpt>
      <trkpt lat="45.50183" lon="4.44589">
        <ele>612.5</ele>
        <time>2010-10-21T11:57:54Z</time>
      </trkpt>
      <trkpt lat="45.50205" lon="4.44605">
        <ele>614.9</ele>
        <time>2010-10-21T11:58:04Z</time>
      </trkpt>
      <trkpt lat="45.5023" lon="4.44625">
        <ele>617.3</ele>
        <time>2010-10-21T11:58:15Z</time>
      </trkpt>
      <trkpt lat="45.50248" lon="4.44638">
        <ele>619.71</ele>
        <time>2010-10-21T11:58:23Z</time>
      </trkpt>
      <trkpt lat="45.50257" lon="4.4465">
        <ele>620.67</ele>
        <time>2010-10-21T11:58:28Z</time>
      </trkpt>
      <trkpt lat="45.5026" lon="4.44653">
        <ele>622.59</ele>
        <time>2010-10-21T11:58:30Z</time>
      </trkpt>
      <trkpt lat="45.50263" lon="4.44658">
        <ele>620.67</ele>
        <time>2010-10-21T11:58:32Z</time>
      </trkpt>
      <trkpt lat="45.50283" lon="4.44671">
        <ele>624.51</ele>
        <time>2010-10-21T11:58:41Z</time>
      </trkpt>
      <trkpt lat="45.50288" lon="4.44673">
        <ele>625.47</ele>
        <time>2010-10-21T11:58:43Z</time>
      </trkpt>
      <trkpt lat="45.50308" lon="4.44685">
        <ele>629.32</ele>
        <time>2010-10-21T11:58:52Z</time>
      </trkpt>
      <trkpt lat="45.50311" lon="4.44686">
        <ele>629.32</ele>
        <time>2010-10-21T11:58:53Z</time>
      </trkpt>
      <trkpt lat="45.50331" lon="4.44696">
        <ele>632.68</ele>
        <time>2010-10-21T11:59:02Z</time>
      </trkpt>
      <trkpt lat="45.50343" lon="4.44702">
        <ele>634.61</ele>
        <time>2010-10-21T11:59:07Z</time>
      </trkpt>
      <trkpt lat="45.50358" lon="4.44706">
        <ele>635.57</ele>
        <time>2010-10-21T11:59:13Z</time>
      </trkpt>
      <trkpt lat="45.50382" lon="4.44718">
        <ele>639.41</ele>
        <time>2010-10-21T11:59:23Z</time>
      </trkpt>
      <trkpt lat="45.50399" lon="4.44732">
        <ele>641.82</ele>
        <time>2010-10-21T11:59:31Z</time>
      </trkpt>
      <trkpt lat="45.5043" lon="4.4475">
        <ele>641.34</ele>
        <time>2010-10-21T11:59:43Z</time>
      </trkpt>
      <trkpt lat="45.50452" lon="4.4476">
        <ele>640.38</ele>
        <time>2010-10-21T11:59:52Z</time>
      </trkpt>
      <trkpt lat="45.5048" lon="4.44773">
        <ele>639.41</ele>
        <time>2010-10-21T12:00:03Z</time>
      </trkpt>
      <trkpt lat="45.50504" lon="4.44785">
        <ele>639.89</ele>
        <time>2010-10-21T12:00:12Z</time>
      </trkpt>
      <trkpt lat="45.50519" lon="4.44789">
        <ele>638.93</ele>
        <time>2010-10-21T12:00:18Z</time>
      </trkpt>
      <trkpt lat="45.5054" lon="4.44792">
        <ele>639.89</ele>
        <time>2010-10-21T12:00:26Z</time>
      </trkpt>
      <trkpt lat="45.50552" lon="4.44792">
        <ele>638.93</ele>
        <time>2010-10-21T12:00:31Z</time>
      </trkpt>
      <trkpt lat="45.50574" lon="4.44799">
        <ele>638.93</ele>
        <time>2010-10-21T12:00:40Z</time>
      </trkpt>
      <trkpt lat="45.50582" lon="4.44803">
        <ele>640.38</ele>
        <time>2010-10-21T12:00:43Z</time>
      </trkpt>
      <trkpt lat="45.50603" lon="4.44806">
        <ele>639.89</ele>
        <time>2010-10-21T12:00:52Z</time>
      </trkpt>
      <trkpt lat="45.50626" lon="4.4481">
        <ele>641.34</ele>
        <time>2010-10-21T12:01:02Z</time>
      </trkpt>
      <trkpt lat="45.50646" lon="4.44811">
        <ele>642.78</ele>
        <time>2010-10-21T12:01:09Z</time>
      </trkpt>
      <trkpt lat="45.50649" lon="4.44811">
        <ele>642.3</ele>
        <time>2010-10-21T12:01:10Z</time>
      </trkpt>
      <trkpt lat="45.50651" lon="4.44812">
        <ele>640.86</ele>
        <time>2010-10-21T12:01:11Z</time>
      </trkpt>
      <trkpt lat="45.50653" lon="4.44812">
        <ele>641.34</ele>
        <time>2010-10-21T12:01:12Z</time>
      </trkpt>
      <trkpt lat="45.50655" lon="4.44812">
        <ele>641.34</ele>
        <time>2010-10-21T12:01:13Z</time>
      </trkpt>
      <trkpt lat="45.50657" lon="4.44812">
        <ele>640.86</ele>
        <time>2010-10-21T12:01:14Z</time>
      </trkpt>
      <trkpt lat="45.5066" lon="4.44812">
        <ele>641.82</ele>
        <time>2010-10-21T12:01:15Z</time>
      </trkpt>
      <trkpt lat="45.50662" lon="4.44811">
        <ele>641.82</ele>
        <time>2010-10-21T12:01:16Z</time>
      </trkpt>
      <trkpt lat="45.50664" lon="4.4481">
        <ele>641.82</ele>
        <time>2010-10-21T12:01:17Z</time>
      </trkpt>
      <trkpt lat="45.50689" lon="4.44802">
        <ele>642.78</ele>
        <time>2010-10-21T12:01:27Z</time>
      </trkpt>
      <trkpt lat="45.50712" lon="4.44805">
        <ele>643.26</ele>
        <time>2010-10-21T12:01:37Z</time>
      </trkpt>
      <trkpt lat="45.50733" lon="4.44824">
        <ele>643.74</ele>
        <time>2010-10-21T12:01:48Z</time>
      </trkpt>
      <trkpt lat="45.50739" lon="4.44829">
        <ele>644.22</ele>
        <time>2010-10-21T12:01:52Z</time>
      </trkpt>
      <trkpt lat="45.50756" lon="4.44834">
        <ele>643.74</ele>
        <time>2010-10-21T12:02:00Z</time>
      </trkpt>
      <trkpt lat="45.50758" lon="4.44833">
        <ele>645.18</ele>
        <time>2010-10-21T12:02:01Z</time>
      </trkpt>
      <trkpt lat="45.5076" lon="4.44833">
        <ele>645.66</ele>
        <time>2010-10-21T12:02:02Z</time>
      </trkpt>
      <trkpt lat="45.50763" lon="4.44833">
        <ele>644.22</ele>
        <time>2010-10-21T12:02:03Z</time>
      </trkpt>
      <trkpt lat="45.50766" lon="4.44833">
        <ele>645.66</ele>
        <time>2010-10-21T12:02:04Z</time>
      </trkpt>
      <trkpt lat="45.50769" lon="4.44834">
        <ele>645.66</ele>
        <time>2010-10-21T12:02:05Z</time>
      </trkpt>
      <trkpt lat="45.50795" lon="4.44835">
        <ele>646.14</ele>
        <time>2010-10-21T12:02:15Z</time>
      </trkpt>
      <trkpt lat="45.50797" lon="4.44836">
        <ele>646.62</ele>
        <time>2010-10-21T12:02:16Z</time>
      </trkpt>
      <trkpt lat="45.50799" lon="4.44837">
        <ele>646.62</ele>
        <time>2010-10-21T12:02:17Z</time>
      </trkpt>
      <trkpt lat="45.50801" lon="4.44837">
        <ele>646.14</ele>
        <time>2010-10-21T12:02:18Z</time>
      </trkpt>
      <trkpt lat="45.50803" lon="4.44837">
        <ele>647.59</ele>
        <time>2010-10-21T12:02:19Z</time>
      </trkpt>
      <trkpt lat="45.50805" lon="4.44837">
        <ele>647.59</ele>
        <time>2010-10-21T12:02:20Z</time>
      </trkpt>
      <trkpt lat="45.50808" lon="4.44837">
        <ele>647.59</ele>
        <time>2010-10-21T12:02:21Z</time>
      </trkpt>
      <trkpt lat="45.5081" lon="4.44837">
        <ele>648.55</ele>
        <time>2010-10-21T12:02:22Z</time>
      </trkpt>
      <trkpt lat="45.50812" lon="4.44838">
        <ele>648.07</ele>
        <time>2010-10-21T12:02:23Z</time>
      </trkpt>
      <trkpt lat="45.50815" lon="4.44838">
        <ele>647.1</ele>
        <time>2010-10-21T12:02:24Z</time>
      </trkpt>
      <trkpt lat="45.50817" lon="4.44839">
        <ele>648.07</ele>
        <time>2010-10-21T12:02:25Z</time>
      </trkpt>
      <trkpt lat="45.50837" lon="4.44835">
        <ele>649.51</ele>
        <time>2010-10-21T12:02:34Z</time>
      </trkpt>
      <trkpt lat="45.50858" lon="4.44829">
        <ele>651.91</ele>
        <time>2010-10-21T12:02:44Z</time>
      </trkpt>
      <trkpt lat="45.50884" lon="4.44827">
        <ele>653.83</ele>
        <time>2010-10-21T12:02:55Z</time>
      </trkpt>
      <trkpt lat="45.50889" lon="4.44827">
        <ele>653.35</ele>
        <time>2010-10-21T12:02:58Z</time>
      </trkpt>
      <trkpt lat="45.50891" lon="4.44828">
        <ele>655.28</ele>
        <time>2010-10-21T12:02:59Z</time>
      </trkpt>
      <trkpt lat="45.50892" lon="4.44829">
        <ele>654.31</ele>
        <time>2010-10-21T12:03:00Z</time>
      </trkpt>
      <trkpt lat="45.50894" lon="4.44829">
        <ele>655.28</ele>
        <time>2010-10-21T12:03:01Z</time>
      </trkpt>
      <trkpt lat="45.50896" lon="4.4483">
        <ele>655.76</ele>
        <time>2010-10-21T12:03:02Z</time>
      </trkpt>
      <trkpt lat="45.50898" lon="4.4483">
        <ele>656.24</ele>
        <time>2010-10-21T12:03:03Z</time>
      </trkpt>
      <trkpt lat="45.509" lon="4.44829">
        <ele>655.28</ele>
        <time>2010-10-21T12:03:04Z</time>
      </trkpt>
      <trkpt lat="45.50902" lon="4.44829">
        <ele>656.24</ele>
        <time>2010-10-21T12:03:05Z</time>
      </trkpt>
      <trkpt lat="45.50904" lon="4.44829">
        <ele>656.24</ele>
        <time>2010-10-21T12:03:06Z</time>
      </trkpt>
      <trkpt lat="45.50923" lon="4.44823">
        <ele>658.64</ele>
        <time>2010-10-21T12:03:16Z</time>
      </trkpt>
      <trkpt lat="45.50925" lon="4.44823">
        <ele>659.6</ele>
        <time>2010-10-21T12:03:17Z</time>
      </trkpt>
      <trkpt lat="45.50938" lon="4.44821">
        <ele>661.04</ele>
        <time>2010-10-21T12:03:23Z</time>
      </trkpt>
      <trkpt lat="45.50953" lon="4.44815">
        <ele>662.49</ele>
        <time>2010-10-21T12:03:32Z</time>
      </trkpt>
      <trkpt lat="45.50955" lon="4.44813">
        <ele>663.45</ele>
        <time>2010-10-21T12:03:33Z</time>
      </trkpt>
      <trkpt lat="45.50958" lon="4.44812">
        <ele>663.93</ele>
        <time>2010-10-21T12:03:34Z</time>
      </trkpt>
      <trkpt lat="45.5096" lon="4.44811">
        <ele>664.89</ele>
        <time>2010-10-21T12:03:35Z</time>
      </trkpt>
      <trkpt lat="45.50961" lon="4.4481">
        <ele>664.89</ele>
        <time>2010-10-21T12:03:36Z</time>
      </trkpt>
      <trkpt lat="45.50963" lon="4.4481">
        <ele>664.89</ele>
        <time>2010-10-21T12:03:37Z</time>
      </trkpt>
      <trkpt lat="45.50965" lon="4.44809">
        <ele>664.41</ele>
        <time>2010-10-21T12:03:38Z</time>
      </trkpt>
      <trkpt lat="45.50967" lon="4.44809">
        <ele>665.37</ele>
        <time>2010-10-21T12:03:39Z</time>
      </trkpt>
      <trkpt lat="45.50969" lon="4.44808">
        <ele>665.37</ele>
        <time>2010-10-21T12:03:40Z</time>
      </trkpt>
      <trkpt lat="45.50971" lon="4.44807">
        <ele>666.81</ele>
        <time>2010-10-21T12:03:41Z</time>
      </trkpt>
      <trkpt lat="45.50974" lon="4.44807">
        <ele>666.33</ele>
        <time>2010-10-21T12:03:42Z</time>
      </trkpt>
      <trkpt lat="45.50976" lon="4.44807">
        <ele>665.85</ele>
        <time>2010-10-21T12:03:43Z</time>
      </trkpt>
      <trkpt lat="45.50979" lon="4.44807">
        <ele>666.81</ele>
        <time>2010-10-21T12:03:44Z</time>
      </trkpt>
      <trkpt lat="45.50981" lon="4.44807">
        <ele>667.77</ele>
        <time>2010-10-21T12:03:45Z</time>
      </trkpt>
      <trkpt lat="45.50983" lon="4.44808">
        <ele>667.77</ele>
        <time>2010-10-21T12:03:46Z</time>
      </trkpt>
      <trkpt lat="45.50985" lon="4.44809">
        <ele>667.77</ele>
        <time>2010-10-21T12:03:47Z</time>
      </trkpt>
      <trkpt lat="45.50987" lon="4.44809">
        <ele>667.77</ele>
        <time>2010-10-21T12:03:48Z</time>
      </trkpt>
      <trkpt lat="45.50989" lon="4.44809">
        <ele>667.77</ele>
        <time>2010-10-21T12:03:49Z</time>
      </trkpt>
      <trkpt lat="45.5099" lon="4.4481">
        <ele>669.22</ele>
        <time>2010-10-21T12:03:50Z</time>
      </trkpt>
      <trkpt lat="45.50992" lon="4.4481">
        <ele>668.25</ele>
        <time>2010-10-21T12:03:51Z</time>
      </trkpt>
      <trkpt lat="45.50993" lon="4.4481">
        <ele>669.22</ele>
        <time>2010-10-21T12:03:52Z</time>
      </trkpt>
      <trkpt lat="45.50996" lon="4.4481">
        <ele>669.7</ele>
        <time>2010-10-21T12:03:53Z</time>
      </trkpt>
      <trkpt lat="45.50999" lon="4.4481">
        <ele>670.18</ele>
        <time>2010-10-21T12:03:54Z</time>
      </trkpt>
      <trkpt lat="45.51001" lon="4.44809">
        <ele>670.66</ele>
        <time>2010-10-21T12:03:55Z</time>
      </trkpt>
      <trkpt lat="45.51002" lon="4.4481">
        <ele>670.18</ele>
        <time>2010-10-21T12:03:56Z</time>
      </trkpt>
      <trkpt lat="45.51004" lon="4.44811">
        <ele>670.66</ele>
        <time>2010-10-21T12:03:57Z</time>
      </trkpt>
      <trkpt lat="45.5101" lon="4.44811">
        <ele>673.54</ele>
        <time>2010-10-21T12:04:02Z</time>
      </trkpt>
      <trkpt lat="45.51011" lon="4.4481">
        <ele>674.02</ele>
        <time>2010-10-21T12:04:03Z</time>
      </trkpt>
      <trkpt lat="45.51013" lon="4.4481">
        <ele>674.02</ele>
        <time>2010-10-21T12:04:04Z</time>
      </trkpt>
      <trkpt lat="45.51023" lon="4.44809">
        <ele>675.94</ele>
        <time>2010-10-21T12:04:09Z</time>
      </trkpt>
      <trkpt lat="45.51024" lon="4.4481">
        <ele>675.94</ele>
        <time>2010-10-21T12:04:10Z</time>
      </trkpt>
      <trkpt lat="45.5103" lon="4.44814">
        <ele>676.42</ele>
        <time>2010-10-21T12:04:14Z</time>
      </trkpt>
      <trkpt lat="45.51032" lon="4.44814">
        <ele>678.83</ele>
        <time>2010-10-21T12:04:15Z</time>
      </trkpt>
      <trkpt lat="45.51047" lon="4.44821">
        <ele>679.79</ele>
        <time>2010-10-21T12:04:24Z</time>
      </trkpt>
      <trkpt lat="45.51049" lon="4.44822">
        <ele>681.23</ele>
        <time>2010-10-21T12:04:25Z</time>
      </trkpt>
      <trkpt lat="45.51051" lon="4.44822">
        <ele>681.23</ele>
        <time>2010-10-21T12:04:26Z</time>
      </trkpt>
      <trkpt lat="45.51053" lon="4.44822">
        <ele>682.19</ele>
        <time>2010-10-21T12:04:27Z</time>
      </trkpt>
      <trkpt lat="45.51055" lon="4.44823">
        <ele>681.71</ele>
        <time>2010-10-21T12:04:28Z</time>
      </trkpt>
      <trkpt lat="45.51057" lon="4.44823">
        <ele>682.19</ele>
        <time>2010-10-21T12:04:29Z</time>
      </trkpt>
      <trkpt lat="45.51059" lon="4.44822">
        <ele>682.19</ele>
        <time>2010-10-21T12:04:30Z</time>
      </trkpt>
      <trkpt lat="45.51062" lon="4.44822">
        <ele>682.67</ele>
        <time>2010-10-21T12:04:31Z</time>
      </trkpt>
      <trkpt lat="45.51064" lon="4.44823">
        <ele>682.67</ele>
        <time>2010-10-21T12:04:32Z</time>
      </trkpt>
      <trkpt lat="45.51066" lon="4.44823">
        <ele>683.15</ele>
        <time>2010-10-21T12:04:33Z</time>
      </trkpt>
      <trkpt lat="45.51072" lon="4.44825">
        <ele>683.63</ele>
        <time>2010-10-21T12:04:36Z</time>
      </trkpt>
      <trkpt lat="45.51074" lon="4.44825">
        <ele>683.63</ele>
        <time>2010-10-21T12:04:37Z</time>
      </trkpt>
      <trkpt lat="45.51077" lon="4.44826">
        <ele>685.56</ele>
        <time>2010-10-21T12:04:38Z</time>
      </trkpt>
      <trkpt lat="45.51079" lon="4.44827">
        <ele>684.6</ele>
        <time>2010-10-21T12:04:39Z</time>
      </trkpt>
      <trkpt lat="45.51081" lon="4.44828">
        <ele>683.63</ele>
        <time>2010-10-21T12:04:40Z</time>
      </trkpt>
      <trkpt lat="45.51084" lon="4.44829">
        <ele>685.08</ele>
        <time>2010-10-21T12:04:41Z</time>
      </trkpt>
      <trkpt lat="45.51086" lon="4.44829">
        <ele>684.6</ele>
        <time>2010-10-21T12:04:42Z</time>
      </trkpt>
      <trkpt lat="45.51087" lon="4.4483">
        <ele>685.08</ele>
        <time>2010-10-21T12:04:43Z</time>
      </trkpt>
      <trkpt lat="45.51089" lon="4.44831">
        <ele>686.04</ele>
        <time>2010-10-21T12:04:44Z</time>
      </trkpt>
      <trkpt lat="45.51092" lon="4.44831">
        <ele>685.08</ele>
        <time>2010-10-21T12:04:45Z</time>
      </trkpt>
      <trkpt lat="45.51094" lon="4.44832">
        <ele>685.56</ele>
        <time>2010-10-21T12:04:46Z</time>
      </trkpt>
      <trkpt lat="45.51096" lon="4.44833">
        <ele>685.56</ele>
        <time>2010-10-21T12:04:47Z</time>
      </trkpt>
      <trkpt lat="45.51118" lon="4.44838">
        <ele>686.52</ele>
        <time>2010-10-21T12:04:56Z</time>
      </trkpt>
      <trkpt lat="45.5112" lon="4.44839">
        <ele>686.52</ele>
        <time>2010-10-21T12:04:57Z</time>
      </trkpt>
      <trkpt lat="45.51122" lon="4.4484">
        <ele>687.48</ele>
        <time>2010-10-21T12:04:58Z</time>
      </trkpt>
      <trkpt lat="45.51125" lon="4.44841">
        <ele>687.48</ele>
        <time>2010-10-21T12:04:59Z</time>
      </trkpt>
      <trkpt lat="45.51127" lon="4.44841">
        <ele>686.52</ele>
        <time>2010-10-21T12:05:00Z</time>
      </trkpt>
      <trkpt lat="45.5113" lon="4.44842">
        <ele>687.48</ele>
        <time>2010-10-21T12:05:01Z</time>
      </trkpt>
      <trkpt lat="45.51132" lon="4.44843">
        <ele>687.48</ele>
        <time>2010-10-21T12:05:02Z</time>
      </trkpt>
      <trkpt lat="45.5115" lon="4.4485">
        <ele>687.48</ele>
        <time>2010-10-21T12:05:10Z</time>
      </trkpt>
      <trkpt lat="45.51169" lon="4.44858">
        <ele>688.92</ele>
        <time>2010-10-21T12:05:18Z</time>
      </trkpt>
      <trkpt lat="45.51171" lon="4.44859">
        <ele>689.4</ele>
        <time>2010-10-21T12:05:19Z</time>
      </trkpt>
      <trkpt lat="45.51173" lon="4.4486">
        <ele>688.92</ele>
        <time>2010-10-21T12:05:20Z</time>
      </trkpt>
      <trkpt lat="45.51176" lon="4.4486">
        <ele>688.44</ele>
        <time>2010-10-21T12:05:21Z</time>
      </trkpt>
      <trkpt lat="45.51179" lon="4.4486">
        <ele>689.88</ele>
        <time>2010-10-21T12:05:22Z</time>
      </trkpt>
      <trkpt lat="45.51182" lon="4.4486">
        <ele>689.4</ele>
        <time>2010-10-21T12:05:23Z</time>
      </trkpt>
      <trkpt lat="45.51184" lon="4.44861">
        <ele>690.36</ele>
        <time>2010-10-21T12:05:24Z</time>
      </trkpt>
      <trkpt lat="45.51187" lon="4.44861">
        <ele>688.92</ele>
        <time>2010-10-21T12:05:25Z</time>
      </trkpt>
      <trkpt lat="45.51188" lon="4.44862">
        <ele>689.88</ele>
        <time>2010-10-21T12:05:26Z</time>
      </trkpt>
      <trkpt lat="45.5119" lon="4.44863">
        <ele>688.92</ele>
        <time>2010-10-21T12:05:27Z</time>
      </trkpt>
      <trkpt lat="45.51191" lon="4.44864">
        <ele>689.88</ele>
        <time>2010-10-21T12:05:28Z</time>
      </trkpt>
      <trkpt lat="45.51193" lon="4.44864">
        <ele>688.44</ele>
        <time>2010-10-21T12:05:29Z</time>
      </trkpt>
      <trkpt lat="45.51194" lon="4.44866">
        <ele>691.81</ele>
        <time>2010-10-21T12:05:30Z</time>
      </trkpt>
      <trkpt lat="45.51196" lon="4.44866">
        <ele>689.4</ele>
        <time>2010-10-21T12:05:31Z</time>
      </trkpt>
      <trkpt lat="45.51199" lon="4.44867">
        <ele>689.4</ele>
        <time>2010-10-21T12:05:32Z</time>
      </trkpt>
      <trkpt lat="45.51201" lon="4.44867">
        <ele>692.29</ele>
        <time>2010-10-21T12:05:33Z</time>
      </trkpt>
      <trkpt lat="45.51204" lon="4.44867">
        <ele>690.84</ele>
        <time>2010-10-21T12:05:34Z</time>
      </trkpt>
      <trkpt lat="45.51224" lon="4.44873">
        <ele>694.21</ele>
        <time>2010-10-21T12:05:43Z</time>
      </trkpt>
      <trkpt lat="45.51241" lon="4.44877">
        <ele>694.69</ele>
        <time>2010-10-21T12:05:50Z</time>
      </trkpt>
      <trkpt lat="45.51247" lon="4.4488">
        <ele>694.69</ele>
        <time>2010-10-21T12:05:52Z</time>
      </trkpt>
      <trkpt lat="45.5125" lon="4.44881">
        <ele>694.21</ele>
        <time>2010-10-21T12:05:53Z</time>
      </trkpt>
      <trkpt lat="45.51252" lon="4.44882">
        <ele>694.21</ele>
        <time>2010-10-21T12:05:54Z</time>
      </trkpt>
      <trkpt lat="45.51257" lon="4.44884">
        <ele>690.36</ele>
        <time>2010-10-21T12:05:56Z</time>
      </trkpt>
      <trkpt lat="45.51259" lon="4.44885">
        <ele>695.65</ele>
        <time>2010-10-21T12:05:57Z</time>
      </trkpt>
      <trkpt lat="45.51262" lon="4.44887">
        <ele>692.77</ele>
        <time>2010-10-21T12:05:58Z</time>
      </trkpt>
      <trkpt lat="45.51287" lon="4.44901">
        <ele>691.81</ele>
        <time>2010-10-21T12:06:08Z</time>
      </trkpt>
      <trkpt lat="45.51305" lon="4.44925">
        <ele>690.84</ele>
        <time>2010-10-21T12:06:18Z</time>
      </trkpt>
      <trkpt lat="45.51308" lon="4.44926">
        <ele>688.92</ele>
        <time>2010-10-21T12:06:19Z</time>
      </trkpt>
      <trkpt lat="45.51312" lon="4.44928">
        <ele>688.44</ele>
        <time>2010-10-21T12:06:20Z</time>
      </trkpt>
      <trkpt lat="45.51314" lon="4.44932">
        <ele>687.48</ele>
        <time>2010-10-21T12:06:21Z</time>
      </trkpt>
      <trkpt lat="45.51316" lon="4.44936">
        <ele>687.96</ele>
        <time>2010-10-21T12:06:22Z</time>
      </trkpt>
      <trkpt lat="45.51318" lon="4.44939">
        <ele>687.48</ele>
        <time>2010-10-21T12:06:23Z</time>
      </trkpt>
      <trkpt lat="45.5132" lon="4.44943">
        <ele>686.52</ele>
        <time>2010-10-21T12:06:24Z</time>
      </trkpt>
      <trkpt lat="45.5133" lon="4.4495">
        <ele>684.12</ele>
        <time>2010-10-21T12:06:27Z</time>
      </trkpt>
      <trkpt lat="45.51334" lon="4.44951">
        <ele>684.12</ele>
        <time>2010-10-21T12:06:28Z</time>
      </trkpt>
      <trkpt lat="45.51337" lon="4.44953">
        <ele>682.67</ele>
        <time>2010-10-21T12:06:29Z</time>
      </trkpt>
      <trkpt lat="45.51351" lon="4.44978">
        <ele>678.35</ele>
        <time>2010-10-21T12:06:35Z</time>
      </trkpt>
      <trkpt lat="45.51353" lon="4.44982">
        <ele>680.27</ele>
        <time>2010-10-21T12:06:36Z</time>
      </trkpt>
      <trkpt lat="45.51361" lon="4.45006">
        <ele>678.35</ele>
        <time>2010-10-21T12:06:42Z</time>
      </trkpt>
      <trkpt lat="45.51365" lon="4.4502">
        <ele>676.42</ele>
        <time>2010-10-21T12:06:45Z</time>
      </trkpt>
      <trkpt lat="45.51368" lon="4.45024">
        <ele>676.42</ele>
        <time>2010-10-21T12:06:46Z</time>
      </trkpt>
      <trkpt lat="45.5137" lon="4.45028">
        <ele>674.5</ele>
        <time>2010-10-21T12:06:47Z</time>
      </trkpt>
      <trkpt lat="45.51386" lon="4.45068">
        <ele>673.54</ele>
        <time>2010-10-21T12:06:56Z</time>
      </trkpt>
      <trkpt lat="45.51404" lon="4.45102">
        <ele>671.62</ele>
        <time>2010-10-21T12:07:06Z</time>
      </trkpt>
      <trkpt lat="45.51417" lon="4.45121">
        <ele>669.7</ele>
        <time>2010-10-21T12:07:14Z</time>
      </trkpt>
      <trkpt lat="45.51419" lon="4.45125">
        <ele>669.22</ele>
        <time>2010-10-21T12:07:15Z</time>
      </trkpt>
      <trkpt lat="45.51422" lon="4.45126">
        <ele>668.73</ele>
        <time>2010-10-21T12:07:16Z</time>
      </trkpt>
      <trkpt lat="45.51424" lon="4.45129">
        <ele>667.29</ele>
        <time>2010-10-21T12:07:17Z</time>
      </trkpt>
      <trkpt lat="45.51427" lon="4.45133">
        <ele>666.81</ele>
        <time>2010-10-21T12:07:18Z</time>
      </trkpt>
      <trkpt lat="45.51431" lon="4.4514">
        <ele>666.33</ele>
        <time>2010-10-21T12:07:20Z</time>
      </trkpt>
      <trkpt lat="45.51433" lon="4.45144">
        <ele>665.85</ele>
        <time>2010-10-21T12:07:21Z</time>
      </trkpt>
      <trkpt lat="45.51435" lon="4.45147">
        <ele>664.89</ele>
        <time>2010-10-21T12:07:22Z</time>
      </trkpt>
      <trkpt lat="45.51438" lon="4.45151">
        <ele>663.93</ele>
        <time>2010-10-21T12:07:23Z</time>
      </trkpt>
      <trkpt lat="45.51441" lon="4.45154">
        <ele>662.97</ele>
        <time>2010-10-21T12:07:24Z</time>
      </trkpt>
      <trkpt lat="45.51445" lon="4.45161">
        <ele>661.04</ele>
        <time>2010-10-21T12:07:26Z</time>
      </trkpt>
      <trkpt lat="45.51453" lon="4.45174">
        <ele>661.04</ele>
        <time>2010-10-21T12:07:29Z</time>
      </trkpt>
      <trkpt lat="45.51456" lon="4.45177">
        <ele>659.6</ele>
        <time>2010-10-21T12:07:30Z</time>
      </trkpt>
      <trkpt lat="45.5147" lon="4.45201">
        <ele>657.68</ele>
        <time>2010-10-21T12:07:36Z</time>
      </trkpt>
      <trkpt lat="45.51473" lon="4.45205">
        <ele>655.76</ele>
        <time>2010-10-21T12:07:37Z</time>
      </trkpt>
      <trkpt lat="45.51476" lon="4.45209">
        <ele>656.72</ele>
        <time>2010-10-21T12:07:38Z</time>
      </trkpt>
      <trkpt lat="45.51479" lon="4.45213">
        <ele>655.76</ele>
        <time>2010-10-21T12:07:39Z</time>
      </trkpt>
      <trkpt lat="45.51481" lon="4.45216">
        <ele>654.8</ele>
        <time>2010-10-21T12:07:40Z</time>
      </trkpt>
      <trkpt lat="45.51483" lon="4.4522">
        <ele>656.72</ele>
        <time>2010-10-21T12:07:41Z</time>
      </trkpt>
      <trkpt lat="45.51485" lon="4.45224">
        <ele>655.76</ele>
        <time>2010-10-21T12:07:42Z</time>
      </trkpt>
      <trkpt lat="45.51486" lon="4.45227">
        <ele>652.39</ele>
        <time>2010-10-21T12:07:43Z</time>
      </trkpt>
      <trkpt lat="45.51488" lon="4.45231">
        <ele>657.2</ele>
        <time>2010-10-21T12:07:44Z</time>
      </trkpt>
      <trkpt lat="45.51499" lon="4.45249">
        <ele>653.83</ele>
        <time>2010-10-21T12:07:50Z</time>
      </trkpt>
      <trkpt lat="45.51504" lon="4.45256">
        <ele>654.31</ele>
        <time>2010-10-21T12:07:53Z</time>
      </trkpt>
      <trkpt lat="45.51505" lon="4.45259">
        <ele>654.8</ele>
        <time>2010-10-21T12:07:54Z</time>
      </trkpt>
      <trkpt lat="45.51506" lon="4.45262">
        <ele>654.31</ele>
        <time>2010-10-21T12:07:55Z</time>
      </trkpt>
      <trkpt lat="45.51507" lon="4.45266">
        <ele>654.8</ele>
        <time>2010-10-21T12:07:56Z</time>
      </trkpt>
      <trkpt lat="45.51509" lon="4.45269">
        <ele>654.31</ele>
        <time>2010-10-21T12:07:57Z</time>
      </trkpt>
      <trkpt lat="45.51511" lon="4.45272">
        <ele>654.31</ele>
        <time>2010-10-21T12:07:58Z</time>
      </trkpt>
      <trkpt lat="45.51514" lon="4.45275">
        <ele>654.8</ele>
        <time>2010-10-21T12:07:59Z</time>
      </trkpt>
      <trkpt lat="45.51516" lon="4.45278">
        <ele>655.28</ele>
        <time>2010-10-21T12:08:00Z</time>
      </trkpt>
      <trkpt lat="45.51517" lon="4.45281">
        <ele>655.28</ele>
        <time>2010-10-21T12:08:01Z</time>
      </trkpt>
      <trkpt lat="45.51519" lon="4.45284">
        <ele>654.31</ele>
        <time>2010-10-21T12:08:02Z</time>
      </trkpt>
      <trkpt lat="45.5152" lon="4.45286">
        <ele>655.76</ele>
        <time>2010-10-21T12:08:03Z</time>
      </trkpt>
      <trkpt lat="45.51522" lon="4.45288">
        <ele>655.28</ele>
        <time>2010-10-21T12:08:04Z</time>
      </trkpt>
      <trkpt lat="45.51524" lon="4.4529">
        <ele>655.76</ele>
        <time>2010-10-21T12:08:05Z</time>
      </trkpt>
      <trkpt lat="45.5153" lon="4.45296">
        <ele>655.76</ele>
        <time>2010-10-21T12:08:08Z</time>
      </trkpt>
      <trkpt lat="45.51532" lon="4.45298">
        <ele>656.72</ele>
        <time>2010-10-21T12:08:09Z</time>
      </trkpt>
      <trkpt lat="45.51534" lon="4.453">
        <ele>656.24</ele>
        <time>2010-10-21T12:08:10Z</time>
      </trkpt>
      <trkpt lat="45.51537" lon="4.45302">
        <ele>656.24</ele>
        <time>2010-10-21T12:08:11Z</time>
      </trkpt>
      <trkpt lat="45.51538" lon="4.45303">
        <ele>656.72</ele>
        <time>2010-10-21T12:08:12Z</time>
      </trkpt>
      <trkpt lat="45.5154" lon="4.45305">
        <ele>656.72</ele>
        <time>2010-10-21T12:08:13Z</time>
      </trkpt>
      <trkpt lat="45.51542" lon="4.45307">
        <ele>657.68</ele>
        <time>2010-10-21T12:08:14Z</time>
      </trkpt>
      <trkpt lat="45.51549" lon="4.45313">
        <ele>657.2</ele>
        <time>2010-10-21T12:08:17Z</time>
      </trkpt>
      <trkpt lat="45.51551" lon="4.45314">
        <ele>657.68</ele>
        <time>2010-10-21T12:08:18Z</time>
      </trkpt>
      <trkpt lat="45.51557" lon="4.45321">
        <ele>658.16</ele>
        <time>2010-10-21T12:08:21Z</time>
      </trkpt>
      <trkpt lat="45.51558" lon="4.45323">
        <ele>658.64</ele>
        <time>2010-10-21T12:08:22Z</time>
      </trkpt>
      <trkpt lat="45.5156" lon="4.45324">
        <ele>659.12</ele>
        <time>2010-10-21T12:08:23Z</time>
      </trkpt>
      <trkpt lat="45.51562" lon="4.45325">
        <ele>658.16</ele>
        <time>2010-10-21T12:08:24Z</time>
      </trkpt>
      <trkpt lat="45.51564" lon="4.45325">
        <ele>660.56</ele>
        <time>2010-10-21T12:08:25Z</time>
      </trkpt>
      <trkpt lat="45.51566" lon="4.45326">
        <ele>660.56</ele>
        <time>2010-10-21T12:08:26Z</time>
      </trkpt>
      <trkpt lat="45.51568" lon="4.45328">
        <ele>658.16</ele>
        <time>2010-10-21T12:08:27Z</time>
      </trkpt>
      <trkpt lat="45.51569" lon="4.45331">
        <ele>660.56</ele>
        <time>2010-10-21T12:08:28Z</time>
      </trkpt>
      <trkpt lat="45.51572" lon="4.45338">
        <ele>661.04</ele>
        <time>2010-10-21T12:08:30Z</time>
      </trkpt>
      <trkpt lat="45.51573" lon="4.45339">
        <ele>661.04</ele>
        <time>2010-10-21T12:08:31Z</time>
      </trkpt>
      <trkpt lat="45.51575" lon="4.45341">
        <ele>661.52</ele>
        <time>2010-10-21T12:08:32Z</time>
      </trkpt>
      <trkpt lat="45.51577" lon="4.45343">
        <ele>661.52</ele>
        <time>2010-10-21T12:08:33Z</time>
      </trkpt>
      <trkpt lat="45.5158" lon="4.45344">
        <ele>661.52</ele>
        <time>2010-10-21T12:08:34Z</time>
      </trkpt>
      <trkpt lat="45.51582" lon="4.45345">
        <ele>662.49</ele>
        <time>2010-10-21T12:08:35Z</time>
      </trkpt>
      <trkpt lat="45.51584" lon="4.45345">
        <ele>662.01</ele>
        <time>2010-10-21T12:08:36Z</time>
      </trkpt>
      <trkpt lat="45.51586" lon="4.45346">
        <ele>661.04</ele>
        <time>2010-10-21T12:08:37Z</time>
      </trkpt>
      <trkpt lat="45.51595" lon="4.45353">
        <ele>664.41</ele>
        <time>2010-10-21T12:08:41Z</time>
      </trkpt>
      <trkpt lat="45.51596" lon="4.45353">
        <ele>662.97</ele>
        <time>2010-10-21T12:08:42Z</time>
      </trkpt>
      <trkpt lat="45.51599" lon="4.45354">
        <ele>663.45</ele>
        <time>2010-10-21T12:08:43Z</time>
      </trkpt>
      <trkpt lat="45.51602" lon="4.45354">
        <ele>663.93</ele>
        <time>2010-10-21T12:08:44Z</time>
      </trkpt>
      <trkpt lat="45.51604" lon="4.45355">
        <ele>664.41</ele>
        <time>2010-10-21T12:08:45Z</time>
      </trkpt>
      <trkpt lat="45.51606" lon="4.45357">
        <ele>664.41</ele>
        <time>2010-10-21T12:08:46Z</time>
      </trkpt>
      <trkpt lat="45.51608" lon="4.45358">
        <ele>664.89</ele>
        <time>2010-10-21T12:08:47Z</time>
      </trkpt>
      <trkpt lat="45.51611" lon="4.45359">
        <ele>664.89</ele>
        <time>2010-10-21T12:08:48Z</time>
      </trkpt>
      <trkpt lat="45.51613" lon="4.4536">
        <ele>665.37</ele>
        <time>2010-10-21T12:08:49Z</time>
      </trkpt>
      <trkpt lat="45.51615" lon="4.45361">
        <ele>665.37</ele>
        <time>2010-10-21T12:08:50Z</time>
      </trkpt>
      <trkpt lat="45.51617" lon="4.45363">
        <ele>666.33</ele>
        <time>2010-10-21T12:08:51Z</time>
      </trkpt>
      <trkpt lat="45.51619" lon="4.45365">
        <ele>666.81</ele>
        <time>2010-10-21T12:08:52Z</time>
      </trkpt>
      <trkpt lat="45.51621" lon="4.45367">
        <ele>666.33</ele>
        <time>2010-10-21T12:08:53Z</time>
      </trkpt>
      <trkpt lat="45.51635" lon="4.4538">
        <ele>668.73</ele>
        <time>2010-10-21T12:09:00Z</time>
      </trkpt>
      <trkpt lat="45.5164" lon="4.45384">
        <ele>669.22</ele>
        <time>2010-10-21T12:09:02Z</time>
      </trkpt>
      <trkpt lat="45.51641" lon="4.45386">
        <ele>669.7</ele>
        <time>2010-10-21T12:09:03Z</time>
      </trkpt>
      <trkpt lat="45.51643" lon="4.45387">
        <ele>669.22</ele>
        <time>2010-10-21T12:09:04Z</time>
      </trkpt>
      <trkpt lat="45.51645" lon="4.45389">
        <ele>670.66</ele>
        <time>2010-10-21T12:09:05Z</time>
      </trkpt>
      <trkpt lat="45.51646" lon="4.45391">
        <ele>670.66</ele>
        <time>2010-10-21T12:09:06Z</time>
      </trkpt>
      <trkpt lat="45.51647" lon="4.45393">
        <ele>670.66</ele>
        <time>2010-10-21T12:09:07Z</time>
      </trkpt>
      <trkpt lat="45.51647" lon="4.45396">
        <ele>671.14</ele>
        <time>2010-10-21T12:09:08Z</time>
      </trkpt>
      <trkpt lat="45.51647" lon="4.45398">
        <ele>671.62</ele>
        <time>2010-10-21T12:09:09Z</time>
      </trkpt>
      <trkpt lat="45.51648" lon="4.45398">
        <ele>671.62</ele>
        <time>2010-10-21T12:09:12Z</time>
      </trkpt>
      <trkpt lat="45.51649" lon="4.45402">
        <ele>671.62</ele>
        <time>2010-10-21T12:09:14Z</time>
      </trkpt>
      <trkpt lat="45.51662" lon="4.45431">
        <ele>672.58</ele>
        <time>2010-10-21T12:09:27Z</time>
      </trkpt>
      <trkpt lat="45.51671" lon="4.45445">
        <ele>673.06</ele>
        <time>2010-10-21T12:09:33Z</time>
      </trkpt>
      <trkpt lat="45.51672" lon="4.45447">
        <ele>674.02</ele>
        <time>2010-10-21T12:09:34Z</time>
      </trkpt>
      <trkpt lat="45.51673" lon="4.45449">
        <ele>674.02</ele>
        <time>2010-10-21T12:09:35Z</time>
      </trkpt>
      <trkpt lat="45.51674" lon="4.45451">
        <ele>674.98</ele>
        <time>2010-10-21T12:09:36Z</time>
      </trkpt>
      <trkpt lat="45.51675" lon="4.45454">
        <ele>674.98</ele>
        <time>2010-10-21T12:09:37Z</time>
      </trkpt>
      <trkpt lat="45.51676" lon="4.45456">
        <ele>674.5</ele>
        <time>2010-10-21T12:09:38Z</time>
      </trkpt>
      <trkpt lat="45.51677" lon="4.45459">
        <ele>674.5</ele>
        <time>2010-10-21T12:09:39Z</time>
      </trkpt>
      <trkpt lat="45.51687" lon="4.45478">
        <ele>675.46</ele>
        <time>2010-10-21T12:09:47Z</time>
      </trkpt>
      <trkpt lat="45.51688" lon="4.45481">
        <ele>676.42</ele>
        <time>2010-10-21T12:09:48Z</time>
      </trkpt>
      <trkpt lat="45.5169" lon="4.45484">
        <ele>674.98</ele>
        <time>2010-10-21T12:09:49Z</time>
      </trkpt>
      <trkpt lat="45.51691" lon="4.45488">
        <ele>675.46</ele>
        <time>2010-10-21T12:09:50Z</time>
      </trkpt>
      <trkpt lat="45.51691" lon="4.45491">
        <ele>675.46</ele>
        <time>2010-10-21T12:09:51Z</time>
      </trkpt>
      <trkpt lat="45.51692" lon="4.45494">
        <ele>675.46</ele>
        <time>2010-10-21T12:09:52Z</time>
      </trkpt>
      <trkpt lat="45.51693" lon="4.45497">
        <ele>674.5</ele>
        <time>2010-10-21T12:09:53Z</time>
      </trkpt>
      <trkpt lat="45.51695" lon="4.45499">
        <ele>675.94</ele>
        <time>2010-10-21T12:09:54Z</time>
      </trkpt>
      <trkpt lat="45.51697" lon="4.45502">
        <ele>675.94</ele>
        <time>2010-10-21T12:09:55Z</time>
      </trkpt>
      <trkpt lat="45.517" lon="4.45505">
        <ele>674.02</ele>
        <time>2010-10-21T12:09:56Z</time>
      </trkpt>
      <trkpt lat="45.51702" lon="4.45506">
        <ele>677.39</ele>
        <time>2010-10-21T12:09:57Z</time>
      </trkpt>
      <trkpt lat="45.51705" lon="4.45508">
        <ele>676.91</ele>
        <time>2010-10-21T12:09:58Z</time>
      </trkpt>
      <trkpt lat="45.51706" lon="4.4551">
        <ele>676.91</ele>
        <time>2010-10-21T12:09:59Z</time>
      </trkpt>
      <trkpt lat="45.51706" lon="4.45514">
        <ele>676.42</ele>
        <time>2010-10-21T12:10:00Z</time>
      </trkpt>
      <trkpt lat="45.51707" lon="4.45517">
        <ele>676.42</ele>
        <time>2010-10-21T12:10:01Z</time>
      </trkpt>
      <trkpt lat="45.51707" lon="4.4552">
        <ele>677.39</ele>
        <time>2010-10-21T12:10:02Z</time>
      </trkpt>
      <trkpt lat="45.51707" lon="4.45523">
        <ele>677.87</ele>
        <time>2010-10-21T12:10:03Z</time>
      </trkpt>
      <trkpt lat="45.51708" lon="4.45527">
        <ele>676.91</ele>
        <time>2010-10-21T12:10:04Z</time>
      </trkpt>
      <trkpt lat="45.51709" lon="4.45539">
        <ele>677.87</ele>
        <time>2010-10-21T12:10:08Z</time>
      </trkpt>
      <trkpt lat="45.51709" lon="4.45543">
        <ele>679.31</ele>
        <time>2010-10-21T12:10:09Z</time>
      </trkpt>
      <trkpt lat="45.51709" lon="4.45546">
        <ele>678.35</ele>
        <time>2010-10-21T12:10:10Z</time>
      </trkpt>
      <trkpt lat="45.5171" lon="4.4555">
        <ele>678.83</ele>
        <time>2010-10-21T12:10:11Z</time>
      </trkpt>
      <trkpt lat="45.5171" lon="4.45553">
        <ele>679.79</ele>
        <time>2010-10-21T12:10:12Z</time>
      </trkpt>
      <trkpt lat="45.51714" lon="4.45578">
        <ele>681.71</ele>
        <time>2010-10-21T12:10:20Z</time>
      </trkpt>
      <trkpt lat="45.51719" lon="4.45604">
        <ele>682.19</ele>
        <time>2010-10-21T12:10:28Z</time>
      </trkpt>
      <trkpt lat="45.51721" lon="4.45618">
        <ele>684.6</ele>
        <time>2010-10-21T12:10:33Z</time>
      </trkpt>
      <trkpt lat="45.51722" lon="4.45621">
        <ele>683.15</ele>
        <time>2010-10-21T12:10:34Z</time>
      </trkpt>
      <trkpt lat="45.51723" lon="4.45624">
        <ele>682.19</ele>
        <time>2010-10-21T12:10:35Z</time>
      </trkpt>
      <trkpt lat="45.51723" lon="4.45627">
        <ele>684.12</ele>
        <time>2010-10-21T12:10:36Z</time>
      </trkpt>
      <trkpt lat="45.51724" lon="4.4563">
        <ele>683.63</ele>
        <time>2010-10-21T12:10:37Z</time>
      </trkpt>
      <trkpt lat="45.51725" lon="4.45633">
        <ele>683.15</ele>
        <time>2010-10-21T12:10:38Z</time>
      </trkpt>
      <trkpt lat="45.51726" lon="4.45636">
        <ele>684.6</ele>
        <time>2010-10-21T12:10:39Z</time>
      </trkpt>
      <trkpt lat="45.51726" lon="4.4564">
        <ele>684.12</ele>
        <time>2010-10-21T12:10:40Z</time>
      </trkpt>
      <trkpt lat="45.51726" lon="4.45643">
        <ele>683.63</ele>
        <time>2010-10-21T12:10:41Z</time>
      </trkpt>
      <trkpt lat="45.51726" lon="4.45646">
        <ele>685.08</ele>
        <time>2010-10-21T12:10:42Z</time>
      </trkpt>
      <trkpt lat="45.51726" lon="4.45649">
        <ele>686.52</ele>
        <time>2010-10-21T12:10:43Z</time>
      </trkpt>
      <trkpt lat="45.51726" lon="4.45652">
        <ele>684.6</ele>
        <time>2010-10-21T12:10:44Z</time>
      </trkpt>
      <trkpt lat="45.51725" lon="4.45688">
        <ele>686.04</ele>
        <time>2010-10-21T12:10:54Z</time>
      </trkpt>
      <trkpt lat="45.51726" lon="4.45694">
        <ele>687</ele>
        <time>2010-10-21T12:10:56Z</time>
      </trkpt>
      <trkpt lat="45.51728" lon="4.457">
        <ele>686.52</ele>
        <time>2010-10-21T12:10:58Z</time>
      </trkpt>
      <trkpt lat="45.51729" lon="4.45703">
        <ele>687</ele>
        <time>2010-10-21T12:10:59Z</time>
      </trkpt>
      <trkpt lat="45.5173" lon="4.45708">
        <ele>688.44</ele>
        <time>2010-10-21T12:11:00Z</time>
      </trkpt>
      <trkpt lat="45.5173" lon="4.45712">
        <ele>687.48</ele>
        <time>2010-10-21T12:11:01Z</time>
      </trkpt>
      <trkpt lat="45.51731" lon="4.45716">
        <ele>687.96</ele>
        <time>2010-10-21T12:11:02Z</time>
      </trkpt>
      <trkpt lat="45.51731" lon="4.45719">
        <ele>688.44</ele>
        <time>2010-10-21T12:11:03Z</time>
      </trkpt>
      <trkpt lat="45.51737" lon="4.45739">
        <ele>688.44</ele>
        <time>2010-10-21T12:11:09Z</time>
      </trkpt>
      <trkpt lat="45.51737" lon="4.45743">
        <ele>690.36</ele>
        <time>2010-10-21T12:11:10Z</time>
      </trkpt>
      <trkpt lat="45.51741" lon="4.4577">
        <ele>692.77</ele>
        <time>2010-10-21T12:11:18Z</time>
      </trkpt>
      <trkpt lat="45.51745" lon="4.45779">
        <ele>693.25</ele>
        <time>2010-10-21T12:11:21Z</time>
      </trkpt>
      <trkpt lat="45.51747" lon="4.45781">
        <ele>692.29</ele>
        <time>2010-10-21T12:11:22Z</time>
      </trkpt>
      <trkpt lat="45.51748" lon="4.45784">
        <ele>694.21</ele>
        <time>2010-10-21T12:11:23Z</time>
      </trkpt>
      <trkpt lat="45.5175" lon="4.45786">
        <ele>694.69</ele>
        <time>2010-10-21T12:11:24Z</time>
      </trkpt>
      <trkpt lat="45.51751" lon="4.45788">
        <ele>693.73</ele>
        <time>2010-10-21T12:11:25Z</time>
      </trkpt>
      <trkpt lat="45.51753" lon="4.4579">
        <ele>696.13</ele>
        <time>2010-10-21T12:11:26Z</time>
      </trkpt>
      <trkpt lat="45.51755" lon="4.45793">
        <ele>694.69</ele>
        <time>2010-10-21T12:11:27Z</time>
      </trkpt>
      <trkpt lat="45.51759" lon="4.45801">
        <ele>696.13</ele>
        <time>2010-10-21T12:11:30Z</time>
      </trkpt>
      <trkpt lat="45.5176" lon="4.45804">
        <ele>697.09</ele>
        <time>2010-10-21T12:11:31Z</time>
      </trkpt>
      <trkpt lat="45.51772" lon="4.45819">
        <ele>699.02</ele>
        <time>2010-10-21T12:11:38Z</time>
      </trkpt>
      <trkpt lat="45.51782" lon="4.45831">
        <ele>698.53</ele>
        <time>2010-10-21T12:11:43Z</time>
      </trkpt>
      <trkpt lat="45.51784" lon="4.45833">
        <ele>698.53</ele>
        <time>2010-10-21T12:11:44Z</time>
      </trkpt>
      <trkpt lat="45.51787" lon="4.45835">
        <ele>698.05</ele>
        <time>2010-10-21T12:11:45Z</time>
      </trkpt>
      <trkpt lat="45.51788" lon="4.45837">
        <ele>698.05</ele>
        <time>2010-10-21T12:11:46Z</time>
      </trkpt>
      <trkpt lat="45.51789" lon="4.45838">
        <ele>698.05</ele>
        <time>2010-10-21T12:11:47Z</time>
      </trkpt>
      <trkpt lat="45.51791" lon="4.45843">
        <ele>698.05</ele>
        <time>2010-10-21T12:11:50Z</time>
      </trkpt>
      <trkpt lat="45.51793" lon="4.45845">
        <ele>697.57</ele>
        <time>2010-10-21T12:11:51Z</time>
      </trkpt>
      <trkpt lat="45.51794" lon="4.45847">
        <ele>698.05</ele>
        <time>2010-10-21T12:11:52Z</time>
      </trkpt>
      <trkpt lat="45.51796" lon="4.45849">
        <ele>698.53</ele>
        <time>2010-10-21T12:11:53Z</time>
      </trkpt>
      <trkpt lat="45.51798" lon="4.45851">
        <ele>698.05</ele>
        <time>2010-10-21T12:11:54Z</time>
      </trkpt>
      <trkpt lat="45.51799" lon="4.45852">
        <ele>698.05</ele>
        <time>2010-10-21T12:11:55Z</time>
      </trkpt>
      <trkpt lat="45.518" lon="4.45854">
        <ele>698.05</ele>
        <time>2010-10-21T12:11:56Z</time>
      </trkpt>
      <trkpt lat="45.51807" lon="4.4586">
        <ele>697.57</ele>
        <time>2010-10-21T12:12:00Z</time>
      </trkpt>
      <trkpt lat="45.51809" lon="4.45861">
        <ele>698.53</ele>
        <time>2010-10-21T12:12:01Z</time>
      </trkpt>
      <trkpt lat="45.5181" lon="4.45862">
        <ele>698.05</ele>
        <time>2010-10-21T12:12:02Z</time>
      </trkpt>
      <trkpt lat="45.51812" lon="4.45864">
        <ele>698.05</ele>
        <time>2010-10-21T12:12:03Z</time>
      </trkpt>
      <trkpt lat="45.51813" lon="4.45866">
        <ele>697.57</ele>
        <time>2010-10-21T12:12:04Z</time>
      </trkpt>
      <trkpt lat="45.51814" lon="4.45868">
        <ele>698.53</ele>
        <time>2010-10-21T12:12:05Z</time>
      </trkpt>
      <trkpt lat="45.51816" lon="4.4587">
        <ele>698.05</ele>
        <time>2010-10-21T12:12:06Z</time>
      </trkpt>
      <trkpt lat="45.51818" lon="4.45872">
        <ele>698.53</ele>
        <time>2010-10-21T12:12:07Z</time>
      </trkpt>
      <trkpt lat="45.51819" lon="4.45874">
        <ele>698.53</ele>
        <time>2010-10-21T12:12:08Z</time>
      </trkpt>
      <trkpt lat="45.51821" lon="4.45875">
        <ele>698.53</ele>
        <time>2010-10-21T12:12:09Z</time>
      </trkpt>
      <trkpt lat="45.51823" lon="4.45876">
        <ele>698.53</ele>
        <time>2010-10-21T12:12:10Z</time>
      </trkpt>
      <trkpt lat="45.51825" lon="4.45878">
        <ele>698.53</ele>
        <time>2010-10-21T12:12:11Z</time>
      </trkpt>
      <trkpt lat="45.51827" lon="4.4588">
        <ele>698.53</ele>
        <time>2010-10-21T12:12:12Z</time>
      </trkpt>
      <trkpt lat="45.51829" lon="4.45883">
        <ele>698.53</ele>
        <time>2010-10-21T12:12:13Z</time>
      </trkpt>
      <trkpt lat="45.5183" lon="4.45885">
        <ele>699.02</ele>
        <time>2010-10-21T12:12:14Z</time>
      </trkpt>
      <trkpt lat="45.51832" lon="4.45887">
        <ele>698.53</ele>
        <time>2010-10-21T12:12:15Z</time>
      </trkpt>
      <trkpt lat="45.51833" lon="4.45889">
        <ele>698.53</ele>
        <time>2010-10-21T12:12:16Z</time>
      </trkpt>
      <trkpt lat="45.51835" lon="4.4589">
        <ele>698.53</ele>
        <time>2010-10-21T12:12:17Z</time>
      </trkpt>
      <trkpt lat="45.51837" lon="4.45892">
        <ele>698.53</ele>
        <time>2010-10-21T12:12:18Z</time>
      </trkpt>
      <trkpt lat="45.51854" lon="4.45907">
        <ele>698.05</ele>
        <time>2010-10-21T12:12:26Z</time>
      </trkpt>
      <trkpt lat="45.51867" lon="4.45916">
        <ele>697.57</ele>
        <time>2010-10-21T12:12:32Z</time>
      </trkpt>
      <trkpt lat="45.51868" lon="4.45919">
        <ele>697.57</ele>
        <time>2010-10-21T12:12:33Z</time>
      </trkpt>
      <trkpt lat="45.5187" lon="4.45921">
        <ele>698.05</ele>
        <time>2010-10-21T12:12:34Z</time>
      </trkpt>
      <trkpt lat="45.51872" lon="4.45922">
        <ele>697.09</ele>
        <time>2010-10-21T12:12:35Z</time>
      </trkpt>
      <trkpt lat="45.51874" lon="4.45923">
        <ele>697.57</ele>
        <time>2010-10-21T12:12:36Z</time>
      </trkpt>
      <trkpt lat="45.51878" lon="4.45927">
        <ele>697.09</ele>
        <time>2010-10-21T12:12:38Z</time>
      </trkpt>
      <trkpt lat="45.5188" lon="4.45929">
        <ele>696.13</ele>
        <time>2010-10-21T12:12:39Z</time>
      </trkpt>
      <trkpt lat="45.51882" lon="4.45932">
        <ele>698.53</ele>
        <time>2010-10-21T12:12:40Z</time>
      </trkpt>
      <trkpt lat="45.51883" lon="4.45935">
        <ele>697.09</ele>
        <time>2010-10-21T12:12:41Z</time>
      </trkpt>
      <trkpt lat="45.51884" lon="4.45937">
        <ele>696.61</ele>
        <time>2010-10-21T12:12:42Z</time>
      </trkpt>
      <trkpt lat="45.51885" lon="4.4594">
        <ele>697.09</ele>
        <time>2010-10-21T12:12:43Z</time>
      </trkpt>
      <trkpt lat="45.51887" lon="4.45942">
        <ele>696.61</ele>
        <time>2010-10-21T12:12:44Z</time>
      </trkpt>
      <trkpt lat="45.51889" lon="4.45945">
        <ele>696.61</ele>
        <time>2010-10-21T12:12:45Z</time>
      </trkpt>
      <trkpt lat="45.51898" lon="4.45959">
        <ele>696.61</ele>
        <time>2010-10-21T12:12:50Z</time>
      </trkpt>
      <trkpt lat="45.51901" lon="4.45961">
        <ele>696.13</ele>
        <time>2010-10-21T12:12:51Z</time>
      </trkpt>
      <trkpt lat="45.51904" lon="4.45962">
        <ele>695.65</ele>
        <time>2010-10-21T12:12:52Z</time>
      </trkpt>
      <trkpt lat="45.51907" lon="4.45963">
        <ele>695.65</ele>
        <time>2010-10-21T12:12:53Z</time>
      </trkpt>
      <trkpt lat="45.51909" lon="4.45964">
        <ele>694.69</ele>
        <time>2010-10-21T12:12:54Z</time>
      </trkpt>
      <trkpt lat="45.51912" lon="4.45967">
        <ele>695.65</ele>
        <time>2010-10-21T12:12:55Z</time>
      </trkpt>
      <trkpt lat="45.51914" lon="4.45969">
        <ele>697.09</ele>
        <time>2010-10-21T12:12:56Z</time>
      </trkpt>
      <trkpt lat="45.51916" lon="4.45971">
        <ele>694.69</ele>
        <time>2010-10-21T12:12:57Z</time>
      </trkpt>
      <trkpt lat="45.51918" lon="4.45973">
        <ele>694.69</ele>
        <time>2010-10-21T12:12:58Z</time>
      </trkpt>
      <trkpt lat="45.51921" lon="4.45974">
        <ele>694.21</ele>
        <time>2010-10-21T12:12:59Z</time>
      </trkpt>
      <trkpt lat="45.51942" lon="4.45984">
        <ele>694.69</ele>
        <time>2010-10-21T12:13:08Z</time>
      </trkpt>
      <trkpt lat="45.51947" lon="4.45986">
        <ele>694.21</ele>
        <time>2010-10-21T12:13:11Z</time>
      </trkpt>
      <trkpt lat="45.5195" lon="4.45987">
        <ele>693.73</ele>
        <time>2010-10-21T12:13:12Z</time>
      </trkpt>
      <trkpt lat="45.51952" lon="4.45988">
        <ele>693.73</ele>
        <time>2010-10-21T12:13:13Z</time>
      </trkpt>
      <trkpt lat="45.51963" lon="4.46002">
        <ele>693.25</ele>
        <time>2010-10-21T12:13:20Z</time>
      </trkpt>
      <trkpt lat="45.51963" lon="4.46005">
        <ele>692.29</ele>
        <time>2010-10-21T12:13:21Z</time>
      </trkpt>
      <trkpt lat="45.51963" lon="4.46008">
        <ele>691.81</ele>
        <time>2010-10-21T12:13:22Z</time>
      </trkpt>
      <trkpt lat="45.51967" lon="4.46033">
        <ele>692.29</ele>
        <time>2010-10-21T12:13:29Z</time>
      </trkpt>
      <trkpt lat="45.51967" lon="4.46037">
        <ele>691.33</ele>
        <time>2010-10-21T12:13:30Z</time>
      </trkpt>
      <trkpt lat="45.51968" lon="4.46041">
        <ele>691.33</ele>
        <time>2010-10-21T12:13:31Z</time>
      </trkpt>
      <trkpt lat="45.51969" lon="4.4605">
        <ele>690.36</ele>
        <time>2010-10-21T12:13:33Z</time>
      </trkpt>
      <trkpt lat="45.51972" lon="4.4606">
        <ele>690.84</ele>
        <time>2010-10-21T12:13:36Z</time>
      </trkpt>
      <trkpt lat="45.51973" lon="4.46063">
        <ele>690.36</ele>
        <time>2010-10-21T12:13:37Z</time>
      </trkpt>
      <trkpt lat="45.51975" lon="4.46065">
        <ele>688.92</ele>
        <time>2010-10-21T12:13:38Z</time>
      </trkpt>
      <trkpt lat="45.51976" lon="4.46069">
        <ele>689.4</ele>
        <time>2010-10-21T12:13:39Z</time>
      </trkpt>
      <trkpt lat="45.51979" lon="4.46079">
        <ele>689.4</ele>
        <time>2010-10-21T12:13:42Z</time>
      </trkpt>
      <trkpt lat="45.51985" lon="4.46086">
        <ele>689.4</ele>
        <time>2010-10-21T12:13:45Z</time>
      </trkpt>
      <trkpt lat="45.51989" lon="4.46098">
        <ele>689.4</ele>
        <time>2010-10-21T12:13:49Z</time>
      </trkpt>
      <trkpt lat="45.51989" lon="4.46101">
        <ele>689.88</ele>
        <time>2010-10-21T12:13:50Z</time>
      </trkpt>
      <trkpt lat="45.51989" lon="4.46105">
        <ele>689.88</ele>
        <time>2010-10-21T12:13:51Z</time>
      </trkpt>
      <trkpt lat="45.51989" lon="4.46108">
        <ele>689.4</ele>
        <time>2010-10-21T12:13:52Z</time>
      </trkpt>
      <trkpt lat="45.51988" lon="4.46111">
        <ele>690.36</ele>
        <time>2010-10-21T12:13:53Z</time>
      </trkpt>
      <trkpt lat="45.51988" lon="4.46114">
        <ele>689.4</ele>
        <time>2010-10-21T12:13:54Z</time>
      </trkpt>
      <trkpt lat="45.51988" lon="4.46117">
        <ele>689.88</ele>
        <time>2010-10-21T12:13:55Z</time>
      </trkpt>
      <trkpt lat="45.51985" lon="4.46138">
        <ele>689.4</ele>
        <time>2010-10-21T12:14:02Z</time>
      </trkpt>
      <trkpt lat="45.51984" lon="4.46142">
        <ele>690.36</ele>
        <time>2010-10-21T12:14:03Z</time>
      </trkpt>
      <trkpt lat="45.5198" lon="4.46153">
        <ele>690.36</ele>
        <time>2010-10-21T12:14:06Z</time>
      </trkpt>
      <trkpt lat="45.51978" lon="4.46156">
        <ele>689.88</ele>
        <time>2010-10-21T12:14:07Z</time>
      </trkpt>
      <trkpt lat="45.51977" lon="4.4616">
        <ele>690.36</ele>
        <time>2010-10-21T12:14:08Z</time>
      </trkpt>
      <trkpt lat="45.51976" lon="4.46164">
        <ele>689.4</ele>
        <time>2010-10-21T12:14:09Z</time>
      </trkpt>
      <trkpt lat="45.51975" lon="4.46168">
        <ele>690.84</ele>
        <time>2010-10-21T12:14:10Z</time>
      </trkpt>
      <trkpt lat="45.51971" lon="4.46196">
        <ele>691.33</ele>
        <time>2010-10-21T12:14:19Z</time>
      </trkpt>
      <trkpt lat="45.5197" lon="4.46208">
        <ele>691.33</ele>
        <time>2010-10-21T12:14:23Z</time>
      </trkpt>
      <trkpt lat="45.51969" lon="4.46212">
        <ele>690.84</ele>
        <time>2010-10-21T12:14:24Z</time>
      </trkpt>
      <trkpt lat="45.51968" lon="4.4622">
        <ele>692.29</ele>
        <time>2010-10-21T12:14:26Z</time>
      </trkpt>
      <trkpt lat="45.51968" lon="4.46226">
        <ele>691.81</ele>
        <time>2010-10-21T12:14:28Z</time>
      </trkpt>
      <trkpt lat="45.51969" lon="4.46229">
        <ele>692.29</ele>
        <time>2010-10-21T12:14:29Z</time>
      </trkpt>
      <trkpt lat="45.51969" lon="4.46232">
        <ele>691.81</ele>
        <time>2010-10-21T12:14:30Z</time>
      </trkpt>
      <trkpt lat="45.5197" lon="4.46234">
        <ele>692.29</ele>
        <time>2010-10-21T12:14:31Z</time>
      </trkpt>
      <trkpt lat="45.51971" lon="4.46236">
        <ele>692.29</ele>
        <time>2010-10-21T12:14:32Z</time>
      </trkpt>
      <trkpt lat="45.51971" lon="4.4624">
        <ele>692.29</ele>
        <time>2010-10-21T12:14:33Z</time>
      </trkpt>
      <trkpt lat="45.51972" lon="4.46242">
        <ele>692.77</ele>
        <time>2010-10-21T12:14:34Z</time>
      </trkpt>
      <trkpt lat="45.51972" lon="4.46245">
        <ele>692.29</ele>
        <time>2010-10-21T12:14:35Z</time>
      </trkpt>
      <trkpt lat="45.51971" lon="4.46248">
        <ele>692.29</ele>
        <time>2010-10-21T12:14:36Z</time>
      </trkpt>
      <trkpt lat="45.51971" lon="4.46251">
        <ele>693.73</ele>
        <time>2010-10-21T12:14:37Z</time>
      </trkpt>
      <trkpt lat="45.5197" lon="4.46255">
        <ele>693.73</ele>
        <time>2010-10-21T12:14:38Z</time>
      </trkpt>
      <trkpt lat="45.51968" lon="4.46259">
        <ele>693.25</ele>
        <time>2010-10-21T12:14:39Z</time>
      </trkpt>
      <trkpt lat="45.51966" lon="4.46263">
        <ele>692.77</ele>
        <time>2010-10-21T12:14:40Z</time>
      </trkpt>
      <trkpt lat="45.51965" lon="4.46266">
        <ele>693.73</ele>
        <time>2010-10-21T12:14:41Z</time>
      </trkpt>
      <trkpt lat="45.51965" lon="4.4627">
        <ele>693.73</ele>
        <time>2010-10-21T12:14:42Z</time>
      </trkpt>
      <trkpt lat="45.51964" lon="4.46273">
        <ele>693.73</ele>
        <time>2010-10-21T12:14:43Z</time>
      </trkpt>
      <trkpt lat="45.51963" lon="4.46275">
        <ele>694.21</ele>
        <time>2010-10-21T12:14:44Z</time>
      </trkpt>
      <trkpt lat="45.51965" lon="4.46284">
        <ele>694.69</ele>
        <time>2010-10-21T12:14:47Z</time>
      </trkpt>
      <trkpt lat="45.51965" lon="4.46289">
        <ele>694.21</ele>
        <time>2010-10-21T12:14:48Z</time>
      </trkpt>
      <trkpt lat="45.51964" lon="4.46293">
        <ele>694.21</ele>
        <time>2010-10-21T12:14:49Z</time>
      </trkpt>
      <trkpt lat="45.51965" lon="4.46318">
        <ele>694.21</ele>
        <time>2010-10-21T12:14:56Z</time>
      </trkpt>
      <trkpt lat="45.51966" lon="4.4632">
        <ele>694.69</ele>
        <time>2010-10-21T12:14:57Z</time>
      </trkpt>
      <trkpt lat="45.51966" lon="4.46324">
        <ele>695.17</ele>
        <time>2010-10-21T12:14:58Z</time>
      </trkpt>
      <trkpt lat="45.51967" lon="4.46327">
        <ele>693.73</ele>
        <time>2010-10-21T12:14:59Z</time>
      </trkpt>
      <trkpt lat="45.51968" lon="4.4633">
        <ele>695.65</ele>
        <time>2010-10-21T12:15:00Z</time>
      </trkpt>
      <trkpt lat="45.5197" lon="4.46335">
        <ele>695.17</ele>
        <time>2010-10-21T12:15:02Z</time>
      </trkpt>
      <trkpt lat="45.5197" lon="4.46338">
        <ele>694.69</ele>
        <time>2010-10-21T12:15:03Z</time>
      </trkpt>
      <trkpt lat="45.5197" lon="4.46341">
        <ele>695.17</ele>
        <time>2010-10-21T12:15:04Z</time>
      </trkpt>
      <trkpt lat="45.5197" lon="4.46343">
        <ele>694.69</ele>
        <time>2010-10-21T12:15:05Z</time>
      </trkpt>
      <trkpt lat="45.51971" lon="4.46346">
        <ele>694.69</ele>
        <time>2010-10-21T12:15:06Z</time>
      </trkpt>
      <trkpt lat="45.51973" lon="4.46353">
        <ele>694.21</ele>
        <time>2010-10-21T12:15:08Z</time>
      </trkpt>
      <trkpt lat="45.51973" lon="4.46355">
        <ele>694.69</ele>
        <time>2010-10-21T12:15:09Z</time>
      </trkpt>
      <trkpt lat="45.51973" lon="4.4636">
        <ele>693.73</ele>
        <time>2010-10-21T12:15:12Z</time>
      </trkpt>
      <trkpt lat="45.51974" lon="4.46363">
        <ele>694.21</ele>
        <time>2010-10-21T12:15:14Z</time>
      </trkpt>
      <trkpt lat="45.51978" lon="4.46367">
        <ele>694.69</ele>
        <time>2010-10-21T12:15:18Z</time>
      </trkpt>
      <trkpt lat="45.5198" lon="4.46368">
        <ele>693.73</ele>
        <time>2010-10-21T12:15:19Z</time>
      </trkpt>
      <trkpt lat="45.51982" lon="4.46369">
        <ele>694.69</ele>
        <time>2010-10-21T12:15:20Z</time>
      </trkpt>
      <trkpt lat="45.51983" lon="4.46371">
        <ele>695.17</ele>
        <time>2010-10-21T12:15:21Z</time>
      </trkpt>
      <trkpt lat="45.51984" lon="4.46371">
        <ele>695.17</ele>
        <time>2010-10-21T12:15:22Z</time>
      </trkpt>
      <trkpt lat="45.51984" lon="4.46372">
        <ele>694.69</ele>
        <time>2010-10-21T12:15:23Z</time>
      </trkpt>
      <trkpt lat="45.51985" lon="4.46374">
        <ele>694.69</ele>
        <time>2010-10-21T12:15:24Z</time>
      </trkpt>
      <trkpt lat="45.51993" lon="4.46386">
        <ele>694.21</ele>
        <time>2010-10-21T12:15:31Z</time>
      </trkpt>
      <trkpt lat="45.52005" lon="4.46415">
        <ele>695.17</ele>
        <time>2010-10-21T12:15:43Z</time>
      </trkpt>
      <trkpt lat="45.5201" lon="4.46425">
        <ele>694.21</ele>
        <time>2010-10-21T12:15:46Z</time>
      </trkpt>
      <trkpt lat="45.52012" lon="4.46428">
        <ele>694.21</ele>
        <time>2010-10-21T12:15:47Z</time>
      </trkpt>
      <trkpt lat="45.52014" lon="4.46431">
        <ele>694.21</ele>
        <time>2010-10-21T12:15:48Z</time>
      </trkpt>
      <trkpt lat="45.52031" lon="4.46452">
        <ele>693.25</ele>
        <time>2010-10-21T12:15:57Z</time>
      </trkpt>
      <trkpt lat="45.52035" lon="4.46461">
        <ele>694.21</ele>
        <time>2010-10-21T12:16:01Z</time>
      </trkpt>
      <trkpt lat="45.52045" lon="4.4648">
        <ele>693.25</ele>
        <time>2010-10-21T12:16:08Z</time>
      </trkpt>
      <trkpt lat="45.52048" lon="4.46481">
        <ele>694.21</ele>
        <time>2010-10-21T12:16:09Z</time>
      </trkpt>
      <trkpt lat="45.52052" lon="4.46482">
        <ele>694.21</ele>
        <time>2010-10-21T12:16:11Z</time>
      </trkpt>
      <trkpt lat="45.52054" lon="4.46486">
        <ele>693.25</ele>
        <time>2010-10-21T12:16:12Z</time>
      </trkpt>
      <trkpt lat="45.52055" lon="4.46489">
        <ele>692.77</ele>
        <time>2010-10-21T12:16:13Z</time>
      </trkpt>
      <trkpt lat="45.52058" lon="4.46491">
        <ele>693.73</ele>
        <time>2010-10-21T12:16:14Z</time>
      </trkpt>
      <trkpt lat="45.5206" lon="4.46493">
        <ele>693.73</ele>
        <time>2010-10-21T12:16:15Z</time>
      </trkpt>
      <trkpt lat="45.52062" lon="4.46495">
        <ele>692.77</ele>
        <time>2010-10-21T12:16:16Z</time>
      </trkpt>
      <trkpt lat="45.52064" lon="4.46498">
        <ele>692.77</ele>
        <time>2010-10-21T12:16:17Z</time>
      </trkpt>
      <trkpt lat="45.52068" lon="4.46503">
        <ele>693.25</ele>
        <time>2010-10-21T12:16:19Z</time>
      </trkpt>
      <trkpt lat="45.5207" lon="4.46505">
        <ele>693.73</ele>
        <time>2010-10-21T12:16:20Z</time>
      </trkpt>
      <trkpt lat="45.52072" lon="4.46507">
        <ele>693.25</ele>
        <time>2010-10-21T12:16:21Z</time>
      </trkpt>
      <trkpt lat="45.52074" lon="4.46508">
        <ele>693.25</ele>
        <time>2010-10-21T12:16:22Z</time>
      </trkpt>
      <trkpt lat="45.52077" lon="4.4651">
        <ele>693.73</ele>
        <time>2010-10-21T12:16:23Z</time>
      </trkpt>
      <trkpt lat="45.52078" lon="4.46512">
        <ele>693.73</ele>
        <time>2010-10-21T12:16:24Z</time>
      </trkpt>
      <trkpt lat="45.52088" lon="4.46525">
        <ele>693.25</ele>
        <time>2010-10-21T12:16:29Z</time>
      </trkpt>
      <trkpt lat="45.52096" lon="4.46534">
        <ele>694.21</ele>
        <time>2010-10-21T12:16:33Z</time>
      </trkpt>
      <trkpt lat="45.52097" lon="4.46536">
        <ele>695.65</ele>
        <time>2010-10-21T12:16:34Z</time>
      </trkpt>
      <trkpt lat="45.52099" lon="4.46539">
        <ele>694.69</ele>
        <time>2010-10-21T12:16:35Z</time>
      </trkpt>
      <trkpt lat="45.52101" lon="4.46541">
        <ele>692.77</ele>
        <time>2010-10-21T12:16:36Z</time>
      </trkpt>
      <trkpt lat="45.52103" lon="4.46542">
        <ele>694.21</ele>
        <time>2010-10-21T12:16:37Z</time>
      </trkpt>
      <trkpt lat="45.52106" lon="4.46543">
        <ele>693.25</ele>
        <time>2010-10-21T12:16:38Z</time>
      </trkpt>
      <trkpt lat="45.52108" lon="4.46546">
        <ele>694.69</ele>
        <time>2010-10-21T12:16:39Z</time>
      </trkpt>
      <trkpt lat="45.5211" lon="4.46549">
        <ele>694.69</ele>
        <time>2010-10-21T12:16:40Z</time>
      </trkpt>
      <trkpt lat="45.52111" lon="4.46551">
        <ele>694.69</ele>
        <time>2010-10-21T12:16:41Z</time>
      </trkpt>
      <trkpt lat="45.52112" lon="4.46554">
        <ele>695.17</ele>
        <time>2010-10-21T12:16:42Z</time>
      </trkpt>
      <trkpt lat="45.52113" lon="4.46558">
        <ele>695.17</ele>
        <time>2010-10-21T12:16:43Z</time>
      </trkpt>
      <trkpt lat="45.52115" lon="4.4656">
        <ele>695.17</ele>
        <time>2010-10-21T12:16:44Z</time>
      </trkpt>
      <trkpt lat="45.52118" lon="4.46562">
        <ele>694.21</ele>
        <time>2010-10-21T12:16:45Z</time>
      </trkpt>
      <trkpt lat="45.5212" lon="4.46563">
        <ele>695.65</ele>
        <time>2010-10-21T12:16:46Z</time>
      </trkpt>
      <trkpt lat="45.52123" lon="4.46565">
        <ele>695.17</ele>
        <time>2010-10-21T12:16:47Z</time>
      </trkpt>
      <trkpt lat="45.52126" lon="4.46569">
        <ele>695.65</ele>
        <time>2010-10-21T12:16:49Z</time>
      </trkpt>
      <trkpt lat="45.52128" lon="4.46571">
        <ele>696.13</ele>
        <time>2010-10-21T12:16:50Z</time>
      </trkpt>
      <trkpt lat="45.5213" lon="4.46574">
        <ele>695.17</ele>
        <time>2010-10-21T12:16:51Z</time>
      </trkpt>
      <trkpt lat="45.52131" lon="4.46576">
        <ele>696.61</ele>
        <time>2010-10-21T12:16:52Z</time>
      </trkpt>
      <trkpt lat="45.52133" lon="4.46578">
        <ele>696.13</ele>
        <time>2010-10-21T12:16:53Z</time>
      </trkpt>
      <trkpt lat="45.52135" lon="4.46581">
        <ele>696.13</ele>
        <time>2010-10-21T12:16:54Z</time>
      </trkpt>
      <trkpt lat="45.52137" lon="4.46584">
        <ele>696.13</ele>
        <time>2010-10-21T12:16:55Z</time>
      </trkpt>
      <trkpt lat="45.52138" lon="4.46586">
        <ele>696.61</ele>
        <time>2010-10-21T12:16:56Z</time>
      </trkpt>
      <trkpt lat="45.52139" lon="4.46589">
        <ele>696.13</ele>
        <time>2010-10-21T12:16:57Z</time>
      </trkpt>
      <trkpt lat="45.52141" lon="4.46592">
        <ele>697.09</ele>
        <time>2010-10-21T12:16:58Z</time>
      </trkpt>
      <trkpt lat="45.52152" lon="4.46616">
        <ele>698.05</ele>
        <time>2010-10-21T12:17:07Z</time>
      </trkpt>
      <trkpt lat="45.52165" lon="4.46639">
        <ele>698.53</ele>
        <time>2010-10-21T12:17:16Z</time>
      </trkpt>
      <trkpt lat="45.52171" lon="4.46651">
        <ele>699.5</ele>
        <time>2010-10-21T12:17:20Z</time>
      </trkpt>
      <trkpt lat="45.52172" lon="4.46653">
        <ele>699.5</ele>
        <time>2010-10-21T12:17:21Z</time>
      </trkpt>
      <trkpt lat="45.52173" lon="4.46656">
        <ele>699.02</ele>
        <time>2010-10-21T12:17:22Z</time>
      </trkpt>
      <trkpt lat="45.52176" lon="4.4666">
        <ele>699.5</ele>
        <time>2010-10-21T12:17:24Z</time>
      </trkpt>
      <trkpt lat="45.52178" lon="4.46662">
        <ele>700.46</ele>
        <time>2010-10-21T12:17:25Z</time>
      </trkpt>
      <trkpt lat="45.52185" lon="4.46669">
        <ele>699.98</ele>
        <time>2010-10-21T12:17:29Z</time>
      </trkpt>
      <trkpt lat="45.52187" lon="4.46672">
        <ele>699.5</ele>
        <time>2010-10-21T12:17:30Z</time>
      </trkpt>
      <trkpt lat="45.52188" lon="4.46674">
        <ele>700.94</ele>
        <time>2010-10-21T12:17:31Z</time>
      </trkpt>
      <trkpt lat="45.52204" lon="4.46694">
        <ele>701.9</ele>
        <time>2010-10-21T12:17:40Z</time>
      </trkpt>
      <trkpt lat="45.52217" lon="4.46717">
        <ele>700.94</ele>
        <time>2010-10-21T12:17:49Z</time>
      </trkpt>
      <trkpt lat="45.52218" lon="4.4672">
        <ele>700.94</ele>
        <time>2010-10-21T12:17:50Z</time>
      </trkpt>
      <trkpt lat="45.52219" lon="4.46724">
        <ele>700.94</ele>
        <time>2010-10-21T12:17:51Z</time>
      </trkpt>
      <trkpt lat="45.5222" lon="4.46727">
        <ele>700.46</ele>
        <time>2010-10-21T12:17:52Z</time>
      </trkpt>
      <trkpt lat="45.52221" lon="4.4673">
        <ele>700.46</ele>
        <time>2010-10-21T12:17:53Z</time>
      </trkpt>
      <trkpt lat="45.52222" lon="4.46733">
        <ele>700.94</ele>
        <time>2010-10-21T12:17:54Z</time>
      </trkpt>
      <trkpt lat="45.52222" lon="4.46737">
        <ele>700.46</ele>
        <time>2010-10-21T12:17:55Z</time>
      </trkpt>
      <trkpt lat="45.52222" lon="4.4674">
        <ele>699.98</ele>
        <time>2010-10-21T12:17:56Z</time>
      </trkpt>
      <trkpt lat="45.52223" lon="4.46743">
        <ele>699.98</ele>
        <time>2010-10-21T12:17:57Z</time>
      </trkpt>
      <trkpt lat="45.52223" lon="4.46747">
        <ele>699.98</ele>
        <time>2010-10-21T12:17:58Z</time>
      </trkpt>
      <trkpt lat="45.52224" lon="4.46752">
        <ele>700.94</ele>
        <time>2010-10-21T12:17:59Z</time>
      </trkpt>
      <trkpt lat="45.52224" lon="4.46756">
        <ele>701.42</ele>
        <time>2010-10-21T12:18:00Z</time>
      </trkpt>
      <trkpt lat="45.52224" lon="4.46759">
        <ele>702.38</ele>
        <time>2010-10-21T12:18:01Z</time>
      </trkpt>
      <trkpt lat="45.52225" lon="4.46762">
        <ele>700.94</ele>
        <time>2010-10-21T12:18:02Z</time>
      </trkpt>
      <trkpt lat="45.52225" lon="4.46765">
        <ele>700.46</ele>
        <time>2010-10-21T12:18:03Z</time>
      </trkpt>
      <trkpt lat="45.52225" lon="4.46769">
        <ele>700.46</ele>
        <time>2010-10-21T12:18:04Z</time>
      </trkpt>
      <trkpt lat="45.52224" lon="4.46777">
        <ele>700.46</ele>
        <time>2010-10-21T12:18:06Z</time>
      </trkpt>
      <trkpt lat="45.52224" lon="4.46781">
        <ele>700.46</ele>
        <time>2010-10-21T12:18:07Z</time>
      </trkpt>
      <trkpt lat="45.52224" lon="4.46785">
        <ele>699.98</ele>
        <time>2010-10-21T12:18:08Z</time>
      </trkpt>
      <trkpt lat="45.52227" lon="4.46804">
        <ele>698.05</ele>
        <time>2010-10-21T12:18:13Z</time>
      </trkpt>
      <trkpt lat="45.52227" lon="4.46808">
        <ele>699.98</ele>
        <time>2010-10-21T12:18:14Z</time>
      </trkpt>
      <trkpt lat="45.52227" lon="4.46812">
        <ele>699.98</ele>
        <time>2010-10-21T12:18:15Z</time>
      </trkpt>
      <trkpt lat="45.5223" lon="4.46832">
        <ele>699.98</ele>
        <time>2010-10-21T12:18:21Z</time>
      </trkpt>
      <trkpt lat="45.52231" lon="4.46836">
        <ele>699.5</ele>
        <time>2010-10-21T12:18:22Z</time>
      </trkpt>
      <trkpt lat="45.52237" lon="4.46866">
        <ele>700.46</ele>
        <time>2010-10-21T12:18:31Z</time>
      </trkpt>
      <trkpt lat="45.52238" lon="4.46872">
        <ele>700.46</ele>
        <time>2010-10-21T12:18:33Z</time>
      </trkpt>
      <trkpt lat="45.52243" lon="4.46887">
        <ele>699.5</ele>
        <time>2010-10-21T12:18:37Z</time>
      </trkpt>
      <trkpt lat="45.52248" lon="4.46924">
        <ele>699.98</ele>
        <time>2010-10-21T12:18:47Z</time>
      </trkpt>
      <trkpt lat="45.52257" lon="4.46954">
        <ele>700.94</ele>
        <time>2010-10-21T12:18:56Z</time>
      </trkpt>
      <trkpt lat="45.52263" lon="4.46967">
        <ele>701.9</ele>
        <time>2010-10-21T12:19:00Z</time>
      </trkpt>
      <trkpt lat="45.52264" lon="4.46969">
        <ele>701.9</ele>
        <time>2010-10-21T12:19:01Z</time>
      </trkpt>
      <trkpt lat="45.52265" lon="4.46972">
        <ele>703.34</ele>
        <time>2010-10-21T12:19:02Z</time>
      </trkpt>
      <trkpt lat="45.52266" lon="4.46975">
        <ele>703.34</ele>
        <time>2010-10-21T12:19:03Z</time>
      </trkpt>
      <trkpt lat="45.52267" lon="4.46977">
        <ele>703.34</ele>
        <time>2010-10-21T12:19:04Z</time>
      </trkpt>
      <trkpt lat="45.52269" lon="4.4698">
        <ele>702.86</ele>
        <time>2010-10-21T12:19:05Z</time>
      </trkpt>
      <trkpt lat="45.5227" lon="4.46983">
        <ele>702.38</ele>
        <time>2010-10-21T12:19:06Z</time>
      </trkpt>
      <trkpt lat="45.52272" lon="4.46986">
        <ele>702.86</ele>
        <time>2010-10-21T12:19:07Z</time>
      </trkpt>
      <trkpt lat="45.52273" lon="4.46988">
        <ele>703.34</ele>
        <time>2010-10-21T12:19:08Z</time>
      </trkpt>
      <trkpt lat="45.52274" lon="4.46991">
        <ele>703.82</ele>
        <time>2010-10-21T12:19:09Z</time>
      </trkpt>
      <trkpt lat="45.5228" lon="4.47016">
        <ele>704.78</ele>
        <time>2010-10-21T12:19:17Z</time>
      </trkpt>
      <trkpt lat="45.52287" lon="4.47043">
        <ele>708.15</ele>
        <time>2010-10-21T12:19:26Z</time>
      </trkpt>
      <trkpt lat="45.52289" lon="4.4705">
        <ele>707.67</ele>
        <time>2010-10-21T12:19:28Z</time>
      </trkpt>
      <trkpt lat="45.52289" lon="4.47053">
        <ele>706.71</ele>
        <time>2010-10-21T12:19:29Z</time>
      </trkpt>
      <trkpt lat="45.52293" lon="4.47073">
        <ele>708.63</ele>
        <time>2010-10-21T12:19:36Z</time>
      </trkpt>
      <trkpt lat="45.52293" lon="4.47076">
        <ele>710.07</ele>
        <time>2010-10-21T12:19:37Z</time>
      </trkpt>
      <trkpt lat="45.52296" lon="4.47091">
        <ele>711.51</ele>
        <time>2010-10-21T12:19:42Z</time>
      </trkpt>
      <trkpt lat="45.52298" lon="4.47093">
        <ele>712.47</ele>
        <time>2010-10-21T12:19:43Z</time>
      </trkpt>
      <trkpt lat="45.52299" lon="4.47096">
        <ele>711.51</ele>
        <time>2010-10-21T12:19:44Z</time>
      </trkpt>
      <trkpt lat="45.523" lon="4.47098">
        <ele>711.51</ele>
        <time>2010-10-21T12:19:45Z</time>
      </trkpt>
      <trkpt lat="45.52301" lon="4.471">
        <ele>711.51</ele>
        <time>2010-10-21T12:19:46Z</time>
      </trkpt>
      <trkpt lat="45.52301" lon="4.47103">
        <ele>711.99</ele>
        <time>2010-10-21T12:19:47Z</time>
      </trkpt>
      <trkpt lat="45.52303" lon="4.47106">
        <ele>711.99</ele>
        <time>2010-10-21T12:19:48Z</time>
      </trkpt>
      <trkpt lat="45.52304" lon="4.47108">
        <ele>712.47</ele>
        <time>2010-10-21T12:19:49Z</time>
      </trkpt>
      <trkpt lat="45.52305" lon="4.47111">
        <ele>712.95</ele>
        <time>2010-10-21T12:19:50Z</time>
      </trkpt>
      <trkpt lat="45.52305" lon="4.47114">
        <ele>712.95</ele>
        <time>2010-10-21T12:19:51Z</time>
      </trkpt>
      <trkpt lat="45.52305" lon="4.47116">
        <ele>712.47</ele>
        <time>2010-10-21T12:19:52Z</time>
      </trkpt>
      <trkpt lat="45.52306" lon="4.4712">
        <ele>711.99</ele>
        <time>2010-10-21T12:19:53Z</time>
      </trkpt>
      <trkpt lat="45.52307" lon="4.47123">
        <ele>712.95</ele>
        <time>2010-10-21T12:19:54Z</time>
      </trkpt>
      <trkpt lat="45.52308" lon="4.47127">
        <ele>713.44</ele>
        <time>2010-10-21T12:19:55Z</time>
      </trkpt>
      <trkpt lat="45.5231" lon="4.4713">
        <ele>713.44</ele>
        <time>2010-10-21T12:19:56Z</time>
      </trkpt>
      <trkpt lat="45.52311" lon="4.47133">
        <ele>713.44</ele>
        <time>2010-10-21T12:19:57Z</time>
      </trkpt>
      <trkpt lat="45.52312" lon="4.47137">
        <ele>713.92</ele>
        <time>2010-10-21T12:19:58Z</time>
      </trkpt>
      <trkpt lat="45.52313" lon="4.4714">
        <ele>713.92</ele>
        <time>2010-10-21T12:19:59Z</time>
      </trkpt>
      <trkpt lat="45.52321" lon="4.47161">
        <ele>715.84</ele>
        <time>2010-10-21T12:20:07Z</time>
      </trkpt>
      <trkpt lat="45.52322" lon="4.47174">
        <ele>715.84</ele>
        <time>2010-10-21T12:20:11Z</time>
      </trkpt>
      <trkpt lat="45.52323" lon="4.47177">
        <ele>716.8</ele>
        <time>2010-10-21T12:20:12Z</time>
      </trkpt>
      <trkpt lat="45.52323" lon="4.47179">
        <ele>717.28</ele>
        <time>2010-10-21T12:20:13Z</time>
      </trkpt>
      <trkpt lat="45.52323" lon="4.47181">
        <ele>717.76</ele>
        <time>2010-10-21T12:20:14Z</time>
      </trkpt>
      <trkpt lat="45.52323" lon="4.47183">
        <ele>717.28</ele>
        <time>2010-10-21T12:20:15Z</time>
      </trkpt>
      <trkpt lat="45.52324" lon="4.47186">
        <ele>717.76</ele>
        <time>2010-10-21T12:20:16Z</time>
      </trkpt>
      <trkpt lat="45.52324" lon="4.47189">
        <ele>718.24</ele>
        <time>2010-10-21T12:20:17Z</time>
      </trkpt>
      <trkpt lat="45.52325" lon="4.47191">
        <ele>718.24</ele>
        <time>2010-10-21T12:20:18Z</time>
      </trkpt>
      <trkpt lat="45.52326" lon="4.47197">
        <ele>718.72</ele>
        <time>2010-10-21T12:20:20Z</time>
      </trkpt>
      <trkpt lat="45.52325" lon="4.472">
        <ele>718.72</ele>
        <time>2010-10-21T12:20:21Z</time>
      </trkpt>
      <trkpt lat="45.52325" lon="4.47203">
        <ele>719.68</ele>
        <time>2010-10-21T12:20:22Z</time>
      </trkpt>
      <trkpt lat="45.52325" lon="4.47206">
        <ele>719.2</ele>
        <time>2010-10-21T12:20:23Z</time>
      </trkpt>
      <trkpt lat="45.52326" lon="4.47209">
        <ele>720.16</ele>
        <time>2010-10-21T12:20:24Z</time>
      </trkpt>
      <trkpt lat="45.52327" lon="4.47213">
        <ele>720.16</ele>
        <time>2010-10-21T12:20:25Z</time>
      </trkpt>
      <trkpt lat="45.52327" lon="4.47216">
        <ele>719.2</ele>
        <time>2010-10-21T12:20:26Z</time>
      </trkpt>
      <trkpt lat="45.52328" lon="4.4722">
        <ele>720.65</ele>
        <time>2010-10-21T12:20:27Z</time>
      </trkpt>
      <trkpt lat="45.5233" lon="4.47224">
        <ele>720.16</ele>
        <time>2010-10-21T12:20:28Z</time>
      </trkpt>
      <trkpt lat="45.5233" lon="4.4723">
        <ele>720.65</ele>
        <time>2010-10-21T12:20:30Z</time>
      </trkpt>
      <trkpt lat="45.5233" lon="4.47232">
        <ele>721.13</ele>
        <time>2010-10-21T12:20:31Z</time>
      </trkpt>
      <trkpt lat="45.52332" lon="4.47256">
        <ele>722.57</ele>
        <time>2010-10-21T12:20:39Z</time>
      </trkpt>
      <trkpt lat="45.52332" lon="4.47259">
        <ele>722.09</ele>
        <time>2010-10-21T12:20:40Z</time>
      </trkpt>
      <trkpt lat="45.52332" lon="4.47261">
        <ele>722.57</ele>
        <time>2010-10-21T12:20:41Z</time>
      </trkpt>
      <trkpt lat="45.52336" lon="4.47269">
        <ele>723.53</ele>
        <time>2010-10-21T12:20:51Z</time>
      </trkpt>
      <trkpt lat="45.52339" lon="4.47275">
        <ele>723.05</ele>
        <time>2010-10-21T12:20:56Z</time>
      </trkpt>
      <trkpt lat="45.52339" lon="4.47278">
        <ele>723.53</ele>
        <time>2010-10-21T12:20:57Z</time>
      </trkpt>
      <trkpt lat="45.5234" lon="4.47279">
        <ele>723.53</ele>
        <time>2010-10-21T12:20:58Z</time>
      </trkpt>
      <trkpt lat="45.52345" lon="4.47291">
        <ele>723.53</ele>
        <time>2010-10-21T12:21:05Z</time>
      </trkpt>
      <trkpt lat="45.52346" lon="4.47293">
        <ele>723.05</ele>
        <time>2010-10-21T12:21:06Z</time>
      </trkpt>
      <trkpt lat="45.52359" lon="4.47317">
        <ele>723.05</ele>
        <time>2010-10-21T12:21:21Z</time>
      </trkpt>
      <trkpt lat="45.52364" lon="4.47325">
        <ele>723.05</ele>
        <time>2010-10-21T12:21:26Z</time>
      </trkpt>
      <trkpt lat="45.52365" lon="4.47327">
        <ele>723.05</ele>
        <time>2010-10-21T12:21:27Z</time>
      </trkpt>
      <trkpt lat="45.52366" lon="4.47328">
        <ele>723.05</ele>
        <time>2010-10-21T12:21:28Z</time>
      </trkpt>
      <trkpt lat="45.52372" lon="4.47336">
        <ele>724.01</ele>
        <time>2010-10-21T12:21:40Z</time>
      </trkpt>
      <trkpt lat="45.52381" lon="4.47354">
        <ele>722.57</ele>
        <time>2010-10-21T12:21:47Z</time>
      </trkpt>
      <trkpt lat="45.52391" lon="4.47377">
        <ele>721.61</ele>
        <time>2010-10-21T12:21:54Z</time>
      </trkpt>
      <trkpt lat="45.52392" lon="4.4738">
        <ele>722.09</ele>
        <time>2010-10-21T12:21:55Z</time>
      </trkpt>
      <trkpt lat="45.52393" lon="4.47383">
        <ele>721.61</ele>
        <time>2010-10-21T12:21:56Z</time>
      </trkpt>
      <trkpt lat="45.52394" lon="4.47386">
        <ele>722.57</ele>
        <time>2010-10-21T12:21:57Z</time>
      </trkpt>
      <trkpt lat="45.52394" lon="4.47388">
        <ele>721.13</ele>
        <time>2010-10-21T12:21:58Z</time>
      </trkpt>
      <trkpt lat="45.52394" lon="4.47391">
        <ele>722.57</ele>
        <time>2010-10-21T12:21:59Z</time>
      </trkpt>
      <trkpt lat="45.52398" lon="4.47408">
        <ele>723.53</ele>
        <time>2010-10-21T12:22:05Z</time>
      </trkpt>
      <trkpt lat="45.52399" lon="4.47411">
        <ele>722.09</ele>
        <time>2010-10-21T12:22:06Z</time>
      </trkpt>
      <trkpt lat="45.524" lon="4.47414">
        <ele>724.01</ele>
        <time>2010-10-21T12:22:07Z</time>
      </trkpt>
      <trkpt lat="45.52402" lon="4.47428">
        <ele>724.01</ele>
        <time>2010-10-21T12:22:11Z</time>
      </trkpt>
      <trkpt lat="45.52402" lon="4.47431">
        <ele>724.97</ele>
        <time>2010-10-21T12:22:12Z</time>
      </trkpt>
      <trkpt lat="45.52401" lon="4.47433">
        <ele>724.49</ele>
        <time>2010-10-21T12:22:13Z</time>
      </trkpt>
      <trkpt lat="45.52401" lon="4.47436">
        <ele>724.97</ele>
        <time>2010-10-21T12:22:14Z</time>
      </trkpt>
      <trkpt lat="45.524" lon="4.47439">
        <ele>724.49</ele>
        <time>2010-10-21T12:22:15Z</time>
      </trkpt>
      <trkpt lat="45.52399" lon="4.47442">
        <ele>724.49</ele>
        <time>2010-10-21T12:22:16Z</time>
      </trkpt>
      <trkpt lat="45.52398" lon="4.47445">
        <ele>724.49</ele>
        <time>2010-10-21T12:22:17Z</time>
      </trkpt>
      <trkpt lat="45.52397" lon="4.47448">
        <ele>723.53</ele>
        <time>2010-10-21T12:22:18Z</time>
      </trkpt>
      <trkpt lat="45.52397" lon="4.47451">
        <ele>724.49</ele>
        <time>2010-10-21T12:22:19Z</time>
      </trkpt>
      <trkpt lat="45.52396" lon="4.47455">
        <ele>724.97</ele>
        <time>2010-10-21T12:22:20Z</time>
      </trkpt>
      <trkpt lat="45.52396" lon="4.47458">
        <ele>724.97</ele>
        <time>2010-10-21T12:22:21Z</time>
      </trkpt>
      <trkpt lat="45.52391" lon="4.47493">
        <ele>724.01</ele>
        <time>2010-10-21T12:22:32Z</time>
      </trkpt>
      <trkpt lat="45.52391" lon="4.47498">
        <ele>723.53</ele>
        <time>2010-10-21T12:22:34Z</time>
      </trkpt>
      <trkpt lat="45.5239" lon="4.47502">
        <ele>724.01</ele>
        <time>2010-10-21T12:22:35Z</time>
      </trkpt>
      <trkpt lat="45.52388" lon="4.47529">
        <ele>723.05</ele>
        <time>2010-10-21T12:22:43Z</time>
      </trkpt>
      <trkpt lat="45.52388" lon="4.47543">
        <ele>721.13</ele>
        <time>2010-10-21T12:22:47Z</time>
      </trkpt>
      <trkpt lat="45.5239" lon="4.47565">
        <ele>721.61</ele>
        <time>2010-10-21T12:22:53Z</time>
      </trkpt>
      <trkpt lat="45.5239" lon="4.47569">
        <ele>719.2</ele>
        <time>2010-10-21T12:22:54Z</time>
      </trkpt>
      <trkpt lat="45.52393" lon="4.47605">
        <ele>715.84</ele>
        <time>2010-10-21T12:23:03Z</time>
      </trkpt>
      <trkpt lat="45.52396" lon="4.47649">
        <ele>713.92</ele>
        <time>2010-10-21T12:23:14Z</time>
      </trkpt>
      <trkpt lat="45.52397" lon="4.47681">
        <ele>713.92</ele>
        <time>2010-10-21T12:23:23Z</time>
      </trkpt>
      <trkpt lat="45.52399" lon="4.47703">
        <ele>712.95</ele>
        <time>2010-10-21T12:23:30Z</time>
      </trkpt>
      <trkpt lat="45.52401" lon="4.47704">
        <ele>712.47</ele>
        <time>2010-10-21T12:23:31Z</time>
      </trkpt>
      <trkpt lat="45.52404" lon="4.47705">
        <ele>712.95</ele>
        <time>2010-10-21T12:23:32Z</time>
      </trkpt>
      <trkpt lat="45.52406" lon="4.47705">
        <ele>712.95</ele>
        <time>2010-10-21T12:23:33Z</time>
      </trkpt>
      <trkpt lat="45.52409" lon="4.47706">
        <ele>712.47</ele>
        <time>2010-10-21T12:23:34Z</time>
      </trkpt>
      <trkpt lat="45.52411" lon="4.47706">
        <ele>712.95</ele>
        <time>2010-10-21T12:23:35Z</time>
      </trkpt>
      <trkpt lat="45.52413" lon="4.47706">
        <ele>713.44</ele>
        <time>2010-10-21T12:23:36Z</time>
      </trkpt>
      <trkpt lat="45.52415" lon="4.47706">
        <ele>712.47</ele>
        <time>2010-10-21T12:23:37Z</time>
      </trkpt>
      <trkpt lat="45.52418" lon="4.47706">
        <ele>712.95</ele>
        <time>2010-10-21T12:23:38Z</time>
      </trkpt>
      <trkpt lat="45.52439" lon="4.47706">
        <ele>712.47</ele>
        <time>2010-10-21T12:23:47Z</time>
      </trkpt>
      <trkpt lat="45.52464" lon="4.47711">
        <ele>710.55</ele>
        <time>2010-10-21T12:23:56Z</time>
      </trkpt>
      <trkpt lat="45.52467" lon="4.47712">
        <ele>710.07</ele>
        <time>2010-10-21T12:23:57Z</time>
      </trkpt>
      <trkpt lat="45.52469" lon="4.47713">
        <ele>710.55</ele>
        <time>2010-10-21T12:23:58Z</time>
      </trkpt>
      <trkpt lat="45.52472" lon="4.47715">
        <ele>709.59</ele>
        <time>2010-10-21T12:23:59Z</time>
      </trkpt>
      <trkpt lat="45.52484" lon="4.47718">
        <ele>708.15</ele>
        <time>2010-10-21T12:24:04Z</time>
      </trkpt>
      <trkpt lat="45.52487" lon="4.47718">
        <ele>707.67</ele>
        <time>2010-10-21T12:24:05Z</time>
      </trkpt>
      <trkpt lat="45.5249" lon="4.47719">
        <ele>706.71</ele>
        <time>2010-10-21T12:24:06Z</time>
      </trkpt>
      <trkpt lat="45.52515" lon="4.47725">
        <ele>703.82</ele>
        <time>2010-10-21T12:24:15Z</time>
      </trkpt>
      <trkpt lat="45.52531" lon="4.4773">
        <ele>699.98</ele>
        <time>2010-10-21T12:24:20Z</time>
      </trkpt>
      <trkpt lat="45.52553" lon="4.47738">
        <ele>699.02</ele>
        <time>2010-10-21T12:24:27Z</time>
      </trkpt>
      <trkpt lat="45.52571" lon="4.47742">
        <ele>695.65</ele>
        <time>2010-10-21T12:24:35Z</time>
      </trkpt>
      <trkpt lat="45.5258" lon="4.47742">
        <ele>695.17</ele>
        <time>2010-10-21T12:24:38Z</time>
      </trkpt>
      <trkpt lat="45.52588" lon="4.47744">
        <ele>695.17</ele>
        <time>2010-10-21T12:24:42Z</time>
      </trkpt>
      <trkpt lat="45.5259" lon="4.47744">
        <ele>695.65</ele>
        <time>2010-10-21T12:24:43Z</time>
      </trkpt>
      <trkpt lat="45.52592" lon="4.47745">
        <ele>695.65</ele>
        <time>2010-10-21T12:24:44Z</time>
      </trkpt>
      <trkpt lat="45.52593" lon="4.47746">
        <ele>693.73</ele>
        <time>2010-10-21T12:24:45Z</time>
      </trkpt>
      <trkpt lat="45.52605" lon="4.47759">
        <ele>693.25</ele>
        <time>2010-10-21T12:24:54Z</time>
      </trkpt>
      <trkpt lat="45.52609" lon="4.47763">
        <ele>691.81</ele>
        <time>2010-10-21T12:24:57Z</time>
      </trkpt>
      <trkpt lat="45.52626" lon="4.47783">
        <ele>690.84</ele>
        <time>2010-10-21T12:25:06Z</time>
      </trkpt>
      <trkpt lat="45.52635" lon="4.47794">
        <ele>689.88</ele>
        <time>2010-10-21T12:25:11Z</time>
      </trkpt>
      <trkpt lat="45.52636" lon="4.47797">
        <ele>689.88</ele>
        <time>2010-10-21T12:25:12Z</time>
      </trkpt>
      <trkpt lat="45.52638" lon="4.47799">
        <ele>688.92</ele>
        <time>2010-10-21T12:25:13Z</time>
      </trkpt>
      <trkpt lat="45.52641" lon="4.47805">
        <ele>688.92</ele>
        <time>2010-10-21T12:25:15Z</time>
      </trkpt>
      <trkpt lat="45.52644" lon="4.47808">
        <ele>688.44</ele>
        <time>2010-10-21T12:25:16Z</time>
      </trkpt>
      <trkpt lat="45.52647" lon="4.47814">
        <ele>687.48</ele>
        <time>2010-10-21T12:25:18Z</time>
      </trkpt>
      <trkpt lat="45.52648" lon="4.47817">
        <ele>687.96</ele>
        <time>2010-10-21T12:25:19Z</time>
      </trkpt>
      <trkpt lat="45.52648" lon="4.4782">
        <ele>688.44</ele>
        <time>2010-10-21T12:25:20Z</time>
      </trkpt>
      <trkpt lat="45.52649" lon="4.47822">
        <ele>687.48</ele>
        <time>2010-10-21T12:25:21Z</time>
      </trkpt>
      <trkpt lat="45.5265" lon="4.47825">
        <ele>687.48</ele>
        <time>2010-10-21T12:25:22Z</time>
      </trkpt>
      <trkpt lat="45.52651" lon="4.47828">
        <ele>687.48</ele>
        <time>2010-10-21T12:25:23Z</time>
      </trkpt>
      <trkpt lat="45.52653" lon="4.4783">
        <ele>687.96</ele>
        <time>2010-10-21T12:25:24Z</time>
      </trkpt>
      <trkpt lat="45.52656" lon="4.47834">
        <ele>685.56</ele>
        <time>2010-10-21T12:25:25Z</time>
      </trkpt>
      <trkpt lat="45.52662" lon="4.47841">
        <ele>687</ele>
        <time>2010-10-21T12:25:28Z</time>
      </trkpt>
      <trkpt lat="45.52665" lon="4.47844">
        <ele>685.56</ele>
        <time>2010-10-21T12:25:30Z</time>
      </trkpt>
      <trkpt lat="45.52668" lon="4.47847">
        <ele>685.56</ele>
        <time>2010-10-21T12:25:31Z</time>
      </trkpt>
      <trkpt lat="45.52676" lon="4.47854">
        <ele>684.12</ele>
        <time>2010-10-21T12:25:34Z</time>
      </trkpt>
      <trkpt lat="45.52679" lon="4.47856">
        <ele>684.12</ele>
        <time>2010-10-21T12:25:35Z</time>
      </trkpt>
      <trkpt lat="45.5268" lon="4.47859">
        <ele>683.15</ele>
        <time>2010-10-21T12:25:36Z</time>
      </trkpt>
      <trkpt lat="45.52684" lon="4.47868">
        <ele>683.63</ele>
        <time>2010-10-21T12:25:39Z</time>
      </trkpt>
      <trkpt lat="45.52685" lon="4.47871">
        <ele>682.67</ele>
        <time>2010-10-21T12:25:40Z</time>
      </trkpt>
      <trkpt lat="45.52688" lon="4.47874">
        <ele>681.71</ele>
        <time>2010-10-21T12:25:41Z</time>
      </trkpt>
      <trkpt lat="45.5269" lon="4.47876">
        <ele>681.23</ele>
        <time>2010-10-21T12:25:42Z</time>
      </trkpt>
      <trkpt lat="45.52693" lon="4.47879">
        <ele>681.71</ele>
        <time>2010-10-21T12:25:43Z</time>
      </trkpt>
      <trkpt lat="45.52695" lon="4.47882">
        <ele>680.27</ele>
        <time>2010-10-21T12:25:44Z</time>
      </trkpt>
      <trkpt lat="45.52697" lon="4.47884">
        <ele>679.79</ele>
        <time>2010-10-21T12:25:45Z</time>
      </trkpt>
      <trkpt lat="45.527" lon="4.47887">
        <ele>680.27</ele>
        <time>2010-10-21T12:25:46Z</time>
      </trkpt>
      <trkpt lat="45.52703" lon="4.47889">
        <ele>679.79</ele>
        <time>2010-10-21T12:25:47Z</time>
      </trkpt>
      <trkpt lat="45.52704" lon="4.4789">
        <ele>679.31</ele>
        <time>2010-10-21T12:25:48Z</time>
      </trkpt>
      <trkpt lat="45.52706" lon="4.47892">
        <ele>679.31</ele>
        <time>2010-10-21T12:25:49Z</time>
      </trkpt>
      <trkpt lat="45.52719" lon="4.47907">
        <ele>677.39</ele>
        <time>2010-10-21T12:25:56Z</time>
      </trkpt>
      <trkpt lat="45.5272" lon="4.47909">
        <ele>679.31</ele>
        <time>2010-10-21T12:25:57Z</time>
      </trkpt>
      <trkpt lat="45.52721" lon="4.47911">
        <ele>678.35</ele>
        <time>2010-10-21T12:25:58Z</time>
      </trkpt>
      <trkpt lat="45.52725" lon="4.47915">
        <ele>677.39</ele>
        <time>2010-10-21T12:26:00Z</time>
      </trkpt>
      <trkpt lat="45.52737" lon="4.47926">
        <ele>675.46</ele>
        <time>2010-10-21T12:26:04Z</time>
      </trkpt>
      <trkpt lat="45.52739" lon="4.47932">
        <ele>674.5</ele>
        <time>2010-10-21T12:26:06Z</time>
      </trkpt>
      <trkpt lat="45.52739" lon="4.47936">
        <ele>674.98</ele>
        <time>2010-10-21T12:26:07Z</time>
      </trkpt>
      <trkpt lat="45.52739" lon="4.4794">
        <ele>674.02</ele>
        <time>2010-10-21T12:26:08Z</time>
      </trkpt>
      <trkpt lat="45.52738" lon="4.47943">
        <ele>674.5</ele>
        <time>2010-10-21T12:26:09Z</time>
      </trkpt>
      <trkpt lat="45.52737" lon="4.47946">
        <ele>673.06</ele>
        <time>2010-10-21T12:26:10Z</time>
      </trkpt>
      <trkpt lat="45.52737" lon="4.47949">
        <ele>672.1</ele>
        <time>2010-10-21T12:26:11Z</time>
      </trkpt>
      <trkpt lat="45.52736" lon="4.47952">
        <ele>672.1</ele>
        <time>2010-10-21T12:26:12Z</time>
      </trkpt>
      <trkpt lat="45.52729" lon="4.47974">
        <ele>672.1</ele>
        <time>2010-10-21T12:26:19Z</time>
      </trkpt>
      <trkpt lat="45.52728" lon="4.47998">
        <ele>670.18</ele>
        <time>2010-10-21T12:26:25Z</time>
      </trkpt>
      <trkpt lat="45.52729" lon="4.48001">
        <ele>669.22</ele>
        <time>2010-10-21T12:26:26Z</time>
      </trkpt>
      <trkpt lat="45.52731" lon="4.48005">
        <ele>670.66</ele>
        <time>2010-10-21T12:26:27Z</time>
      </trkpt>
      <trkpt lat="45.52733" lon="4.48011">
        <ele>669.22</ele>
        <time>2010-10-21T12:26:29Z</time>
      </trkpt>
      <trkpt lat="45.52734" lon="4.48014">
        <ele>671.14</ele>
        <time>2010-10-21T12:26:30Z</time>
      </trkpt>
      <trkpt lat="45.52734" lon="4.48018">
        <ele>671.62</ele>
        <time>2010-10-21T12:26:31Z</time>
      </trkpt>
      <trkpt lat="45.52735" lon="4.48021">
        <ele>670.18</ele>
        <time>2010-10-21T12:26:32Z</time>
      </trkpt>
      <trkpt lat="45.52736" lon="4.48025">
        <ele>670.18</ele>
        <time>2010-10-21T12:26:33Z</time>
      </trkpt>
      <trkpt lat="45.52738" lon="4.48028">
        <ele>672.1</ele>
        <time>2010-10-21T12:26:34Z</time>
      </trkpt>
      <trkpt lat="45.5274" lon="4.48032">
        <ele>671.14</ele>
        <time>2010-10-21T12:26:35Z</time>
      </trkpt>
      <trkpt lat="45.52741" lon="4.48035">
        <ele>670.66</ele>
        <time>2010-10-21T12:26:36Z</time>
      </trkpt>
      <trkpt lat="45.52741" lon="4.48038">
        <ele>671.62</ele>
        <time>2010-10-21T12:26:37Z</time>
      </trkpt>
      <trkpt lat="45.52742" lon="4.48042">
        <ele>672.1</ele>
        <time>2010-10-21T12:26:38Z</time>
      </trkpt>
      <trkpt lat="45.52742" lon="4.48045">
        <ele>671.14</ele>
        <time>2010-10-21T12:26:39Z</time>
      </trkpt>
      <trkpt lat="45.52747" lon="4.48073">
        <ele>673.06</ele>
        <time>2010-10-21T12:26:49Z</time>
      </trkpt>
      <trkpt lat="45.52752" lon="4.48103">
        <ele>676.42</ele>
        <time>2010-10-21T12:27:00Z</time>
      </trkpt>
      <trkpt lat="45.52753" lon="4.48105">
        <ele>676.91</ele>
        <time>2010-10-21T12:27:01Z</time>
      </trkpt>
      <trkpt lat="45.52758" lon="4.48118">
        <ele>677.39</ele>
        <time>2010-10-21T12:27:06Z</time>
      </trkpt>
      <trkpt lat="45.5276" lon="4.4812">
        <ele>677.39</ele>
        <time>2010-10-21T12:27:07Z</time>
      </trkpt>
      <trkpt lat="45.52761" lon="4.48121">
        <ele>678.35</ele>
        <time>2010-10-21T12:27:08Z</time>
      </trkpt>
      <trkpt lat="45.52763" lon="4.48123">
        <ele>677.87</ele>
        <time>2010-10-21T12:27:09Z</time>
      </trkpt>
      <trkpt lat="45.52765" lon="4.48125">
        <ele>679.31</ele>
        <time>2010-10-21T12:27:10Z</time>
      </trkpt>
      <trkpt lat="45.52766" lon="4.48127">
        <ele>676.91</ele>
        <time>2010-10-21T12:27:11Z</time>
      </trkpt>
      <trkpt lat="45.52768" lon="4.48129">
        <ele>679.31</ele>
        <time>2010-10-21T12:27:12Z</time>
      </trkpt>
      <trkpt lat="45.52777" lon="4.48143">
        <ele>680.27</ele>
        <time>2010-10-21T12:27:18Z</time>
      </trkpt>
      <trkpt lat="45.52779" lon="4.48145">
        <ele>681.23</ele>
        <time>2010-10-21T12:27:19Z</time>
      </trkpt>
      <trkpt lat="45.52783" lon="4.48149">
        <ele>682.19</ele>
        <time>2010-10-21T12:27:21Z</time>
      </trkpt>
      <trkpt lat="45.52784" lon="4.4815">
        <ele>682.19</ele>
        <time>2010-10-21T12:27:22Z</time>
      </trkpt>
      <trkpt lat="45.52786" lon="4.4815">
        <ele>679.31</ele>
        <time>2010-10-21T12:27:23Z</time>
      </trkpt>
      <trkpt lat="45.52788" lon="4.4815">
        <ele>683.15</ele>
        <time>2010-10-21T12:27:24Z</time>
      </trkpt>
      <trkpt lat="45.52791" lon="4.48153">
        <ele>682.19</ele>
        <time>2010-10-21T12:27:26Z</time>
      </trkpt>
      <trkpt lat="45.52792" lon="4.48155">
        <ele>683.15</ele>
        <time>2010-10-21T12:27:27Z</time>
      </trkpt>
      <trkpt lat="45.52796" lon="4.48162">
        <ele>686.04</ele>
        <time>2010-10-21T12:27:31Z</time>
      </trkpt>
      <trkpt lat="45.52801" lon="4.48168">
        <ele>687</ele>
        <time>2010-10-21T12:27:36Z</time>
      </trkpt>
      <trkpt lat="45.52804" lon="4.4817">
        <ele>686.52</ele>
        <time>2010-10-21T12:27:37Z</time>
      </trkpt>
      <trkpt lat="45.52805" lon="4.48171">
        <ele>686.52</ele>
        <time>2010-10-21T12:27:38Z</time>
      </trkpt>
      <trkpt lat="45.52818" lon="4.48171">
        <ele>687.48</ele>
        <time>2010-10-21T12:27:48Z</time>
      </trkpt>
      <trkpt lat="45.52823" lon="4.48168">
        <ele>688.44</ele>
        <time>2010-10-21T12:28:01Z</time>
      </trkpt>
      <trkpt lat="45.52823" lon="4.48166">
        <ele>687.48</ele>
        <time>2010-10-21T12:28:02Z</time>
      </trkpt>
      <trkpt lat="45.52836" lon="4.4814">
        <ele>689.88</ele>
        <time>2010-10-21T12:28:13Z</time>
      </trkpt>
      <trkpt lat="45.52837" lon="4.48139">
        <ele>689.88</ele>
        <time>2010-10-21T12:28:14Z</time>
      </trkpt>
      <trkpt lat="45.52838" lon="4.48137">
        <ele>690.36</ele>
        <time>2010-10-21T12:28:15Z</time>
      </trkpt>
      <trkpt lat="45.52839" lon="4.48135">
        <ele>689.88</ele>
        <time>2010-10-21T12:28:16Z</time>
      </trkpt>
      <trkpt lat="45.5284" lon="4.48133">
        <ele>690.36</ele>
        <time>2010-10-21T12:28:17Z</time>
      </trkpt>
      <trkpt lat="45.52842" lon="4.4813">
        <ele>690.36</ele>
        <time>2010-10-21T12:28:18Z</time>
      </trkpt>
      <trkpt lat="45.52843" lon="4.48128">
        <ele>690.84</ele>
        <time>2010-10-21T12:28:19Z</time>
      </trkpt>
      <trkpt lat="45.52844" lon="4.48125">
        <ele>690.84</ele>
        <time>2010-10-21T12:28:20Z</time>
      </trkpt>
      <trkpt lat="45.52845" lon="4.48123">
        <ele>691.33</ele>
        <time>2010-10-21T12:28:21Z</time>
      </trkpt>
      <trkpt lat="45.52846" lon="4.4812">
        <ele>690.84</ele>
        <time>2010-10-21T12:28:22Z</time>
      </trkpt>
      <trkpt lat="45.52847" lon="4.48118">
        <ele>691.33</ele>
        <time>2010-10-21T12:28:23Z</time>
      </trkpt>
      <trkpt lat="45.52848" lon="4.48115">
        <ele>691.81</ele>
        <time>2010-10-21T12:28:25Z</time>
      </trkpt>
      <trkpt lat="45.52849" lon="4.48113">
        <ele>692.29</ele>
        <time>2010-10-21T12:28:26Z</time>
      </trkpt>
      <trkpt lat="45.5285" lon="4.4811">
        <ele>691.81</ele>
        <time>2010-10-21T12:28:27Z</time>
      </trkpt>
      <trkpt lat="45.52851" lon="4.48108">
        <ele>692.29</ele>
        <time>2010-10-21T12:28:28Z</time>
      </trkpt>
      <trkpt lat="45.52853" lon="4.48105">
        <ele>691.81</ele>
        <time>2010-10-21T12:28:29Z</time>
      </trkpt>
      <trkpt lat="45.52854" lon="4.48103">
        <ele>693.73</ele>
        <time>2010-10-21T12:28:30Z</time>
      </trkpt>
      <trkpt lat="45.52856" lon="4.48101">
        <ele>693.73</ele>
        <time>2010-10-21T12:28:31Z</time>
      </trkpt>
      <trkpt lat="45.52858" lon="4.48098">
        <ele>692.77</ele>
        <time>2010-10-21T12:28:32Z</time>
      </trkpt>
      <trkpt lat="45.52864" lon="4.48092">
        <ele>694.69</ele>
        <time>2010-10-21T12:28:36Z</time>
      </trkpt>
      <trkpt lat="45.52866" lon="4.48091">
        <ele>694.21</ele>
        <time>2010-10-21T12:28:37Z</time>
      </trkpt>
      <trkpt lat="45.52868" lon="4.48091">
        <ele>694.69</ele>
        <time>2010-10-21T12:28:38Z</time>
      </trkpt>
      <trkpt lat="45.5287" lon="4.48092">
        <ele>694.69</ele>
        <time>2010-10-21T12:28:39Z</time>
      </trkpt>
      <trkpt lat="45.52871" lon="4.48096">
        <ele>695.17</ele>
        <time>2010-10-21T12:28:40Z</time>
      </trkpt>
      <trkpt lat="45.52871" lon="4.48099">
        <ele>695.65</ele>
        <time>2010-10-21T12:28:41Z</time>
      </trkpt>
      <trkpt lat="45.52872" lon="4.4811">
        <ele>697.09</ele>
        <time>2010-10-21T12:28:45Z</time>
      </trkpt>
      <trkpt lat="45.52873" lon="4.48113">
        <ele>695.65</ele>
        <time>2010-10-21T12:28:46Z</time>
      </trkpt>
      <trkpt lat="45.52873" lon="4.48115">
        <ele>698.53</ele>
        <time>2010-10-21T12:28:47Z</time>
      </trkpt>
      <trkpt lat="45.52877" lon="4.4813">
        <ele>700.94</ele>
        <time>2010-10-21T12:28:53Z</time>
      </trkpt>
      <trkpt lat="45.52877" lon="4.48133">
        <ele>701.42</ele>
        <time>2010-10-21T12:28:55Z</time>
      </trkpt>
      <trkpt lat="45.52886" lon="4.48142">
        <ele>702.38</ele>
        <time>2010-10-21T12:29:00Z</time>
      </trkpt>
      <trkpt lat="45.52888" lon="4.48144">
        <ele>703.82</ele>
        <time>2010-10-21T12:29:01Z</time>
      </trkpt>
      <trkpt lat="45.52894" lon="4.48154">
        <ele>704.78</ele>
        <time>2010-10-21T12:29:05Z</time>
      </trkpt>
      <trkpt lat="45.52899" lon="4.48165">
        <ele>705.75</ele>
        <time>2010-10-21T12:29:11Z</time>
      </trkpt>
      <trkpt lat="45.52907" lon="4.4818">
        <ele>706.71</ele>
        <time>2010-10-21T12:29:19Z</time>
      </trkpt>
      <trkpt lat="45.52916" lon="4.48202">
        <ele>708.63</ele>
        <time>2010-10-21T12:29:28Z</time>
      </trkpt>
      <trkpt lat="45.52927" lon="4.48219">
        <ele>711.99</ele>
        <time>2010-10-21T12:29:37Z</time>
      </trkpt>
      <trkpt lat="45.52934" lon="4.48237">
        <ele>713.44</ele>
        <time>2010-10-21T12:29:46Z</time>
      </trkpt>
      <trkpt lat="45.52936" lon="4.48255">
        <ele>715.36</ele>
        <time>2010-10-21T12:29:52Z</time>
      </trkpt>
      <trkpt lat="45.52942" lon="4.48274">
        <ele>718.24</ele>
        <time>2010-10-21T12:30:00Z</time>
      </trkpt>
      <trkpt lat="45.52947" lon="4.48289">
        <ele>719.2</ele>
        <time>2010-10-21T12:30:07Z</time>
      </trkpt>
      <trkpt lat="45.52948" lon="4.48291">
        <ele>719.2</ele>
        <time>2010-10-21T12:30:08Z</time>
      </trkpt>
      <trkpt lat="45.52949" lon="4.48294">
        <ele>718.72</ele>
        <time>2010-10-21T12:30:10Z</time>
      </trkpt>
      <trkpt lat="45.52951" lon="4.483">
        <ele>719.68</ele>
        <time>2010-10-21T12:30:13Z</time>
      </trkpt>
      <trkpt lat="45.52956" lon="4.4832">
        <ele>720.16</ele>
        <time>2010-10-21T12:30:21Z</time>
      </trkpt>
      <trkpt lat="45.52961" lon="4.48334">
        <ele>722.57</ele>
        <time>2010-10-21T12:30:26Z</time>
      </trkpt>
      <trkpt lat="45.52973" lon="4.48356">
        <ele>723.53</ele>
        <time>2010-10-21T12:30:36Z</time>
      </trkpt>
      <trkpt lat="45.52974" lon="4.48359">
        <ele>725.93</ele>
        <time>2010-10-21T12:30:38Z</time>
      </trkpt>
      <trkpt lat="45.5298" lon="4.48367">
        <ele>725.93</ele>
        <time>2010-10-21T12:30:42Z</time>
      </trkpt>
      <trkpt lat="45.52984" lon="4.48377">
        <ele>726.41</ele>
        <time>2010-10-21T12:30:46Z</time>
      </trkpt>
      <trkpt lat="45.52996" lon="4.48395">
        <ele>728.82</ele>
        <time>2010-10-21T12:30:55Z</time>
      </trkpt>
      <trkpt lat="45.52999" lon="4.484">
        <ele>728.34</ele>
        <time>2010-10-21T12:30:59Z</time>
      </trkpt>
      <trkpt lat="45.53015" lon="4.48428">
        <ele>734.58</ele>
        <time>2010-10-21T12:31:09Z</time>
      </trkpt>
      <trkpt lat="45.53016" lon="4.4843">
        <ele>734.1</ele>
        <time>2010-10-21T12:31:10Z</time>
      </trkpt>
      <trkpt lat="45.53018" lon="4.48432">
        <ele>735.07</ele>
        <time>2010-10-21T12:31:12Z</time>
      </trkpt>
      <trkpt lat="45.53032" lon="4.48454">
        <ele>736.03</ele>
        <time>2010-10-21T12:31:21Z</time>
      </trkpt>
      <trkpt lat="45.53033" lon="4.48457">
        <ele>736.99</ele>
        <time>2010-10-21T12:31:22Z</time>
      </trkpt>
      <trkpt lat="45.53042" lon="4.48468">
        <ele>738.91</ele>
        <time>2010-10-21T12:31:28Z</time>
      </trkpt>
      <trkpt lat="45.53048" lon="4.48477">
        <ele>739.87</ele>
        <time>2010-10-21T12:31:32Z</time>
      </trkpt>
      <trkpt lat="45.53053" lon="4.48484">
        <ele>740.35</ele>
        <time>2010-10-21T12:31:35Z</time>
      </trkpt>
      <trkpt lat="45.53071" lon="4.48492">
        <ele>742.28</ele>
        <time>2010-10-21T12:31:44Z</time>
      </trkpt>
      <trkpt lat="45.53085" lon="4.48497">
        <ele>743.72</ele>
        <time>2010-10-21T12:31:54Z</time>
      </trkpt>
      <trkpt lat="45.53088" lon="4.48498">
        <ele>743.24</ele>
        <time>2010-10-21T12:31:57Z</time>
      </trkpt>
      <trkpt lat="45.53096" lon="4.48502">
        <ele>743.72</ele>
        <time>2010-10-21T12:32:03Z</time>
      </trkpt>
      <trkpt lat="45.53111" lon="4.48511">
        <ele>745.64</ele>
        <time>2010-10-21T12:32:14Z</time>
      </trkpt>
      <trkpt lat="45.53112" lon="4.48512">
        <ele>745.64</ele>
        <time>2010-10-21T12:32:15Z</time>
      </trkpt>
      <trkpt lat="45.53122" lon="4.48521">
        <ele>746.6</ele>
        <time>2010-10-21T12:32:22Z</time>
      </trkpt>
      <trkpt lat="45.53135" lon="4.48527">
        <ele>749</ele>
        <time>2010-10-21T12:32:35Z</time>
      </trkpt>
      <trkpt lat="45.53143" lon="4.48533">
        <ele>749</ele>
        <time>2010-10-21T12:32:40Z</time>
      </trkpt>
      <trkpt lat="45.53158" lon="4.48542">
        <ele>750.45</ele>
        <time>2010-10-21T12:32:50Z</time>
      </trkpt>
      <trkpt lat="45.53164" lon="4.48543">
        <ele>750.93</ele>
        <time>2010-10-21T12:32:54Z</time>
      </trkpt>
      <trkpt lat="45.53177" lon="4.48551">
        <ele>752.85</ele>
        <time>2010-10-21T12:33:04Z</time>
      </trkpt>
      <trkpt lat="45.53191" lon="4.48554">
        <ele>755.25</ele>
        <time>2010-10-21T12:33:11Z</time>
      </trkpt>
      <trkpt lat="45.53203" lon="4.48557">
        <ele>755.73</ele>
        <time>2010-10-21T12:33:17Z</time>
      </trkpt>
      <trkpt lat="45.53206" lon="4.48554">
        <ele>757.66</ele>
        <time>2010-10-21T12:33:19Z</time>
      </trkpt>
      <trkpt lat="45.53212" lon="4.48558">
        <ele>759.1</ele>
        <time>2010-10-21T12:33:22Z</time>
      </trkpt>
      <trkpt lat="45.5322" lon="4.48565">
        <ele>759.1</ele>
        <time>2010-10-21T12:33:26Z</time>
      </trkpt>
      <trkpt lat="45.53228" lon="4.48569">
        <ele>759.1</ele>
        <time>2010-10-21T12:33:30Z</time>
      </trkpt>
      <trkpt lat="45.53256" lon="4.4858">
        <ele>760.06</ele>
        <time>2010-10-21T12:33:43Z</time>
      </trkpt>
      <trkpt lat="45.53277" lon="4.48584">
        <ele>761.02</ele>
        <time>2010-10-21T12:33:52Z</time>
      </trkpt>
      <trkpt lat="45.53296" lon="4.48579">
        <ele>762.94</ele>
        <time>2010-10-21T12:34:00Z</time>
      </trkpt>
      <trkpt lat="45.5331" lon="4.48577">
        <ele>762.46</ele>
        <time>2010-10-21T12:34:06Z</time>
      </trkpt>
      <trkpt lat="45.53321" lon="4.48579">
        <ele>762.46</ele>
        <time>2010-10-21T12:34:11Z</time>
      </trkpt>
      <trkpt lat="45.53327" lon="4.48582">
        <ele>761.02</ele>
        <time>2010-10-21T12:34:13Z</time>
      </trkpt>
      <trkpt lat="45.53335" lon="4.48586">
        <ele>760.06</ele>
        <time>2010-10-21T12:34:16Z</time>
      </trkpt>
      <trkpt lat="45.53354" lon="4.48593">
        <ele>759.1</ele>
        <time>2010-10-21T12:34:25Z</time>
      </trkpt>
      <trkpt lat="45.53359" lon="4.48595">
        <ele>759.1</ele>
        <time>2010-10-21T12:34:27Z</time>
      </trkpt>
      <trkpt lat="45.53375" lon="4.48605">
        <ele>756.69</ele>
        <time>2010-10-21T12:34:34Z</time>
      </trkpt>
      <trkpt lat="45.5339" lon="4.48611">
        <ele>754.29</ele>
        <time>2010-10-21T12:34:40Z</time>
      </trkpt>
      <trkpt lat="45.53409" lon="4.48613">
        <ele>751.41</ele>
        <time>2010-10-21T12:34:48Z</time>
      </trkpt>
      <trkpt lat="45.53418" lon="4.48614">
        <ele>749.97</ele>
        <time>2010-10-21T12:34:51Z</time>
      </trkpt>
      <trkpt lat="45.53424" lon="4.48614">
        <ele>749.97</ele>
        <time>2010-10-21T12:34:53Z</time>
      </trkpt>
      <trkpt lat="45.53434" lon="4.48619">
        <ele>748.52</ele>
        <time>2010-10-21T12:34:57Z</time>
      </trkpt>
      <trkpt lat="45.5345" lon="4.48624">
        <ele>748.52</ele>
        <time>2010-10-21T12:35:03Z</time>
      </trkpt>
      <trkpt lat="45.53462" lon="4.48643">
        <ele>749</ele>
        <time>2010-10-21T12:35:10Z</time>
      </trkpt>
      <trkpt lat="45.5347" lon="4.48659">
        <ele>748.04</ele>
        <time>2010-10-21T12:35:15Z</time>
      </trkpt>
      <trkpt lat="45.53479" lon="4.48675">
        <ele>745.16</ele>
        <time>2010-10-21T12:35:20Z</time>
      </trkpt>
      <trkpt lat="45.53483" lon="4.48687">
        <ele>743.72</ele>
        <time>2010-10-21T12:35:24Z</time>
      </trkpt>
      <trkpt lat="45.53484" lon="4.48686">
        <ele>743.72</ele>
        <time>2010-10-21T12:35:28Z</time>
      </trkpt>
      <trkpt lat="45.53484" lon="4.48682">
        <ele>743.72</ele>
        <time>2010-10-21T12:35:38Z</time>
      </trkpt>
      <trkpt lat="45.53488" lon="4.4869">
        <ele>742.28</ele>
        <time>2010-10-21T12:35:46Z</time>
      </trkpt>
      <trkpt lat="45.53509" lon="4.48707">
        <ele>741.79</ele>
        <time>2010-10-21T12:35:57Z</time>
      </trkpt>
      <trkpt lat="45.5352" lon="4.48715">
        <ele>741.31</ele>
        <time>2010-10-21T12:36:01Z</time>
      </trkpt>
      <trkpt lat="45.53539" lon="4.4873">
        <ele>741.79</ele>
        <time>2010-10-21T12:36:10Z</time>
      </trkpt>
      <trkpt lat="45.53539" lon="4.4873">
        <ele>742.28</ele>
        <time>2010-10-21T12:36:38Z</time>
      </trkpt>
      <trkpt lat="45.53545" lon="4.48729">
        <ele>741.79</ele>
        <time>2010-10-21T12:36:54Z</time>
      </trkpt>
      <trkpt lat="45.53545" lon="4.48729">
        <ele>742.28</ele>
        <time>2010-10-21T12:37:06Z</time>
      </trkpt>
      <trkpt lat="45.5356" lon="4.48705">
        <ele>740.83</ele>
        <time>2010-10-21T12:37:16Z</time>
      </trkpt>
      <trkpt lat="45.53569" lon="4.48692">
        <ele>740.35</ele>
        <time>2010-10-21T12:37:22Z</time>
      </trkpt>
      <trkpt lat="45.53584" lon="4.48673">
        <ele>738.91</ele>
        <time>2010-10-21T12:37:30Z</time>
      </trkpt>
      <trkpt lat="45.53606" lon="4.48667">
        <ele>737.47</ele>
        <time>2010-10-21T12:37:39Z</time>
      </trkpt>
      <trkpt lat="45.53628" lon="4.48669">
        <ele>736.03</ele>
        <time>2010-10-21T12:37:47Z</time>
      </trkpt>
      <trkpt lat="45.53655" lon="4.48669">
        <ele>734.1</ele>
        <time>2010-10-21T12:37:57Z</time>
      </trkpt>
      <trkpt lat="45.53677" lon="4.48664">
        <ele>733.14</ele>
        <time>2010-10-21T12:38:05Z</time>
      </trkpt>
      <trkpt lat="45.53692" lon="4.48662">
        <ele>733.14</ele>
        <time>2010-10-21T12:38:12Z</time>
      </trkpt>
      <trkpt lat="45.53702" lon="4.48664">
        <ele>732.18</ele>
        <time>2010-10-21T12:38:16Z</time>
      </trkpt>
      <trkpt lat="45.5371" lon="4.48664">
        <ele>730.74</ele>
        <time>2010-10-21T12:38:19Z</time>
      </trkpt>
      <trkpt lat="45.53733" lon="4.48673">
        <ele>728.82</ele>
        <time>2010-10-21T12:38:27Z</time>
      </trkpt>
      <trkpt lat="45.53752" lon="4.48686">
        <ele>727.86</ele>
        <time>2010-10-21T12:38:35Z</time>
      </trkpt>
      <trkpt lat="45.53757" lon="4.4869">
        <ele>728.34</ele>
        <time>2010-10-21T12:38:37Z</time>
      </trkpt>
      <trkpt lat="45.53765" lon="4.48695">
        <ele>727.86</ele>
        <time>2010-10-21T12:38:41Z</time>
      </trkpt>
      <trkpt lat="45.53786" lon="4.48692">
        <ele>726.89</ele>
        <time>2010-10-21T12:38:49Z</time>
      </trkpt>
      <trkpt lat="45.53797" lon="4.48688">
        <ele>727.37</ele>
        <time>2010-10-21T12:38:54Z</time>
      </trkpt>
      <trkpt lat="45.53815" lon="4.48681">
        <ele>726.41</ele>
        <time>2010-10-21T12:39:01Z</time>
      </trkpt>
      <trkpt lat="45.53839" lon="4.48672">
        <ele>724.49</ele>
        <time>2010-10-21T12:39:09Z</time>
      </trkpt>
      <trkpt lat="45.53849" lon="4.48673">
        <ele>725.45</ele>
        <time>2010-10-21T12:39:13Z</time>
      </trkpt>
      <trkpt lat="45.53879" lon="4.48676">
        <ele>724.01</ele>
        <time>2010-10-21T12:39:24Z</time>
      </trkpt>
      <trkpt lat="45.53887" lon="4.48679">
        <ele>723.53</ele>
        <time>2010-10-21T12:39:27Z</time>
      </trkpt>
      <trkpt lat="45.53898" lon="4.48683">
        <ele>724.01</ele>
        <time>2010-10-21T12:39:31Z</time>
      </trkpt>
      <trkpt lat="45.53911" lon="4.48685">
        <ele>723.53</ele>
        <time>2010-10-21T12:39:36Z</time>
      </trkpt>
      <trkpt lat="45.53922" lon="4.4868">
        <ele>723.53</ele>
        <time>2010-10-21T12:39:43Z</time>
      </trkpt>
      <trkpt lat="45.53928" lon="4.48701">
        <ele>724.01</ele>
        <time>2010-10-21T12:39:53Z</time>
      </trkpt>
      <trkpt lat="45.53945" lon="4.4871">
        <ele>724.97</ele>
        <time>2010-10-21T12:40:02Z</time>
      </trkpt>
      <trkpt lat="45.53966" lon="4.48727">
        <ele>725.45</ele>
        <time>2010-10-21T12:40:11Z</time>
      </trkpt>
      <trkpt lat="45.53986" lon="4.48742">
        <ele>726.41</ele>
        <time>2010-10-21T12:40:21Z</time>
      </trkpt>
      <trkpt lat="45.54007" lon="4.48763">
        <ele>729.3</ele>
        <time>2010-10-21T12:40:31Z</time>
      </trkpt>
      <trkpt lat="45.54013" lon="4.48771">
        <ele>727.37</ele>
        <time>2010-10-21T12:40:34Z</time>
      </trkpt>
      <trkpt lat="45.54021" lon="4.48784">
        <ele>729.78</ele>
        <time>2010-10-21T12:40:39Z</time>
      </trkpt>
      <trkpt lat="45.54037" lon="4.4881">
        <ele>729.78</ele>
        <time>2010-10-21T12:40:49Z</time>
      </trkpt>
      <trkpt lat="45.54059" lon="4.48826">
        <ele>731.22</ele>
        <time>2010-10-21T12:40:59Z</time>
      </trkpt>
      <trkpt lat="45.54068" lon="4.4883">
        <ele>732.18</ele>
        <time>2010-10-21T12:41:03Z</time>
      </trkpt>
      <trkpt lat="45.54073" lon="4.48833">
        <ele>730.74</ele>
        <time>2010-10-21T12:41:05Z</time>
      </trkpt>
      <trkpt lat="45.54077" lon="4.48835">
        <ele>732.18</ele>
        <time>2010-10-21T12:41:07Z</time>
      </trkpt>
      <trkpt lat="45.54086" lon="4.4884">
        <ele>732.18</ele>
        <time>2010-10-21T12:41:11Z</time>
      </trkpt>
      <trkpt lat="45.54094" lon="4.48844">
        <ele>733.62</ele>
        <time>2010-10-21T12:41:15Z</time>
      </trkpt>
      <trkpt lat="45.54103" lon="4.48852">
        <ele>734.1</ele>
        <time>2010-10-21T12:41:20Z</time>
      </trkpt>
      <trkpt lat="45.54116" lon="4.48859">
        <ele>736.03</ele>
        <time>2010-10-21T12:41:28Z</time>
      </trkpt>
      <trkpt lat="45.54121" lon="4.48862">
        <ele>737.47</ele>
        <time>2010-10-21T12:41:32Z</time>
      </trkpt>
      <trkpt lat="45.54135" lon="4.48876">
        <ele>739.39</ele>
        <time>2010-10-21T12:41:41Z</time>
      </trkpt>
      <trkpt lat="45.54151" lon="4.48893">
        <ele>742.28</ele>
        <time>2010-10-21T12:41:51Z</time>
      </trkpt>
      <trkpt lat="45.54157" lon="4.48901">
        <ele>743.72</ele>
        <time>2010-10-21T12:41:55Z</time>
      </trkpt>
      <trkpt lat="45.5416" lon="4.48906">
        <ele>744.68</ele>
        <time>2010-10-21T12:41:57Z</time>
      </trkpt>
      <trkpt lat="45.54175" lon="4.48926">
        <ele>747.08</ele>
        <time>2010-10-21T12:42:07Z</time>
      </trkpt>
      <trkpt lat="45.54185" lon="4.48934">
        <ele>748.52</ele>
        <time>2010-10-21T12:42:12Z</time>
      </trkpt>
      <trkpt lat="45.54193" lon="4.48936">
        <ele>749</ele>
        <time>2010-10-21T12:42:16Z</time>
      </trkpt>
      <trkpt lat="45.54201" lon="4.48934">
        <ele>751.41</ele>
        <time>2010-10-21T12:42:20Z</time>
      </trkpt>
      <trkpt lat="45.54209" lon="4.48929">
        <ele>751.89</ele>
        <time>2010-10-21T12:42:24Z</time>
      </trkpt>
      <trkpt lat="45.54218" lon="4.48923">
        <ele>753.81</ele>
        <time>2010-10-21T12:42:29Z</time>
      </trkpt>
      <trkpt lat="45.54228" lon="4.48911">
        <ele>754.77</ele>
        <time>2010-10-21T12:42:39Z</time>
      </trkpt>
      <trkpt lat="45.54229" lon="4.48908">
        <ele>754.29</ele>
        <time>2010-10-21T12:42:42Z</time>
      </trkpt>
      <trkpt lat="45.54232" lon="4.48905">
        <ele>755.73</ele>
        <time>2010-10-21T12:42:45Z</time>
      </trkpt>
      <trkpt lat="45.54235" lon="4.48901">
        <ele>755.73</ele>
        <time>2010-10-21T12:42:49Z</time>
      </trkpt>
      <trkpt lat="45.5424" lon="4.48895">
        <ele>757.66</ele>
        <time>2010-10-21T12:42:56Z</time>
      </trkpt>
      <trkpt lat="45.54246" lon="4.4889">
        <ele>758.14</ele>
        <time>2010-10-21T12:43:06Z</time>
      </trkpt>
      <trkpt lat="45.54253" lon="4.48877">
        <ele>759.1</ele>
        <time>2010-10-21T12:43:16Z</time>
      </trkpt>
      <trkpt lat="45.54257" lon="4.4887">
        <ele>760.06</ele>
        <time>2010-10-21T12:43:21Z</time>
      </trkpt>
      <trkpt lat="45.54264" lon="4.48864">
        <ele>761.98</ele>
        <time>2010-10-21T12:43:29Z</time>
      </trkpt>
      <trkpt lat="45.54266" lon="4.48862">
        <ele>762.46</ele>
        <time>2010-10-21T12:43:39Z</time>
      </trkpt>
      <trkpt lat="45.54267" lon="4.48861">
        <ele>763.42</ele>
        <time>2010-10-21T12:43:48Z</time>
      </trkpt>
      <trkpt lat="45.54268" lon="4.48861">
        <ele>763.42</ele>
        <time>2010-10-21T12:43:49Z</time>
      </trkpt>
      <trkpt lat="45.5427" lon="4.4886">
        <ele>762.94</ele>
        <time>2010-10-21T12:43:53Z</time>
      </trkpt>
      <trkpt lat="45.54277" lon="4.48852">
        <ele>764.87</ele>
        <time>2010-10-21T12:44:03Z</time>
      </trkpt>
      <trkpt lat="45.54284" lon="4.48842">
        <ele>765.83</ele>
        <time>2010-10-21T12:44:17Z</time>
      </trkpt>
      <trkpt lat="45.54286" lon="4.48839">
        <ele>766.31</ele>
        <time>2010-10-21T12:44:19Z</time>
      </trkpt>
      <trkpt lat="45.54292" lon="4.48828">
        <ele>767.27</ele>
        <time>2010-10-21T12:44:24Z</time>
      </trkpt>
      <trkpt lat="45.54307" lon="4.48808">
        <ele>770.15</ele>
        <time>2010-10-21T12:44:37Z</time>
      </trkpt>
      <trkpt lat="45.54313" lon="4.488">
        <ele>772.56</ele>
        <time>2010-10-21T12:44:45Z</time>
      </trkpt>
      <trkpt lat="45.54321" lon="4.4879">
        <ele>774.96</ele>
        <time>2010-10-21T12:44:55Z</time>
      </trkpt>
      <trkpt lat="45.54325" lon="4.48787">
        <ele>775.92</ele>
        <time>2010-10-21T12:45:00Z</time>
      </trkpt>
      <trkpt lat="45.54326" lon="4.48787">
        <ele>776.4</ele>
        <time>2010-10-21T12:45:01Z</time>
      </trkpt>
      <trkpt lat="45.54329" lon="4.48785">
        <ele>777.36</ele>
        <time>2010-10-21T12:45:03Z</time>
      </trkpt>
      <trkpt lat="45.54332" lon="4.48787">
        <ele>777.84</ele>
        <time>2010-10-21T12:45:19Z</time>
      </trkpt>
      <trkpt lat="45.54333" lon="4.48788">
        <ele>778.32</ele>
        <time>2010-10-21T12:45:20Z</time>
      </trkpt>
      <trkpt lat="45.54338" lon="4.48794">
        <ele>777.36</ele>
        <time>2010-10-21T12:45:26Z</time>
      </trkpt>
      <trkpt lat="45.54342" lon="4.48797">
        <ele>777.84</ele>
        <time>2010-10-21T12:45:29Z</time>
      </trkpt>
      <trkpt lat="45.54344" lon="4.48809">
        <ele>777.36</ele>
        <time>2010-10-21T12:45:33Z</time>
      </trkpt>
      <trkpt lat="45.54353" lon="4.48821">
        <ele>777.36</ele>
        <time>2010-10-21T12:45:43Z</time>
      </trkpt>
      <trkpt lat="45.54354" lon="4.48824">
        <ele>775.92</ele>
        <time>2010-10-21T12:45:46Z</time>
      </trkpt>
      <trkpt lat="45.54355" lon="4.48825">
        <ele>776.4</ele>
        <time>2010-10-21T12:45:47Z</time>
      </trkpt>
      <trkpt lat="45.54359" lon="4.48846">
        <ele>773.52</ele>
        <time>2010-10-21T12:45:55Z</time>
      </trkpt>
      <trkpt lat="45.54373" lon="4.48877">
        <ele>771.11</ele>
        <time>2010-10-21T12:46:04Z</time>
      </trkpt>
      <trkpt lat="45.54381" lon="4.48886">
        <ele>770.15</ele>
        <time>2010-10-21T12:46:08Z</time>
      </trkpt>
      <trkpt lat="45.544" lon="4.48907">
        <ele>768.71</ele>
        <time>2010-10-21T12:46:16Z</time>
      </trkpt>
      <trkpt lat="45.54417" lon="4.48925">
        <ele>766.79</ele>
        <time>2010-10-21T12:46:24Z</time>
      </trkpt>
      <trkpt lat="45.54434" lon="4.48949">
        <ele>763.42</ele>
        <time>2010-10-21T12:46:31Z</time>
      </trkpt>
      <trkpt lat="45.54438" lon="4.48966">
        <ele>763.9</ele>
        <time>2010-10-21T12:46:35Z</time>
      </trkpt>
      <trkpt lat="45.54439" lon="4.48981">
        <ele>760.06</ele>
        <time>2010-10-21T12:46:39Z</time>
      </trkpt>
      <trkpt lat="45.54439" lon="4.49007">
        <ele>761.5</ele>
        <time>2010-10-21T12:46:45Z</time>
      </trkpt>
      <trkpt lat="45.54439" lon="4.49011">
        <ele>761.5</ele>
        <time>2010-10-21T12:46:46Z</time>
      </trkpt>
      <trkpt lat="45.54439" lon="4.49015">
        <ele>759.58</ele>
        <time>2010-10-21T12:46:47Z</time>
      </trkpt>
      <trkpt lat="45.54434" lon="4.49036">
        <ele>759.58</ele>
        <time>2010-10-21T12:46:52Z</time>
      </trkpt>
      <trkpt lat="45.54434" lon="4.4904">
        <ele>759.1</ele>
        <time>2010-10-21T12:46:53Z</time>
      </trkpt>
      <trkpt lat="45.54435" lon="4.49045">
        <ele>759.58</ele>
        <time>2010-10-21T12:46:54Z</time>
      </trkpt>
      <trkpt lat="45.54435" lon="4.4905">
        <ele>759.1</ele>
        <time>2010-10-21T12:46:55Z</time>
      </trkpt>
      <trkpt lat="45.54434" lon="4.49053">
        <ele>758.14</ele>
        <time>2010-10-21T12:46:56Z</time>
      </trkpt>
      <trkpt lat="45.54434" lon="4.49056">
        <ele>758.62</ele>
        <time>2010-10-21T12:46:57Z</time>
      </trkpt>
      <trkpt lat="45.54433" lon="4.4906">
        <ele>757.66</ele>
        <time>2010-10-21T12:46:58Z</time>
      </trkpt>
      <trkpt lat="45.54432" lon="4.49072">
        <ele>756.21</ele>
        <time>2010-10-21T12:47:01Z</time>
      </trkpt>
      <trkpt lat="45.54434" lon="4.49077">
        <ele>758.14</ele>
        <time>2010-10-21T12:47:02Z</time>
      </trkpt>
      <trkpt lat="45.54435" lon="4.49081">
        <ele>758.14</ele>
        <time>2010-10-21T12:47:03Z</time>
      </trkpt>
      <trkpt lat="45.54439" lon="4.49111">
        <ele>756.21</ele>
        <time>2010-10-21T12:47:10Z</time>
      </trkpt>
      <trkpt lat="45.54443" lon="4.49139">
        <ele>757.66</ele>
        <time>2010-10-21T12:47:18Z</time>
      </trkpt>
      <trkpt lat="45.54452" lon="4.49164">
        <ele>755.73</ele>
        <time>2010-10-21T12:47:26Z</time>
      </trkpt>
      <trkpt lat="45.54466" lon="4.49197">
        <ele>755.73</ele>
        <time>2010-10-21T12:47:35Z</time>
      </trkpt>
      <trkpt lat="45.5447" lon="4.49203">
        <ele>754.77</ele>
        <time>2010-10-21T12:47:37Z</time>
      </trkpt>
      <trkpt lat="45.54475" lon="4.49212">
        <ele>753.33</ele>
        <time>2010-10-21T12:47:40Z</time>
      </trkpt>
      <trkpt lat="45.54476" lon="4.49214">
        <ele>756.69</ele>
        <time>2010-10-21T12:47:41Z</time>
      </trkpt>
      <trkpt lat="45.54482" lon="4.49249">
        <ele>754.77</ele>
        <time>2010-10-21T12:47:50Z</time>
      </trkpt>
      <trkpt lat="45.54482" lon="4.4927">
        <ele>755.25</ele>
        <time>2010-10-21T12:47:55Z</time>
      </trkpt>
      <trkpt lat="45.54482" lon="4.49274">
        <ele>755.25</ele>
        <time>2010-10-21T12:47:56Z</time>
      </trkpt>
      <trkpt lat="45.54482" lon="4.49277">
        <ele>754.77</ele>
        <time>2010-10-21T12:47:57Z</time>
      </trkpt>
      <trkpt lat="45.54482" lon="4.49281">
        <ele>755.73</ele>
        <time>2010-10-21T12:47:58Z</time>
      </trkpt>
      <trkpt lat="45.54482" lon="4.49284">
        <ele>754.77</ele>
        <time>2010-10-21T12:47:59Z</time>
      </trkpt>
      <trkpt lat="45.54482" lon="4.49288">
        <ele>755.25</ele>
        <time>2010-10-21T12:48:00Z</time>
      </trkpt>
      <trkpt lat="45.54481" lon="4.493">
        <ele>755.73</ele>
        <time>2010-10-21T12:48:03Z</time>
      </trkpt>
      <trkpt lat="45.54482" lon="4.49322">
        <ele>755.73</ele>
        <time>2010-10-21T12:48:09Z</time>
      </trkpt>
      <trkpt lat="45.54481" lon="4.49326">
        <ele>755.25</ele>
        <time>2010-10-21T12:48:10Z</time>
      </trkpt>
      <trkpt lat="45.5448" lon="4.4933">
        <ele>755.73</ele>
        <time>2010-10-21T12:48:11Z</time>
      </trkpt>
      <trkpt lat="45.5448" lon="4.49334">
        <ele>755.25</ele>
        <time>2010-10-21T12:48:12Z</time>
      </trkpt>
      <trkpt lat="45.54481" lon="4.49338">
        <ele>755.25</ele>
        <time>2010-10-21T12:48:13Z</time>
      </trkpt>
      <trkpt lat="45.54481" lon="4.49342">
        <ele>754.77</ele>
        <time>2010-10-21T12:48:14Z</time>
      </trkpt>
      <trkpt lat="45.54481" lon="4.49345">
        <ele>756.21</ele>
        <time>2010-10-21T12:48:15Z</time>
      </trkpt>
      <trkpt lat="45.54482" lon="4.49369">
        <ele>754.77</ele>
        <time>2010-10-21T12:48:22Z</time>
      </trkpt>
      <trkpt lat="45.54482" lon="4.49371">
        <ele>755.73</ele>
        <time>2010-10-21T12:48:23Z</time>
      </trkpt>
      <trkpt lat="45.54483" lon="4.49411">
        <ele>755.73</ele>
        <time>2010-10-21T12:48:33Z</time>
      </trkpt>
      <trkpt lat="45.54483" lon="4.49451">
        <ele>755.25</ele>
        <time>2010-10-21T12:48:44Z</time>
      </trkpt>
      <trkpt lat="45.54483" lon="4.49456">
        <ele>754.29</ele>
        <time>2010-10-21T12:48:45Z</time>
      </trkpt>
      <trkpt lat="45.5448" lon="4.49483">
        <ele>754.77</ele>
        <time>2010-10-21T12:48:53Z</time>
      </trkpt>
      <trkpt lat="45.54479" lon="4.49488">
        <ele>755.25</ele>
        <time>2010-10-21T12:48:54Z</time>
      </trkpt>
      <trkpt lat="45.54478" lon="4.49493">
        <ele>753.33</ele>
        <time>2010-10-21T12:48:55Z</time>
      </trkpt>
      <trkpt lat="45.54478" lon="4.49496">
        <ele>754.29</ele>
        <time>2010-10-21T12:48:56Z</time>
      </trkpt>
      <trkpt lat="45.54477" lon="4.495">
        <ele>753.81</ele>
        <time>2010-10-21T12:48:57Z</time>
      </trkpt>
      <trkpt lat="45.54476" lon="4.49504">
        <ele>754.29</ele>
        <time>2010-10-21T12:48:58Z</time>
      </trkpt>
      <trkpt lat="45.54475" lon="4.49508">
        <ele>754.77</ele>
        <time>2010-10-21T12:48:59Z</time>
      </trkpt>
      <trkpt lat="45.54471" lon="4.49519">
        <ele>754.77</ele>
        <time>2010-10-21T12:49:02Z</time>
      </trkpt>
      <trkpt lat="45.5447" lon="4.49522">
        <ele>754.29</ele>
        <time>2010-10-21T12:49:03Z</time>
      </trkpt>
      <trkpt lat="45.54469" lon="4.49525">
        <ele>754.29</ele>
        <time>2010-10-21T12:49:04Z</time>
      </trkpt>
      <trkpt lat="45.54459" lon="4.49548">
        <ele>758.62</ele>
        <time>2010-10-21T12:49:11Z</time>
      </trkpt>
      <trkpt lat="45.54458" lon="4.49551">
        <ele>757.18</ele>
        <time>2010-10-21T12:49:12Z</time>
      </trkpt>
      <trkpt lat="45.54445" lon="4.4958">
        <ele>759.1</ele>
        <time>2010-10-21T12:49:22Z</time>
      </trkpt>
      <trkpt lat="45.54439" lon="4.49593">
        <ele>759.58</ele>
        <time>2010-10-21T12:49:27Z</time>
      </trkpt>
      <trkpt lat="45.54437" lon="4.49594">
        <ele>761.02</ele>
        <time>2010-10-21T12:49:28Z</time>
      </trkpt>
      <trkpt lat="45.54436" lon="4.49596">
        <ele>761.02</ele>
        <time>2010-10-21T12:49:29Z</time>
      </trkpt>
      <trkpt lat="45.54435" lon="4.49599">
        <ele>761.5</ele>
        <time>2010-10-21T12:49:30Z</time>
      </trkpt>
      <trkpt lat="45.54434" lon="4.49602">
        <ele>761.5</ele>
        <time>2010-10-21T12:49:31Z</time>
      </trkpt>
      <trkpt lat="45.54431" lon="4.4961">
        <ele>762.94</ele>
        <time>2010-10-21T12:49:33Z</time>
      </trkpt>
      <trkpt lat="45.5443" lon="4.4962">
        <ele>763.9</ele>
        <time>2010-10-21T12:49:37Z</time>
      </trkpt>
      <trkpt lat="45.54429" lon="4.49621">
        <ele>762.94</ele>
        <time>2010-10-21T12:49:38Z</time>
      </trkpt>
      <trkpt lat="45.54428" lon="4.49624">
        <ele>763.42</ele>
        <time>2010-10-21T12:49:39Z</time>
      </trkpt>
      <trkpt lat="45.54427" lon="4.49625">
        <ele>762.94</ele>
        <time>2010-10-21T12:49:40Z</time>
      </trkpt>
      <trkpt lat="45.54425" lon="4.49627">
        <ele>763.42</ele>
        <time>2010-10-21T12:49:41Z</time>
      </trkpt>
      <trkpt lat="45.54424" lon="4.49629">
        <ele>763.9</ele>
        <time>2010-10-21T12:49:42Z</time>
      </trkpt>
      <trkpt lat="45.54425" lon="4.4963">
        <ele>765.35</ele>
        <time>2010-10-21T12:49:48Z</time>
      </trkpt>
      <trkpt lat="45.54429" lon="4.49628">
        <ele>764.39</ele>
        <time>2010-10-21T12:49:59Z</time>
      </trkpt>
      <trkpt lat="45.5443" lon="4.49628">
        <ele>764.39</ele>
        <time>2010-10-21T12:50:02Z</time>
      </trkpt>
      <trkpt lat="45.5443" lon="4.49628">
        <ele>763.9</ele>
        <time>2010-10-21T12:50:09Z</time>
      </trkpt>
      <trkpt lat="45.54428" lon="4.49628">
        <ele>764.39</ele>
        <time>2010-10-21T12:50:20Z</time>
      </trkpt>
      <trkpt lat="45.54429" lon="4.49629">
        <ele>764.87</ele>
        <time>2010-10-21T12:50:21Z</time>
      </trkpt>
      <trkpt lat="45.54452" lon="4.49638">
        <ele>764.39</ele>
        <time>2010-10-21T12:50:32Z</time>
      </trkpt>
      <trkpt lat="45.54454" lon="4.49639">
        <ele>764.87</ele>
        <time>2010-10-21T12:50:33Z</time>
      </trkpt>
      <trkpt lat="45.54456" lon="4.49641">
        <ele>764.39</ele>
        <time>2010-10-21T12:50:34Z</time>
      </trkpt>
      <trkpt lat="45.54459" lon="4.49643">
        <ele>764.39</ele>
        <time>2010-10-21T12:50:35Z</time>
      </trkpt>
      <trkpt lat="45.54475" lon="4.49653">
        <ele>765.83</ele>
        <time>2010-10-21T12:50:42Z</time>
      </trkpt>
      <trkpt lat="45.54494" lon="4.49658">
        <ele>766.79</ele>
        <time>2010-10-21T12:50:50Z</time>
      </trkpt>
      <trkpt lat="45.54507" lon="4.4966">
        <ele>766.31</ele>
        <time>2010-10-21T12:50:56Z</time>
      </trkpt>
      <trkpt lat="45.54509" lon="4.4966">
        <ele>766.31</ele>
        <time>2010-10-21T12:50:57Z</time>
      </trkpt>
      <trkpt lat="45.54511" lon="4.49659">
        <ele>766.79</ele>
        <time>2010-10-21T12:50:58Z</time>
      </trkpt>
      <trkpt lat="45.54514" lon="4.49659">
        <ele>767.27</ele>
        <time>2010-10-21T12:50:59Z</time>
      </trkpt>
      <trkpt lat="45.54517" lon="4.49659">
        <ele>766.79</ele>
        <time>2010-10-21T12:51:00Z</time>
      </trkpt>
      <trkpt lat="45.5452" lon="4.49659">
        <ele>766.31</ele>
        <time>2010-10-21T12:51:01Z</time>
      </trkpt>
      <trkpt lat="45.54522" lon="4.49659">
        <ele>767.27</ele>
        <time>2010-10-21T12:51:02Z</time>
      </trkpt>
      <trkpt lat="45.54525" lon="4.49658">
        <ele>766.79</ele>
        <time>2010-10-21T12:51:03Z</time>
      </trkpt>
      <trkpt lat="45.54527" lon="4.49657">
        <ele>766.31</ele>
        <time>2010-10-21T12:51:04Z</time>
      </trkpt>
      <trkpt lat="45.5453" lon="4.49658">
        <ele>767.27</ele>
        <time>2010-10-21T12:51:05Z</time>
      </trkpt>
      <trkpt lat="45.54533" lon="4.49658">
        <ele>767.75</ele>
        <time>2010-10-21T12:51:06Z</time>
      </trkpt>
      <trkpt lat="45.54558" lon="4.4966">
        <ele>768.23</ele>
        <time>2010-10-21T12:51:15Z</time>
      </trkpt>
      <trkpt lat="45.54582" lon="4.49661">
        <ele>769.19</ele>
        <time>2010-10-21T12:51:25Z</time>
      </trkpt>
      <trkpt lat="45.54601" lon="4.49663">
        <ele>768.71</ele>
        <time>2010-10-21T12:51:34Z</time>
      </trkpt>
      <trkpt lat="45.54627" lon="4.49669">
        <ele>769.19</ele>
        <time>2010-10-21T12:51:45Z</time>
      </trkpt>
      <trkpt lat="45.54649" lon="4.49673">
        <ele>771.11</ele>
        <time>2010-10-21T12:51:54Z</time>
      </trkpt>
      <trkpt lat="45.5465" lon="4.49672">
        <ele>770.63</ele>
        <time>2010-10-21T12:51:55Z</time>
      </trkpt>
      <trkpt lat="45.54652" lon="4.49671">
        <ele>769.19</ele>
        <time>2010-10-21T12:51:56Z</time>
      </trkpt>
      <trkpt lat="45.54653" lon="4.49669">
        <ele>770.15</ele>
        <time>2010-10-21T12:51:57Z</time>
      </trkpt>
      <trkpt lat="45.54654" lon="4.49668">
        <ele>769.67</ele>
        <time>2010-10-21T12:51:58Z</time>
      </trkpt>
      <trkpt lat="45.54656" lon="4.49667">
        <ele>769.19</ele>
        <time>2010-10-21T12:51:59Z</time>
      </trkpt>
      <trkpt lat="45.54658" lon="4.49667">
        <ele>767.75</ele>
        <time>2010-10-21T12:52:00Z</time>
      </trkpt>
      <trkpt lat="45.5466" lon="4.49666">
        <ele>767.75</ele>
        <time>2010-10-21T12:52:01Z</time>
      </trkpt>
      <trkpt lat="45.54669" lon="4.49661">
        <ele>767.27</ele>
        <time>2010-10-21T12:52:05Z</time>
      </trkpt>
      <trkpt lat="45.54671" lon="4.49662">
        <ele>767.27</ele>
        <time>2010-10-21T12:52:06Z</time>
      </trkpt>
      <trkpt lat="45.54673" lon="4.49662">
        <ele>767.75</ele>
        <time>2010-10-21T12:52:07Z</time>
      </trkpt>
      <trkpt lat="45.54675" lon="4.49661">
        <ele>767.27</ele>
        <time>2010-10-21T12:52:08Z</time>
      </trkpt>
      <trkpt lat="45.54678" lon="4.4966">
        <ele>767.75</ele>
        <time>2010-10-21T12:52:09Z</time>
      </trkpt>
      <trkpt lat="45.54681" lon="4.4966">
        <ele>768.23</ele>
        <time>2010-10-21T12:52:10Z</time>
      </trkpt>
      <trkpt lat="45.54684" lon="4.49659">
        <ele>768.23</ele>
        <time>2010-10-21T12:52:11Z</time>
      </trkpt>
      <trkpt lat="45.54687" lon="4.49659">
        <ele>767.75</ele>
        <time>2010-10-21T12:52:12Z</time>
      </trkpt>
      <trkpt lat="45.54689" lon="4.49658">
        <ele>768.71</ele>
        <time>2010-10-21T12:52:13Z</time>
      </trkpt>
      <trkpt lat="45.54692" lon="4.49658">
        <ele>767.75</ele>
        <time>2010-10-21T12:52:14Z</time>
      </trkpt>
      <trkpt lat="45.54695" lon="4.49658">
        <ele>768.23</ele>
        <time>2010-10-21T12:52:15Z</time>
      </trkpt>
      <trkpt lat="45.54701" lon="4.49659">
        <ele>767.75</ele>
        <time>2010-10-21T12:52:18Z</time>
      </trkpt>
      <trkpt lat="45.54704" lon="4.49659">
        <ele>768.71</ele>
        <time>2010-10-21T12:52:19Z</time>
      </trkpt>
      <trkpt lat="45.54706" lon="4.49659">
        <ele>768.23</ele>
        <time>2010-10-21T12:52:20Z</time>
      </trkpt>
      <trkpt lat="45.54708" lon="4.49659">
        <ele>768.23</ele>
        <time>2010-10-21T12:52:21Z</time>
      </trkpt>
      <trkpt lat="45.5471" lon="4.4966">
        <ele>768.71</ele>
        <time>2010-10-21T12:52:22Z</time>
      </trkpt>
      <trkpt lat="45.54713" lon="4.49661">
        <ele>768.71</ele>
        <time>2010-10-21T12:52:23Z</time>
      </trkpt>
      <trkpt lat="45.54716" lon="4.49662">
        <ele>769.19</ele>
        <time>2010-10-21T12:52:24Z</time>
      </trkpt>
      <trkpt lat="45.54726" lon="4.49663">
        <ele>769.67</ele>
        <time>2010-10-21T12:52:29Z</time>
      </trkpt>
      <trkpt lat="45.54729" lon="4.49664">
        <ele>769.67</ele>
        <time>2010-10-21T12:52:30Z</time>
      </trkpt>
      <trkpt lat="45.54731" lon="4.49664">
        <ele>770.63</ele>
        <time>2010-10-21T12:52:31Z</time>
      </trkpt>
      <trkpt lat="45.5475" lon="4.49664">
        <ele>772.08</ele>
        <time>2010-10-21T12:52:41Z</time>
      </trkpt>
      <trkpt lat="45.54757" lon="4.49665">
        <ele>772.56</ele>
        <time>2010-10-21T12:52:44Z</time>
      </trkpt>
      <trkpt lat="45.5476" lon="4.49666">
        <ele>773.04</ele>
        <time>2010-10-21T12:52:46Z</time>
      </trkpt>
      <trkpt lat="45.54766" lon="4.49665">
        <ele>774.96</ele>
        <time>2010-10-21T12:52:50Z</time>
      </trkpt>
      <trkpt lat="45.54787" lon="4.49661">
        <ele>778.32</ele>
        <time>2010-10-21T12:52:59Z</time>
      </trkpt>
      <trkpt lat="45.54807" lon="4.49661">
        <ele>779.77</ele>
        <time>2010-10-21T12:53:07Z</time>
      </trkpt>
      <trkpt lat="45.54815" lon="4.4966">
        <ele>780.73</ele>
        <time>2010-10-21T12:53:11Z</time>
      </trkpt>
      <trkpt lat="45.54822" lon="4.49659">
        <ele>781.69</ele>
        <time>2010-10-21T12:53:15Z</time>
      </trkpt>
      <trkpt lat="45.54835" lon="4.49655">
        <ele>783.61</ele>
        <time>2010-10-21T12:53:21Z</time>
      </trkpt>
      <trkpt lat="45.54842" lon="4.49654">
        <ele>784.57</ele>
        <time>2010-10-21T12:53:31Z</time>
      </trkpt>
      <trkpt lat="45.54841" lon="4.49655">
        <ele>784.09</ele>
        <time>2010-10-21T12:53:39Z</time>
      </trkpt>
      <trkpt lat="45.54848" lon="4.49657">
        <ele>785.53</ele>
        <time>2010-10-21T12:53:44Z</time>
      </trkpt>
      <trkpt lat="45.5485" lon="4.49657">
        <ele>785.05</ele>
        <time>2010-10-21T12:53:46Z</time>
      </trkpt>
      <trkpt lat="45.54865" lon="4.49653">
        <ele>788.42</ele>
        <time>2010-10-21T12:53:54Z</time>
      </trkpt>
      <trkpt lat="45.54877" lon="4.49649">
        <ele>789.86</ele>
        <time>2010-10-21T12:53:59Z</time>
      </trkpt>
      <trkpt lat="45.54881" lon="4.49648">
        <ele>791.3</ele>
        <time>2010-10-21T12:54:01Z</time>
      </trkpt>
      <trkpt lat="45.54899" lon="4.49644">
        <ele>792.74</ele>
        <time>2010-10-21T12:54:09Z</time>
      </trkpt>
      <trkpt lat="45.54902" lon="4.49642">
        <ele>792.74</ele>
        <time>2010-10-21T12:54:11Z</time>
      </trkpt>
      <trkpt lat="45.54905" lon="4.49642">
        <ele>794.67</ele>
        <time>2010-10-21T12:54:13Z</time>
      </trkpt>
      <trkpt lat="45.54922" lon="4.49635">
        <ele>796.59</ele>
        <time>2010-10-21T12:54:21Z</time>
      </trkpt>
      <trkpt lat="45.5493" lon="4.49629">
        <ele>798.99</ele>
        <time>2010-10-21T12:54:26Z</time>
      </trkpt>
      <trkpt lat="45.54937" lon="4.49624">
        <ele>800.92</ele>
        <time>2010-10-21T12:54:30Z</time>
      </trkpt>
      <trkpt lat="45.54944" lon="4.49617">
        <ele>800.92</ele>
        <time>2010-10-21T12:54:34Z</time>
      </trkpt>
      <trkpt lat="45.54947" lon="4.49617">
        <ele>802.36</ele>
        <time>2010-10-21T12:54:36Z</time>
      </trkpt>
      <trkpt lat="45.54951" lon="4.49613">
        <ele>803.32</ele>
        <time>2010-10-21T12:54:39Z</time>
      </trkpt>
      <trkpt lat="45.54959" lon="4.49611">
        <ele>803.8</ele>
        <time>2010-10-21T12:54:43Z</time>
      </trkpt>
      <trkpt lat="45.54962" lon="4.49608">
        <ele>804.76</ele>
        <time>2010-10-21T12:54:45Z</time>
      </trkpt>
      <trkpt lat="45.54966" lon="4.49603">
        <ele>806.68</ele>
        <time>2010-10-21T12:54:49Z</time>
      </trkpt>
      <trkpt lat="45.54973" lon="4.49592">
        <ele>808.61</ele>
        <time>2010-10-21T12:54:54Z</time>
      </trkpt>
      <trkpt lat="45.54988" lon="4.49582">
        <ele>812.93</ele>
        <time>2010-10-21T12:55:01Z</time>
      </trkpt>
      <trkpt lat="45.54991" lon="4.49581">
        <ele>812.93</ele>
        <time>2010-10-21T12:55:03Z</time>
      </trkpt>
      <trkpt lat="45.54997" lon="4.49572">
        <ele>814.85</ele>
        <time>2010-10-21T12:55:08Z</time>
      </trkpt>
      <trkpt lat="45.55002" lon="4.49563">
        <ele>815.34</ele>
        <time>2010-10-21T12:55:13Z</time>
      </trkpt>
      <trkpt lat="45.55005" lon="4.49561">
        <ele>816.3</ele>
        <time>2010-10-21T12:55:15Z</time>
      </trkpt>
      <trkpt lat="45.5501" lon="4.49553">
        <ele>818.22</ele>
        <time>2010-10-21T12:55:18Z</time>
      </trkpt>
      <trkpt lat="45.55015" lon="4.49546">
        <ele>819.18</ele>
        <time>2010-10-21T12:55:22Z</time>
      </trkpt>
      <trkpt lat="45.55028" lon="4.49534">
        <ele>822.06</ele>
        <time>2010-10-21T12:55:30Z</time>
      </trkpt>
      <trkpt lat="45.55031" lon="4.49532">
        <ele>823.03</ele>
        <time>2010-10-21T12:55:33Z</time>
      </trkpt>
      <trkpt lat="45.55043" lon="4.49527">
        <ele>826.39</ele>
        <time>2010-10-21T12:55:39Z</time>
      </trkpt>
      <trkpt lat="45.55049" lon="4.49519">
        <ele>827.35</ele>
        <time>2010-10-21T12:55:43Z</time>
      </trkpt>
      <trkpt lat="45.55061" lon="4.495">
        <ele>831.68</ele>
        <time>2010-10-21T12:55:51Z</time>
      </trkpt>
      <trkpt lat="45.55063" lon="4.49498">
        <ele>830.72</ele>
        <time>2010-10-21T12:55:52Z</time>
      </trkpt>
      <trkpt lat="45.55068" lon="4.49492">
        <ele>832.16</ele>
        <time>2010-10-21T12:55:56Z</time>
      </trkpt>
      <trkpt lat="45.55081" lon="4.49477">
        <ele>836</ele>
        <time>2010-10-21T12:56:03Z</time>
      </trkpt>
      <trkpt lat="45.55088" lon="4.49465">
        <ele>837.93</ele>
        <time>2010-10-21T12:56:09Z</time>
      </trkpt>
      <trkpt lat="45.55102" lon="4.49448">
        <ele>841.77</ele>
        <time>2010-10-21T12:56:18Z</time>
      </trkpt>
      <trkpt lat="45.55102" lon="4.49445">
        <ele>841.77</ele>
        <time>2010-10-21T12:56:26Z</time>
      </trkpt>
      <trkpt lat="45.55103" lon="4.49448">
        <ele>841.77</ele>
        <time>2010-10-21T12:56:38Z</time>
      </trkpt>
      <trkpt lat="45.55103" lon="4.49449">
        <ele>841.29</ele>
        <time>2010-10-21T12:57:49Z</time>
      </trkpt>
      <trkpt lat="45.55105" lon="4.4945">
        <ele>840.81</ele>
        <time>2010-10-21T12:57:52Z</time>
      </trkpt>
      <trkpt lat="45.55106" lon="4.49448">
        <ele>841.29</ele>
        <time>2010-10-21T12:57:54Z</time>
      </trkpt>
      <trkpt lat="45.55109" lon="4.49446">
        <ele>842.73</ele>
        <time>2010-10-21T12:57:57Z</time>
      </trkpt>
      <trkpt lat="45.55109" lon="4.49446">
        <ele>842.25</ele>
        <time>2010-10-21T12:58:00Z</time>
      </trkpt>
      <trkpt lat="45.55119" lon="4.49441">
        <ele>844.18</ele>
        <time>2010-10-21T12:58:05Z</time>
      </trkpt>
      <trkpt lat="45.55123" lon="4.49439">
        <ele>844.66</ele>
        <time>2010-10-21T12:58:07Z</time>
      </trkpt>
      <trkpt lat="45.55131" lon="4.49436">
        <ele>846.1</ele>
        <time>2010-10-21T12:58:11Z</time>
      </trkpt>
      <trkpt lat="45.55152" lon="4.49432">
        <ele>848.5</ele>
        <time>2010-10-21T12:58:21Z</time>
      </trkpt>
      <trkpt lat="45.55157" lon="4.49429">
        <ele>848.98</ele>
        <time>2010-10-21T12:58:23Z</time>
      </trkpt>
      <trkpt lat="45.55161" lon="4.49428">
        <ele>849.46</ele>
        <time>2010-10-21T12:58:25Z</time>
      </trkpt>
      <trkpt lat="45.55169" lon="4.49426">
        <ele>850.9</ele>
        <time>2010-10-21T12:58:29Z</time>
      </trkpt>
      <trkpt lat="45.55193" lon="4.49423">
        <ele>854.75</ele>
        <time>2010-10-21T12:58:40Z</time>
      </trkpt>
      <trkpt lat="45.55202" lon="4.49426">
        <ele>853.79</ele>
        <time>2010-10-21T12:58:45Z</time>
      </trkpt>
      <trkpt lat="45.5522" lon="4.49432">
        <ele>855.71</ele>
        <time>2010-10-21T12:58:54Z</time>
      </trkpt>
      <trkpt lat="45.55231" lon="4.49436">
        <ele>856.19</ele>
        <time>2010-10-21T12:58:59Z</time>
      </trkpt>
      <trkpt lat="45.55241" lon="4.49443">
        <ele>856.67</ele>
        <time>2010-10-21T12:59:04Z</time>
      </trkpt>
      <trkpt lat="45.55251" lon="4.49447">
        <ele>857.15</ele>
        <time>2010-10-21T12:59:08Z</time>
      </trkpt>
      <trkpt lat="45.55268" lon="4.49449">
        <ele>858.59</ele>
        <time>2010-10-21T12:59:16Z</time>
      </trkpt>
      <trkpt lat="45.55285" lon="4.49451">
        <ele>858.11</ele>
        <time>2010-10-21T12:59:23Z</time>
      </trkpt>
      <trkpt lat="45.55287" lon="4.49452">
        <ele>858.11</ele>
        <time>2010-10-21T12:59:24Z</time>
      </trkpt>
      <trkpt lat="45.55302" lon="4.49457">
        <ele>857.15</ele>
        <time>2010-10-21T12:59:30Z</time>
      </trkpt>
      <trkpt lat="45.55306" lon="4.49458">
        <ele>858.59</ele>
        <time>2010-10-21T12:59:32Z</time>
      </trkpt>
      <trkpt lat="45.55325" lon="4.4946">
        <ele>858.11</ele>
        <time>2010-10-21T12:59:39Z</time>
      </trkpt>
      <trkpt lat="45.55342" lon="4.49463">
        <ele>858.59</ele>
        <time>2010-10-21T12:59:46Z</time>
      </trkpt>
      <trkpt lat="45.55356" lon="4.49466">
        <ele>859.56</ele>
        <time>2010-10-21T12:59:52Z</time>
      </trkpt>
      <trkpt lat="45.55367" lon="4.49467">
        <ele>859.56</ele>
        <time>2010-10-21T12:59:56Z</time>
      </trkpt>
      <trkpt lat="45.55381" lon="4.49473">
        <ele>859.08</ele>
        <time>2010-10-21T13:00:02Z</time>
      </trkpt>
      <trkpt lat="45.55395" lon="4.49486">
        <ele>859.56</ele>
        <time>2010-10-21T13:00:09Z</time>
      </trkpt>
      <trkpt lat="45.55402" lon="4.49495">
        <ele>860.52</ele>
        <time>2010-10-21T13:00:12Z</time>
      </trkpt>
      <trkpt lat="45.55418" lon="4.49507">
        <ele>861</ele>
        <time>2010-10-21T13:00:18Z</time>
      </trkpt>
      <trkpt lat="45.55434" lon="4.49515">
        <ele>861.48</ele>
        <time>2010-10-21T13:00:24Z</time>
      </trkpt>
      <trkpt lat="45.55439" lon="4.49515">
        <ele>862.92</ele>
        <time>2010-10-21T13:00:41Z</time>
      </trkpt>
      <trkpt lat="45.55438" lon="4.49515">
        <ele>861.48</ele>
        <time>2010-10-21T13:01:14Z</time>
      </trkpt>
      <trkpt lat="45.55436" lon="4.49514">
        <ele>861.96</ele>
        <time>2010-10-21T13:01:36Z</time>
      </trkpt>
      <trkpt lat="45.55441" lon="4.49517">
        <ele>861.48</ele>
        <time>2010-10-21T13:02:16Z</time>
      </trkpt>
      <trkpt lat="45.55442" lon="4.49518">
        <ele>861</ele>
        <time>2010-10-21T13:02:17Z</time>
      </trkpt>
      <trkpt lat="45.55454" lon="4.49523">
        <ele>861.96</ele>
        <time>2010-10-21T13:02:25Z</time>
      </trkpt>
      <trkpt lat="45.55457" lon="4.49523">
        <ele>861.96</ele>
        <time>2010-10-21T13:02:32Z</time>
      </trkpt>
      <trkpt lat="45.55466" lon="4.49527">
        <ele>861.96</ele>
        <time>2010-10-21T13:02:35Z</time>
      </trkpt>
      <trkpt lat="45.5547" lon="4.49528">
        <ele>861</ele>
        <time>2010-10-21T13:02:36Z</time>
      </trkpt>
      <trkpt lat="45.55472" lon="4.49528">
        <ele>862.44</ele>
        <time>2010-10-21T13:02:37Z</time>
      </trkpt>
      <trkpt lat="45.55474" lon="4.49529">
        <ele>860.52</ele>
        <time>2010-10-21T13:02:38Z</time>
      </trkpt>
      <trkpt lat="45.55476" lon="4.49529">
        <ele>862.44</ele>
        <time>2010-10-21T13:02:39Z</time>
      </trkpt>
      <trkpt lat="45.55479" lon="4.49531">
        <ele>862.44</ele>
        <time>2010-10-21T13:02:40Z</time>
      </trkpt>
      <trkpt lat="45.55482" lon="4.49532">
        <ele>862.44</ele>
        <time>2010-10-21T13:02:41Z</time>
      </trkpt>
      <trkpt lat="45.55485" lon="4.49533">
        <ele>861.48</ele>
        <time>2010-10-21T13:02:42Z</time>
      </trkpt>
      <trkpt lat="45.55487" lon="4.49535">
        <ele>862.92</ele>
        <time>2010-10-21T13:02:43Z</time>
      </trkpt>
      <trkpt lat="45.55489" lon="4.49537">
        <ele>861.48</ele>
        <time>2010-10-21T13:02:44Z</time>
      </trkpt>
      <trkpt lat="45.55491" lon="4.49538">
        <ele>861.96</ele>
        <time>2010-10-21T13:02:45Z</time>
      </trkpt>
      <trkpt lat="45.55494" lon="4.49539">
        <ele>861.96</ele>
        <time>2010-10-21T13:02:46Z</time>
      </trkpt>
      <trkpt lat="45.55496" lon="4.49539">
        <ele>861.96</ele>
        <time>2010-10-21T13:02:47Z</time>
      </trkpt>
      <trkpt lat="45.55499" lon="4.4954">
        <ele>862.44</ele>
        <time>2010-10-21T13:02:48Z</time>
      </trkpt>
      <trkpt lat="45.55502" lon="4.49541">
        <ele>861.48</ele>
        <time>2010-10-21T13:02:49Z</time>
      </trkpt>
      <trkpt lat="45.55504" lon="4.49542">
        <ele>861.96</ele>
        <time>2010-10-21T13:02:50Z</time>
      </trkpt>
      <trkpt lat="45.55507" lon="4.49543">
        <ele>862.44</ele>
        <time>2010-10-21T13:02:51Z</time>
      </trkpt>
      <trkpt lat="45.55515" lon="4.49545">
        <ele>862.44</ele>
        <time>2010-10-21T13:02:54Z</time>
      </trkpt>
      <trkpt lat="45.55517" lon="4.49547">
        <ele>861.48</ele>
        <time>2010-10-21T13:02:55Z</time>
      </trkpt>
      <trkpt lat="45.55519" lon="4.49548">
        <ele>862.44</ele>
        <time>2010-10-21T13:02:56Z</time>
      </trkpt>
      <trkpt lat="45.55522" lon="4.4955">
        <ele>862.44</ele>
        <time>2010-10-21T13:02:57Z</time>
      </trkpt>
      <trkpt lat="45.55525" lon="4.49551">
        <ele>862.44</ele>
        <time>2010-10-21T13:02:58Z</time>
      </trkpt>
      <trkpt lat="45.55547" lon="4.4956">
        <ele>862.44</ele>
        <time>2010-10-21T13:03:07Z</time>
      </trkpt>
      <trkpt lat="45.5557" lon="4.49575">
        <ele>863.88</ele>
        <time>2010-10-21T13:03:17Z</time>
      </trkpt>
      <trkpt lat="45.55588" lon="4.49585">
        <ele>863.4</ele>
        <time>2010-10-21T13:03:25Z</time>
      </trkpt>
      <trkpt lat="45.55602" lon="4.49591">
        <ele>864.36</ele>
        <time>2010-10-21T13:03:30Z</time>
      </trkpt>
      <trkpt lat="45.55605" lon="4.49591">
        <ele>863.88</ele>
        <time>2010-10-21T13:03:31Z</time>
      </trkpt>
      <trkpt lat="45.55607" lon="4.49592">
        <ele>863.88</ele>
        <time>2010-10-21T13:03:32Z</time>
      </trkpt>
      <trkpt lat="45.55609" lon="4.49593">
        <ele>863.88</ele>
        <time>2010-10-21T13:03:33Z</time>
      </trkpt>
      <trkpt lat="45.55612" lon="4.49593">
        <ele>863.4</ele>
        <time>2010-10-21T13:03:34Z</time>
      </trkpt>
      <trkpt lat="45.55614" lon="4.49593">
        <ele>863.88</ele>
        <time>2010-10-21T13:03:35Z</time>
      </trkpt>
      <trkpt lat="45.55616" lon="4.49593">
        <ele>863.88</ele>
        <time>2010-10-21T13:03:36Z</time>
      </trkpt>
      <trkpt lat="45.55618" lon="4.49595">
        <ele>863.88</ele>
        <time>2010-10-21T13:03:37Z</time>
      </trkpt>
      <trkpt lat="45.5562" lon="4.49596">
        <ele>863.88</ele>
        <time>2010-10-21T13:03:38Z</time>
      </trkpt>
      <trkpt lat="45.55623" lon="4.49597">
        <ele>862.92</ele>
        <time>2010-10-21T13:03:39Z</time>
      </trkpt>
      <trkpt lat="45.55625" lon="4.49598">
        <ele>863.4</ele>
        <time>2010-10-21T13:03:40Z</time>
      </trkpt>
      <trkpt lat="45.55643" lon="4.49602">
        <ele>862.92</ele>
        <time>2010-10-21T13:03:47Z</time>
      </trkpt>
      <trkpt lat="45.55666" lon="4.49603">
        <ele>861</ele>
        <time>2010-10-21T13:03:56Z</time>
      </trkpt>
      <trkpt lat="45.55691" lon="4.49602">
        <ele>859.56</ele>
        <time>2010-10-21T13:04:05Z</time>
      </trkpt>
      <trkpt lat="45.55713" lon="4.49602">
        <ele>856.67</ele>
        <time>2010-10-21T13:04:13Z</time>
      </trkpt>
      <trkpt lat="45.55734" lon="4.49602">
        <ele>853.79</ele>
        <time>2010-10-21T13:04:20Z</time>
      </trkpt>
      <trkpt lat="45.55747" lon="4.496">
        <ele>853.79</ele>
        <time>2010-10-21T13:04:24Z</time>
      </trkpt>
      <trkpt lat="45.55768" lon="4.49598">
        <ele>849.94</ele>
        <time>2010-10-21T13:04:30Z</time>
      </trkpt>
      <trkpt lat="45.55773" lon="4.49595">
        <ele>850.9</ele>
        <time>2010-10-21T13:04:32Z</time>
      </trkpt>
      <trkpt lat="45.55777" lon="4.49593">
        <ele>850.9</ele>
        <time>2010-10-21T13:04:33Z</time>
      </trkpt>
      <trkpt lat="45.55779" lon="4.49592">
        <ele>849.46</ele>
        <time>2010-10-21T13:04:34Z</time>
      </trkpt>
      <trkpt lat="45.55785" lon="4.4959">
        <ele>850.42</ele>
        <time>2010-10-21T13:04:36Z</time>
      </trkpt>
      <trkpt lat="45.55787" lon="4.4959">
        <ele>849.46</ele>
        <time>2010-10-21T13:04:37Z</time>
      </trkpt>
      <trkpt lat="45.5579" lon="4.49588">
        <ele>848.5</ele>
        <time>2010-10-21T13:04:38Z</time>
      </trkpt>
      <trkpt lat="45.55793" lon="4.49587">
        <ele>849.46</ele>
        <time>2010-10-21T13:04:39Z</time>
      </trkpt>
      <trkpt lat="45.55795" lon="4.49585">
        <ele>849.46</ele>
        <time>2010-10-21T13:04:40Z</time>
      </trkpt>
      <trkpt lat="45.55798" lon="4.49582">
        <ele>849.46</ele>
        <time>2010-10-21T13:04:41Z</time>
      </trkpt>
      <trkpt lat="45.55799" lon="4.4958">
        <ele>849.46</ele>
        <time>2010-10-21T13:04:42Z</time>
      </trkpt>
      <trkpt lat="45.558" lon="4.49578">
        <ele>848.98</ele>
        <time>2010-10-21T13:04:43Z</time>
      </trkpt>
      <trkpt lat="45.55802" lon="4.49575">
        <ele>848.98</ele>
        <time>2010-10-21T13:04:44Z</time>
      </trkpt>
      <trkpt lat="45.55804" lon="4.49572">
        <ele>849.46</ele>
        <time>2010-10-21T13:04:45Z</time>
      </trkpt>
      <trkpt lat="45.55828" lon="4.49555">
        <ele>848.98</ele>
        <time>2010-10-21T13:04:54Z</time>
      </trkpt>
      <trkpt lat="45.55843" lon="4.49539">
        <ele>848.5</ele>
        <time>2010-10-21T13:05:02Z</time>
      </trkpt>
      <trkpt lat="45.5585" lon="4.4953">
        <ele>847.54</ele>
        <time>2010-10-21T13:05:07Z</time>
      </trkpt>
      <trkpt lat="45.55855" lon="4.49528">
        <ele>847.54</ele>
        <time>2010-10-21T13:05:10Z</time>
      </trkpt>
      <trkpt lat="45.55861" lon="4.49521">
        <ele>847.54</ele>
        <time>2010-10-21T13:05:13Z</time>
      </trkpt>
      <trkpt lat="45.55864" lon="4.49519">
        <ele>847.54</ele>
        <time>2010-10-21T13:05:14Z</time>
      </trkpt>
      <trkpt lat="45.55866" lon="4.49517">
        <ele>846.1</ele>
        <time>2010-10-21T13:05:15Z</time>
      </trkpt>
      <trkpt lat="45.55867" lon="4.49515">
        <ele>847.06</ele>
        <time>2010-10-21T13:05:16Z</time>
      </trkpt>
      <trkpt lat="45.55869" lon="4.49514">
        <ele>847.06</ele>
        <time>2010-10-21T13:05:17Z</time>
      </trkpt>
      <trkpt lat="45.5587" lon="4.49512">
        <ele>846.58</ele>
        <time>2010-10-21T13:05:18Z</time>
      </trkpt>
      <trkpt lat="45.55872" lon="4.49511">
        <ele>846.58</ele>
        <time>2010-10-21T13:05:19Z</time>
      </trkpt>
      <trkpt lat="45.55875" lon="4.4951">
        <ele>846.58</ele>
        <time>2010-10-21T13:05:20Z</time>
      </trkpt>
      <trkpt lat="45.55877" lon="4.49509">
        <ele>845.62</ele>
        <time>2010-10-21T13:05:21Z</time>
      </trkpt>
      <trkpt lat="45.55884" lon="4.49505">
        <ele>846.1</ele>
        <time>2010-10-21T13:05:24Z</time>
      </trkpt>
      <trkpt lat="45.55887" lon="4.49505">
        <ele>846.1</ele>
        <time>2010-10-21T13:05:25Z</time>
      </trkpt>
      <trkpt lat="45.5589" lon="4.49505">
        <ele>845.62</ele>
        <time>2010-10-21T13:05:26Z</time>
      </trkpt>
      <trkpt lat="45.55892" lon="4.49504">
        <ele>845.14</ele>
        <time>2010-10-21T13:05:27Z</time>
      </trkpt>
      <trkpt lat="45.55895" lon="4.49504">
        <ele>845.62</ele>
        <time>2010-10-21T13:05:28Z</time>
      </trkpt>
      <trkpt lat="45.55908" lon="4.495">
        <ele>845.62</ele>
        <time>2010-10-21T13:05:33Z</time>
      </trkpt>
      <trkpt lat="45.55911" lon="4.49499">
        <ele>845.14</ele>
        <time>2010-10-21T13:05:34Z</time>
      </trkpt>
      <trkpt lat="45.55929" lon="4.49492">
        <ele>845.14</ele>
        <time>2010-10-21T13:05:41Z</time>
      </trkpt>
      <trkpt lat="45.55932" lon="4.49492">
        <ele>845.14</ele>
        <time>2010-10-21T13:05:42Z</time>
      </trkpt>
      <trkpt lat="45.55935" lon="4.49491">
        <ele>845.14</ele>
        <time>2010-10-21T13:05:43Z</time>
      </trkpt>
      <trkpt lat="45.55937" lon="4.49489">
        <ele>844.18</ele>
        <time>2010-10-21T13:05:44Z</time>
      </trkpt>
      <trkpt lat="45.55939" lon="4.49489">
        <ele>845.62</ele>
        <time>2010-10-21T13:05:45Z</time>
      </trkpt>
      <trkpt lat="45.55941" lon="4.49489">
        <ele>845.14</ele>
        <time>2010-10-21T13:05:46Z</time>
      </trkpt>
      <trkpt lat="45.55944" lon="4.49488">
        <ele>844.66</ele>
        <time>2010-10-21T13:05:47Z</time>
      </trkpt>
      <trkpt lat="45.55967" lon="4.49487">
        <ele>844.66</ele>
        <time>2010-10-21T13:05:55Z</time>
      </trkpt>
      <trkpt lat="45.5597" lon="4.49487">
        <ele>843.69</ele>
        <time>2010-10-21T13:05:56Z</time>
      </trkpt>
      <trkpt lat="45.55992" lon="4.49487">
        <ele>842.73</ele>
        <time>2010-10-21T13:06:05Z</time>
      </trkpt>
      <trkpt lat="45.55994" lon="4.49488">
        <ele>844.18</ele>
        <time>2010-10-21T13:06:06Z</time>
      </trkpt>
      <trkpt lat="45.55997" lon="4.49487">
        <ele>843.21</ele>
        <time>2010-10-21T13:06:07Z</time>
      </trkpt>
      <trkpt lat="45.56" lon="4.49486">
        <ele>845.14</ele>
        <time>2010-10-21T13:06:08Z</time>
      </trkpt>
      <trkpt lat="45.56003" lon="4.49486">
        <ele>842.73</ele>
        <time>2010-10-21T13:06:09Z</time>
      </trkpt>
      <trkpt lat="45.56006" lon="4.49486">
        <ele>843.21</ele>
        <time>2010-10-21T13:06:10Z</time>
      </trkpt>
      <trkpt lat="45.56008" lon="4.49486">
        <ele>843.21</ele>
        <time>2010-10-21T13:06:11Z</time>
      </trkpt>
      <trkpt lat="45.56029" lon="4.49483">
        <ele>841.77</ele>
        <time>2010-10-21T13:06:19Z</time>
      </trkpt>
      <trkpt lat="45.56042" lon="4.49479">
        <ele>841.29</ele>
        <time>2010-10-21T13:06:24Z</time>
      </trkpt>
      <trkpt lat="45.56045" lon="4.4948">
        <ele>840.33</ele>
        <time>2010-10-21T13:06:25Z</time>
      </trkpt>
      <trkpt lat="45.56048" lon="4.49481">
        <ele>840.33</ele>
        <time>2010-10-21T13:06:26Z</time>
      </trkpt>
      <trkpt lat="45.5605" lon="4.49482">
        <ele>840.81</ele>
        <time>2010-10-21T13:06:27Z</time>
      </trkpt>
      <trkpt lat="45.56053" lon="4.49483">
        <ele>841.29</ele>
        <time>2010-10-21T13:06:28Z</time>
      </trkpt>
      <trkpt lat="45.56055" lon="4.49483">
        <ele>840.33</ele>
        <time>2010-10-21T13:06:29Z</time>
      </trkpt>
      <trkpt lat="45.56057" lon="4.49484">
        <ele>839.85</ele>
        <time>2010-10-21T13:06:30Z</time>
      </trkpt>
      <trkpt lat="45.56059" lon="4.49485">
        <ele>840.33</ele>
        <time>2010-10-21T13:06:31Z</time>
      </trkpt>
      <trkpt lat="45.56077" lon="4.49492">
        <ele>837.93</ele>
        <time>2010-10-21T13:06:39Z</time>
      </trkpt>
      <trkpt lat="45.56094" lon="4.495">
        <ele>837.45</ele>
        <time>2010-10-21T13:06:46Z</time>
      </trkpt>
      <trkpt lat="45.56113" lon="4.49513">
        <ele>836.48</ele>
        <time>2010-10-21T13:06:54Z</time>
      </trkpt>
      <trkpt lat="45.56129" lon="4.49524">
        <ele>835.52</ele>
        <time>2010-10-21T13:07:01Z</time>
      </trkpt>
      <trkpt lat="45.56131" lon="4.49524">
        <ele>835.52</ele>
        <time>2010-10-21T13:07:02Z</time>
      </trkpt>
      <trkpt lat="45.56133" lon="4.49527">
        <ele>836.48</ele>
        <time>2010-10-21T13:07:03Z</time>
      </trkpt>
      <trkpt lat="45.56135" lon="4.49528">
        <ele>835.04</ele>
        <time>2010-10-21T13:07:04Z</time>
      </trkpt>
      <trkpt lat="45.56137" lon="4.4953">
        <ele>834.56</ele>
        <time>2010-10-21T13:07:05Z</time>
      </trkpt>
      <trkpt lat="45.56139" lon="4.49533">
        <ele>835.52</ele>
        <time>2010-10-21T13:07:06Z</time>
      </trkpt>
      <trkpt lat="45.56142" lon="4.49535">
        <ele>835.52</ele>
        <time>2010-10-21T13:07:07Z</time>
      </trkpt>
      <trkpt lat="45.56144" lon="4.49537">
        <ele>834.08</ele>
        <time>2010-10-21T13:07:08Z</time>
      </trkpt>
      <trkpt lat="45.56147" lon="4.49538">
        <ele>835.52</ele>
        <time>2010-10-21T13:07:09Z</time>
      </trkpt>
      <trkpt lat="45.56149" lon="4.4954">
        <ele>835.04</ele>
        <time>2010-10-21T13:07:10Z</time>
      </trkpt>
      <trkpt lat="45.56151" lon="4.49542">
        <ele>834.56</ele>
        <time>2010-10-21T13:07:11Z</time>
      </trkpt>
      <trkpt lat="45.56153" lon="4.49544">
        <ele>835.52</ele>
        <time>2010-10-21T13:07:12Z</time>
      </trkpt>
      <trkpt lat="45.56154" lon="4.49546">
        <ele>835.04</ele>
        <time>2010-10-21T13:07:13Z</time>
      </trkpt>
      <trkpt lat="45.56156" lon="4.49547">
        <ele>834.56</ele>
        <time>2010-10-21T13:07:14Z</time>
      </trkpt>
      <trkpt lat="45.5618" lon="4.49563">
        <ele>834.08</ele>
        <time>2010-10-21T13:07:23Z</time>
      </trkpt>
      <trkpt lat="45.56201" lon="4.49581">
        <ele>833.12</ele>
        <time>2010-10-21T13:07:33Z</time>
      </trkpt>
      <trkpt lat="45.56221" lon="4.49597">
        <ele>832.16</ele>
        <time>2010-10-21T13:07:42Z</time>
      </trkpt>
      <trkpt lat="45.56223" lon="4.49599">
        <ele>832.64</ele>
        <time>2010-10-21T13:07:43Z</time>
      </trkpt>
      <trkpt lat="45.56225" lon="4.49601">
        <ele>832.64</ele>
        <time>2010-10-21T13:07:44Z</time>
      </trkpt>
      <trkpt lat="45.56227" lon="4.49603">
        <ele>832.16</ele>
        <time>2010-10-21T13:07:45Z</time>
      </trkpt>
      <trkpt lat="45.56229" lon="4.49605">
        <ele>832.16</ele>
        <time>2010-10-21T13:07:46Z</time>
      </trkpt>
      <trkpt lat="45.56231" lon="4.49606">
        <ele>833.12</ele>
        <time>2010-10-21T13:07:47Z</time>
      </trkpt>
      <trkpt lat="45.56234" lon="4.49606">
        <ele>831.2</ele>
        <time>2010-10-21T13:07:48Z</time>
      </trkpt>
      <trkpt lat="45.56236" lon="4.49607">
        <ele>833.12</ele>
        <time>2010-10-21T13:07:49Z</time>
      </trkpt>
      <trkpt lat="45.56238" lon="4.49609">
        <ele>832.16</ele>
        <time>2010-10-21T13:07:50Z</time>
      </trkpt>
      <trkpt lat="45.5624" lon="4.49611">
        <ele>832.64</ele>
        <time>2010-10-21T13:07:51Z</time>
      </trkpt>
      <trkpt lat="45.56242" lon="4.49613">
        <ele>833.12</ele>
        <time>2010-10-21T13:07:52Z</time>
      </trkpt>
      <trkpt lat="45.56245" lon="4.49616">
        <ele>832.64</ele>
        <time>2010-10-21T13:07:53Z</time>
      </trkpt>
      <trkpt lat="45.56247" lon="4.49618">
        <ele>832.64</ele>
        <time>2010-10-21T13:07:54Z</time>
      </trkpt>
      <trkpt lat="45.56249" lon="4.49619">
        <ele>832.64</ele>
        <time>2010-10-21T13:07:55Z</time>
      </trkpt>
      <trkpt lat="45.56266" lon="4.49634">
        <ele>832.64</ele>
        <time>2010-10-21T13:08:03Z</time>
      </trkpt>
      <trkpt lat="45.56268" lon="4.49636">
        <ele>832.16</ele>
        <time>2010-10-21T13:08:04Z</time>
      </trkpt>
      <trkpt lat="45.5627" lon="4.49637">
        <ele>833.12</ele>
        <time>2010-10-21T13:08:05Z</time>
      </trkpt>
      <trkpt lat="45.56281" lon="4.49646">
        <ele>833.12</ele>
        <time>2010-10-21T13:08:10Z</time>
      </trkpt>
      <trkpt lat="45.56284" lon="4.49649">
        <ele>832.64</ele>
        <time>2010-10-21T13:08:11Z</time>
      </trkpt>
      <trkpt lat="45.56286" lon="4.49652">
        <ele>832.16</ele>
        <time>2010-10-21T13:08:12Z</time>
      </trkpt>
      <trkpt lat="45.56289" lon="4.49655">
        <ele>833.12</ele>
        <time>2010-10-21T13:08:13Z</time>
      </trkpt>
      <trkpt lat="45.56292" lon="4.49657">
        <ele>833.12</ele>
        <time>2010-10-21T13:08:14Z</time>
      </trkpt>
      <trkpt lat="45.56294" lon="4.49657">
        <ele>834.08</ele>
        <time>2010-10-21T13:08:15Z</time>
      </trkpt>
      <trkpt lat="45.56297" lon="4.49659">
        <ele>833.6</ele>
        <time>2010-10-21T13:08:16Z</time>
      </trkpt>
      <trkpt lat="45.56299" lon="4.49661">
        <ele>833.12</ele>
        <time>2010-10-21T13:08:17Z</time>
      </trkpt>
      <trkpt lat="45.56302" lon="4.49663">
        <ele>833.12</ele>
        <time>2010-10-21T13:08:18Z</time>
      </trkpt>
      <trkpt lat="45.56306" lon="4.49665">
        <ele>832.16</ele>
        <time>2010-10-21T13:08:19Z</time>
      </trkpt>
      <trkpt lat="45.5631" lon="4.49665">
        <ele>832.64</ele>
        <time>2010-10-21T13:08:20Z</time>
      </trkpt>
      <trkpt lat="45.56312" lon="4.49666">
        <ele>834.08</ele>
        <time>2010-10-21T13:08:21Z</time>
      </trkpt>
      <trkpt lat="45.56314" lon="4.49667">
        <ele>834.56</ele>
        <time>2010-10-21T13:08:22Z</time>
      </trkpt>
      <trkpt lat="45.56315" lon="4.49669">
        <ele>833.12</ele>
        <time>2010-10-21T13:08:23Z</time>
      </trkpt>
      <trkpt lat="45.56317" lon="4.49671">
        <ele>833.6</ele>
        <time>2010-10-21T13:08:24Z</time>
      </trkpt>
      <trkpt lat="45.56319" lon="4.49673">
        <ele>834.08</ele>
        <time>2010-10-21T13:08:25Z</time>
      </trkpt>
      <trkpt lat="45.56322" lon="4.49675">
        <ele>833.6</ele>
        <time>2010-10-21T13:08:26Z</time>
      </trkpt>
      <trkpt lat="45.56325" lon="4.49677">
        <ele>833.6</ele>
        <time>2010-10-21T13:08:27Z</time>
      </trkpt>
      <trkpt lat="45.56327" lon="4.49679">
        <ele>834.56</ele>
        <time>2010-10-21T13:08:28Z</time>
      </trkpt>
      <trkpt lat="45.56329" lon="4.49679">
        <ele>833.6</ele>
        <time>2010-10-21T13:08:29Z</time>
      </trkpt>
      <trkpt lat="45.56331" lon="4.4968">
        <ele>834.56</ele>
        <time>2010-10-21T13:08:30Z</time>
      </trkpt>
      <trkpt lat="45.56334" lon="4.49681">
        <ele>834.56</ele>
        <time>2010-10-21T13:08:31Z</time>
      </trkpt>
      <trkpt lat="45.56336" lon="4.49683">
        <ele>834.56</ele>
        <time>2010-10-21T13:08:32Z</time>
      </trkpt>
      <trkpt lat="45.56338" lon="4.49685">
        <ele>833.12</ele>
        <time>2010-10-21T13:08:33Z</time>
      </trkpt>
      <trkpt lat="45.56341" lon="4.49685">
        <ele>834.56</ele>
        <time>2010-10-21T13:08:34Z</time>
      </trkpt>
      <trkpt lat="45.56343" lon="4.49686">
        <ele>835.04</ele>
        <time>2010-10-21T13:08:35Z</time>
      </trkpt>
      <trkpt lat="45.56346" lon="4.49689">
        <ele>834.08</ele>
        <time>2010-10-21T13:08:36Z</time>
      </trkpt>
      <trkpt lat="45.56348" lon="4.49691">
        <ele>834.08</ele>
        <time>2010-10-21T13:08:37Z</time>
      </trkpt>
      <trkpt lat="45.5635" lon="4.49693">
        <ele>833.12</ele>
        <time>2010-10-21T13:08:38Z</time>
      </trkpt>
      <trkpt lat="45.56372" lon="4.49711">
        <ele>834.56</ele>
        <time>2010-10-21T13:08:48Z</time>
      </trkpt>
      <trkpt lat="45.5638" lon="4.49718">
        <ele>835.52</ele>
        <time>2010-10-21T13:08:52Z</time>
      </trkpt>
      <trkpt lat="45.56396" lon="4.49732">
        <ele>834.56</ele>
        <time>2010-10-21T13:08:59Z</time>
      </trkpt>
      <trkpt lat="45.5641" lon="4.49747">
        <ele>835.04</ele>
        <time>2010-10-21T13:09:06Z</time>
      </trkpt>
      <trkpt lat="45.56412" lon="4.4975">
        <ele>834.56</ele>
        <time>2010-10-21T13:09:07Z</time>
      </trkpt>
      <trkpt lat="45.56414" lon="4.49752">
        <ele>834.08</ele>
        <time>2010-10-21T13:09:08Z</time>
      </trkpt>
      <trkpt lat="45.56416" lon="4.49754">
        <ele>834.56</ele>
        <time>2010-10-21T13:09:09Z</time>
      </trkpt>
      <trkpt lat="45.56419" lon="4.49757">
        <ele>834.08</ele>
        <time>2010-10-21T13:09:10Z</time>
      </trkpt>
      <trkpt lat="45.56422" lon="4.49759">
        <ele>834.56</ele>
        <time>2010-10-21T13:09:11Z</time>
      </trkpt>
      <trkpt lat="45.56424" lon="4.49761">
        <ele>834.56</ele>
        <time>2010-10-21T13:09:12Z</time>
      </trkpt>
      <trkpt lat="45.56426" lon="4.49763">
        <ele>834.56</ele>
        <time>2010-10-21T13:09:13Z</time>
      </trkpt>
      <trkpt lat="45.56428" lon="4.49766">
        <ele>834.56</ele>
        <time>2010-10-21T13:09:14Z</time>
      </trkpt>
      <trkpt lat="45.5643" lon="4.49768">
        <ele>834.56</ele>
        <time>2010-10-21T13:09:15Z</time>
      </trkpt>
      <trkpt lat="45.56433" lon="4.49771">
        <ele>835.04</ele>
        <time>2010-10-21T13:09:16Z</time>
      </trkpt>
      <trkpt lat="45.56434" lon="4.49773">
        <ele>834.56</ele>
        <time>2010-10-21T13:09:17Z</time>
      </trkpt>
      <trkpt lat="45.56437" lon="4.49775">
        <ele>834.56</ele>
        <time>2010-10-21T13:09:18Z</time>
      </trkpt>
      <trkpt lat="45.5644" lon="4.49777">
        <ele>834.08</ele>
        <time>2010-10-21T13:09:19Z</time>
      </trkpt>
      <trkpt lat="45.56442" lon="4.4978">
        <ele>834.08</ele>
        <time>2010-10-21T13:09:20Z</time>
      </trkpt>
      <trkpt lat="45.56445" lon="4.49783">
        <ele>833.6</ele>
        <time>2010-10-21T13:09:21Z</time>
      </trkpt>
      <trkpt lat="45.56447" lon="4.49785">
        <ele>834.56</ele>
        <time>2010-10-21T13:09:22Z</time>
      </trkpt>
      <trkpt lat="45.56449" lon="4.49788">
        <ele>834.56</ele>
        <time>2010-10-21T13:09:23Z</time>
      </trkpt>
      <trkpt lat="45.5645" lon="4.4979">
        <ele>834.56</ele>
        <time>2010-10-21T13:09:24Z</time>
      </trkpt>
      <trkpt lat="45.56452" lon="4.49793">
        <ele>834.56</ele>
        <time>2010-10-21T13:09:25Z</time>
      </trkpt>
      <trkpt lat="45.56454" lon="4.49796">
        <ele>834.08</ele>
        <time>2010-10-21T13:09:26Z</time>
      </trkpt>
      <trkpt lat="45.56456" lon="4.49799">
        <ele>833.6</ele>
        <time>2010-10-21T13:09:27Z</time>
      </trkpt>
      <trkpt lat="45.56476" lon="4.49817">
        <ele>834.56</ele>
        <time>2010-10-21T13:09:36Z</time>
      </trkpt>
      <trkpt lat="45.56481" lon="4.49822">
        <ele>835.04</ele>
        <time>2010-10-21T13:09:39Z</time>
      </trkpt>
      <trkpt lat="45.56483" lon="4.49824">
        <ele>834.08</ele>
        <time>2010-10-21T13:09:40Z</time>
      </trkpt>
      <trkpt lat="45.56486" lon="4.49826">
        <ele>835.04</ele>
        <time>2010-10-21T13:09:41Z</time>
      </trkpt>
      <trkpt lat="45.56489" lon="4.49826">
        <ele>834.08</ele>
        <time>2010-10-21T13:09:42Z</time>
      </trkpt>
      <trkpt lat="45.56491" lon="4.49826">
        <ele>834.08</ele>
        <time>2010-10-21T13:09:43Z</time>
      </trkpt>
      <trkpt lat="45.56494" lon="4.49826">
        <ele>834.08</ele>
        <time>2010-10-21T13:09:44Z</time>
      </trkpt>
      <trkpt lat="45.56496" lon="4.49826">
        <ele>834.08</ele>
        <time>2010-10-21T13:09:45Z</time>
      </trkpt>
      <trkpt lat="45.56498" lon="4.49828">
        <ele>834.08</ele>
        <time>2010-10-21T13:09:46Z</time>
      </trkpt>
      <trkpt lat="45.565" lon="4.4983">
        <ele>834.08</ele>
        <time>2010-10-21T13:09:47Z</time>
      </trkpt>
      <trkpt lat="45.56502" lon="4.49831">
        <ele>834.08</ele>
        <time>2010-10-21T13:09:48Z</time>
      </trkpt>
      <trkpt lat="45.56504" lon="4.49833">
        <ele>834.08</ele>
        <time>2010-10-21T13:09:49Z</time>
      </trkpt>
      <trkpt lat="45.56507" lon="4.49835">
        <ele>834.08</ele>
        <time>2010-10-21T13:09:50Z</time>
      </trkpt>
      <trkpt lat="45.56509" lon="4.49837">
        <ele>834.56</ele>
        <time>2010-10-21T13:09:51Z</time>
      </trkpt>
      <trkpt lat="45.56512" lon="4.49839">
        <ele>834.08</ele>
        <time>2010-10-21T13:09:52Z</time>
      </trkpt>
      <trkpt lat="45.56515" lon="4.4984">
        <ele>834.08</ele>
        <time>2010-10-21T13:09:53Z</time>
      </trkpt>
      <trkpt lat="45.56533" lon="4.49855">
        <ele>833.12</ele>
        <time>2010-10-21T13:10:02Z</time>
      </trkpt>
      <trkpt lat="45.56541" lon="4.49862">
        <ele>832.64</ele>
        <time>2010-10-21T13:10:06Z</time>
      </trkpt>
      <trkpt lat="45.56543" lon="4.49865">
        <ele>832.64</ele>
        <time>2010-10-21T13:10:07Z</time>
      </trkpt>
      <trkpt lat="45.56545" lon="4.49868">
        <ele>833.12</ele>
        <time>2010-10-21T13:10:08Z</time>
      </trkpt>
      <trkpt lat="45.56548" lon="4.4987">
        <ele>833.12</ele>
        <time>2010-10-21T13:10:09Z</time>
      </trkpt>
      <trkpt lat="45.5655" lon="4.49872">
        <ele>833.12</ele>
        <time>2010-10-21T13:10:10Z</time>
      </trkpt>
      <trkpt lat="45.56553" lon="4.49874">
        <ele>832.64</ele>
        <time>2010-10-21T13:10:11Z</time>
      </trkpt>
      <trkpt lat="45.56555" lon="4.49875">
        <ele>832.16</ele>
        <time>2010-10-21T13:10:12Z</time>
      </trkpt>
      <trkpt lat="45.56558" lon="4.49877">
        <ele>833.12</ele>
        <time>2010-10-21T13:10:13Z</time>
      </trkpt>
      <trkpt lat="45.5657" lon="4.49889">
        <ele>831.68</ele>
        <time>2010-10-21T13:10:18Z</time>
      </trkpt>
      <trkpt lat="45.56573" lon="4.4989">
        <ele>831.68</ele>
        <time>2010-10-21T13:10:19Z</time>
      </trkpt>
      <trkpt lat="45.56588" lon="4.49902">
        <ele>830.72</ele>
        <time>2010-10-21T13:10:26Z</time>
      </trkpt>
      <trkpt lat="45.5659" lon="4.49904">
        <ele>830.72</ele>
        <time>2010-10-21T13:10:27Z</time>
      </trkpt>
      <trkpt lat="45.56593" lon="4.49906">
        <ele>830.24</ele>
        <time>2010-10-21T13:10:28Z</time>
      </trkpt>
      <trkpt lat="45.56613" lon="4.49922">
        <ele>830.24</ele>
        <time>2010-10-21T13:10:37Z</time>
      </trkpt>
      <trkpt lat="45.56632" lon="4.49933">
        <ele>829.27</ele>
        <time>2010-10-21T13:10:45Z</time>
      </trkpt>
      <trkpt lat="45.56652" lon="4.4995">
        <ele>827.83</ele>
        <time>2010-10-21T13:10:53Z</time>
      </trkpt>
      <trkpt lat="45.5667" lon="4.49967">
        <ele>826.87</ele>
        <time>2010-10-21T13:11:01Z</time>
      </trkpt>
      <trkpt lat="45.56691" lon="4.49988">
        <ele>826.39</ele>
        <time>2010-10-21T13:11:10Z</time>
      </trkpt>
      <trkpt lat="45.56707" lon="4.50008">
        <ele>826.87</ele>
        <time>2010-10-21T13:11:18Z</time>
      </trkpt>
      <trkpt lat="45.56722" lon="4.50024">
        <ele>826.39</ele>
        <time>2010-10-21T13:11:25Z</time>
      </trkpt>
      <trkpt lat="45.5673" lon="4.50032">
        <ele>825.91</ele>
        <time>2010-10-21T13:11:29Z</time>
      </trkpt>
      <trkpt lat="45.56741" lon="4.50042">
        <ele>826.87</ele>
        <time>2010-10-21T13:11:34Z</time>
      </trkpt>
      <trkpt lat="45.56755" lon="4.50058">
        <ele>826.39</ele>
        <time>2010-10-21T13:11:41Z</time>
      </trkpt>
      <trkpt lat="45.56765" lon="4.5007">
        <ele>826.87</ele>
        <time>2010-10-21T13:11:50Z</time>
      </trkpt>
      <trkpt lat="45.56767" lon="4.50071">
        <ele>826.87</ele>
        <time>2010-10-21T13:11:53Z</time>
      </trkpt>
      <trkpt lat="45.56779" lon="4.50081">
        <ele>826.87</ele>
        <time>2010-10-21T13:12:02Z</time>
      </trkpt>
      <trkpt lat="45.56791" lon="4.50096">
        <ele>828.31</ele>
        <time>2010-10-21T13:12:09Z</time>
      </trkpt>
      <trkpt lat="45.56804" lon="4.50121">
        <ele>828.31</ele>
        <time>2010-10-21T13:12:20Z</time>
      </trkpt>
      <trkpt lat="45.5681" lon="4.5013">
        <ele>828.79</ele>
        <time>2010-10-21T13:12:24Z</time>
      </trkpt>
      <trkpt lat="45.56815" lon="4.50138">
        <ele>829.76</ele>
        <time>2010-10-21T13:12:28Z</time>
      </trkpt>
      <trkpt lat="45.5682" lon="4.50149">
        <ele>831.2</ele>
        <time>2010-10-21T13:12:33Z</time>
      </trkpt>
      <trkpt lat="45.56831" lon="4.5017">
        <ele>832.16</ele>
        <time>2010-10-21T13:12:42Z</time>
      </trkpt>
      <trkpt lat="45.5684" lon="4.50184">
        <ele>833.12</ele>
        <time>2010-10-21T13:12:48Z</time>
      </trkpt>
      <trkpt lat="45.56844" lon="4.50192">
        <ele>833.6</ele>
        <time>2010-10-21T13:12:51Z</time>
      </trkpt>
      <trkpt lat="45.5685" lon="4.50206">
        <ele>835.04</ele>
        <time>2010-10-21T13:12:57Z</time>
      </trkpt>
      <trkpt lat="45.56858" lon="4.50221">
        <ele>836.48</ele>
        <time>2010-10-21T13:13:03Z</time>
      </trkpt>
      <trkpt lat="45.56866" lon="4.50252">
        <ele>838.89</ele>
        <time>2010-10-21T13:13:14Z</time>
      </trkpt>
      <trkpt lat="45.5687" lon="4.50265">
        <ele>840.33</ele>
        <time>2010-10-21T13:13:18Z</time>
      </trkpt>
      <trkpt lat="45.56872" lon="4.50278">
        <ele>841.77</ele>
        <time>2010-10-21T13:13:22Z</time>
      </trkpt>
      <trkpt lat="45.56873" lon="4.50304">
        <ele>844.18</ele>
        <time>2010-10-21T13:13:30Z</time>
      </trkpt>
      <trkpt lat="45.56873" lon="4.50314">
        <ele>845.14</ele>
        <time>2010-10-21T13:13:33Z</time>
      </trkpt>
      <trkpt lat="45.56873" lon="4.50322">
        <ele>845.62</ele>
        <time>2010-10-21T13:13:35Z</time>
      </trkpt>
      <trkpt lat="45.56873" lon="4.50354">
        <ele>848.02</ele>
        <time>2010-10-21T13:13:45Z</time>
      </trkpt>
      <trkpt lat="45.56874" lon="4.50377">
        <ele>851.38</ele>
        <time>2010-10-21T13:13:53Z</time>
      </trkpt>
      <trkpt lat="45.56877" lon="4.50398">
        <ele>853.31</ele>
        <time>2010-10-21T13:14:00Z</time>
      </trkpt>
      <trkpt lat="45.56879" lon="4.50404">
        <ele>854.75</ele>
        <time>2010-10-21T13:14:03Z</time>
      </trkpt>
      <trkpt lat="45.56881" lon="4.50427">
        <ele>857.63</ele>
        <time>2010-10-21T13:14:11Z</time>
      </trkpt>
      <trkpt lat="45.56882" lon="4.50444">
        <ele>860.52</ele>
        <time>2010-10-21T13:14:18Z</time>
      </trkpt>
      <trkpt lat="45.56882" lon="4.50453">
        <ele>862.44</ele>
        <time>2010-10-21T13:14:21Z</time>
      </trkpt>
      <trkpt lat="45.56886" lon="4.50474">
        <ele>865.32</ele>
        <time>2010-10-21T13:14:28Z</time>
      </trkpt>
      <trkpt lat="45.56886" lon="4.50479">
        <ele>866.29</ele>
        <time>2010-10-21T13:14:30Z</time>
      </trkpt>
      <trkpt lat="45.56889" lon="4.50499">
        <ele>867.73</ele>
        <time>2010-10-21T13:14:36Z</time>
      </trkpt>
      <trkpt lat="45.56891" lon="4.50516">
        <ele>870.61</ele>
        <time>2010-10-21T13:14:42Z</time>
      </trkpt>
      <trkpt lat="45.569" lon="4.5054">
        <ele>873.98</ele>
        <time>2010-10-21T13:14:49Z</time>
      </trkpt>
      <trkpt lat="45.56901" lon="4.50544">
        <ele>873.01</ele>
        <time>2010-10-21T13:14:50Z</time>
      </trkpt>
      <trkpt lat="45.56908" lon="4.50562">
        <ele>875.42</ele>
        <time>2010-10-21T13:14:56Z</time>
      </trkpt>
      <trkpt lat="45.56914" lon="4.50598">
        <ele>877.34</ele>
        <time>2010-10-21T13:15:06Z</time>
      </trkpt>
      <trkpt lat="45.56916" lon="4.5061">
        <ele>878.78</ele>
        <time>2010-10-21T13:15:09Z</time>
      </trkpt>
      <trkpt lat="45.56919" lon="4.50623">
        <ele>880.22</ele>
        <time>2010-10-21T13:15:13Z</time>
      </trkpt>
      <trkpt lat="45.56927" lon="4.50661">
        <ele>883.11</ele>
        <time>2010-10-21T13:15:24Z</time>
      </trkpt>
      <trkpt lat="45.56926" lon="4.50672">
        <ele>883.11</ele>
        <time>2010-10-21T13:15:31Z</time>
      </trkpt>
      <trkpt lat="45.56922" lon="4.50674">
        <ele>882.15</ele>
        <time>2010-10-21T13:15:35Z</time>
      </trkpt>
      <trkpt lat="45.5692" lon="4.50689">
        <ele>882.15</ele>
        <time>2010-10-21T13:15:43Z</time>
      </trkpt>
      <trkpt lat="45.5692" lon="4.507">
        <ele>881.19</ele>
        <time>2010-10-21T13:15:49Z</time>
      </trkpt>
      <trkpt lat="45.56917" lon="4.50714">
        <ele>880.22</ele>
        <time>2010-10-21T13:15:54Z</time>
      </trkpt>
      <trkpt lat="45.56915" lon="4.50733">
        <ele>879.26</ele>
        <time>2010-10-21T13:16:02Z</time>
      </trkpt>
      <trkpt lat="45.56915" lon="4.50756">
        <ele>877.82</ele>
        <time>2010-10-21T13:16:11Z</time>
      </trkpt>
      <trkpt lat="45.56926" lon="4.50785">
        <ele>875.42</ele>
        <time>2010-10-21T13:16:19Z</time>
      </trkpt>
      <trkpt lat="45.56937" lon="4.50818">
        <ele>873.5</ele>
        <time>2010-10-21T13:16:29Z</time>
      </trkpt>
      <trkpt lat="45.56943" lon="4.50844">
        <ele>871.57</ele>
        <time>2010-10-21T13:16:37Z</time>
      </trkpt>
      <trkpt lat="45.56945" lon="4.50849">
        <ele>871.09</ele>
        <time>2010-10-21T13:16:38Z</time>
      </trkpt>
      <trkpt lat="45.56948" lon="4.50853">
        <ele>870.61</ele>
        <time>2010-10-21T13:16:39Z</time>
      </trkpt>
      <trkpt lat="45.56952" lon="4.50862">
        <ele>870.13</ele>
        <time>2010-10-21T13:16:41Z</time>
      </trkpt>
      <trkpt lat="45.56953" lon="4.50867">
        <ele>869.65</ele>
        <time>2010-10-21T13:16:43Z</time>
      </trkpt>
      <trkpt lat="45.56954" lon="4.50869">
        <ele>869.17</ele>
        <time>2010-10-21T13:16:44Z</time>
      </trkpt>
      <trkpt lat="45.56954" lon="4.50872">
        <ele>871.09</ele>
        <time>2010-10-21T13:16:45Z</time>
      </trkpt>
      <trkpt lat="45.56955" lon="4.50876">
        <ele>869.65</ele>
        <time>2010-10-21T13:16:46Z</time>
      </trkpt>
      <trkpt lat="45.56955" lon="4.5088">
        <ele>869.65</ele>
        <time>2010-10-21T13:16:47Z</time>
      </trkpt>
      <trkpt lat="45.56956" lon="4.50883">
        <ele>869.65</ele>
        <time>2010-10-21T13:16:48Z</time>
      </trkpt>
      <trkpt lat="45.56957" lon="4.50886">
        <ele>868.69</ele>
        <time>2010-10-21T13:16:49Z</time>
      </trkpt>
      <trkpt lat="45.56958" lon="4.5089">
        <ele>869.17</ele>
        <time>2010-10-21T13:16:50Z</time>
      </trkpt>
      <trkpt lat="45.56961" lon="4.50894">
        <ele>868.69</ele>
        <time>2010-10-21T13:16:51Z</time>
      </trkpt>
      <trkpt lat="45.56962" lon="4.50898">
        <ele>867.73</ele>
        <time>2010-10-21T13:16:52Z</time>
      </trkpt>
      <trkpt lat="45.56962" lon="4.50901">
        <ele>868.21</ele>
        <time>2010-10-21T13:16:53Z</time>
      </trkpt>
      <trkpt lat="45.56962" lon="4.50904">
        <ele>867.73</ele>
        <time>2010-10-21T13:16:54Z</time>
      </trkpt>
      <trkpt lat="45.56961" lon="4.50907">
        <ele>868.21</ele>
        <time>2010-10-21T13:16:55Z</time>
      </trkpt>
      <trkpt lat="45.56961" lon="4.50912">
        <ele>867.25</ele>
        <time>2010-10-21T13:16:57Z</time>
      </trkpt>
      <trkpt lat="45.56961" lon="4.50917">
        <ele>867.73</ele>
        <time>2010-10-21T13:16:58Z</time>
      </trkpt>
      <trkpt lat="45.56961" lon="4.50921">
        <ele>867.73</ele>
        <time>2010-10-21T13:16:59Z</time>
      </trkpt>
      <trkpt lat="45.56962" lon="4.50923">
        <ele>868.69</ele>
        <time>2010-10-21T13:17:00Z</time>
      </trkpt>
      <trkpt lat="45.56962" lon="4.50925">
        <ele>868.21</ele>
        <time>2010-10-21T13:17:01Z</time>
      </trkpt>
      <trkpt lat="45.56962" lon="4.50931">
        <ele>867.73</ele>
        <time>2010-10-21T13:17:09Z</time>
      </trkpt>
      <trkpt lat="45.56967" lon="4.50938">
        <ele>869.17</ele>
        <time>2010-10-21T13:17:21Z</time>
      </trkpt>
      <trkpt lat="45.56974" lon="4.5096">
        <ele>868.69</ele>
        <time>2010-10-21T13:17:41Z</time>
      </trkpt>
      <trkpt lat="45.56976" lon="4.5097">
        <ele>868.21</ele>
        <time>2010-10-21T13:17:48Z</time>
      </trkpt>
      <trkpt lat="45.56978" lon="4.50987">
        <ele>867.73</ele>
        <time>2010-10-21T13:18:00Z</time>
      </trkpt>
      <trkpt lat="45.56979" lon="4.50996">
        <ele>867.25</ele>
        <time>2010-10-21T13:18:06Z</time>
      </trkpt>
      <trkpt lat="45.56981" lon="4.51007">
        <ele>867.25</ele>
        <time>2010-10-21T13:18:11Z</time>
      </trkpt>
      <trkpt lat="45.56982" lon="4.51015">
        <ele>867.25</ele>
        <time>2010-10-21T13:18:14Z</time>
      </trkpt>
      <trkpt lat="45.56983" lon="4.51017">
        <ele>867.73</ele>
        <time>2010-10-21T13:18:16Z</time>
      </trkpt>
      <trkpt lat="45.56984" lon="4.51027">
        <ele>867.73</ele>
        <time>2010-10-21T13:18:20Z</time>
      </trkpt>
      <trkpt lat="45.56983" lon="4.51037">
        <ele>867.25</ele>
        <time>2010-10-21T13:18:27Z</time>
      </trkpt>
      <trkpt lat="45.56986" lon="4.51049">
        <ele>868.21</ele>
        <time>2010-10-21T13:18:36Z</time>
      </trkpt>
      <trkpt lat="45.56986" lon="4.51052">
        <ele>867.25</ele>
        <time>2010-10-21T13:18:38Z</time>
      </trkpt>
      <trkpt lat="45.56989" lon="4.51062">
        <ele>867.73</ele>
        <time>2010-10-21T13:18:46Z</time>
      </trkpt>
      <trkpt lat="45.56993" lon="4.51081">
        <ele>868.21</ele>
        <time>2010-10-21T13:18:55Z</time>
      </trkpt>
      <trkpt lat="45.56993" lon="4.5109">
        <ele>867.73</ele>
        <time>2010-10-21T13:19:02Z</time>
      </trkpt>
      <trkpt lat="45.56999" lon="4.51114">
        <ele>868.21</ele>
        <time>2010-10-21T13:19:13Z</time>
      </trkpt>
      <trkpt lat="45.57005" lon="4.51139">
        <ele>869.17</ele>
        <time>2010-10-21T13:19:24Z</time>
      </trkpt>
      <trkpt lat="45.57013" lon="4.51161">
        <ele>868.69</ele>
        <time>2010-10-21T13:19:34Z</time>
      </trkpt>
      <trkpt lat="45.57014" lon="4.51167">
        <ele>870.13</ele>
        <time>2010-10-21T13:19:42Z</time>
      </trkpt>
      <trkpt lat="45.57019" lon="4.5118">
        <ele>869.65</ele>
        <time>2010-10-21T13:19:52Z</time>
      </trkpt>
      <trkpt lat="45.5702" lon="4.51183">
        <ele>870.13</ele>
        <time>2010-10-21T13:19:54Z</time>
      </trkpt>
      <trkpt lat="45.57024" lon="4.51205">
        <ele>870.61</ele>
        <time>2010-10-21T13:20:02Z</time>
      </trkpt>
      <trkpt lat="45.57029" lon="4.51237">
        <ele>870.13</ele>
        <time>2010-10-21T13:20:12Z</time>
      </trkpt>
      <trkpt lat="45.5703" lon="4.51264">
        <ele>872.05</ele>
        <time>2010-10-21T13:20:20Z</time>
      </trkpt>
      <trkpt lat="45.5703" lon="4.51267">
        <ele>871.57</ele>
        <time>2010-10-21T13:20:21Z</time>
      </trkpt>
      <trkpt lat="45.5703" lon="4.51277">
        <ele>871.57</ele>
        <time>2010-10-21T13:20:24Z</time>
      </trkpt>
      <trkpt lat="45.57027" lon="4.51318">
        <ele>870.13</ele>
        <time>2010-10-21T13:20:35Z</time>
      </trkpt>
      <trkpt lat="45.57026" lon="4.51346">
        <ele>866.77</ele>
        <time>2010-10-21T13:20:42Z</time>
      </trkpt>
      <trkpt lat="45.57025" lon="4.5135">
        <ele>867.25</ele>
        <time>2010-10-21T13:20:43Z</time>
      </trkpt>
      <trkpt lat="45.57022" lon="4.51368">
        <ele>866.77</ele>
        <time>2010-10-21T13:20:48Z</time>
      </trkpt>
      <trkpt lat="45.57019" lon="4.514">
        <ele>864.36</ele>
        <time>2010-10-21T13:20:58Z</time>
      </trkpt>
      <trkpt lat="45.57019" lon="4.51403">
        <ele>863.4</ele>
        <time>2010-10-21T13:20:59Z</time>
      </trkpt>
      <trkpt lat="45.57021" lon="4.51419">
        <ele>863.88</ele>
        <time>2010-10-21T13:21:05Z</time>
      </trkpt>
      <trkpt lat="45.57027" lon="4.51451">
        <ele>862.92</ele>
        <time>2010-10-21T13:21:17Z</time>
      </trkpt>
      <trkpt lat="45.57027" lon="4.5145">
        <ele>862.92</ele>
        <time>2010-10-21T13:21:24Z</time>
      </trkpt>
      <trkpt lat="45.57019" lon="4.5142">
        <ele>863.4</ele>
        <time>2010-10-21T13:21:33Z</time>
      </trkpt>
      <trkpt lat="45.57007" lon="4.51424">
        <ele>861.96</ele>
        <time>2010-10-21T13:21:39Z</time>
      </trkpt>
      <trkpt lat="45.56997" lon="4.51443">
        <ele>862.92</ele>
        <time>2010-10-21T13:21:50Z</time>
      </trkpt>
      <trkpt lat="45.56994" lon="4.51449">
        <ele>862.92</ele>
        <time>2010-10-21T13:22:01Z</time>
      </trkpt>
      <trkpt lat="45.56997" lon="4.51446">
        <ele>862.92</ele>
        <time>2010-10-21T13:22:12Z</time>
      </trkpt>
      <trkpt lat="45.56993" lon="4.51467">
        <ele>862.44</ele>
        <time>2010-10-21T13:22:25Z</time>
      </trkpt>
      <trkpt lat="45.56991" lon="4.51511">
        <ele>860.52</ele>
        <time>2010-10-21T13:22:37Z</time>
      </trkpt>
      <trkpt lat="45.5699" lon="4.51514">
        <ele>862.92</ele>
        <time>2010-10-21T13:22:38Z</time>
      </trkpt>
      <trkpt lat="45.56993" lon="4.51541">
        <ele>862.44</ele>
        <time>2010-10-21T13:22:45Z</time>
      </trkpt>
      <trkpt lat="45.56992" lon="4.51572">
        <ele>862.44</ele>
        <time>2010-10-21T13:22:53Z</time>
      </trkpt>
      <trkpt lat="45.56991" lon="4.5158">
        <ele>861.96</ele>
        <time>2010-10-21T13:22:55Z</time>
      </trkpt>
      <trkpt lat="45.56987" lon="4.51627">
        <ele>864.84</ele>
        <time>2010-10-21T13:23:06Z</time>
      </trkpt>
      <trkpt lat="45.56987" lon="4.51631">
        <ele>864.36</ele>
        <time>2010-10-21T13:23:07Z</time>
      </trkpt>
      <trkpt lat="45.56984" lon="4.51651">
        <ele>865.32</ele>
        <time>2010-10-21T13:23:12Z</time>
      </trkpt>
      <trkpt lat="45.56984" lon="4.51667">
        <ele>864.36</ele>
        <time>2010-10-21T13:23:16Z</time>
      </trkpt>
      <trkpt lat="45.56982" lon="4.51678">
        <ele>865.8</ele>
        <time>2010-10-21T13:23:19Z</time>
      </trkpt>
      <trkpt lat="45.56982" lon="4.51709">
        <ele>866.29</ele>
        <time>2010-10-21T13:23:27Z</time>
      </trkpt>
      <trkpt lat="45.56984" lon="4.51724">
        <ele>866.77</ele>
        <time>2010-10-21T13:23:31Z</time>
      </trkpt>
      <trkpt lat="45.56983" lon="4.51742">
        <ele>869.17</ele>
        <time>2010-10-21T13:23:36Z</time>
      </trkpt>
      <trkpt lat="45.56988" lon="4.51768">
        <ele>871.57</ele>
        <time>2010-10-21T13:23:44Z</time>
      </trkpt>
      <trkpt lat="45.56992" lon="4.51795">
        <ele>872.53</ele>
        <time>2010-10-21T13:23:53Z</time>
      </trkpt>
      <trkpt lat="45.56994" lon="4.51809">
        <ele>874.94</ele>
        <time>2010-10-21T13:23:59Z</time>
      </trkpt>
      <trkpt lat="45.56999" lon="4.51828">
        <ele>876.38</ele>
        <time>2010-10-21T13:24:05Z</time>
      </trkpt>
      <trkpt lat="45.57004" lon="4.51841">
        <ele>879.26</ele>
        <time>2010-10-21T13:24:09Z</time>
      </trkpt>
      <trkpt lat="45.57009" lon="4.51865">
        <ele>882.15</ele>
        <time>2010-10-21T13:24:16Z</time>
      </trkpt>
      <trkpt lat="45.57012" lon="4.51873">
        <ele>883.59</ele>
        <time>2010-10-21T13:24:19Z</time>
      </trkpt>
      <trkpt lat="45.57013" lon="4.51907">
        <ele>886.47</ele>
        <time>2010-10-21T13:24:29Z</time>
      </trkpt>
      <trkpt lat="45.57012" lon="4.51912">
        <ele>887.91</ele>
        <time>2010-10-21T13:24:31Z</time>
      </trkpt>
      <trkpt lat="45.57012" lon="4.51915">
        <ele>888.4</ele>
        <time>2010-10-21T13:24:32Z</time>
      </trkpt>
      <trkpt lat="45.57011" lon="4.51926">
        <ele>887.91</ele>
        <time>2010-10-21T13:24:35Z</time>
      </trkpt>
      <trkpt lat="45.57005" lon="4.51941">
        <ele>889.36</ele>
        <time>2010-10-21T13:24:40Z</time>
      </trkpt>
      <trkpt lat="45.57002" lon="4.51957">
        <ele>890.32</ele>
        <time>2010-10-21T13:24:45Z</time>
      </trkpt>
      <trkpt lat="45.57" lon="4.51962">
        <ele>888.88</ele>
        <time>2010-10-21T13:24:47Z</time>
      </trkpt>
      <trkpt lat="45.56997" lon="4.51972">
        <ele>888.4</ele>
        <time>2010-10-21T13:24:51Z</time>
      </trkpt>
      <trkpt lat="45.56993" lon="4.51981">
        <ele>888.88</ele>
        <time>2010-10-21T13:24:56Z</time>
      </trkpt>
      <trkpt lat="45.56992" lon="4.51987">
        <ele>888.4</ele>
        <time>2010-10-21T13:24:58Z</time>
      </trkpt>
      <trkpt lat="45.56992" lon="4.52003">
        <ele>887.43</ele>
        <time>2010-10-21T13:25:03Z</time>
      </trkpt>
      <trkpt lat="45.56989" lon="4.52021">
        <ele>886.47</ele>
        <time>2010-10-21T13:25:08Z</time>
      </trkpt>
      <trkpt lat="45.56989" lon="4.52058">
        <ele>886.47</ele>
        <time>2010-10-21T13:25:18Z</time>
      </trkpt>
      <trkpt lat="45.56985" lon="4.52081">
        <ele>887.91</ele>
        <time>2010-10-21T13:25:24Z</time>
      </trkpt>
      <trkpt lat="45.56985" lon="4.52096">
        <ele>885.99</ele>
        <time>2010-10-21T13:25:28Z</time>
      </trkpt>
      <trkpt lat="45.56988" lon="4.52115">
        <ele>886.47</ele>
        <time>2010-10-21T13:25:32Z</time>
      </trkpt>
      <trkpt lat="45.56994" lon="4.52141">
        <ele>887.43</ele>
        <time>2010-10-21T13:25:39Z</time>
      </trkpt>
      <trkpt lat="45.57006" lon="4.52188">
        <ele>888.4</ele>
        <time>2010-10-21T13:25:51Z</time>
      </trkpt>
      <trkpt lat="45.57006" lon="4.52193">
        <ele>889.36</ele>
        <time>2010-10-21T13:25:52Z</time>
      </trkpt>
      <trkpt lat="45.57004" lon="4.52213">
        <ele>889.84</ele>
        <time>2010-10-21T13:25:57Z</time>
      </trkpt>
      <trkpt lat="45.57004" lon="4.52266">
        <ele>887.91</ele>
        <time>2010-10-21T13:26:08Z</time>
      </trkpt>
      <trkpt lat="45.5701" lon="4.52296">
        <ele>886.95</ele>
        <time>2010-10-21T13:26:15Z</time>
      </trkpt>
      <trkpt lat="45.57012" lon="4.52301">
        <ele>886.47</ele>
        <time>2010-10-21T13:26:16Z</time>
      </trkpt>
      <trkpt lat="45.57013" lon="4.52305">
        <ele>885.99</ele>
        <time>2010-10-21T13:26:17Z</time>
      </trkpt>
      <trkpt lat="45.57013" lon="4.5231">
        <ele>885.03</ele>
        <time>2010-10-21T13:26:18Z</time>
      </trkpt>
      <trkpt lat="45.57014" lon="4.52314">
        <ele>884.07</ele>
        <time>2010-10-21T13:26:19Z</time>
      </trkpt>
      <trkpt lat="45.57018" lon="4.52335">
        <ele>884.07</ele>
        <time>2010-10-21T13:26:23Z</time>
      </trkpt>
      <trkpt lat="45.57018" lon="4.5234">
        <ele>884.55</ele>
        <time>2010-10-21T13:26:24Z</time>
      </trkpt>
      <trkpt lat="45.57019" lon="4.52345">
        <ele>882.15</ele>
        <time>2010-10-21T13:26:25Z</time>
      </trkpt>
      <trkpt lat="45.5702" lon="4.52351">
        <ele>883.59</ele>
        <time>2010-10-21T13:26:26Z</time>
      </trkpt>
      <trkpt lat="45.57021" lon="4.52356">
        <ele>881.67</ele>
        <time>2010-10-21T13:26:27Z</time>
      </trkpt>
      <trkpt lat="45.57023" lon="4.52363">
        <ele>881.67</ele>
        <time>2010-10-21T13:26:28Z</time>
      </trkpt>
      <trkpt lat="45.57025" lon="4.52368">
        <ele>881.67</ele>
        <time>2010-10-21T13:26:29Z</time>
      </trkpt>
      <trkpt lat="45.57028" lon="4.52373">
        <ele>880.71</ele>
        <time>2010-10-21T13:26:30Z</time>
      </trkpt>
      <trkpt lat="45.5703" lon="4.52378">
        <ele>879.26</ele>
        <time>2010-10-21T13:26:31Z</time>
      </trkpt>
      <trkpt lat="45.57033" lon="4.52383">
        <ele>877.82</ele>
        <time>2010-10-21T13:26:32Z</time>
      </trkpt>
      <trkpt lat="45.57035" lon="4.52388">
        <ele>879.26</ele>
        <time>2010-10-21T13:26:33Z</time>
      </trkpt>
      <trkpt lat="45.57037" lon="4.52392">
        <ele>878.3</ele>
        <time>2010-10-21T13:26:34Z</time>
      </trkpt>
      <trkpt lat="45.5704" lon="4.52396">
        <ele>876.38</ele>
        <time>2010-10-21T13:26:35Z</time>
      </trkpt>
      <trkpt lat="45.57042" lon="4.52401">
        <ele>878.3</ele>
        <time>2010-10-21T13:26:36Z</time>
      </trkpt>
      <trkpt lat="45.57045" lon="4.52405">
        <ele>875.9</ele>
        <time>2010-10-21T13:26:37Z</time>
      </trkpt>
      <trkpt lat="45.57047" lon="4.5241">
        <ele>877.34</ele>
        <time>2010-10-21T13:26:38Z</time>
      </trkpt>
      <trkpt lat="45.57049" lon="4.52414">
        <ele>876.86</ele>
        <time>2010-10-21T13:26:39Z</time>
      </trkpt>
      <trkpt lat="45.57052" lon="4.52418">
        <ele>875.42</ele>
        <time>2010-10-21T13:26:40Z</time>
      </trkpt>
      <trkpt lat="45.57054" lon="4.52423">
        <ele>876.86</ele>
        <time>2010-10-21T13:26:41Z</time>
      </trkpt>
      <trkpt lat="45.57057" lon="4.52428">
        <ele>876.86</ele>
        <time>2010-10-21T13:26:42Z</time>
      </trkpt>
      <trkpt lat="45.5706" lon="4.52433">
        <ele>874.46</ele>
        <time>2010-10-21T13:26:43Z</time>
      </trkpt>
      <trkpt lat="45.57062" lon="4.52438">
        <ele>876.38</ele>
        <time>2010-10-21T13:26:44Z</time>
      </trkpt>
      <trkpt lat="45.57064" lon="4.52444">
        <ele>875.9</ele>
        <time>2010-10-21T13:26:45Z</time>
      </trkpt>
      <trkpt lat="45.57066" lon="4.52449">
        <ele>873.98</ele>
        <time>2010-10-21T13:26:46Z</time>
      </trkpt>
      <trkpt lat="45.57068" lon="4.52454">
        <ele>873.5</ele>
        <time>2010-10-21T13:26:47Z</time>
      </trkpt>
      <trkpt lat="45.5707" lon="4.52459">
        <ele>872.53</ele>
        <time>2010-10-21T13:26:48Z</time>
      </trkpt>
      <trkpt lat="45.57072" lon="4.52465">
        <ele>873.01</ele>
        <time>2010-10-21T13:26:49Z</time>
      </trkpt>
      <trkpt lat="45.57074" lon="4.52472">
        <ele>873.5</ele>
        <time>2010-10-21T13:26:50Z</time>
      </trkpt>
      <trkpt lat="45.57076" lon="4.52478">
        <ele>872.05</ele>
        <time>2010-10-21T13:26:51Z</time>
      </trkpt>
      <trkpt lat="45.57076" lon="4.52483">
        <ele>872.53</ele>
        <time>2010-10-21T13:26:52Z</time>
      </trkpt>
      <trkpt lat="45.57076" lon="4.52487">
        <ele>872.53</ele>
        <time>2010-10-21T13:26:53Z</time>
      </trkpt>
      <trkpt lat="45.57077" lon="4.52491">
        <ele>873.98</ele>
        <time>2010-10-21T13:26:54Z</time>
      </trkpt>
      <trkpt lat="45.57076" lon="4.52497">
        <ele>872.05</ele>
        <time>2010-10-21T13:27:05Z</time>
      </trkpt>
      <trkpt lat="45.57076" lon="4.52499">
        <ele>872.53</ele>
        <time>2010-10-21T13:27:07Z</time>
      </trkpt>
      <trkpt lat="45.57078" lon="4.52504">
        <ele>872.05</ele>
        <time>2010-10-21T13:27:15Z</time>
      </trkpt>
      <trkpt lat="45.57079" lon="4.52504">
        <ele>872.53</ele>
        <time>2010-10-21T13:27:16Z</time>
      </trkpt>
      <trkpt lat="45.57083" lon="4.52504">
        <ele>872.05</ele>
        <time>2010-10-21T13:27:19Z</time>
      </trkpt>
      <trkpt lat="45.57087" lon="4.5251">
        <ele>872.53</ele>
        <time>2010-10-21T13:27:28Z</time>
      </trkpt>
      <trkpt lat="45.57089" lon="4.5251">
        <ele>871.57</ele>
        <time>2010-10-21T13:27:29Z</time>
      </trkpt>
      <trkpt lat="45.5709" lon="4.52511">
        <ele>872.05</ele>
        <time>2010-10-21T13:27:30Z</time>
      </trkpt>
      <trkpt lat="45.57092" lon="4.52513">
        <ele>872.05</ele>
        <time>2010-10-21T13:27:31Z</time>
      </trkpt>
      <trkpt lat="45.57093" lon="4.52514">
        <ele>872.05</ele>
        <time>2010-10-21T13:27:32Z</time>
      </trkpt>
      <trkpt lat="45.57094" lon="4.52515">
        <ele>872.05</ele>
        <time>2010-10-21T13:27:33Z</time>
      </trkpt>
      <trkpt lat="45.57095" lon="4.52516">
        <ele>873.01</ele>
        <time>2010-10-21T13:27:34Z</time>
      </trkpt>
      <trkpt lat="45.57096" lon="4.52517">
        <ele>872.53</ele>
        <time>2010-10-21T13:27:35Z</time>
      </trkpt>
      <trkpt lat="45.571" lon="4.52523">
        <ele>873.5</ele>
        <time>2010-10-21T13:27:41Z</time>
      </trkpt>
      <trkpt lat="45.57102" lon="4.52526">
        <ele>873.5</ele>
        <time>2010-10-21T13:27:44Z</time>
      </trkpt>
      <trkpt lat="45.57103" lon="4.52528">
        <ele>873.01</ele>
        <time>2010-10-21T13:27:45Z</time>
      </trkpt>
      <trkpt lat="45.57105" lon="4.5253">
        <ele>873.01</ele>
        <time>2010-10-21T13:27:46Z</time>
      </trkpt>
      <trkpt lat="45.57107" lon="4.52534">
        <ele>873.5</ele>
        <time>2010-10-21T13:27:49Z</time>
      </trkpt>
      <trkpt lat="45.57108" lon="4.52535">
        <ele>873.5</ele>
        <time>2010-10-21T13:28:01Z</time>
      </trkpt>
      <trkpt lat="45.57109" lon="4.52536">
        <ele>873.5</ele>
        <time>2010-10-21T13:28:30Z</time>
      </trkpt>
      <trkpt lat="45.57118" lon="4.52548">
        <ele>875.9</ele>
        <time>2010-10-21T13:30:08Z</time>
      </trkpt>
      <trkpt lat="45.5712" lon="4.52549">
        <ele>876.86</ele>
        <time>2010-10-21T13:30:15Z</time>
      </trkpt>
      <trkpt lat="45.57122" lon="4.52546">
        <ele>876.86</ele>
        <time>2010-10-21T13:30:35Z</time>
      </trkpt>
      <trkpt lat="45.57124" lon="4.52546">
        <ele>876.86</ele>
        <time>2010-10-21T13:30:46Z</time>
      </trkpt>
      <trkpt lat="45.57125" lon="4.52546">
        <ele>877.34</ele>
        <time>2010-10-21T13:30:53Z</time>
      </trkpt>
      <trkpt lat="45.57125" lon="4.52543">
        <ele>877.34</ele>
        <time>2010-10-21T13:30:55Z</time>
      </trkpt>
      <trkpt lat="45.57125" lon="4.52542">
        <ele>876.86</ele>
        <time>2010-10-21T13:30:56Z</time>
      </trkpt>
      <trkpt lat="45.57126" lon="4.52542">
        <ele>876.86</ele>
        <time>2010-10-21T13:30:57Z</time>
      </trkpt>
      <trkpt lat="45.57127" lon="4.52542">
        <ele>876.38</ele>
        <time>2010-10-21T13:30:58Z</time>
      </trkpt>
      <trkpt lat="45.57128" lon="4.52543">
        <ele>876.86</ele>
        <time>2010-10-21T13:30:59Z</time>
      </trkpt>
      <trkpt lat="45.5713" lon="4.52543">
        <ele>876.86</ele>
        <time>2010-10-21T13:31:00Z</time>
      </trkpt>
      <trkpt lat="45.57143" lon="4.5254">
        <ele>875.42</ele>
        <time>2010-10-21T13:31:10Z</time>
      </trkpt>
      <trkpt lat="45.57147" lon="4.52541">
        <ele>874.46</ele>
        <time>2010-10-21T13:31:12Z</time>
      </trkpt>
      <trkpt lat="45.57152" lon="4.52542">
        <ele>873.98</ele>
        <time>2010-10-21T13:31:15Z</time>
      </trkpt>
      <trkpt lat="45.57166" lon="4.52541">
        <ele>871.57</ele>
        <time>2010-10-21T13:31:21Z</time>
      </trkpt>
      <trkpt lat="45.57186" lon="4.52542">
        <ele>870.13</ele>
        <time>2010-10-21T13:31:30Z</time>
      </trkpt>
      <trkpt lat="45.572" lon="4.52543">
        <ele>870.61</ele>
        <time>2010-10-21T13:31:40Z</time>
      </trkpt>
      <trkpt lat="45.57209" lon="4.52543">
        <ele>870.13</ele>
        <time>2010-10-21T13:31:43Z</time>
      </trkpt>
      <trkpt lat="45.57232" lon="4.52542">
        <ele>868.21</ele>
        <time>2010-10-21T13:31:52Z</time>
      </trkpt>
      <trkpt lat="45.57249" lon="4.52541">
        <ele>867.73</ele>
        <time>2010-10-21T13:31:59Z</time>
      </trkpt>
      <trkpt lat="45.57258" lon="4.5254">
        <ele>867.25</ele>
        <time>2010-10-21T13:32:03Z</time>
      </trkpt>
      <trkpt lat="45.57276" lon="4.5254">
        <ele>866.77</ele>
        <time>2010-10-21T13:32:10Z</time>
      </trkpt>
      <trkpt lat="45.57301" lon="4.52542">
        <ele>864.84</ele>
        <time>2010-10-21T13:32:20Z</time>
      </trkpt>
      <trkpt lat="45.57308" lon="4.52543">
        <ele>863.88</ele>
        <time>2010-10-21T13:32:23Z</time>
      </trkpt>
      <trkpt lat="45.57311" lon="4.52546">
        <ele>862.92</ele>
        <time>2010-10-21T13:32:26Z</time>
      </trkpt>
      <trkpt lat="45.57323" lon="4.52572">
        <ele>861.48</ele>
        <time>2010-10-21T13:32:35Z</time>
      </trkpt>
      <trkpt lat="45.57328" lon="4.52585">
        <ele>861</ele>
        <time>2010-10-21T13:32:39Z</time>
      </trkpt>
      <trkpt lat="45.57342" lon="4.52623">
        <ele>857.63</ele>
        <time>2010-10-21T13:32:50Z</time>
      </trkpt>
      <trkpt lat="45.57341" lon="4.52633">
        <ele>860.04</ele>
        <time>2010-10-21T13:32:59Z</time>
      </trkpt>
      <trkpt lat="45.5734" lon="4.52636">
        <ele>858.59</ele>
        <time>2010-10-21T13:33:09Z</time>
      </trkpt>
      <trkpt lat="45.57336" lon="4.52651">
        <ele>861.48</ele>
        <time>2010-10-21T13:33:17Z</time>
      </trkpt>
      <trkpt lat="45.57334" lon="4.52655">
        <ele>862.44</ele>
        <time>2010-10-21T13:33:19Z</time>
      </trkpt>
      <trkpt lat="45.57329" lon="4.52668">
        <ele>862.92</ele>
        <time>2010-10-21T13:33:24Z</time>
      </trkpt>
      <trkpt lat="45.57325" lon="4.52674">
        <ele>864.84</ele>
        <time>2010-10-21T13:33:27Z</time>
      </trkpt>
      <trkpt lat="45.57319" lon="4.52696">
        <ele>865.8</ele>
        <time>2010-10-21T13:33:34Z</time>
      </trkpt>
      <trkpt lat="45.57318" lon="4.52698">
        <ele>866.29</ele>
        <time>2010-10-21T13:33:35Z</time>
      </trkpt>
      <trkpt lat="45.57313" lon="4.52718">
        <ele>868.21</ele>
        <time>2010-10-21T13:33:42Z</time>
      </trkpt>
      <trkpt lat="45.57306" lon="4.52741">
        <ele>871.57</ele>
        <time>2010-10-21T13:33:50Z</time>
      </trkpt>
      <trkpt lat="45.57303" lon="4.52748">
        <ele>872.53</ele>
        <time>2010-10-21T13:33:53Z</time>
      </trkpt>
      <trkpt lat="45.57299" lon="4.52761">
        <ele>873.98</ele>
        <time>2010-10-21T13:33:57Z</time>
      </trkpt>
      <trkpt lat="45.57296" lon="4.52766">
        <ele>873.98</ele>
        <time>2010-10-21T13:33:59Z</time>
      </trkpt>
      <trkpt lat="45.57295" lon="4.52771">
        <ele>875.9</ele>
        <time>2010-10-21T13:34:01Z</time>
      </trkpt>
      <trkpt lat="45.57285" lon="4.52784">
        <ele>877.82</ele>
        <time>2010-10-21T13:34:07Z</time>
      </trkpt>
      <trkpt lat="45.57284" lon="4.5279">
        <ele>878.78</ele>
        <time>2010-10-21T13:34:09Z</time>
      </trkpt>
      <trkpt lat="45.57281" lon="4.52805">
        <ele>880.22</ele>
        <time>2010-10-21T13:34:14Z</time>
      </trkpt>
      <trkpt lat="45.57277" lon="4.52821">
        <ele>882.15</ele>
        <time>2010-10-21T13:34:18Z</time>
      </trkpt>
      <trkpt lat="45.57271" lon="4.5284">
        <ele>883.59</ele>
        <time>2010-10-21T13:34:24Z</time>
      </trkpt>
      <trkpt lat="45.57264" lon="4.52874">
        <ele>882.63</ele>
        <time>2010-10-21T13:34:34Z</time>
      </trkpt>
      <trkpt lat="45.57264" lon="4.52881">
        <ele>883.11</ele>
        <time>2010-10-21T13:34:37Z</time>
      </trkpt>
      <trkpt lat="45.57262" lon="4.52887">
        <ele>882.63</ele>
        <time>2010-10-21T13:34:45Z</time>
      </trkpt>
      <trkpt lat="45.57263" lon="4.52887">
        <ele>882.15</ele>
        <time>2010-10-21T13:34:59Z</time>
      </trkpt>
      <trkpt lat="45.57264" lon="4.52888">
        <ele>882.63</ele>
        <time>2010-10-21T13:35:07Z</time>
      </trkpt>
      <trkpt lat="45.57273" lon="4.5292">
        <ele>880.71</ele>
        <time>2010-10-21T13:35:16Z</time>
      </trkpt>
      <trkpt lat="45.57278" lon="4.52949">
        <ele>879.74</ele>
        <time>2010-10-21T13:35:24Z</time>
      </trkpt>
      <trkpt lat="45.57281" lon="4.52959">
        <ele>879.74</ele>
        <time>2010-10-21T13:35:27Z</time>
      </trkpt>
      <trkpt lat="45.57283" lon="4.52992">
        <ele>877.34</ele>
        <time>2010-10-21T13:35:35Z</time>
      </trkpt>
      <trkpt lat="45.57286" lon="4.53032">
        <ele>875.42</ele>
        <time>2010-10-21T13:35:44Z</time>
      </trkpt>
      <trkpt lat="45.5729" lon="4.53081">
        <ele>874.94</ele>
        <time>2010-10-21T13:35:54Z</time>
      </trkpt>
      <trkpt lat="45.57291" lon="4.5309">
        <ele>875.9</ele>
        <time>2010-10-21T13:35:56Z</time>
      </trkpt>
      <trkpt lat="45.5729" lon="4.53109">
        <ele>874.94</ele>
        <time>2010-10-21T13:36:01Z</time>
      </trkpt>
      <trkpt lat="45.57289" lon="4.53146">
        <ele>874.46</ele>
        <time>2010-10-21T13:36:10Z</time>
      </trkpt>
      <trkpt lat="45.57287" lon="4.53193">
        <ele>873.98</ele>
        <time>2010-10-21T13:36:20Z</time>
      </trkpt>
      <trkpt lat="45.5729" lon="4.53224">
        <ele>875.42</ele>
        <time>2010-10-21T13:36:27Z</time>
      </trkpt>
      <trkpt lat="45.5729" lon="4.53227">
        <ele>874.46</ele>
        <time>2010-10-21T13:36:48Z</time>
      </trkpt>
      <trkpt lat="45.5729" lon="4.53227">
        <ele>874.94</ele>
        <time>2010-10-21T13:37:10Z</time>
      </trkpt>
      <trkpt lat="45.57289" lon="4.53227">
        <ele>874.94</ele>
        <time>2010-10-21T13:37:24Z</time>
      </trkpt>
      <trkpt lat="45.57289" lon="4.53227">
        <ele>874.94</ele>
        <time>2010-10-21T13:37:33Z</time>
      </trkpt>
      <trkpt lat="45.57285" lon="4.53231">
        <ele>875.42</ele>
        <time>2010-10-21T13:37:41Z</time>
      </trkpt>
      <trkpt lat="45.57284" lon="4.53239">
        <ele>874.94</ele>
        <time>2010-10-21T13:37:49Z</time>
      </trkpt>
      <trkpt lat="45.57285" lon="4.53255">
        <ele>875.42</ele>
        <time>2010-10-21T13:37:58Z</time>
      </trkpt>
      <trkpt lat="45.57284" lon="4.53265">
        <ele>875.42</ele>
        <time>2010-10-21T13:38:02Z</time>
      </trkpt>
      <trkpt lat="45.57284" lon="4.53278">
        <ele>875.42</ele>
        <time>2010-10-21T13:38:07Z</time>
      </trkpt>
      <trkpt lat="45.57279" lon="4.53297">
        <ele>876.38</ele>
        <time>2010-10-21T13:38:14Z</time>
      </trkpt>
      <trkpt lat="45.57277" lon="4.53304">
        <ele>874.94</ele>
        <time>2010-10-21T13:38:17Z</time>
      </trkpt>
      <trkpt lat="45.57272" lon="4.53327">
        <ele>874.94</ele>
        <time>2010-10-21T13:38:24Z</time>
      </trkpt>
      <trkpt lat="45.57271" lon="4.53371">
        <ele>873.98</ele>
        <time>2010-10-21T13:38:36Z</time>
      </trkpt>
      <trkpt lat="45.57274" lon="4.53389">
        <ele>873.98</ele>
        <time>2010-10-21T13:38:41Z</time>
      </trkpt>
      <trkpt lat="45.57276" lon="4.53396">
        <ele>873.5</ele>
        <time>2010-10-21T13:38:43Z</time>
      </trkpt>
      <trkpt lat="45.57281" lon="4.53419">
        <ele>872.53</ele>
        <time>2010-10-21T13:38:50Z</time>
      </trkpt>
      <trkpt lat="45.57282" lon="4.53427">
        <ele>872.53</ele>
        <time>2010-10-21T13:38:53Z</time>
      </trkpt>
      <trkpt lat="45.57282" lon="4.53433">
        <ele>873.01</ele>
        <time>2010-10-21T13:38:55Z</time>
      </trkpt>
      <trkpt lat="45.5729" lon="4.53462">
        <ele>871.09</ele>
        <time>2010-10-21T13:39:04Z</time>
      </trkpt>
      <trkpt lat="45.57301" lon="4.53483">
        <ele>870.61</ele>
        <time>2010-10-21T13:39:12Z</time>
      </trkpt>
      <trkpt lat="45.57303" lon="4.53486">
        <ele>871.57</ele>
        <time>2010-10-21T13:39:13Z</time>
      </trkpt>
      <trkpt lat="45.57313" lon="4.53505">
        <ele>870.61</ele>
        <time>2010-10-21T13:39:19Z</time>
      </trkpt>
      <trkpt lat="45.57324" lon="4.5353">
        <ele>871.09</ele>
        <time>2010-10-21T13:39:27Z</time>
      </trkpt>
      <trkpt lat="45.57327" lon="4.53543">
        <ele>871.09</ele>
        <time>2010-10-21T13:39:31Z</time>
      </trkpt>
      <trkpt lat="45.5733" lon="4.53583">
        <ele>870.61</ele>
        <time>2010-10-21T13:39:42Z</time>
      </trkpt>
      <trkpt lat="45.57335" lon="4.53599">
        <ele>870.61</ele>
        <time>2010-10-21T13:39:47Z</time>
      </trkpt>
      <trkpt lat="45.57345" lon="4.53619">
        <ele>869.65</ele>
        <time>2010-10-21T13:39:54Z</time>
      </trkpt>
      <trkpt lat="45.57346" lon="4.53622">
        <ele>869.65</ele>
        <time>2010-10-21T13:39:55Z</time>
      </trkpt>
      <trkpt lat="45.57353" lon="4.53636">
        <ele>869.17</ele>
        <time>2010-10-21T13:40:00Z</time>
      </trkpt>
      <trkpt lat="45.57361" lon="4.53652">
        <ele>868.21</ele>
        <time>2010-10-21T13:40:05Z</time>
      </trkpt>
      <trkpt lat="45.57375" lon="4.53682">
        <ele>869.17</ele>
        <time>2010-10-21T13:40:15Z</time>
      </trkpt>
      <trkpt lat="45.57377" lon="4.53687">
        <ele>868.21</ele>
        <time>2010-10-21T13:40:17Z</time>
      </trkpt>
      <trkpt lat="45.57395" lon="4.5371">
        <ele>867.73</ele>
        <time>2010-10-21T13:40:26Z</time>
      </trkpt>
      <trkpt lat="45.57415" lon="4.53731">
        <ele>867.25</ele>
        <time>2010-10-21T13:40:36Z</time>
      </trkpt>
      <trkpt lat="45.57425" lon="4.53743">
        <ele>865.8</ele>
        <time>2010-10-21T13:40:40Z</time>
      </trkpt>
      <trkpt lat="45.5743" lon="4.53748">
        <ele>866.29</ele>
        <time>2010-10-21T13:40:42Z</time>
      </trkpt>
      <trkpt lat="45.57431" lon="4.53751">
        <ele>865.32</ele>
        <time>2010-10-21T13:40:43Z</time>
      </trkpt>
      <trkpt lat="45.57433" lon="4.53752">
        <ele>866.77</ele>
        <time>2010-10-21T13:40:44Z</time>
      </trkpt>
      <trkpt lat="45.57435" lon="4.53755">
        <ele>866.77</ele>
        <time>2010-10-21T13:40:45Z</time>
      </trkpt>
      <trkpt lat="45.57438" lon="4.53758">
        <ele>865.8</ele>
        <time>2010-10-21T13:40:46Z</time>
      </trkpt>
      <trkpt lat="45.57439" lon="4.53761">
        <ele>866.29</ele>
        <time>2010-10-21T13:40:47Z</time>
      </trkpt>
      <trkpt lat="45.57441" lon="4.53764">
        <ele>865.8</ele>
        <time>2010-10-21T13:40:48Z</time>
      </trkpt>
      <trkpt lat="45.57443" lon="4.53766">
        <ele>866.29</ele>
        <time>2010-10-21T13:40:49Z</time>
      </trkpt>
      <trkpt lat="45.57444" lon="4.5377">
        <ele>865.32</ele>
        <time>2010-10-21T13:40:50Z</time>
      </trkpt>
      <trkpt lat="45.57447" lon="4.53774">
        <ele>866.77</ele>
        <time>2010-10-21T13:40:51Z</time>
      </trkpt>
      <trkpt lat="45.57448" lon="4.53776">
        <ele>865.32</ele>
        <time>2010-10-21T13:40:52Z</time>
      </trkpt>
      <trkpt lat="45.57451" lon="4.53779">
        <ele>864.84</ele>
        <time>2010-10-21T13:40:53Z</time>
      </trkpt>
      <trkpt lat="45.57454" lon="4.53782">
        <ele>864.36</ele>
        <time>2010-10-21T13:40:54Z</time>
      </trkpt>
      <trkpt lat="45.57455" lon="4.53785">
        <ele>866.29</ele>
        <time>2010-10-21T13:40:55Z</time>
      </trkpt>
      <trkpt lat="45.57457" lon="4.53787">
        <ele>864.36</ele>
        <time>2010-10-21T13:40:56Z</time>
      </trkpt>
      <trkpt lat="45.5746" lon="4.5379">
        <ele>864.84</ele>
        <time>2010-10-21T13:40:57Z</time>
      </trkpt>
      <trkpt lat="45.57477" lon="4.53817">
        <ele>863.4</ele>
        <time>2010-10-21T13:41:06Z</time>
      </trkpt>
      <trkpt lat="45.57484" lon="4.53829">
        <ele>861.48</ele>
        <time>2010-10-21T13:41:10Z</time>
      </trkpt>
      <trkpt lat="45.57486" lon="4.53831">
        <ele>862.92</ele>
        <time>2010-10-21T13:41:11Z</time>
      </trkpt>
      <trkpt lat="45.57488" lon="4.53834">
        <ele>863.4</ele>
        <time>2010-10-21T13:41:12Z</time>
      </trkpt>
      <trkpt lat="45.57489" lon="4.53837">
        <ele>862.44</ele>
        <time>2010-10-21T13:41:13Z</time>
      </trkpt>
      <trkpt lat="45.57491" lon="4.53841">
        <ele>862.92</ele>
        <time>2010-10-21T13:41:14Z</time>
      </trkpt>
      <trkpt lat="45.57492" lon="4.53844">
        <ele>862.44</ele>
        <time>2010-10-21T13:41:15Z</time>
      </trkpt>
      <trkpt lat="45.57493" lon="4.53847">
        <ele>861.96</ele>
        <time>2010-10-21T13:41:16Z</time>
      </trkpt>
      <trkpt lat="45.57495" lon="4.5385">
        <ele>862.92</ele>
        <time>2010-10-21T13:41:17Z</time>
      </trkpt>
      <trkpt lat="45.57496" lon="4.53853">
        <ele>862.92</ele>
        <time>2010-10-21T13:41:18Z</time>
      </trkpt>
      <trkpt lat="45.57498" lon="4.53856">
        <ele>862.44</ele>
        <time>2010-10-21T13:41:19Z</time>
      </trkpt>
      <trkpt lat="45.57501" lon="4.53859">
        <ele>862.44</ele>
        <time>2010-10-21T13:41:20Z</time>
      </trkpt>
      <trkpt lat="45.57504" lon="4.53862">
        <ele>862.44</ele>
        <time>2010-10-21T13:41:21Z</time>
      </trkpt>
      <trkpt lat="45.57507" lon="4.53866">
        <ele>860.52</ele>
        <time>2010-10-21T13:41:22Z</time>
      </trkpt>
      <trkpt lat="45.57513" lon="4.53879">
        <ele>861</ele>
        <time>2010-10-21T13:41:26Z</time>
      </trkpt>
      <trkpt lat="45.57519" lon="4.53893">
        <ele>860.52</ele>
        <time>2010-10-21T13:41:30Z</time>
      </trkpt>
      <trkpt lat="45.57534" lon="4.53924">
        <ele>858.59</ele>
        <time>2010-10-21T13:41:40Z</time>
      </trkpt>
      <trkpt lat="45.57547" lon="4.53952">
        <ele>859.08</ele>
        <time>2010-10-21T13:41:49Z</time>
      </trkpt>
      <trkpt lat="45.57548" lon="4.53955">
        <ele>855.71</ele>
        <time>2010-10-21T13:41:51Z</time>
      </trkpt>
      <trkpt lat="45.57549" lon="4.53956">
        <ele>859.08</ele>
        <time>2010-10-21T13:41:52Z</time>
      </trkpt>
      <trkpt lat="45.57551" lon="4.53965">
        <ele>857.63</ele>
        <time>2010-10-21T13:41:58Z</time>
      </trkpt>
      <trkpt lat="45.57553" lon="4.53968">
        <ele>859.56</ele>
        <time>2010-10-21T13:42:00Z</time>
      </trkpt>
      <trkpt lat="45.57553" lon="4.5397">
        <ele>857.63</ele>
        <time>2010-10-21T13:42:01Z</time>
      </trkpt>
      <trkpt lat="45.57556" lon="4.53984">
        <ele>856.67</ele>
        <time>2010-10-21T13:42:08Z</time>
      </trkpt>
      <trkpt lat="45.5756" lon="4.53992">
        <ele>858.59</ele>
        <time>2010-10-21T13:42:13Z</time>
      </trkpt>
      <trkpt lat="45.57565" lon="4.54011">
        <ele>855.23</ele>
        <time>2010-10-21T13:42:19Z</time>
      </trkpt>
      <trkpt lat="45.57568" lon="4.54021">
        <ele>856.19</ele>
        <time>2010-10-21T13:42:21Z</time>
      </trkpt>
      <trkpt lat="45.5757" lon="4.54026">
        <ele>856.19</ele>
        <time>2010-10-21T13:42:22Z</time>
      </trkpt>
      <trkpt lat="45.57572" lon="4.5403">
        <ele>855.23</ele>
        <time>2010-10-21T13:42:23Z</time>
      </trkpt>
      <trkpt lat="45.57574" lon="4.54034">
        <ele>855.23</ele>
        <time>2010-10-21T13:42:24Z</time>
      </trkpt>
      <trkpt lat="45.57575" lon="4.54036">
        <ele>855.23</ele>
        <time>2010-10-21T13:42:25Z</time>
      </trkpt>
      <trkpt lat="45.57581" lon="4.54059">
        <ele>855.71</ele>
        <time>2010-10-21T13:42:32Z</time>
      </trkpt>
      <trkpt lat="45.57582" lon="4.54065">
        <ele>855.71</ele>
        <time>2010-10-21T13:42:34Z</time>
      </trkpt>
      <trkpt lat="45.57584" lon="4.54067">
        <ele>855.71</ele>
        <time>2010-10-21T13:42:35Z</time>
      </trkpt>
      <trkpt lat="45.57585" lon="4.5407">
        <ele>855.71</ele>
        <time>2010-10-21T13:42:36Z</time>
      </trkpt>
      <trkpt lat="45.57585" lon="4.54073">
        <ele>855.71</ele>
        <time>2010-10-21T13:42:37Z</time>
      </trkpt>
      <trkpt lat="45.57586" lon="4.54076">
        <ele>855.23</ele>
        <time>2010-10-21T13:42:38Z</time>
      </trkpt>
      <trkpt lat="45.57586" lon="4.54079">
        <ele>855.71</ele>
        <time>2010-10-21T13:42:39Z</time>
      </trkpt>
      <trkpt lat="45.57586" lon="4.54081">
        <ele>855.71</ele>
        <time>2010-10-21T13:42:40Z</time>
      </trkpt>
      <trkpt lat="45.57585" lon="4.54084">
        <ele>855.71</ele>
        <time>2010-10-21T13:42:41Z</time>
      </trkpt>
      <trkpt lat="45.57585" lon="4.54088">
        <ele>856.19</ele>
        <time>2010-10-21T13:42:42Z</time>
      </trkpt>
      <trkpt lat="45.57585" lon="4.5409">
        <ele>855.71</ele>
        <time>2010-10-21T13:42:43Z</time>
      </trkpt>
      <trkpt lat="45.57586" lon="4.54093">
        <ele>856.19</ele>
        <time>2010-10-21T13:42:44Z</time>
      </trkpt>
      <trkpt lat="45.57588" lon="4.54097">
        <ele>855.71</ele>
        <time>2010-10-21T13:42:45Z</time>
      </trkpt>
      <trkpt lat="45.57589" lon="4.541">
        <ele>856.19</ele>
        <time>2010-10-21T13:42:46Z</time>
      </trkpt>
      <trkpt lat="45.5759" lon="4.54104">
        <ele>856.67</ele>
        <time>2010-10-21T13:42:47Z</time>
      </trkpt>
      <trkpt lat="45.57591" lon="4.54108">
        <ele>856.19</ele>
        <time>2010-10-21T13:42:48Z</time>
      </trkpt>
      <trkpt lat="45.57593" lon="4.54111">
        <ele>856.19</ele>
        <time>2010-10-21T13:42:49Z</time>
      </trkpt>
      <trkpt lat="45.57594" lon="4.54115">
        <ele>857.63</ele>
        <time>2010-10-21T13:42:50Z</time>
      </trkpt>
      <trkpt lat="45.57594" lon="4.54119">
        <ele>856.67</ele>
        <time>2010-10-21T13:42:51Z</time>
      </trkpt>
      <trkpt lat="45.57594" lon="4.54122">
        <ele>856.19</ele>
        <time>2010-10-21T13:42:52Z</time>
      </trkpt>
      <trkpt lat="45.57595" lon="4.54126">
        <ele>855.71</ele>
        <time>2010-10-21T13:42:53Z</time>
      </trkpt>
      <trkpt lat="45.57603" lon="4.54146">
        <ele>857.15</ele>
        <time>2010-10-21T13:43:00Z</time>
      </trkpt>
      <trkpt lat="45.57614" lon="4.54165">
        <ele>858.11</ele>
        <time>2010-10-21T13:43:07Z</time>
      </trkpt>
      <trkpt lat="45.57615" lon="4.54167">
        <ele>856.67</ele>
        <time>2010-10-21T13:43:08Z</time>
      </trkpt>
      <trkpt lat="45.5763" lon="4.54186">
        <ele>857.15</ele>
        <time>2010-10-21T13:43:16Z</time>
      </trkpt>
      <trkpt lat="45.57632" lon="4.54188">
        <ele>857.63</ele>
        <time>2010-10-21T13:43:17Z</time>
      </trkpt>
      <trkpt lat="45.57634" lon="4.54191">
        <ele>858.11</ele>
        <time>2010-10-21T13:43:18Z</time>
      </trkpt>
      <trkpt lat="45.57636" lon="4.54193">
        <ele>856.67</ele>
        <time>2010-10-21T13:43:19Z</time>
      </trkpt>
      <trkpt lat="45.57638" lon="4.54196">
        <ele>857.15</ele>
        <time>2010-10-21T13:43:20Z</time>
      </trkpt>
      <trkpt lat="45.57656" lon="4.54213">
        <ele>855.23</ele>
        <time>2010-10-21T13:43:28Z</time>
      </trkpt>
      <trkpt lat="45.5767" lon="4.54224">
        <ele>854.27</ele>
        <time>2010-10-21T13:43:35Z</time>
      </trkpt>
      <trkpt lat="45.57684" lon="4.54233">
        <ele>855.23</ele>
        <time>2010-10-21T13:43:40Z</time>
      </trkpt>
      <trkpt lat="45.57698" lon="4.54251">
        <ele>852.83</ele>
        <time>2010-10-21T13:43:47Z</time>
      </trkpt>
      <trkpt lat="45.57713" lon="4.54266">
        <ele>853.79</ele>
        <time>2010-10-21T13:43:55Z</time>
      </trkpt>
      <trkpt lat="45.57722" lon="4.54274">
        <ele>853.31</ele>
        <time>2010-10-21T13:44:00Z</time>
      </trkpt>
      <trkpt lat="45.57723" lon="4.54275">
        <ele>853.79</ele>
        <time>2010-10-21T13:44:01Z</time>
      </trkpt>
      <trkpt lat="45.57725" lon="4.54278">
        <ele>852.83</ele>
        <time>2010-10-21T13:44:02Z</time>
      </trkpt>
      <trkpt lat="45.57727" lon="4.54281">
        <ele>852.35</ele>
        <time>2010-10-21T13:44:03Z</time>
      </trkpt>
      <trkpt lat="45.57729" lon="4.54283">
        <ele>852.35</ele>
        <time>2010-10-21T13:44:04Z</time>
      </trkpt>
      <trkpt lat="45.57734" lon="4.54288">
        <ele>852.83</ele>
        <time>2010-10-21T13:44:07Z</time>
      </trkpt>
      <trkpt lat="45.57736" lon="4.5429">
        <ele>851.87</ele>
        <time>2010-10-21T13:44:08Z</time>
      </trkpt>
      <trkpt lat="45.57738" lon="4.54292">
        <ele>851.38</ele>
        <time>2010-10-21T13:44:09Z</time>
      </trkpt>
      <trkpt lat="45.57739" lon="4.54293">
        <ele>851.38</ele>
        <time>2010-10-21T13:44:10Z</time>
      </trkpt>
      <trkpt lat="45.57741" lon="4.54295">
        <ele>850.9</ele>
        <time>2010-10-21T13:44:11Z</time>
      </trkpt>
      <trkpt lat="45.57743" lon="4.54296">
        <ele>852.83</ele>
        <time>2010-10-21T13:44:12Z</time>
      </trkpt>
      <trkpt lat="45.57745" lon="4.54298">
        <ele>851.87</ele>
        <time>2010-10-21T13:44:13Z</time>
      </trkpt>
      <trkpt lat="45.57748" lon="4.54301">
        <ele>850.9</ele>
        <time>2010-10-21T13:44:14Z</time>
      </trkpt>
      <trkpt lat="45.57758" lon="4.54315">
        <ele>850.42</ele>
        <time>2010-10-21T13:44:19Z</time>
      </trkpt>
      <trkpt lat="45.5776" lon="4.54315">
        <ele>850.9</ele>
        <time>2010-10-21T13:44:20Z</time>
      </trkpt>
      <trkpt lat="45.57763" lon="4.54316">
        <ele>849.46</ele>
        <time>2010-10-21T13:44:21Z</time>
      </trkpt>
      <trkpt lat="45.57765" lon="4.5432">
        <ele>851.38</ele>
        <time>2010-10-21T13:44:22Z</time>
      </trkpt>
      <trkpt lat="45.57767" lon="4.54322">
        <ele>849.46</ele>
        <time>2010-10-21T13:44:23Z</time>
      </trkpt>
      <trkpt lat="45.57769" lon="4.54325">
        <ele>850.9</ele>
        <time>2010-10-21T13:44:24Z</time>
      </trkpt>
      <trkpt lat="45.57772" lon="4.54327">
        <ele>850.9</ele>
        <time>2010-10-21T13:44:25Z</time>
      </trkpt>
      <trkpt lat="45.57773" lon="4.5433">
        <ele>849.94</ele>
        <time>2010-10-21T13:44:26Z</time>
      </trkpt>
      <trkpt lat="45.57775" lon="4.54332">
        <ele>849.94</ele>
        <time>2010-10-21T13:44:27Z</time>
      </trkpt>
      <trkpt lat="45.57777" lon="4.54334">
        <ele>849.94</ele>
        <time>2010-10-21T13:44:28Z</time>
      </trkpt>
      <trkpt lat="45.57778" lon="4.54336">
        <ele>849.94</ele>
        <time>2010-10-21T13:44:29Z</time>
      </trkpt>
      <trkpt lat="45.5778" lon="4.54338">
        <ele>849.94</ele>
        <time>2010-10-21T13:44:30Z</time>
      </trkpt>
      <trkpt lat="45.57794" lon="4.54352">
        <ele>849.94</ele>
        <time>2010-10-21T13:44:36Z</time>
      </trkpt>
      <trkpt lat="45.57796" lon="4.54352">
        <ele>848.02</ele>
        <time>2010-10-21T13:44:37Z</time>
      </trkpt>
      <trkpt lat="45.57797" lon="4.54354">
        <ele>849.46</ele>
        <time>2010-10-21T13:44:38Z</time>
      </trkpt>
      <trkpt lat="45.57803" lon="4.54358">
        <ele>848.98</ele>
        <time>2010-10-21T13:44:41Z</time>
      </trkpt>
      <trkpt lat="45.57823" lon="4.54382">
        <ele>847.54</ele>
        <time>2010-10-21T13:44:50Z</time>
      </trkpt>
      <trkpt lat="45.57834" lon="4.54393">
        <ele>845.14</ele>
        <time>2010-10-21T13:44:55Z</time>
      </trkpt>
      <trkpt lat="45.57837" lon="4.54396">
        <ele>845.14</ele>
        <time>2010-10-21T13:44:56Z</time>
      </trkpt>
      <trkpt lat="45.5784" lon="4.54398">
        <ele>846.1</ele>
        <time>2010-10-21T13:44:57Z</time>
      </trkpt>
      <trkpt lat="45.57846" lon="4.54405">
        <ele>845.14</ele>
        <time>2010-10-21T13:45:00Z</time>
      </trkpt>
      <trkpt lat="45.57848" lon="4.54408">
        <ele>845.14</ele>
        <time>2010-10-21T13:45:01Z</time>
      </trkpt>
      <trkpt lat="45.57849" lon="4.5441">
        <ele>844.66</ele>
        <time>2010-10-21T13:45:02Z</time>
      </trkpt>
      <trkpt lat="45.57851" lon="4.54413">
        <ele>845.62</ele>
        <time>2010-10-21T13:45:03Z</time>
      </trkpt>
      <trkpt lat="45.57853" lon="4.54416">
        <ele>845.62</ele>
        <time>2010-10-21T13:45:04Z</time>
      </trkpt>
      <trkpt lat="45.57855" lon="4.54418">
        <ele>843.69</ele>
        <time>2010-10-21T13:45:05Z</time>
      </trkpt>
      <trkpt lat="45.57856" lon="4.54421">
        <ele>845.62</ele>
        <time>2010-10-21T13:45:06Z</time>
      </trkpt>
      <trkpt lat="45.57858" lon="4.54425">
        <ele>844.66</ele>
        <time>2010-10-21T13:45:07Z</time>
      </trkpt>
      <trkpt lat="45.57859" lon="4.54429">
        <ele>844.66</ele>
        <time>2010-10-21T13:45:08Z</time>
      </trkpt>
      <trkpt lat="45.5786" lon="4.54433">
        <ele>843.69</ele>
        <time>2010-10-21T13:45:09Z</time>
      </trkpt>
      <trkpt lat="45.57875" lon="4.54467">
        <ele>842.73</ele>
        <time>2010-10-21T13:45:19Z</time>
      </trkpt>
      <trkpt lat="45.57887" lon="4.54498">
        <ele>839.37</ele>
        <time>2010-10-21T13:45:28Z</time>
      </trkpt>
      <trkpt lat="45.57888" lon="4.54507">
        <ele>837.93</ele>
        <time>2010-10-21T13:45:31Z</time>
      </trkpt>
      <trkpt lat="45.57888" lon="4.5451">
        <ele>840.33</ele>
        <time>2010-10-21T13:45:32Z</time>
      </trkpt>
      <trkpt lat="45.57889" lon="4.54514">
        <ele>841.29</ele>
        <time>2010-10-21T13:45:33Z</time>
      </trkpt>
      <trkpt lat="45.5789" lon="4.54518">
        <ele>838.89</ele>
        <time>2010-10-21T13:45:34Z</time>
      </trkpt>
      <trkpt lat="45.5789" lon="4.54521">
        <ele>838.89</ele>
        <time>2010-10-21T13:45:35Z</time>
      </trkpt>
      <trkpt lat="45.5789" lon="4.54524">
        <ele>839.85</ele>
        <time>2010-10-21T13:45:36Z</time>
      </trkpt>
      <trkpt lat="45.57891" lon="4.54527">
        <ele>838.41</ele>
        <time>2010-10-21T13:45:37Z</time>
      </trkpt>
      <trkpt lat="45.57891" lon="4.5453">
        <ele>838.89</ele>
        <time>2010-10-21T13:45:38Z</time>
      </trkpt>
      <trkpt lat="45.57892" lon="4.54533">
        <ele>839.37</ele>
        <time>2010-10-21T13:45:39Z</time>
      </trkpt>
      <trkpt lat="45.57892" lon="4.54536">
        <ele>838.89</ele>
        <time>2010-10-21T13:45:40Z</time>
      </trkpt>
      <trkpt lat="45.57892" lon="4.5454">
        <ele>837.45</ele>
        <time>2010-10-21T13:45:41Z</time>
      </trkpt>
      <trkpt lat="45.57892" lon="4.54543">
        <ele>838.41</ele>
        <time>2010-10-21T13:45:42Z</time>
      </trkpt>
      <trkpt lat="45.57894" lon="4.54549">
        <ele>837.93</ele>
        <time>2010-10-21T13:45:43Z</time>
      </trkpt>
      <trkpt lat="45.57896" lon="4.54553">
        <ele>836.48</ele>
        <time>2010-10-21T13:45:44Z</time>
      </trkpt>
      <trkpt lat="45.57901" lon="4.54566">
        <ele>836.96</ele>
        <time>2010-10-21T13:45:47Z</time>
      </trkpt>
      <trkpt lat="45.57901" lon="4.54569">
        <ele>836.96</ele>
        <time>2010-10-21T13:45:48Z</time>
      </trkpt>
      <trkpt lat="45.579" lon="4.54573">
        <ele>836</ele>
        <time>2010-10-21T13:45:49Z</time>
      </trkpt>
      <trkpt lat="45.579" lon="4.54577">
        <ele>836.48</ele>
        <time>2010-10-21T13:45:50Z</time>
      </trkpt>
      <trkpt lat="45.57901" lon="4.54582">
        <ele>836</ele>
        <time>2010-10-21T13:45:51Z</time>
      </trkpt>
      <trkpt lat="45.57902" lon="4.54588">
        <ele>835.52</ele>
        <time>2010-10-21T13:45:52Z</time>
      </trkpt>
      <trkpt lat="45.57906" lon="4.54602">
        <ele>835.04</ele>
        <time>2010-10-21T13:45:55Z</time>
      </trkpt>
      <trkpt lat="45.57905" lon="4.54606">
        <ele>834.56</ele>
        <time>2010-10-21T13:45:56Z</time>
      </trkpt>
      <trkpt lat="45.57904" lon="4.54609">
        <ele>836</ele>
        <time>2010-10-21T13:45:57Z</time>
      </trkpt>
      <trkpt lat="45.57903" lon="4.54613">
        <ele>835.52</ele>
        <time>2010-10-21T13:45:58Z</time>
      </trkpt>
      <trkpt lat="45.57903" lon="4.54617">
        <ele>835.04</ele>
        <time>2010-10-21T13:45:59Z</time>
      </trkpt>
      <trkpt lat="45.57902" lon="4.54619">
        <ele>835.04</ele>
        <time>2010-10-21T13:46:00Z</time>
      </trkpt>
      <trkpt lat="45.57902" lon="4.54623">
        <ele>835.52</ele>
        <time>2010-10-21T13:46:01Z</time>
      </trkpt>
      <trkpt lat="45.57903" lon="4.54627">
        <ele>833.6</ele>
        <time>2010-10-21T13:46:02Z</time>
      </trkpt>
      <trkpt lat="45.57903" lon="4.54633">
        <ele>835.52</ele>
        <time>2010-10-21T13:46:03Z</time>
      </trkpt>
      <trkpt lat="45.57904" lon="4.54637">
        <ele>835.52</ele>
        <time>2010-10-21T13:46:04Z</time>
      </trkpt>
      <trkpt lat="45.57903" lon="4.54642">
        <ele>834.56</ele>
        <time>2010-10-21T13:46:05Z</time>
      </trkpt>
      <trkpt lat="45.57903" lon="4.54646">
        <ele>834.08</ele>
        <time>2010-10-21T13:46:06Z</time>
      </trkpt>
      <trkpt lat="45.57904" lon="4.54649">
        <ele>834.08</ele>
        <time>2010-10-21T13:46:07Z</time>
      </trkpt>
      <trkpt lat="45.57904" lon="4.54654">
        <ele>833.12</ele>
        <time>2010-10-21T13:46:08Z</time>
      </trkpt>
      <trkpt lat="45.57904" lon="4.54659">
        <ele>834.08</ele>
        <time>2010-10-21T13:46:09Z</time>
      </trkpt>
      <trkpt lat="45.57904" lon="4.54664">
        <ele>834.08</ele>
        <time>2010-10-21T13:46:10Z</time>
      </trkpt>
      <trkpt lat="45.57903" lon="4.54668">
        <ele>833.6</ele>
        <time>2010-10-21T13:46:11Z</time>
      </trkpt>
      <trkpt lat="45.57903" lon="4.54672">
        <ele>834.08</ele>
        <time>2010-10-21T13:46:12Z</time>
      </trkpt>
      <trkpt lat="45.57901" lon="4.54698">
        <ele>833.6</ele>
        <time>2010-10-21T13:46:18Z</time>
      </trkpt>
      <trkpt lat="45.579" lon="4.54703">
        <ele>833.12</ele>
        <time>2010-10-21T13:46:19Z</time>
      </trkpt>
      <trkpt lat="45.57899" lon="4.54707">
        <ele>832.16</ele>
        <time>2010-10-21T13:46:20Z</time>
      </trkpt>
      <trkpt lat="45.57898" lon="4.54711">
        <ele>832.64</ele>
        <time>2010-10-21T13:46:21Z</time>
      </trkpt>
      <trkpt lat="45.57898" lon="4.54715">
        <ele>833.6</ele>
        <time>2010-10-21T13:46:22Z</time>
      </trkpt>
      <trkpt lat="45.57897" lon="4.54718">
        <ele>832.16</ele>
        <time>2010-10-21T13:46:23Z</time>
      </trkpt>
      <trkpt lat="45.57897" lon="4.54721">
        <ele>832.16</ele>
        <time>2010-10-21T13:46:24Z</time>
      </trkpt>
      <trkpt lat="45.57898" lon="4.54723">
        <ele>831.68</ele>
        <time>2010-10-21T13:46:25Z</time>
      </trkpt>
      <trkpt lat="45.57896" lon="4.54726">
        <ele>833.12</ele>
        <time>2010-10-21T13:46:26Z</time>
      </trkpt>
      <trkpt lat="45.57894" lon="4.54729">
        <ele>831.68</ele>
        <time>2010-10-21T13:46:27Z</time>
      </trkpt>
      <trkpt lat="45.57893" lon="4.54733">
        <ele>831.2</ele>
        <time>2010-10-21T13:46:28Z</time>
      </trkpt>
      <trkpt lat="45.57893" lon="4.54736">
        <ele>831.2</ele>
        <time>2010-10-21T13:46:29Z</time>
      </trkpt>
      <trkpt lat="45.57894" lon="4.5474">
        <ele>832.16</ele>
        <time>2010-10-21T13:46:30Z</time>
      </trkpt>
      <trkpt lat="45.57896" lon="4.54745">
        <ele>830.72</ele>
        <time>2010-10-21T13:46:31Z</time>
      </trkpt>
      <trkpt lat="45.57897" lon="4.54749">
        <ele>830.24</ele>
        <time>2010-10-21T13:46:32Z</time>
      </trkpt>
      <trkpt lat="45.57898" lon="4.54754">
        <ele>831.68</ele>
        <time>2010-10-21T13:46:33Z</time>
      </trkpt>
      <trkpt lat="45.57898" lon="4.54759">
        <ele>830.72</ele>
        <time>2010-10-21T13:46:34Z</time>
      </trkpt>
      <trkpt lat="45.57898" lon="4.54764">
        <ele>830.72</ele>
        <time>2010-10-21T13:46:35Z</time>
      </trkpt>
      <trkpt lat="45.57898" lon="4.54769">
        <ele>830.24</ele>
        <time>2010-10-21T13:46:36Z</time>
      </trkpt>
      <trkpt lat="45.57897" lon="4.54774">
        <ele>830.72</ele>
        <time>2010-10-21T13:46:37Z</time>
      </trkpt>
      <trkpt lat="45.57897" lon="4.54778">
        <ele>829.27</ele>
        <time>2010-10-21T13:46:38Z</time>
      </trkpt>
      <trkpt lat="45.57897" lon="4.54783">
        <ele>829.76</ele>
        <time>2010-10-21T13:46:39Z</time>
      </trkpt>
      <trkpt lat="45.57896" lon="4.54788">
        <ele>828.79</ele>
        <time>2010-10-21T13:46:40Z</time>
      </trkpt>
      <trkpt lat="45.57895" lon="4.54792">
        <ele>829.27</ele>
        <time>2010-10-21T13:46:41Z</time>
      </trkpt>
      <trkpt lat="45.57895" lon="4.54796">
        <ele>829.76</ele>
        <time>2010-10-21T13:46:42Z</time>
      </trkpt>
      <trkpt lat="45.57894" lon="4.54799">
        <ele>829.76</ele>
        <time>2010-10-21T13:46:43Z</time>
      </trkpt>
      <trkpt lat="45.57893" lon="4.54802">
        <ele>828.31</ele>
        <time>2010-10-21T13:46:44Z</time>
      </trkpt>
      <trkpt lat="45.57891" lon="4.54803">
        <ele>829.76</ele>
        <time>2010-10-21T13:46:45Z</time>
      </trkpt>
      <trkpt lat="45.57891" lon="4.54806">
        <ele>829.27</ele>
        <time>2010-10-21T13:46:46Z</time>
      </trkpt>
      <trkpt lat="45.57891" lon="4.5481">
        <ele>828.31</ele>
        <time>2010-10-21T13:46:47Z</time>
      </trkpt>
      <trkpt lat="45.57895" lon="4.54843">
        <ele>827.35</ele>
        <time>2010-10-21T13:46:55Z</time>
      </trkpt>
      <trkpt lat="45.57895" lon="4.54862">
        <ele>827.35</ele>
        <time>2010-10-21T13:46:59Z</time>
      </trkpt>
      <trkpt lat="45.57895" lon="4.54866">
        <ele>825.43</ele>
        <time>2010-10-21T13:47:00Z</time>
      </trkpt>
      <trkpt lat="45.57895" lon="4.54869">
        <ele>826.87</ele>
        <time>2010-10-21T13:47:01Z</time>
      </trkpt>
      <trkpt lat="45.57894" lon="4.54874">
        <ele>826.39</ele>
        <time>2010-10-21T13:47:02Z</time>
      </trkpt>
      <trkpt lat="45.57893" lon="4.54878">
        <ele>824.95</ele>
        <time>2010-10-21T13:47:03Z</time>
      </trkpt>
      <trkpt lat="45.57892" lon="4.54882">
        <ele>824.47</ele>
        <time>2010-10-21T13:47:04Z</time>
      </trkpt>
      <trkpt lat="45.57894" lon="4.54917">
        <ele>823.51</ele>
        <time>2010-10-21T13:47:12Z</time>
      </trkpt>
      <trkpt lat="45.57894" lon="4.54925">
        <ele>822.06</ele>
        <time>2010-10-21T13:47:14Z</time>
      </trkpt>
      <trkpt lat="45.57895" lon="4.54944">
        <ele>823.03</ele>
        <time>2010-10-21T13:47:18Z</time>
      </trkpt>
      <trkpt lat="45.57894" lon="4.54949">
        <ele>821.58</ele>
        <time>2010-10-21T13:47:19Z</time>
      </trkpt>
      <trkpt lat="45.57894" lon="4.54953">
        <ele>821.58</ele>
        <time>2010-10-21T13:47:20Z</time>
      </trkpt>
      <trkpt lat="45.57894" lon="4.54957">
        <ele>822.06</ele>
        <time>2010-10-21T13:47:21Z</time>
      </trkpt>
      <trkpt lat="45.57893" lon="4.54961">
        <ele>822.06</ele>
        <time>2010-10-21T13:47:22Z</time>
      </trkpt>
      <trkpt lat="45.57892" lon="4.54967">
        <ele>821.1</ele>
        <time>2010-10-21T13:47:23Z</time>
      </trkpt>
      <trkpt lat="45.57891" lon="4.54971">
        <ele>821.1</ele>
        <time>2010-10-21T13:47:24Z</time>
      </trkpt>
      <trkpt lat="45.57885" lon="4.55008">
        <ele>819.18</ele>
        <time>2010-10-21T13:47:32Z</time>
      </trkpt>
      <trkpt lat="45.57875" lon="4.55039">
        <ele>820.62</ele>
        <time>2010-10-21T13:47:40Z</time>
      </trkpt>
      <trkpt lat="45.57872" lon="4.55051">
        <ele>819.18</ele>
        <time>2010-10-21T13:47:43Z</time>
      </trkpt>
      <trkpt lat="45.57867" lon="4.55075">
        <ele>817.74</ele>
        <time>2010-10-21T13:47:49Z</time>
      </trkpt>
      <trkpt lat="45.57859" lon="4.55108">
        <ele>817.26</ele>
        <time>2010-10-21T13:47:58Z</time>
      </trkpt>
      <trkpt lat="45.57855" lon="4.55125">
        <ele>817.26</ele>
        <time>2010-10-21T13:48:02Z</time>
      </trkpt>
      <trkpt lat="45.57855" lon="4.55129">
        <ele>815.82</ele>
        <time>2010-10-21T13:48:03Z</time>
      </trkpt>
      <trkpt lat="45.57854" lon="4.55151">
        <ele>815.82</ele>
        <time>2010-10-21T13:48:09Z</time>
      </trkpt>
      <trkpt lat="45.57855" lon="4.55154">
        <ele>816.3</ele>
        <time>2010-10-21T13:48:10Z</time>
      </trkpt>
      <trkpt lat="45.57854" lon="4.55158">
        <ele>816.3</ele>
        <time>2010-10-21T13:48:11Z</time>
      </trkpt>
      <trkpt lat="45.57854" lon="4.55162">
        <ele>816.3</ele>
        <time>2010-10-21T13:48:12Z</time>
      </trkpt>
      <trkpt lat="45.57854" lon="4.55165">
        <ele>816.78</ele>
        <time>2010-10-21T13:48:13Z</time>
      </trkpt>
      <trkpt lat="45.57853" lon="4.55169">
        <ele>817.26</ele>
        <time>2010-10-21T13:48:14Z</time>
      </trkpt>
      <trkpt lat="45.57852" lon="4.55193">
        <ele>816.78</ele>
        <time>2010-10-21T13:48:20Z</time>
      </trkpt>
      <trkpt lat="45.57853" lon="4.55196">
        <ele>815.82</ele>
        <time>2010-10-21T13:48:21Z</time>
      </trkpt>
      <trkpt lat="45.57852" lon="4.55201">
        <ele>816.78</ele>
        <time>2010-10-21T13:48:22Z</time>
      </trkpt>
      <trkpt lat="45.57847" lon="4.55231">
        <ele>816.78</ele>
        <time>2010-10-21T13:48:29Z</time>
      </trkpt>
      <trkpt lat="45.57844" lon="4.5526">
        <ele>816.78</ele>
        <time>2010-10-21T13:48:37Z</time>
      </trkpt>
      <trkpt lat="45.57845" lon="4.55264">
        <ele>816.78</ele>
        <time>2010-10-21T13:48:38Z</time>
      </trkpt>
      <trkpt lat="45.57845" lon="4.55267">
        <ele>816.3</ele>
        <time>2010-10-21T13:48:39Z</time>
      </trkpt>
      <trkpt lat="45.57846" lon="4.55271">
        <ele>816.78</ele>
        <time>2010-10-21T13:48:40Z</time>
      </trkpt>
      <trkpt lat="45.57846" lon="4.55275">
        <ele>816.78</ele>
        <time>2010-10-21T13:48:41Z</time>
      </trkpt>
      <trkpt lat="45.57847" lon="4.55278">
        <ele>816.3</ele>
        <time>2010-10-21T13:48:42Z</time>
      </trkpt>
      <trkpt lat="45.57847" lon="4.55281">
        <ele>815.34</ele>
        <time>2010-10-21T13:48:43Z</time>
      </trkpt>
      <trkpt lat="45.57848" lon="4.55285">
        <ele>815.82</ele>
        <time>2010-10-21T13:48:44Z</time>
      </trkpt>
      <trkpt lat="45.57848" lon="4.55289">
        <ele>815.82</ele>
        <time>2010-10-21T13:48:45Z</time>
      </trkpt>
      <trkpt lat="45.57849" lon="4.55293">
        <ele>815.34</ele>
        <time>2010-10-21T13:48:46Z</time>
      </trkpt>
      <trkpt lat="45.57849" lon="4.55297">
        <ele>815.82</ele>
        <time>2010-10-21T13:48:47Z</time>
      </trkpt>
      <trkpt lat="45.57849" lon="4.553">
        <ele>816.78</ele>
        <time>2010-10-21T13:48:48Z</time>
      </trkpt>
      <trkpt lat="45.57849" lon="4.55303">
        <ele>814.37</ele>
        <time>2010-10-21T13:48:49Z</time>
      </trkpt>
      <trkpt lat="45.5785" lon="4.55307">
        <ele>815.82</ele>
        <time>2010-10-21T13:48:50Z</time>
      </trkpt>
      <trkpt lat="45.57849" lon="4.5531">
        <ele>815.34</ele>
        <time>2010-10-21T13:48:51Z</time>
      </trkpt>
      <trkpt lat="45.57849" lon="4.55314">
        <ele>814.37</ele>
        <time>2010-10-21T13:48:52Z</time>
      </trkpt>
      <trkpt lat="45.5785" lon="4.55318">
        <ele>815.82</ele>
        <time>2010-10-21T13:48:53Z</time>
      </trkpt>
      <trkpt lat="45.57851" lon="4.55322">
        <ele>815.82</ele>
        <time>2010-10-21T13:48:54Z</time>
      </trkpt>
      <trkpt lat="45.57851" lon="4.55326">
        <ele>813.89</ele>
        <time>2010-10-21T13:48:55Z</time>
      </trkpt>
      <trkpt lat="45.57852" lon="4.5533">
        <ele>814.85</ele>
        <time>2010-10-21T13:48:56Z</time>
      </trkpt>
      <trkpt lat="45.57853" lon="4.55334">
        <ele>814.85</ele>
        <time>2010-10-21T13:48:57Z</time>
      </trkpt>
      <trkpt lat="45.57854" lon="4.55338">
        <ele>813.89</ele>
        <time>2010-10-21T13:48:58Z</time>
      </trkpt>
      <trkpt lat="45.57855" lon="4.55343">
        <ele>814.37</ele>
        <time>2010-10-21T13:48:59Z</time>
      </trkpt>
      <trkpt lat="45.57856" lon="4.55347">
        <ele>814.37</ele>
        <time>2010-10-21T13:49:00Z</time>
      </trkpt>
      <trkpt lat="45.57857" lon="4.55351">
        <ele>814.85</ele>
        <time>2010-10-21T13:49:01Z</time>
      </trkpt>
      <trkpt lat="45.57866" lon="4.55382">
        <ele>813.89</ele>
        <time>2010-10-21T13:49:09Z</time>
      </trkpt>
      <trkpt lat="45.57875" lon="4.55405">
        <ele>813.41</ele>
        <time>2010-10-21T13:49:18Z</time>
      </trkpt>
      <trkpt lat="45.57874" lon="4.55408">
        <ele>813.41</ele>
        <time>2010-10-21T13:49:31Z</time>
      </trkpt>
      <trkpt lat="45.57874" lon="4.55408">
        <ele>812.93</ele>
        <time>2010-10-21T13:49:50Z</time>
      </trkpt>
      <trkpt lat="45.57876" lon="4.55414">
        <ele>812.93</ele>
        <time>2010-10-21T13:49:57Z</time>
      </trkpt>
      <trkpt lat="45.57886" lon="4.55429">
        <ele>812.93</ele>
        <time>2010-10-21T13:50:02Z</time>
      </trkpt>
      <trkpt lat="45.57902" lon="4.55456">
        <ele>812.45</ele>
        <time>2010-10-21T13:50:12Z</time>
      </trkpt>
      <trkpt lat="45.57906" lon="4.55482">
        <ele>812.45</ele>
        <time>2010-10-21T13:50:20Z</time>
      </trkpt>
      <trkpt lat="45.57906" lon="4.55499">
        <ele>811.49</ele>
        <time>2010-10-21T13:50:25Z</time>
      </trkpt>
      <trkpt lat="45.5791" lon="4.55516">
        <ele>811.01</ele>
        <time>2010-10-21T13:50:30Z</time>
      </trkpt>
      <trkpt lat="45.57918" lon="4.55551">
        <ele>810.05</ele>
        <time>2010-10-21T13:50:40Z</time>
      </trkpt>
      <trkpt lat="45.57922" lon="4.55576">
        <ele>810.05</ele>
        <time>2010-10-21T13:50:47Z</time>
      </trkpt>
      <trkpt lat="45.57924" lon="4.55587">
        <ele>810.05</ele>
        <time>2010-10-21T13:50:50Z</time>
      </trkpt>
      <trkpt lat="45.57926" lon="4.55598">
        <ele>809.09</ele>
        <time>2010-10-21T13:50:54Z</time>
      </trkpt>
      <trkpt lat="45.57934" lon="4.55629">
        <ele>809.57</ele>
        <time>2010-10-21T13:51:03Z</time>
      </trkpt>
      <trkpt lat="45.57942" lon="4.55662">
        <ele>811.01</ele>
        <time>2010-10-21T13:51:13Z</time>
      </trkpt>
      <trkpt lat="45.5795" lon="4.55684">
        <ele>811.49</ele>
        <time>2010-10-21T13:51:20Z</time>
      </trkpt>
      <trkpt lat="45.57959" lon="4.55716">
        <ele>812.45</ele>
        <time>2010-10-21T13:51:29Z</time>
      </trkpt>
      <trkpt lat="45.57961" lon="4.55725">
        <ele>811.49</ele>
        <time>2010-10-21T13:51:32Z</time>
      </trkpt>
      <trkpt lat="45.57966" lon="4.55746">
        <ele>812.45</ele>
        <time>2010-10-21T13:51:38Z</time>
      </trkpt>
      <trkpt lat="45.5797" lon="4.55762">
        <ele>812.45</ele>
        <time>2010-10-21T13:51:43Z</time>
      </trkpt>
      <trkpt lat="45.57976" lon="4.55777">
        <ele>812.93</ele>
        <time>2010-10-21T13:51:48Z</time>
      </trkpt>
      <trkpt lat="45.57981" lon="4.55802">
        <ele>812.93</ele>
        <time>2010-10-21T13:51:56Z</time>
      </trkpt>
      <trkpt lat="45.57987" lon="4.55834">
        <ele>813.41</ele>
        <time>2010-10-21T13:52:04Z</time>
      </trkpt>
      <trkpt lat="45.57988" lon="4.55845">
        <ele>814.85</ele>
        <time>2010-10-21T13:52:07Z</time>
      </trkpt>
      <trkpt lat="45.57989" lon="4.55859">
        <ele>815.82</ele>
        <time>2010-10-21T13:52:12Z</time>
      </trkpt>
      <trkpt lat="45.58001" lon="4.55891">
        <ele>817.74</ele>
        <time>2010-10-21T13:52:22Z</time>
      </trkpt>
      <trkpt lat="45.58004" lon="4.55896">
        <ele>818.7</ele>
        <time>2010-10-21T13:52:24Z</time>
      </trkpt>
      <trkpt lat="45.58005" lon="4.55897">
        <ele>818.22</ele>
        <time>2010-10-21T13:52:25Z</time>
      </trkpt>
      <trkpt lat="45.58007" lon="4.5591">
        <ele>819.66</ele>
        <time>2010-10-21T13:52:29Z</time>
      </trkpt>
      <trkpt lat="45.58009" lon="4.55926">
        <ele>821.1</ele>
        <time>2010-10-21T13:52:38Z</time>
      </trkpt>
      <trkpt lat="45.58009" lon="4.55931">
        <ele>822.06</ele>
        <time>2010-10-21T13:52:40Z</time>
      </trkpt>
      <trkpt lat="45.58013" lon="4.55947">
        <ele>824.95</ele>
        <time>2010-10-21T13:52:45Z</time>
      </trkpt>
      <trkpt lat="45.58014" lon="4.55949">
        <ele>824.47</ele>
        <time>2010-10-21T13:52:46Z</time>
      </trkpt>
      <trkpt lat="45.5802" lon="4.55971">
        <ele>825.91</ele>
        <time>2010-10-21T13:52:53Z</time>
      </trkpt>
      <trkpt lat="45.5802" lon="4.55985">
        <ele>825.43</ele>
        <time>2010-10-21T13:53:03Z</time>
      </trkpt>
      <trkpt lat="45.5802" lon="4.55985">
        <ele>824.95</ele>
        <time>2010-10-21T13:53:05Z</time>
      </trkpt>
      <trkpt lat="45.58021" lon="4.55992">
        <ele>824.47</ele>
        <time>2010-10-21T13:53:08Z</time>
      </trkpt>
      <trkpt lat="45.58026" lon="4.56001">
        <ele>825.43</ele>
        <time>2010-10-21T13:53:12Z</time>
      </trkpt>
      <trkpt lat="45.58031" lon="4.5602">
        <ele>825.91</ele>
        <time>2010-10-21T13:53:17Z</time>
      </trkpt>
      <trkpt lat="45.58038" lon="4.56043">
        <ele>827.83</ele>
        <time>2010-10-21T13:53:26Z</time>
      </trkpt>
      <trkpt lat="45.58039" lon="4.56051">
        <ele>826.39</ele>
        <time>2010-10-21T13:53:28Z</time>
      </trkpt>
      <trkpt lat="45.58045" lon="4.56071">
        <ele>828.79</ele>
        <time>2010-10-21T13:53:34Z</time>
      </trkpt>
      <trkpt lat="45.58044" lon="4.56093">
        <ele>830.72</ele>
        <time>2010-10-21T13:53:39Z</time>
      </trkpt>
      <trkpt lat="45.58043" lon="4.56102">
        <ele>830.72</ele>
        <time>2010-10-21T13:53:41Z</time>
      </trkpt>
      <trkpt lat="45.5804" lon="4.56119">
        <ele>830.24</ele>
        <time>2010-10-21T13:53:45Z</time>
      </trkpt>
      <trkpt lat="45.58033" lon="4.56131">
        <ele>829.76</ele>
        <time>2010-10-21T13:53:48Z</time>
      </trkpt>
      <trkpt lat="45.58034" lon="4.56136">
        <ele>829.27</ele>
        <time>2010-10-21T13:53:49Z</time>
      </trkpt>
      <trkpt lat="45.58036" lon="4.56141">
        <ele>827.35</ele>
        <time>2010-10-21T13:53:50Z</time>
      </trkpt>
      <trkpt lat="45.58037" lon="4.56144">
        <ele>828.31</ele>
        <time>2010-10-21T13:53:51Z</time>
      </trkpt>
      <trkpt lat="45.58037" lon="4.56148">
        <ele>828.31</ele>
        <time>2010-10-21T13:53:52Z</time>
      </trkpt>
      <trkpt lat="45.58038" lon="4.56152">
        <ele>829.27</ele>
        <time>2010-10-21T13:53:53Z</time>
      </trkpt>
      <trkpt lat="45.58039" lon="4.56156">
        <ele>828.79</ele>
        <time>2010-10-21T13:53:54Z</time>
      </trkpt>
      <trkpt lat="45.58041" lon="4.56159">
        <ele>827.35</ele>
        <time>2010-10-21T13:53:55Z</time>
      </trkpt>
      <trkpt lat="45.58042" lon="4.56163">
        <ele>829.27</ele>
        <time>2010-10-21T13:53:56Z</time>
      </trkpt>
      <trkpt lat="45.58043" lon="4.56167">
        <ele>829.76</ele>
        <time>2010-10-21T13:53:57Z</time>
      </trkpt>
      <trkpt lat="45.58043" lon="4.56171">
        <ele>828.31</ele>
        <time>2010-10-21T13:53:58Z</time>
      </trkpt>
      <trkpt lat="45.58044" lon="4.56175">
        <ele>828.79</ele>
        <time>2010-10-21T13:53:59Z</time>
      </trkpt>
      <trkpt lat="45.58045" lon="4.56179">
        <ele>829.27</ele>
        <time>2010-10-21T13:54:00Z</time>
      </trkpt>
      <trkpt lat="45.58047" lon="4.56183">
        <ele>830.24</ele>
        <time>2010-10-21T13:54:01Z</time>
      </trkpt>
      <trkpt lat="45.5805" lon="4.56187">
        <ele>830.24</ele>
        <time>2010-10-21T13:54:02Z</time>
      </trkpt>
      <trkpt lat="45.58052" lon="4.56191">
        <ele>829.27</ele>
        <time>2010-10-21T13:54:03Z</time>
      </trkpt>
      <trkpt lat="45.58053" lon="4.56194">
        <ele>830.24</ele>
        <time>2010-10-21T13:54:04Z</time>
      </trkpt>
      <trkpt lat="45.58054" lon="4.56198">
        <ele>830.72</ele>
        <time>2010-10-21T13:54:05Z</time>
      </trkpt>
      <trkpt lat="45.58056" lon="4.56201">
        <ele>829.76</ele>
        <time>2010-10-21T13:54:06Z</time>
      </trkpt>
      <trkpt lat="45.58057" lon="4.56205">
        <ele>829.76</ele>
        <time>2010-10-21T13:54:07Z</time>
      </trkpt>
      <trkpt lat="45.58059" lon="4.56208">
        <ele>830.24</ele>
        <time>2010-10-21T13:54:08Z</time>
      </trkpt>
      <trkpt lat="45.5806" lon="4.56211">
        <ele>830.24</ele>
        <time>2010-10-21T13:54:09Z</time>
      </trkpt>
      <trkpt lat="45.58061" lon="4.56213">
        <ele>830.24</ele>
        <time>2010-10-21T13:54:10Z</time>
      </trkpt>
      <trkpt lat="45.58061" lon="4.56217">
        <ele>831.2</ele>
        <time>2010-10-21T13:54:11Z</time>
      </trkpt>
      <trkpt lat="45.58062" lon="4.5622">
        <ele>830.24</ele>
        <time>2010-10-21T13:54:12Z</time>
      </trkpt>
      <trkpt lat="45.58062" lon="4.56224">
        <ele>830.24</ele>
        <time>2010-10-21T13:54:13Z</time>
      </trkpt>
      <trkpt lat="45.58066" lon="4.56234">
        <ele>830.24</ele>
        <time>2010-10-21T13:54:16Z</time>
      </trkpt>
      <trkpt lat="45.58068" lon="4.56237">
        <ele>828.79</ele>
        <time>2010-10-21T13:54:17Z</time>
      </trkpt>
      <trkpt lat="45.5807" lon="4.5624">
        <ele>829.76</ele>
        <time>2010-10-21T13:54:18Z</time>
      </trkpt>
      <trkpt lat="45.58071" lon="4.56244">
        <ele>828.79</ele>
        <time>2010-10-21T13:54:19Z</time>
      </trkpt>
      <trkpt lat="45.58072" lon="4.56247">
        <ele>829.27</ele>
        <time>2010-10-21T13:54:20Z</time>
      </trkpt>
      <trkpt lat="45.58073" lon="4.56251">
        <ele>829.27</ele>
        <time>2010-10-21T13:54:21Z</time>
      </trkpt>
      <trkpt lat="45.58075" lon="4.56255">
        <ele>829.27</ele>
        <time>2010-10-21T13:54:22Z</time>
      </trkpt>
      <trkpt lat="45.58077" lon="4.56258">
        <ele>827.83</ele>
        <time>2010-10-21T13:54:23Z</time>
      </trkpt>
      <trkpt lat="45.5808" lon="4.56262">
        <ele>829.76</ele>
        <time>2010-10-21T13:54:24Z</time>
      </trkpt>
      <trkpt lat="45.58094" lon="4.56295">
        <ele>829.27</ele>
        <time>2010-10-21T13:54:31Z</time>
      </trkpt>
      <trkpt lat="45.581" lon="4.56307">
        <ele>830.72</ele>
        <time>2010-10-21T13:54:34Z</time>
      </trkpt>
      <trkpt lat="45.58102" lon="4.5631">
        <ele>830.24</ele>
        <time>2010-10-21T13:54:35Z</time>
      </trkpt>
      <trkpt lat="45.58104" lon="4.56311">
        <ele>831.2</ele>
        <time>2010-10-21T13:54:36Z</time>
      </trkpt>
      <trkpt lat="45.58105" lon="4.56314">
        <ele>829.76</ele>
        <time>2010-10-21T13:54:37Z</time>
      </trkpt>
      <trkpt lat="45.58107" lon="4.56316">
        <ele>831.2</ele>
        <time>2010-10-21T13:54:38Z</time>
      </trkpt>
      <trkpt lat="45.58108" lon="4.56318">
        <ele>830.72</ele>
        <time>2010-10-21T13:54:39Z</time>
      </trkpt>
      <trkpt lat="45.5811" lon="4.56321">
        <ele>828.79</ele>
        <time>2010-10-21T13:54:40Z</time>
      </trkpt>
      <trkpt lat="45.58112" lon="4.56324">
        <ele>830.72</ele>
        <time>2010-10-21T13:54:41Z</time>
      </trkpt>
      <trkpt lat="45.58114" lon="4.56328">
        <ele>829.76</ele>
        <time>2010-10-21T13:54:42Z</time>
      </trkpt>
      <trkpt lat="45.58115" lon="4.56332">
        <ele>830.72</ele>
        <time>2010-10-21T13:54:43Z</time>
      </trkpt>
      <trkpt lat="45.58115" lon="4.56336">
        <ele>829.27</ele>
        <time>2010-10-21T13:54:44Z</time>
      </trkpt>
      <trkpt lat="45.58116" lon="4.5634">
        <ele>830.24</ele>
        <time>2010-10-21T13:54:45Z</time>
      </trkpt>
      <trkpt lat="45.58117" lon="4.56347">
        <ele>830.24</ele>
        <time>2010-10-21T13:54:46Z</time>
      </trkpt>
      <trkpt lat="45.58129" lon="4.56378">
        <ele>828.79</ele>
        <time>2010-10-21T13:54:55Z</time>
      </trkpt>
      <trkpt lat="45.58141" lon="4.5639">
        <ele>828.31</ele>
        <time>2010-10-21T13:55:01Z</time>
      </trkpt>
      <trkpt lat="45.58143" lon="4.5639">
        <ele>827.35</ele>
        <time>2010-10-21T13:55:02Z</time>
      </trkpt>
      <trkpt lat="45.58145" lon="4.56391">
        <ele>829.27</ele>
        <time>2010-10-21T13:55:03Z</time>
      </trkpt>
      <trkpt lat="45.58147" lon="4.56393">
        <ele>828.79</ele>
        <time>2010-10-21T13:55:04Z</time>
      </trkpt>
      <trkpt lat="45.5815" lon="4.56394">
        <ele>826.87</ele>
        <time>2010-10-21T13:55:05Z</time>
      </trkpt>
      <trkpt lat="45.58153" lon="4.56395">
        <ele>827.35</ele>
        <time>2010-10-21T13:55:06Z</time>
      </trkpt>
      <trkpt lat="45.58156" lon="4.56397">
        <ele>826.39</ele>
        <time>2010-10-21T13:55:07Z</time>
      </trkpt>
      <trkpt lat="45.5817" lon="4.56418">
        <ele>826.39</ele>
        <time>2010-10-21T13:55:15Z</time>
      </trkpt>
      <trkpt lat="45.58192" lon="4.56452">
        <ele>824.47</ele>
        <time>2010-10-21T13:55:24Z</time>
      </trkpt>
      <trkpt lat="45.58214" lon="4.56483">
        <ele>823.99</ele>
        <time>2010-10-21T13:55:33Z</time>
      </trkpt>
      <trkpt lat="45.58221" lon="4.56495">
        <ele>822.55</ele>
        <time>2010-10-21T13:55:36Z</time>
      </trkpt>
      <trkpt lat="45.58232" lon="4.5653">
        <ele>821.58</ele>
        <time>2010-10-21T13:55:44Z</time>
      </trkpt>
      <trkpt lat="45.58248" lon="4.56554">
        <ele>818.7</ele>
        <time>2010-10-21T13:55:51Z</time>
      </trkpt>
      <trkpt lat="45.58252" lon="4.56558">
        <ele>820.14</ele>
        <time>2010-10-21T13:55:52Z</time>
      </trkpt>
      <trkpt lat="45.58255" lon="4.56562">
        <ele>817.74</ele>
        <time>2010-10-21T13:55:53Z</time>
      </trkpt>
      <trkpt lat="45.58267" lon="4.56583">
        <ele>817.74</ele>
        <time>2010-10-21T13:55:59Z</time>
      </trkpt>
      <trkpt lat="45.58273" lon="4.56595">
        <ele>817.26</ele>
        <time>2010-10-21T13:56:02Z</time>
      </trkpt>
      <trkpt lat="45.58277" lon="4.56599">
        <ele>815.82</ele>
        <time>2010-10-21T13:56:03Z</time>
      </trkpt>
      <trkpt lat="45.5828" lon="4.56603">
        <ele>814.85</ele>
        <time>2010-10-21T13:56:04Z</time>
      </trkpt>
      <trkpt lat="45.58284" lon="4.56606">
        <ele>814.37</ele>
        <time>2010-10-21T13:56:05Z</time>
      </trkpt>
      <trkpt lat="45.58287" lon="4.5661">
        <ele>814.37</ele>
        <time>2010-10-21T13:56:06Z</time>
      </trkpt>
      <trkpt lat="45.5829" lon="4.56614">
        <ele>814.85</ele>
        <time>2010-10-21T13:56:07Z</time>
      </trkpt>
      <trkpt lat="45.58292" lon="4.56618">
        <ele>813.89</ele>
        <time>2010-10-21T13:56:08Z</time>
      </trkpt>
      <trkpt lat="45.58295" lon="4.56621">
        <ele>814.37</ele>
        <time>2010-10-21T13:56:09Z</time>
      </trkpt>
      <trkpt lat="45.58297" lon="4.56623">
        <ele>813.89</ele>
        <time>2010-10-21T13:56:10Z</time>
      </trkpt>
      <trkpt lat="45.58299" lon="4.56625">
        <ele>812.93</ele>
        <time>2010-10-21T13:56:11Z</time>
      </trkpt>
      <trkpt lat="45.58302" lon="4.56629">
        <ele>812.93</ele>
        <time>2010-10-21T13:56:12Z</time>
      </trkpt>
      <trkpt lat="45.58305" lon="4.56633">
        <ele>811.49</ele>
        <time>2010-10-21T13:56:13Z</time>
      </trkpt>
      <trkpt lat="45.58308" lon="4.56637">
        <ele>811.49</ele>
        <time>2010-10-21T13:56:14Z</time>
      </trkpt>
      <trkpt lat="45.58312" lon="4.56641">
        <ele>811.97</ele>
        <time>2010-10-21T13:56:15Z</time>
      </trkpt>
      <trkpt lat="45.58315" lon="4.56644">
        <ele>811.01</ele>
        <time>2010-10-21T13:56:16Z</time>
      </trkpt>
      <trkpt lat="45.58317" lon="4.56647">
        <ele>809.09</ele>
        <time>2010-10-21T13:56:17Z</time>
      </trkpt>
      <trkpt lat="45.58321" lon="4.5665">
        <ele>811.01</ele>
        <time>2010-10-21T13:56:18Z</time>
      </trkpt>
      <trkpt lat="45.58332" lon="4.56663">
        <ele>809.09</ele>
        <time>2010-10-21T13:56:23Z</time>
      </trkpt>
      <trkpt lat="45.58347" lon="4.56681">
        <ele>804.28</ele>
        <time>2010-10-21T13:56:30Z</time>
      </trkpt>
      <trkpt lat="45.58349" lon="4.56685">
        <ele>804.28</ele>
        <time>2010-10-21T13:56:31Z</time>
      </trkpt>
      <trkpt lat="45.58356" lon="4.56699">
        <ele>801.4</ele>
        <time>2010-10-21T13:56:33Z</time>
      </trkpt>
      <trkpt lat="45.58359" lon="4.56705">
        <ele>800.44</ele>
        <time>2010-10-21T13:56:34Z</time>
      </trkpt>
      <trkpt lat="45.58363" lon="4.5671">
        <ele>801.4</ele>
        <time>2010-10-21T13:56:35Z</time>
      </trkpt>
      <trkpt lat="45.58369" lon="4.56723">
        <ele>801.88</ele>
        <time>2010-10-21T13:56:37Z</time>
      </trkpt>
      <trkpt lat="45.5837" lon="4.56728">
        <ele>800.92</ele>
        <time>2010-10-21T13:56:38Z</time>
      </trkpt>
      <trkpt lat="45.58372" lon="4.56733">
        <ele>799.95</ele>
        <time>2010-10-21T13:56:39Z</time>
      </trkpt>
      <trkpt lat="45.58376" lon="4.56753">
        <ele>800.92</ele>
        <time>2010-10-21T13:56:42Z</time>
      </trkpt>
      <trkpt lat="45.58376" lon="4.5676">
        <ele>800.44</ele>
        <time>2010-10-21T13:56:43Z</time>
      </trkpt>
      <trkpt lat="45.58375" lon="4.56766">
        <ele>800.44</ele>
        <time>2010-10-21T13:56:44Z</time>
      </trkpt>
      <trkpt lat="45.58374" lon="4.56772">
        <ele>799.95</ele>
        <time>2010-10-21T13:56:45Z</time>
      </trkpt>
      <trkpt lat="45.58373" lon="4.56777">
        <ele>800.92</ele>
        <time>2010-10-21T13:56:46Z</time>
      </trkpt>
      <trkpt lat="45.58371" lon="4.56782">
        <ele>800.92</ele>
        <time>2010-10-21T13:56:47Z</time>
      </trkpt>
      <trkpt lat="45.5837" lon="4.56787">
        <ele>800.44</ele>
        <time>2010-10-21T13:56:48Z</time>
      </trkpt>
      <trkpt lat="45.58368" lon="4.56792">
        <ele>800.92</ele>
        <time>2010-10-21T13:56:49Z</time>
      </trkpt>
      <trkpt lat="45.58367" lon="4.56797">
        <ele>800.44</ele>
        <time>2010-10-21T13:56:50Z</time>
      </trkpt>
      <trkpt lat="45.58366" lon="4.56801">
        <ele>800.92</ele>
        <time>2010-10-21T13:56:51Z</time>
      </trkpt>
      <trkpt lat="45.58364" lon="4.56806">
        <ele>800.44</ele>
        <time>2010-10-21T13:56:52Z</time>
      </trkpt>
      <trkpt lat="45.58363" lon="4.5681">
        <ele>800.44</ele>
        <time>2010-10-21T13:56:53Z</time>
      </trkpt>
      <trkpt lat="45.58363" lon="4.56815">
        <ele>800.44</ele>
        <time>2010-10-21T13:56:54Z</time>
      </trkpt>
      <trkpt lat="45.58363" lon="4.56819">
        <ele>800.92</ele>
        <time>2010-10-21T13:56:55Z</time>
      </trkpt>
      <trkpt lat="45.58362" lon="4.56837">
        <ele>798.99</ele>
        <time>2010-10-21T13:57:05Z</time>
      </trkpt>
      <trkpt lat="45.58364" lon="4.5684">
        <ele>799.47</ele>
        <time>2010-10-21T13:57:17Z</time>
      </trkpt>
      <trkpt lat="45.58365" lon="4.56844">
        <ele>799.47</ele>
        <time>2010-10-21T13:57:26Z</time>
      </trkpt>
      <trkpt lat="45.58368" lon="4.56847">
        <ele>799.47</ele>
        <time>2010-10-21T13:57:36Z</time>
      </trkpt>
      <trkpt lat="45.5837" lon="4.56849">
        <ele>798.99</ele>
        <time>2010-10-21T13:57:37Z</time>
      </trkpt>
      <trkpt lat="45.58372" lon="4.56851">
        <ele>799.47</ele>
        <time>2010-10-21T13:57:38Z</time>
      </trkpt>
      <trkpt lat="45.58374" lon="4.56853">
        <ele>799.95</ele>
        <time>2010-10-21T13:57:39Z</time>
      </trkpt>
      <trkpt lat="45.58377" lon="4.56855">
        <ele>799.95</ele>
        <time>2010-10-21T13:57:40Z</time>
      </trkpt>
      <trkpt lat="45.58379" lon="4.56857">
        <ele>797.55</ele>
        <time>2010-10-21T13:57:41Z</time>
      </trkpt>
      <trkpt lat="45.58381" lon="4.56858">
        <ele>800.44</ele>
        <time>2010-10-21T13:57:42Z</time>
      </trkpt>
      <trkpt lat="45.58384" lon="4.5686">
        <ele>800.44</ele>
        <time>2010-10-21T13:57:43Z</time>
      </trkpt>
      <trkpt lat="45.58386" lon="4.56861">
        <ele>799.95</ele>
        <time>2010-10-21T13:57:44Z</time>
      </trkpt>
      <trkpt lat="45.58389" lon="4.56862">
        <ele>800.44</ele>
        <time>2010-10-21T13:57:45Z</time>
      </trkpt>
      <trkpt lat="45.58391" lon="4.56863">
        <ele>799.47</ele>
        <time>2010-10-21T13:57:46Z</time>
      </trkpt>
      <trkpt lat="45.58393" lon="4.56864">
        <ele>800.44</ele>
        <time>2010-10-21T13:57:47Z</time>
      </trkpt>
      <trkpt lat="45.58395" lon="4.56866">
        <ele>800.92</ele>
        <time>2010-10-21T13:57:48Z</time>
      </trkpt>
      <trkpt lat="45.58398" lon="4.56868">
        <ele>800.44</ele>
        <time>2010-10-21T13:57:49Z</time>
      </trkpt>
      <trkpt lat="45.58408" lon="4.56875">
        <ele>800.92</ele>
        <time>2010-10-21T13:57:53Z</time>
      </trkpt>
      <trkpt lat="45.58409" lon="4.56877">
        <ele>801.4</ele>
        <time>2010-10-21T13:57:54Z</time>
      </trkpt>
      <trkpt lat="45.58411" lon="4.56879">
        <ele>800.92</ele>
        <time>2010-10-21T13:57:55Z</time>
      </trkpt>
      <trkpt lat="45.5843" lon="4.56898">
        <ele>803.32</ele>
        <time>2010-10-21T13:58:05Z</time>
      </trkpt>
      <trkpt lat="45.58432" lon="4.569">
        <ele>802.36</ele>
        <time>2010-10-21T13:58:06Z</time>
      </trkpt>
      <trkpt lat="45.58434" lon="4.56902">
        <ele>801.88</ele>
        <time>2010-10-21T13:58:07Z</time>
      </trkpt>
      <trkpt lat="45.58436" lon="4.56904">
        <ele>802.36</ele>
        <time>2010-10-21T13:58:08Z</time>
      </trkpt>
      <trkpt lat="45.58437" lon="4.56906">
        <ele>802.36</ele>
        <time>2010-10-21T13:58:09Z</time>
      </trkpt>
      <trkpt lat="45.58459" lon="4.5693">
        <ele>803.32</ele>
        <time>2010-10-21T13:58:19Z</time>
      </trkpt>
      <trkpt lat="45.58466" lon="4.5693">
        <ele>804.76</ele>
        <time>2010-10-21T13:58:22Z</time>
      </trkpt>
      <trkpt lat="45.58485" lon="4.56934">
        <ele>806.68</ele>
        <time>2010-10-21T13:58:30Z</time>
      </trkpt>
      <trkpt lat="45.58499" lon="4.5695">
        <ele>808.13</ele>
        <time>2010-10-21T13:58:37Z</time>
      </trkpt>
      <trkpt lat="45.58507" lon="4.56955">
        <ele>809.09</ele>
        <time>2010-10-21T13:58:40Z</time>
      </trkpt>
      <trkpt lat="45.58509" lon="4.56955">
        <ele>809.57</ele>
        <time>2010-10-21T13:58:41Z</time>
      </trkpt>
      <trkpt lat="45.58511" lon="4.56956">
        <ele>809.57</ele>
        <time>2010-10-21T13:58:42Z</time>
      </trkpt>
      <trkpt lat="45.58513" lon="4.56957">
        <ele>809.57</ele>
        <time>2010-10-21T13:58:43Z</time>
      </trkpt>
      <trkpt lat="45.58515" lon="4.56958">
        <ele>809.57</ele>
        <time>2010-10-21T13:58:44Z</time>
      </trkpt>
      <trkpt lat="45.58517" lon="4.56959">
        <ele>809.57</ele>
        <time>2010-10-21T13:58:45Z</time>
      </trkpt>
      <trkpt lat="45.58519" lon="4.56961">
        <ele>810.05</ele>
        <time>2010-10-21T13:58:46Z</time>
      </trkpt>
      <trkpt lat="45.58522" lon="4.56963">
        <ele>810.05</ele>
        <time>2010-10-21T13:58:47Z</time>
      </trkpt>
      <trkpt lat="45.58525" lon="4.56966">
        <ele>810.53</ele>
        <time>2010-10-21T13:58:48Z</time>
      </trkpt>
      <trkpt lat="45.58527" lon="4.56968">
        <ele>811.01</ele>
        <time>2010-10-21T13:58:49Z</time>
      </trkpt>
      <trkpt lat="45.5853" lon="4.5697">
        <ele>810.53</ele>
        <time>2010-10-21T13:58:50Z</time>
      </trkpt>
      <trkpt lat="45.58532" lon="4.56972">
        <ele>811.01</ele>
        <time>2010-10-21T13:58:51Z</time>
      </trkpt>
      <trkpt lat="45.58535" lon="4.56974">
        <ele>811.49</ele>
        <time>2010-10-21T13:58:52Z</time>
      </trkpt>
      <trkpt lat="45.58557" lon="4.5699">
        <ele>813.89</ele>
        <time>2010-10-21T13:59:02Z</time>
      </trkpt>
      <trkpt lat="45.58562" lon="4.56994">
        <ele>815.34</ele>
        <time>2010-10-21T13:59:06Z</time>
      </trkpt>
      <trkpt lat="45.58562" lon="4.56996">
        <ele>815.82</ele>
        <time>2010-10-21T13:59:07Z</time>
      </trkpt>
      <trkpt lat="45.58562" lon="4.56997">
        <ele>815.82</ele>
        <time>2010-10-21T13:59:08Z</time>
      </trkpt>
      <trkpt lat="45.58563" lon="4.56999">
        <ele>816.78</ele>
        <time>2010-10-21T13:59:09Z</time>
      </trkpt>
      <trkpt lat="45.58564" lon="4.57">
        <ele>816.3</ele>
        <time>2010-10-21T13:59:10Z</time>
      </trkpt>
      <trkpt lat="45.58578" lon="4.57024">
        <ele>817.26</ele>
        <time>2010-10-21T13:59:18Z</time>
      </trkpt>
      <trkpt lat="45.58584" lon="4.57036">
        <ele>817.74</ele>
        <time>2010-10-21T13:59:23Z</time>
      </trkpt>
      <trkpt lat="45.58586" lon="4.57039">
        <ele>818.7</ele>
        <time>2010-10-21T13:59:24Z</time>
      </trkpt>
      <trkpt lat="45.58588" lon="4.57042">
        <ele>818.22</ele>
        <time>2010-10-21T13:59:25Z</time>
      </trkpt>
      <trkpt lat="45.58593" lon="4.57053">
        <ele>819.66</ele>
        <time>2010-10-21T13:59:28Z</time>
      </trkpt>
      <trkpt lat="45.586" lon="4.57075">
        <ele>820.62</ele>
        <time>2010-10-21T13:59:35Z</time>
      </trkpt>
      <trkpt lat="45.58601" lon="4.57077">
        <ele>820.62</ele>
        <time>2010-10-21T13:59:36Z</time>
      </trkpt>
      <trkpt lat="45.58601" lon="4.57079">
        <ele>820.62</ele>
        <time>2010-10-21T13:59:37Z</time>
      </trkpt>
      <trkpt lat="45.58602" lon="4.57082">
        <ele>820.14</ele>
        <time>2010-10-21T13:59:38Z</time>
      </trkpt>
      <trkpt lat="45.58603" lon="4.57084">
        <ele>819.66</ele>
        <time>2010-10-21T13:59:39Z</time>
      </trkpt>
      <trkpt lat="45.58603" lon="4.57086">
        <ele>820.62</ele>
        <time>2010-10-21T13:59:40Z</time>
      </trkpt>
      <trkpt lat="45.58604" lon="4.57088">
        <ele>820.14</ele>
        <time>2010-10-21T13:59:42Z</time>
      </trkpt>
      <trkpt lat="45.58605" lon="4.5709">
        <ele>819.18</ele>
        <time>2010-10-21T13:59:43Z</time>
      </trkpt>
      <trkpt lat="45.58605" lon="4.57093">
        <ele>819.18</ele>
        <time>2010-10-21T13:59:44Z</time>
      </trkpt>
      <trkpt lat="45.58607" lon="4.57096">
        <ele>818.7</ele>
        <time>2010-10-21T13:59:45Z</time>
      </trkpt>
      <trkpt lat="45.58608" lon="4.57099">
        <ele>819.18</ele>
        <time>2010-10-21T13:59:46Z</time>
      </trkpt>
      <trkpt lat="45.5861" lon="4.57102">
        <ele>818.7</ele>
        <time>2010-10-21T13:59:47Z</time>
      </trkpt>
      <trkpt lat="45.58612" lon="4.57106">
        <ele>818.22</ele>
        <time>2010-10-21T13:59:48Z</time>
      </trkpt>
      <trkpt lat="45.58614" lon="4.5711">
        <ele>820.14</ele>
        <time>2010-10-21T13:59:49Z</time>
      </trkpt>
      <trkpt lat="45.58616" lon="4.57114">
        <ele>818.7</ele>
        <time>2010-10-21T13:59:50Z</time>
      </trkpt>
      <trkpt lat="45.58618" lon="4.57118">
        <ele>817.26</ele>
        <time>2010-10-21T13:59:51Z</time>
      </trkpt>
      <trkpt lat="45.5863" lon="4.57135">
        <ele>817.74</ele>
        <time>2010-10-21T13:59:56Z</time>
      </trkpt>
      <trkpt lat="45.58633" lon="4.57139">
        <ele>817.26</ele>
        <time>2010-10-21T13:59:57Z</time>
      </trkpt>
      <trkpt lat="45.58635" lon="4.57142">
        <ele>817.74</ele>
        <time>2010-10-21T13:59:58Z</time>
      </trkpt>
      <trkpt lat="45.58636" lon="4.57144">
        <ele>817.74</ele>
        <time>2010-10-21T13:59:59Z</time>
      </trkpt>
      <trkpt lat="45.58638" lon="4.57146">
        <ele>816.78</ele>
        <time>2010-10-21T14:00:00Z</time>
      </trkpt>
      <trkpt lat="45.58639" lon="4.57148">
        <ele>817.74</ele>
        <time>2010-10-21T14:00:01Z</time>
      </trkpt>
      <trkpt lat="45.58641" lon="4.57151">
        <ele>818.22</ele>
        <time>2010-10-21T14:00:02Z</time>
      </trkpt>
      <trkpt lat="45.58643" lon="4.57154">
        <ele>816.78</ele>
        <time>2010-10-21T14:00:03Z</time>
      </trkpt>
      <trkpt lat="45.58646" lon="4.57158">
        <ele>817.26</ele>
        <time>2010-10-21T14:00:04Z</time>
      </trkpt>
      <trkpt lat="45.58648" lon="4.5716">
        <ele>817.26</ele>
        <time>2010-10-21T14:00:05Z</time>
      </trkpt>
      <trkpt lat="45.58649" lon="4.57162">
        <ele>817.26</ele>
        <time>2010-10-21T14:00:06Z</time>
      </trkpt>
      <trkpt lat="45.58651" lon="4.57164">
        <ele>817.74</ele>
        <time>2010-10-21T14:00:07Z</time>
      </trkpt>
      <trkpt lat="45.58652" lon="4.57167">
        <ele>818.22</ele>
        <time>2010-10-21T14:00:08Z</time>
      </trkpt>
      <trkpt lat="45.58654" lon="4.57169">
        <ele>818.22</ele>
        <time>2010-10-21T14:00:09Z</time>
      </trkpt>
      <trkpt lat="45.58656" lon="4.57172">
        <ele>816.78</ele>
        <time>2010-10-21T14:00:10Z</time>
      </trkpt>
      <trkpt lat="45.58657" lon="4.57175">
        <ele>816.3</ele>
        <time>2010-10-21T14:00:11Z</time>
      </trkpt>
      <trkpt lat="45.58677" lon="4.572">
        <ele>817.74</ele>
        <time>2010-10-21T14:00:19Z</time>
      </trkpt>
      <trkpt lat="45.58679" lon="4.57202">
        <ele>819.18</ele>
        <time>2010-10-21T14:00:20Z</time>
      </trkpt>
      <trkpt lat="45.58684" lon="4.57208">
        <ele>817.74</ele>
        <time>2010-10-21T14:00:23Z</time>
      </trkpt>
      <trkpt lat="45.58686" lon="4.5721">
        <ele>819.18</ele>
        <time>2010-10-21T14:00:24Z</time>
      </trkpt>
      <trkpt lat="45.58688" lon="4.57212">
        <ele>818.22</ele>
        <time>2010-10-21T14:00:25Z</time>
      </trkpt>
      <trkpt lat="45.5869" lon="4.57216">
        <ele>817.26</ele>
        <time>2010-10-21T14:00:26Z</time>
      </trkpt>
      <trkpt lat="45.58693" lon="4.57219">
        <ele>819.18</ele>
        <time>2010-10-21T14:00:27Z</time>
      </trkpt>
      <trkpt lat="45.58695" lon="4.57222">
        <ele>819.66</ele>
        <time>2010-10-21T14:00:28Z</time>
      </trkpt>
      <trkpt lat="45.58718" lon="4.57241">
        <ele>817.74</ele>
        <time>2010-10-21T14:00:36Z</time>
      </trkpt>
      <trkpt lat="45.5872" lon="4.57242">
        <ele>817.74</ele>
        <time>2010-10-21T14:00:37Z</time>
      </trkpt>
      <trkpt lat="45.58723" lon="4.57243">
        <ele>817.74</ele>
        <time>2010-10-21T14:00:38Z</time>
      </trkpt>
      <trkpt lat="45.58726" lon="4.57245">
        <ele>816.78</ele>
        <time>2010-10-21T14:00:39Z</time>
      </trkpt>
      <trkpt lat="45.58729" lon="4.57247">
        <ele>818.22</ele>
        <time>2010-10-21T14:00:40Z</time>
      </trkpt>
      <trkpt lat="45.58733" lon="4.5725">
        <ele>816.78</ele>
        <time>2010-10-21T14:00:41Z</time>
      </trkpt>
      <trkpt lat="45.58736" lon="4.5725">
        <ele>816.3</ele>
        <time>2010-10-21T14:00:42Z</time>
      </trkpt>
      <trkpt lat="45.58739" lon="4.57251">
        <ele>817.26</ele>
        <time>2010-10-21T14:00:43Z</time>
      </trkpt>
      <trkpt lat="45.58742" lon="4.57251">
        <ele>817.74</ele>
        <time>2010-10-21T14:00:44Z</time>
      </trkpt>
      <trkpt lat="45.58745" lon="4.57252">
        <ele>815.34</ele>
        <time>2010-10-21T14:00:45Z</time>
      </trkpt>
      <trkpt lat="45.58748" lon="4.57253">
        <ele>817.26</ele>
        <time>2010-10-21T14:00:46Z</time>
      </trkpt>
      <trkpt lat="45.58751" lon="4.57255">
        <ele>816.3</ele>
        <time>2010-10-21T14:00:47Z</time>
      </trkpt>
      <trkpt lat="45.58755" lon="4.57257">
        <ele>815.34</ele>
        <time>2010-10-21T14:00:48Z</time>
      </trkpt>
      <trkpt lat="45.58759" lon="4.57258">
        <ele>816.3</ele>
        <time>2010-10-21T14:00:49Z</time>
      </trkpt>
      <trkpt lat="45.58762" lon="4.57259">
        <ele>817.26</ele>
        <time>2010-10-21T14:00:50Z</time>
      </trkpt>
      <trkpt lat="45.58765" lon="4.5726">
        <ele>815.82</ele>
        <time>2010-10-21T14:00:51Z</time>
      </trkpt>
      <trkpt lat="45.58775" lon="4.57265">
        <ele>814.37</ele>
        <time>2010-10-21T14:00:55Z</time>
      </trkpt>
      <trkpt lat="45.58777" lon="4.57266">
        <ele>814.85</ele>
        <time>2010-10-21T14:00:56Z</time>
      </trkpt>
      <trkpt lat="45.58778" lon="4.57268">
        <ele>814.37</ele>
        <time>2010-10-21T14:00:57Z</time>
      </trkpt>
      <trkpt lat="45.58785" lon="4.5727">
        <ele>812.93</ele>
        <time>2010-10-21T14:00:59Z</time>
      </trkpt>
      <trkpt lat="45.58793" lon="4.57273">
        <ele>812.93</ele>
        <time>2010-10-21T14:01:02Z</time>
      </trkpt>
      <trkpt lat="45.58795" lon="4.57274">
        <ele>811.97</ele>
        <time>2010-10-21T14:01:03Z</time>
      </trkpt>
      <trkpt lat="45.58796" lon="4.57273">
        <ele>811.97</ele>
        <time>2010-10-21T14:01:04Z</time>
      </trkpt>
      <trkpt lat="45.58798" lon="4.57274">
        <ele>811.01</ele>
        <time>2010-10-21T14:01:07Z</time>
      </trkpt>
      <trkpt lat="45.58807" lon="4.57271">
        <ele>810.53</ele>
        <time>2010-10-21T14:01:10Z</time>
      </trkpt>
      <trkpt lat="45.58811" lon="4.57271">
        <ele>808.61</ele>
        <time>2010-10-21T14:01:11Z</time>
      </trkpt>
      <trkpt lat="45.58813" lon="4.5727">
        <ele>809.09</ele>
        <time>2010-10-21T14:01:12Z</time>
      </trkpt>
      <trkpt lat="45.58817" lon="4.5727">
        <ele>809.09</ele>
        <time>2010-10-21T14:01:13Z</time>
      </trkpt>
      <trkpt lat="45.5882" lon="4.57268">
        <ele>807.64</ele>
        <time>2010-10-21T14:01:14Z</time>
      </trkpt>
      <trkpt lat="45.58828" lon="4.57264">
        <ele>804.28</ele>
        <time>2010-10-21T14:01:17Z</time>
      </trkpt>
      <trkpt lat="45.5884" lon="4.57264">
        <ele>805.24</ele>
        <time>2010-10-21T14:01:21Z</time>
      </trkpt>
      <trkpt lat="45.58849" lon="4.57268">
        <ele>803.8</ele>
        <time>2010-10-21T14:01:24Z</time>
      </trkpt>
      <trkpt lat="45.58855" lon="4.5727">
        <ele>801.88</ele>
        <time>2010-10-21T14:01:27Z</time>
      </trkpt>
      <trkpt lat="45.58858" lon="4.57271">
        <ele>801.88</ele>
        <time>2010-10-21T14:01:28Z</time>
      </trkpt>
      <trkpt lat="45.58861" lon="4.57271">
        <ele>801.88</ele>
        <time>2010-10-21T14:01:29Z</time>
      </trkpt>
      <trkpt lat="45.58863" lon="4.57271">
        <ele>800.92</ele>
        <time>2010-10-21T14:01:30Z</time>
      </trkpt>
      <trkpt lat="45.58866" lon="4.57272">
        <ele>800.92</ele>
        <time>2010-10-21T14:01:31Z</time>
      </trkpt>
      <trkpt lat="45.58869" lon="4.57272">
        <ele>800.44</ele>
        <time>2010-10-21T14:01:32Z</time>
      </trkpt>
      <trkpt lat="45.58871" lon="4.57273">
        <ele>799.95</ele>
        <time>2010-10-21T14:01:33Z</time>
      </trkpt>
      <trkpt lat="45.58874" lon="4.57274">
        <ele>799.95</ele>
        <time>2010-10-21T14:01:34Z</time>
      </trkpt>
      <trkpt lat="45.58877" lon="4.57273">
        <ele>799.47</ele>
        <time>2010-10-21T14:01:35Z</time>
      </trkpt>
      <trkpt lat="45.58879" lon="4.57274">
        <ele>798.99</ele>
        <time>2010-10-21T14:01:36Z</time>
      </trkpt>
      <trkpt lat="45.58881" lon="4.57274">
        <ele>798.99</ele>
        <time>2010-10-21T14:01:37Z</time>
      </trkpt>
      <trkpt lat="45.58886" lon="4.57274">
        <ele>797.55</ele>
        <time>2010-10-21T14:01:41Z</time>
      </trkpt>
      <trkpt lat="45.5889" lon="4.57273">
        <ele>798.03</ele>
        <time>2010-10-21T14:01:43Z</time>
      </trkpt>
      <trkpt lat="45.58891" lon="4.57273">
        <ele>796.11</ele>
        <time>2010-10-21T14:01:44Z</time>
      </trkpt>
      <trkpt lat="45.58894" lon="4.57272">
        <ele>796.59</ele>
        <time>2010-10-21T14:01:45Z</time>
      </trkpt>
      <trkpt lat="45.58896" lon="4.57271">
        <ele>796.59</ele>
        <time>2010-10-21T14:01:46Z</time>
      </trkpt>
      <trkpt lat="45.58898" lon="4.57271">
        <ele>795.63</ele>
        <time>2010-10-21T14:01:47Z</time>
      </trkpt>
      <trkpt lat="45.58901" lon="4.57271">
        <ele>795.15</ele>
        <time>2010-10-21T14:01:48Z</time>
      </trkpt>
      <trkpt lat="45.58903" lon="4.57272">
        <ele>794.19</ele>
        <time>2010-10-21T14:01:49Z</time>
      </trkpt>
      <trkpt lat="45.58906" lon="4.57272">
        <ele>793.71</ele>
        <time>2010-10-21T14:01:50Z</time>
      </trkpt>
      <trkpt lat="45.58909" lon="4.57272">
        <ele>792.74</ele>
        <time>2010-10-21T14:01:51Z</time>
      </trkpt>
      <trkpt lat="45.58911" lon="4.57272">
        <ele>793.71</ele>
        <time>2010-10-21T14:01:52Z</time>
      </trkpt>
      <trkpt lat="45.58913" lon="4.57272">
        <ele>792.74</ele>
        <time>2010-10-21T14:01:53Z</time>
      </trkpt>
      <trkpt lat="45.58921" lon="4.57272">
        <ele>790.34</ele>
        <time>2010-10-21T14:01:56Z</time>
      </trkpt>
      <trkpt lat="45.58924" lon="4.57272">
        <ele>791.78</ele>
        <time>2010-10-21T14:01:57Z</time>
      </trkpt>
      <trkpt lat="45.58927" lon="4.57272">
        <ele>790.82</ele>
        <time>2010-10-21T14:01:58Z</time>
      </trkpt>
      <trkpt lat="45.5893" lon="4.57272">
        <ele>790.34</ele>
        <time>2010-10-21T14:01:59Z</time>
      </trkpt>
      <trkpt lat="45.58933" lon="4.57273">
        <ele>790.34</ele>
        <time>2010-10-21T14:02:00Z</time>
      </trkpt>
      <trkpt lat="45.58936" lon="4.57273">
        <ele>789.86</ele>
        <time>2010-10-21T14:02:01Z</time>
      </trkpt>
      <trkpt lat="45.58939" lon="4.57274">
        <ele>789.38</ele>
        <time>2010-10-21T14:02:02Z</time>
      </trkpt>
      <trkpt lat="45.58943" lon="4.57275">
        <ele>788.9</ele>
        <time>2010-10-21T14:02:03Z</time>
      </trkpt>
      <trkpt lat="45.58946" lon="4.57275">
        <ele>788.42</ele>
        <time>2010-10-21T14:02:04Z</time>
      </trkpt>
      <trkpt lat="45.58949" lon="4.57275">
        <ele>787.94</ele>
        <time>2010-10-21T14:02:05Z</time>
      </trkpt>
      <trkpt lat="45.58951" lon="4.57274">
        <ele>787.46</ele>
        <time>2010-10-21T14:02:06Z</time>
      </trkpt>
      <trkpt lat="45.58954" lon="4.57273">
        <ele>786.98</ele>
        <time>2010-10-21T14:02:07Z</time>
      </trkpt>
      <trkpt lat="45.58957" lon="4.57272">
        <ele>786.5</ele>
        <time>2010-10-21T14:02:08Z</time>
      </trkpt>
      <trkpt lat="45.58967" lon="4.57265">
        <ele>784.57</ele>
        <time>2010-10-21T14:02:12Z</time>
      </trkpt>
      <trkpt lat="45.58983" lon="4.57255">
        <ele>781.21</ele>
        <time>2010-10-21T14:02:19Z</time>
      </trkpt>
      <trkpt lat="45.58998" lon="4.57248">
        <ele>777.84</ele>
        <time>2010-10-21T14:02:25Z</time>
      </trkpt>
      <trkpt lat="45.59017" lon="4.57235">
        <ele>775.44</ele>
        <time>2010-10-21T14:02:33Z</time>
      </trkpt>
      <trkpt lat="45.59039" lon="4.57222">
        <ele>772.08</ele>
        <time>2010-10-21T14:02:40Z</time>
      </trkpt>
      <trkpt lat="45.59053" lon="4.57217">
        <ele>770.63</ele>
        <time>2010-10-21T14:02:44Z</time>
      </trkpt>
      <trkpt lat="45.5906" lon="4.57214">
        <ele>769.19</ele>
        <time>2010-10-21T14:02:46Z</time>
      </trkpt>
      <trkpt lat="45.59063" lon="4.57212">
        <ele>768.23</ele>
        <time>2010-10-21T14:02:47Z</time>
      </trkpt>
      <trkpt lat="45.59065" lon="4.57211">
        <ele>768.23</ele>
        <time>2010-10-21T14:02:48Z</time>
      </trkpt>
      <trkpt lat="45.59067" lon="4.5721">
        <ele>767.75</ele>
        <time>2010-10-21T14:02:49Z</time>
      </trkpt>
      <trkpt lat="45.59081" lon="4.57203">
        <ele>765.83</ele>
        <time>2010-10-21T14:02:54Z</time>
      </trkpt>
      <trkpt lat="45.59083" lon="4.572">
        <ele>764.39</ele>
        <time>2010-10-21T14:02:55Z</time>
      </trkpt>
      <trkpt lat="45.59104" lon="4.57182">
        <ele>760.54</ele>
        <time>2010-10-21T14:03:01Z</time>
      </trkpt>
      <trkpt lat="45.59132" lon="4.57165">
        <ele>759.1</ele>
        <time>2010-10-21T14:03:10Z</time>
      </trkpt>
      <trkpt lat="45.59165" lon="4.57194">
        <ele>756.21</ele>
        <time>2010-10-21T14:03:21Z</time>
      </trkpt>
      <trkpt lat="45.59175" lon="4.57205">
        <ele>756.21</ele>
        <time>2010-10-21T14:03:28Z</time>
      </trkpt>
      <trkpt lat="45.59177" lon="4.57205">
        <ele>754.77</ele>
        <time>2010-10-21T14:03:29Z</time>
      </trkpt>
      <trkpt lat="45.5918" lon="4.57206">
        <ele>756.69</ele>
        <time>2010-10-21T14:03:30Z</time>
      </trkpt>
      <trkpt lat="45.59183" lon="4.57206">
        <ele>754.77</ele>
        <time>2010-10-21T14:03:31Z</time>
      </trkpt>
      <trkpt lat="45.59186" lon="4.57206">
        <ele>755.25</ele>
        <time>2010-10-21T14:03:32Z</time>
      </trkpt>
      <trkpt lat="45.59189" lon="4.57204">
        <ele>754.77</ele>
        <time>2010-10-21T14:03:33Z</time>
      </trkpt>
      <trkpt lat="45.59193" lon="4.57202">
        <ele>752.85</ele>
        <time>2010-10-21T14:03:34Z</time>
      </trkpt>
      <trkpt lat="45.59197" lon="4.572">
        <ele>754.29</ele>
        <time>2010-10-21T14:03:35Z</time>
      </trkpt>
      <trkpt lat="45.59201" lon="4.57198">
        <ele>753.81</ele>
        <time>2010-10-21T14:03:36Z</time>
      </trkpt>
      <trkpt lat="45.59208" lon="4.57195">
        <ele>753.33</ele>
        <time>2010-10-21T14:03:38Z</time>
      </trkpt>
      <trkpt lat="45.59211" lon="4.57193">
        <ele>751.89</ele>
        <time>2010-10-21T14:03:39Z</time>
      </trkpt>
      <trkpt lat="45.59217" lon="4.5719">
        <ele>751.41</ele>
        <time>2010-10-21T14:03:41Z</time>
      </trkpt>
      <trkpt lat="45.59226" lon="4.57184">
        <ele>748.04</ele>
        <time>2010-10-21T14:03:44Z</time>
      </trkpt>
      <trkpt lat="45.59237" lon="4.57178">
        <ele>749</ele>
        <time>2010-10-21T14:03:47Z</time>
      </trkpt>
      <trkpt lat="45.59241" lon="4.57178">
        <ele>749</ele>
        <time>2010-10-21T14:03:48Z</time>
      </trkpt>
      <trkpt lat="45.59244" lon="4.57177">
        <ele>748.04</ele>
        <time>2010-10-21T14:03:49Z</time>
      </trkpt>
      <trkpt lat="45.59247" lon="4.57176">
        <ele>748.52</ele>
        <time>2010-10-21T14:03:50Z</time>
      </trkpt>
      <trkpt lat="45.5925" lon="4.57176">
        <ele>747.08</ele>
        <time>2010-10-21T14:03:51Z</time>
      </trkpt>
      <trkpt lat="45.59253" lon="4.57174">
        <ele>746.6</ele>
        <time>2010-10-21T14:03:52Z</time>
      </trkpt>
      <trkpt lat="45.5927" lon="4.57168">
        <ele>746.12</ele>
        <time>2010-10-21T14:04:03Z</time>
      </trkpt>
      <trkpt lat="45.59272" lon="4.57165">
        <ele>746.12</ele>
        <time>2010-10-21T14:04:12Z</time>
      </trkpt>
      <trkpt lat="45.59272" lon="4.57167">
        <ele>746.6</ele>
        <time>2010-10-21T14:04:44Z</time>
      </trkpt>
      <trkpt lat="45.59274" lon="4.57167">
        <ele>746.6</ele>
        <time>2010-10-21T14:05:01Z</time>
      </trkpt>
      <trkpt lat="45.59277" lon="4.57167">
        <ele>747.56</ele>
        <time>2010-10-21T14:05:02Z</time>
      </trkpt>
      <trkpt lat="45.5928" lon="4.57166">
        <ele>745.16</ele>
        <time>2010-10-21T14:05:03Z</time>
      </trkpt>
      <trkpt lat="45.59283" lon="4.57164">
        <ele>744.68</ele>
        <time>2010-10-21T14:05:04Z</time>
      </trkpt>
      <trkpt lat="45.59285" lon="4.57163">
        <ele>745.64</ele>
        <time>2010-10-21T14:05:05Z</time>
      </trkpt>
      <trkpt lat="45.59288" lon="4.57162">
        <ele>745.16</ele>
        <time>2010-10-21T14:05:06Z</time>
      </trkpt>
      <trkpt lat="45.59291" lon="4.5716">
        <ele>743.72</ele>
        <time>2010-10-21T14:05:07Z</time>
      </trkpt>
      <trkpt lat="45.59294" lon="4.57158">
        <ele>744.68</ele>
        <time>2010-10-21T14:05:08Z</time>
      </trkpt>
      <trkpt lat="45.59296" lon="4.57156">
        <ele>743.72</ele>
        <time>2010-10-21T14:05:09Z</time>
      </trkpt>
      <trkpt lat="45.59298" lon="4.57153">
        <ele>742.76</ele>
        <time>2010-10-21T14:05:10Z</time>
      </trkpt>
      <trkpt lat="45.59299" lon="4.5715">
        <ele>742.76</ele>
        <time>2010-10-21T14:05:11Z</time>
      </trkpt>
      <trkpt lat="45.59301" lon="4.57147">
        <ele>742.76</ele>
        <time>2010-10-21T14:05:12Z</time>
      </trkpt>
      <trkpt lat="45.59303" lon="4.57145">
        <ele>740.83</ele>
        <time>2010-10-21T14:05:13Z</time>
      </trkpt>
      <trkpt lat="45.59304" lon="4.57142">
        <ele>741.79</ele>
        <time>2010-10-21T14:05:14Z</time>
      </trkpt>
      <trkpt lat="45.59306" lon="4.57139">
        <ele>740.83</ele>
        <time>2010-10-21T14:05:15Z</time>
      </trkpt>
      <trkpt lat="45.59308" lon="4.57136">
        <ele>739.39</ele>
        <time>2010-10-21T14:05:16Z</time>
      </trkpt>
      <trkpt lat="45.5931" lon="4.57133">
        <ele>739.87</ele>
        <time>2010-10-21T14:05:17Z</time>
      </trkpt>
      <trkpt lat="45.59314" lon="4.57121">
        <ele>737.95</ele>
        <time>2010-10-21T14:05:21Z</time>
      </trkpt>
      <trkpt lat="45.59314" lon="4.57119">
        <ele>738.91</ele>
        <time>2010-10-21T14:05:22Z</time>
      </trkpt>
      <trkpt lat="45.59315" lon="4.57115">
        <ele>737.95</ele>
        <time>2010-10-21T14:05:23Z</time>
      </trkpt>
      <trkpt lat="45.59316" lon="4.5711">
        <ele>737.95</ele>
        <time>2010-10-21T14:05:24Z</time>
      </trkpt>
      <trkpt lat="45.59317" lon="4.57106">
        <ele>736.99</ele>
        <time>2010-10-21T14:05:25Z</time>
      </trkpt>
      <trkpt lat="45.59317" lon="4.57102">
        <ele>736.03</ele>
        <time>2010-10-21T14:05:26Z</time>
      </trkpt>
      <trkpt lat="45.59318" lon="4.57098">
        <ele>736.99</ele>
        <time>2010-10-21T14:05:27Z</time>
      </trkpt>
      <trkpt lat="45.59319" lon="4.57095">
        <ele>736.99</ele>
        <time>2010-10-21T14:05:28Z</time>
      </trkpt>
      <trkpt lat="45.5932" lon="4.57092">
        <ele>735.55</ele>
        <time>2010-10-21T14:05:29Z</time>
      </trkpt>
      <trkpt lat="45.59321" lon="4.57088">
        <ele>735.07</ele>
        <time>2010-10-21T14:05:30Z</time>
      </trkpt>
      <trkpt lat="45.59323" lon="4.57085">
        <ele>736.03</ele>
        <time>2010-10-21T14:05:31Z</time>
      </trkpt>
      <trkpt lat="45.59325" lon="4.57081">
        <ele>735.07</ele>
        <time>2010-10-21T14:05:32Z</time>
      </trkpt>
      <trkpt lat="45.59327" lon="4.57076">
        <ele>734.58</ele>
        <time>2010-10-21T14:05:33Z</time>
      </trkpt>
      <trkpt lat="45.59329" lon="4.57072">
        <ele>734.1</ele>
        <time>2010-10-21T14:05:34Z</time>
      </trkpt>
      <trkpt lat="45.59331" lon="4.57069">
        <ele>734.1</ele>
        <time>2010-10-21T14:05:35Z</time>
      </trkpt>
      <trkpt lat="45.59333" lon="4.57065">
        <ele>734.58</ele>
        <time>2010-10-21T14:05:36Z</time>
      </trkpt>
      <trkpt lat="45.59339" lon="4.57054">
        <ele>732.66</ele>
        <time>2010-10-21T14:05:39Z</time>
      </trkpt>
      <trkpt lat="45.59347" lon="4.57034">
        <ele>729.3</ele>
        <time>2010-10-21T14:05:45Z</time>
      </trkpt>
      <trkpt lat="45.59352" lon="4.57025">
        <ele>729.78</ele>
        <time>2010-10-21T14:05:48Z</time>
      </trkpt>
      <trkpt lat="45.59353" lon="4.57022">
        <ele>729.78</ele>
        <time>2010-10-21T14:05:49Z</time>
      </trkpt>
      <trkpt lat="45.59354" lon="4.57017">
        <ele>729.3</ele>
        <time>2010-10-21T14:05:50Z</time>
      </trkpt>
      <trkpt lat="45.59356" lon="4.57013">
        <ele>729.3</ele>
        <time>2010-10-21T14:05:51Z</time>
      </trkpt>
      <trkpt lat="45.59358" lon="4.5701">
        <ele>729.78</ele>
        <time>2010-10-21T14:05:52Z</time>
      </trkpt>
      <trkpt lat="45.59358" lon="4.57007">
        <ele>729.78</ele>
        <time>2010-10-21T14:05:53Z</time>
      </trkpt>
      <trkpt lat="45.59363" lon="4.56999">
        <ele>728.34</ele>
        <time>2010-10-21T14:06:01Z</time>
      </trkpt>
      <trkpt lat="45.59363" lon="4.57001">
        <ele>728.82</ele>
        <time>2010-10-21T14:06:12Z</time>
      </trkpt>
      <trkpt lat="45.59363" lon="4.57001">
        <ele>729.3</ele>
        <time>2010-10-21T14:06:44Z</time>
      </trkpt>
      <trkpt lat="45.59364" lon="4.56999">
        <ele>728.34</ele>
        <time>2010-10-21T14:07:01Z</time>
      </trkpt>
      <trkpt lat="45.59368" lon="4.56991">
        <ele>728.34</ele>
        <time>2010-10-21T14:07:09Z</time>
      </trkpt>
      <trkpt lat="45.59371" lon="4.56987">
        <ele>728.34</ele>
        <time>2010-10-21T14:07:13Z</time>
      </trkpt>
      <trkpt lat="45.59371" lon="4.56986">
        <ele>728.34</ele>
        <time>2010-10-21T14:07:14Z</time>
      </trkpt>
      <trkpt lat="45.59374" lon="4.56982">
        <ele>727.86</ele>
        <time>2010-10-21T14:07:17Z</time>
      </trkpt>
      <trkpt lat="45.59374" lon="4.56981">
        <ele>727.37</ele>
        <time>2010-10-21T14:07:18Z</time>
      </trkpt>
      <trkpt lat="45.59375" lon="4.56967">
        <ele>728.34</ele>
        <time>2010-10-21T14:07:30Z</time>
      </trkpt>
      <trkpt lat="45.59377" lon="4.5696">
        <ele>727.86</ele>
        <time>2010-10-21T14:07:37Z</time>
      </trkpt>
      <trkpt lat="45.5938" lon="4.56951">
        <ele>726.89</ele>
        <time>2010-10-21T14:07:42Z</time>
      </trkpt>
      <trkpt lat="45.5938" lon="4.56949">
        <ele>726.89</ele>
        <time>2010-10-21T14:07:43Z</time>
      </trkpt>
      <trkpt lat="45.59381" lon="4.56947">
        <ele>727.37</ele>
        <time>2010-10-21T14:07:44Z</time>
      </trkpt>
      <trkpt lat="45.59381" lon="4.56946">
        <ele>726.89</ele>
        <time>2010-10-21T14:07:45Z</time>
      </trkpt>
      <trkpt lat="45.59382" lon="4.56944">
        <ele>726.41</ele>
        <time>2010-10-21T14:07:46Z</time>
      </trkpt>
      <trkpt lat="45.59386" lon="4.56933">
        <ele>726.89</ele>
        <time>2010-10-21T14:07:51Z</time>
      </trkpt>
      <trkpt lat="45.59386" lon="4.5693">
        <ele>727.37</ele>
        <time>2010-10-21T14:07:52Z</time>
      </trkpt>
      <trkpt lat="45.59386" lon="4.56929">
        <ele>727.86</ele>
        <time>2010-10-21T14:07:53Z</time>
      </trkpt>
      <trkpt lat="45.59387" lon="4.56927">
        <ele>727.86</ele>
        <time>2010-10-21T14:07:54Z</time>
      </trkpt>
      <trkpt lat="45.59387" lon="4.56925">
        <ele>726.89</ele>
        <time>2010-10-21T14:07:55Z</time>
      </trkpt>
      <trkpt lat="45.59388" lon="4.56924">
        <ele>726.41</ele>
        <time>2010-10-21T14:07:56Z</time>
      </trkpt>
      <trkpt lat="45.59389" lon="4.56923">
        <ele>726.41</ele>
        <time>2010-10-21T14:07:57Z</time>
      </trkpt>
      <trkpt lat="45.59389" lon="4.56922">
        <ele>726.89</ele>
        <time>2010-10-21T14:07:58Z</time>
      </trkpt>
      <trkpt lat="45.5939" lon="4.56921">
        <ele>726.41</ele>
        <time>2010-10-21T14:07:59Z</time>
      </trkpt>
      <trkpt lat="45.59391" lon="4.56918">
        <ele>726.41</ele>
        <time>2010-10-21T14:08:00Z</time>
      </trkpt>
      <trkpt lat="45.59392" lon="4.56916">
        <ele>726.41</ele>
        <time>2010-10-21T14:08:01Z</time>
      </trkpt>
      <trkpt lat="45.59393" lon="4.56914">
        <ele>726.41</ele>
        <time>2010-10-21T14:08:03Z</time>
      </trkpt>
      <trkpt lat="45.59394" lon="4.56912">
        <ele>726.41</ele>
        <time>2010-10-21T14:08:04Z</time>
      </trkpt>
      <trkpt lat="45.59394" lon="4.5691">
        <ele>726.41</ele>
        <time>2010-10-21T14:08:05Z</time>
      </trkpt>
      <trkpt lat="45.59394" lon="4.56908">
        <ele>725.45</ele>
        <time>2010-10-21T14:08:06Z</time>
      </trkpt>
      <trkpt lat="45.59395" lon="4.56906">
        <ele>725.93</ele>
        <time>2010-10-21T14:08:07Z</time>
      </trkpt>
      <trkpt lat="45.59395" lon="4.56904">
        <ele>725.93</ele>
        <time>2010-10-21T14:08:08Z</time>
      </trkpt>
      <trkpt lat="45.59395" lon="4.56902">
        <ele>725.93</ele>
        <time>2010-10-21T14:08:09Z</time>
      </trkpt>
      <trkpt lat="45.59396" lon="4.56901">
        <ele>725.45</ele>
        <time>2010-10-21T14:08:10Z</time>
      </trkpt>
      <trkpt lat="45.59397" lon="4.569">
        <ele>725.93</ele>
        <time>2010-10-21T14:08:11Z</time>
      </trkpt>
      <trkpt lat="45.59398" lon="4.56898">
        <ele>725.93</ele>
        <time>2010-10-21T14:08:12Z</time>
      </trkpt>
      <trkpt lat="45.59399" lon="4.56897">
        <ele>725.45</ele>
        <time>2010-10-21T14:08:13Z</time>
      </trkpt>
      <trkpt lat="45.59401" lon="4.56895">
        <ele>725.93</ele>
        <time>2010-10-21T14:08:14Z</time>
      </trkpt>
      <trkpt lat="45.59402" lon="4.56893">
        <ele>724.97</ele>
        <time>2010-10-21T14:08:15Z</time>
      </trkpt>
      <trkpt lat="45.59403" lon="4.56892">
        <ele>725.45</ele>
        <time>2010-10-21T14:08:16Z</time>
      </trkpt>
      <trkpt lat="45.59404" lon="4.5689">
        <ele>725.45</ele>
        <time>2010-10-21T14:08:17Z</time>
      </trkpt>
      <trkpt lat="45.59411" lon="4.56883">
        <ele>724.97</ele>
        <time>2010-10-21T14:08:22Z</time>
      </trkpt>
      <trkpt lat="45.59413" lon="4.56883">
        <ele>724.49</ele>
        <time>2010-10-21T14:08:23Z</time>
      </trkpt>
      <trkpt lat="45.59415" lon="4.56883">
        <ele>724.49</ele>
        <time>2010-10-21T14:08:25Z</time>
      </trkpt>
      <trkpt lat="45.59417" lon="4.56883">
        <ele>724.49</ele>
        <time>2010-10-21T14:08:26Z</time>
      </trkpt>
      <trkpt lat="45.59419" lon="4.56882">
        <ele>724.01</ele>
        <time>2010-10-21T14:08:27Z</time>
      </trkpt>
      <trkpt lat="45.59421" lon="4.56883">
        <ele>724.01</ele>
        <time>2010-10-21T14:08:29Z</time>
      </trkpt>
      <trkpt lat="45.59423" lon="4.56885">
        <ele>723.53</ele>
        <time>2010-10-21T14:08:30Z</time>
      </trkpt>
      <trkpt lat="45.59431" lon="4.5689">
        <ele>723.05</ele>
        <time>2010-10-21T14:08:36Z</time>
      </trkpt>
      <trkpt lat="45.59443" lon="4.56906">
        <ele>722.09</ele>
        <time>2010-10-21T14:08:43Z</time>
      </trkpt>
      <trkpt lat="45.59447" lon="4.56906">
        <ele>721.13</ele>
        <time>2010-10-21T14:08:52Z</time>
      </trkpt>
      <trkpt lat="45.5945" lon="4.56907">
        <ele>720.16</ele>
        <time>2010-10-21T14:08:54Z</time>
      </trkpt>
      <trkpt lat="45.59462" lon="4.56903">
        <ele>716.8</ele>
        <time>2010-10-21T14:09:03Z</time>
      </trkpt>
      <trkpt lat="45.59473" lon="4.56895">
        <ele>714.88</ele>
        <time>2010-10-21T14:09:07Z</time>
      </trkpt>
      <trkpt lat="45.59477" lon="4.56892">
        <ele>713.92</ele>
        <time>2010-10-21T14:09:13Z</time>
      </trkpt>
      <trkpt lat="45.59487" lon="4.56883">
        <ele>711.03</ele>
        <time>2010-10-21T14:09:19Z</time>
      </trkpt>
      <trkpt lat="45.59499" lon="4.56867">
        <ele>708.63</ele>
        <time>2010-10-21T14:09:26Z</time>
      </trkpt>
      <trkpt lat="45.59503" lon="4.56857">
        <ele>707.19</ele>
        <time>2010-10-21T14:09:30Z</time>
      </trkpt>
      <trkpt lat="45.59512" lon="4.5684">
        <ele>704.3</ele>
        <time>2010-10-21T14:09:37Z</time>
      </trkpt>
      <trkpt lat="45.59519" lon="4.5683">
        <ele>703.34</ele>
        <time>2010-10-21T14:09:41Z</time>
      </trkpt>
      <trkpt lat="45.59527" lon="4.56817">
        <ele>700.94</ele>
        <time>2010-10-21T14:09:46Z</time>
      </trkpt>
      <trkpt lat="45.59534" lon="4.56804">
        <ele>698.53</ele>
        <time>2010-10-21T14:09:54Z</time>
      </trkpt>
      <trkpt lat="45.59541" lon="4.5679">
        <ele>696.13</ele>
        <time>2010-10-21T14:09:59Z</time>
      </trkpt>
      <trkpt lat="45.59547" lon="4.56785">
        <ele>696.13</ele>
        <time>2010-10-21T14:10:02Z</time>
      </trkpt>
      <trkpt lat="45.59555" lon="4.56788">
        <ele>695.65</ele>
        <time>2010-10-21T14:10:14Z</time>
      </trkpt>
      <trkpt lat="45.59557" lon="4.56794">
        <ele>695.65</ele>
        <time>2010-10-21T14:10:24Z</time>
      </trkpt>
      <trkpt lat="45.59563" lon="4.56805">
        <ele>694.21</ele>
        <time>2010-10-21T14:10:34Z</time>
      </trkpt>
      <trkpt lat="45.59567" lon="4.56814">
        <ele>694.21</ele>
        <time>2010-10-21T14:10:40Z</time>
      </trkpt>
      <trkpt lat="45.59578" lon="4.5684">
        <ele>693.73</ele>
        <time>2010-10-21T14:10:52Z</time>
      </trkpt>
      <trkpt lat="45.59585" lon="4.56857">
        <ele>694.21</ele>
        <time>2010-10-21T14:10:59Z</time>
      </trkpt>
      <trkpt lat="45.59592" lon="4.56872">
        <ele>693.73</ele>
        <time>2010-10-21T14:11:06Z</time>
      </trkpt>
      <trkpt lat="45.59595" lon="4.56894">
        <ele>693.25</ele>
        <time>2010-10-21T14:11:18Z</time>
      </trkpt>
      <trkpt lat="45.59596" lon="4.5692">
        <ele>693.25</ele>
        <time>2010-10-21T14:11:28Z</time>
      </trkpt>
      <trkpt lat="45.59598" lon="4.56932">
        <ele>693.25</ele>
        <time>2010-10-21T14:11:31Z</time>
      </trkpt>
      <trkpt lat="45.59602" lon="4.56963">
        <ele>693.25</ele>
        <time>2010-10-21T14:11:40Z</time>
      </trkpt>
      <trkpt lat="45.59614" lon="4.56994">
        <ele>693.73</ele>
        <time>2010-10-21T14:11:49Z</time>
      </trkpt>
      <trkpt lat="45.59619" lon="4.57005">
        <ele>693.25</ele>
        <time>2010-10-21T14:11:52Z</time>
      </trkpt>
      <trkpt lat="45.59624" lon="4.57017">
        <ele>693.73</ele>
        <time>2010-10-21T14:11:56Z</time>
      </trkpt>
      <trkpt lat="45.59639" lon="4.57038">
        <ele>693.73</ele>
        <time>2010-10-21T14:12:04Z</time>
      </trkpt>
      <trkpt lat="45.59662" lon="4.57055">
        <ele>694.69</ele>
        <time>2010-10-21T14:12:15Z</time>
      </trkpt>
      <trkpt lat="45.59684" lon="4.57076">
        <ele>695.65</ele>
        <time>2010-10-21T14:12:25Z</time>
      </trkpt>
      <trkpt lat="45.59703" lon="4.5709">
        <ele>696.13</ele>
        <time>2010-10-21T14:12:34Z</time>
      </trkpt>
      <trkpt lat="45.59725" lon="4.57104">
        <ele>696.13</ele>
        <time>2010-10-21T14:12:42Z</time>
      </trkpt>
      <trkpt lat="45.59735" lon="4.57107">
        <ele>695.17</ele>
        <time>2010-10-21T14:12:45Z</time>
      </trkpt>
      <trkpt lat="45.59756" lon="4.57112">
        <ele>694.21</ele>
        <time>2010-10-21T14:12:54Z</time>
      </trkpt>
      <trkpt lat="45.59776" lon="4.57115">
        <ele>694.21</ele>
        <time>2010-10-21T14:13:02Z</time>
      </trkpt>
      <trkpt lat="45.59801" lon="4.57118">
        <ele>695.17</ele>
        <time>2010-10-21T14:13:12Z</time>
      </trkpt>
      <trkpt lat="45.59812" lon="4.57113">
        <ele>694.21</ele>
        <time>2010-10-21T14:13:16Z</time>
      </trkpt>
      <trkpt lat="45.59827" lon="4.57104">
        <ele>695.17</ele>
        <time>2010-10-21T14:13:22Z</time>
      </trkpt>
      <trkpt lat="45.59845" lon="4.57088">
        <ele>696.13</ele>
        <time>2010-10-21T14:13:31Z</time>
      </trkpt>
      <trkpt lat="45.59866" lon="4.57079">
        <ele>696.61</ele>
        <time>2010-10-21T14:13:39Z</time>
      </trkpt>
      <trkpt lat="45.59885" lon="4.57076">
        <ele>696.13</ele>
        <time>2010-10-21T14:13:47Z</time>
      </trkpt>
      <trkpt lat="45.59909" lon="4.57063">
        <ele>698.53</ele>
        <time>2010-10-21T14:13:56Z</time>
      </trkpt>
      <trkpt lat="45.59916" lon="4.57055">
        <ele>697.57</ele>
        <time>2010-10-21T14:13:59Z</time>
      </trkpt>
      <trkpt lat="45.59926" lon="4.57042">
        <ele>698.53</ele>
        <time>2010-10-21T14:14:04Z</time>
      </trkpt>
      <trkpt lat="45.59938" lon="4.57032">
        <ele>699.98</ele>
        <time>2010-10-21T14:14:10Z</time>
      </trkpt>
      <trkpt lat="45.5995" lon="4.57032">
        <ele>700.46</ele>
        <time>2010-10-21T14:14:19Z</time>
      </trkpt>
      <trkpt lat="45.59951" lon="4.5703">
        <ele>701.42</ele>
        <time>2010-10-21T14:14:21Z</time>
      </trkpt>
      <trkpt lat="45.59949" lon="4.5701">
        <ele>699.98</ele>
        <time>2010-10-21T14:14:33Z</time>
      </trkpt>
      <trkpt lat="45.5995" lon="4.57">
        <ele>700.46</ele>
        <time>2010-10-21T14:14:36Z</time>
      </trkpt>
      <trkpt lat="45.59951" lon="4.56989">
        <ele>700.46</ele>
        <time>2010-10-21T14:14:40Z</time>
      </trkpt>
      <trkpt lat="45.5995" lon="4.56973">
        <ele>699.02</ele>
        <time>2010-10-21T14:14:48Z</time>
      </trkpt>
      <trkpt lat="45.5995" lon="4.56962">
        <ele>699.02</ele>
        <time>2010-10-21T14:14:53Z</time>
      </trkpt>
      <trkpt lat="45.59951" lon="4.56953">
        <ele>699.98</ele>
        <time>2010-10-21T14:14:58Z</time>
      </trkpt>
      <trkpt lat="45.59954" lon="4.56947">
        <ele>702.38</ele>
        <time>2010-10-21T14:15:02Z</time>
      </trkpt>
      <trkpt lat="45.59955" lon="4.56945">
        <ele>698.53</ele>
        <time>2010-10-21T14:15:03Z</time>
      </trkpt>
      <trkpt lat="45.59956" lon="4.5694">
        <ele>699.02</ele>
        <time>2010-10-21T14:15:06Z</time>
      </trkpt>
      <trkpt lat="45.59957" lon="4.56936">
        <ele>700.94</ele>
        <time>2010-10-21T14:15:08Z</time>
      </trkpt>
      <trkpt lat="45.59961" lon="4.56925">
        <ele>696.61</ele>
        <time>2010-10-21T14:15:14Z</time>
      </trkpt>
      <trkpt lat="45.59963" lon="4.56918">
        <ele>699.5</ele>
        <time>2010-10-21T14:15:19Z</time>
      </trkpt>
    </trkseg>
  </trk>
</gpx>